<?xml version="1.0" encoding="UTF-8" standalone="no" ?>
<gpx xmlns="http://www.topografix.com/GPX/1/1" xmlns:xsi="http://www.w3.org/2001/XMLSchema-instance" xsi:schemaLocation="http://www.topografix.com/GPX/1/1 http://www.topografix.com/GPX/1/1/gpx.xsd" version="1.1" creator="VisuGPX - https://www.visugpx.com">
  <metadata>
    <name>Moliéres</name>
    <desc><![CDATA[2009-07-14_Moliéres, Dist.169Km 6h36 Asc.1475m.gpx]]></desc>
  </metadata>
  <trk>
    <name><![CDATA[Moliéres]]></name>
    <cmt><![CDATA[Thierry]]></cmt>
    <trkseg>
      <trkpt lat="45.11587" lon="4.96439">
        <ele>208.63400268555</ele>
        <time>2009-07-14T11:10:02Z</time>
      </trkpt>
      <trkpt lat="45.11588" lon="4.96447">
        <ele>207.96099853516</ele>
        <time>2009-07-14T11:10:08Z</time>
      </trkpt>
      <trkpt lat="45.11585" lon="4.96473">
        <ele>207</ele>
        <time>2009-07-14T11:10:15Z</time>
      </trkpt>
      <trkpt lat="45.11582" lon="4.96486">
        <ele>206.57200622559</ele>
        <time>2009-07-14T11:10:23Z</time>
      </trkpt>
      <trkpt lat="45.11604" lon="4.96553">
        <ele>205.99800109863</ele>
        <time>2009-07-14T11:10:36Z</time>
      </trkpt>
      <trkpt lat="45.11628" lon="4.96619">
        <ele>205.85200500488</ele>
        <time>2009-07-14T11:10:45Z</time>
      </trkpt>
      <trkpt lat="45.11642" lon="4.96657">
        <ele>206.10099792481</ele>
        <time>2009-07-14T11:10:50Z</time>
      </trkpt>
      <trkpt lat="45.11662" lon="4.9671">
        <ele>206.75399780273</ele>
        <time>2009-07-14T11:10:57Z</time>
      </trkpt>
      <trkpt lat="45.11699" lon="4.9678">
        <ele>207.75500488281</ele>
        <time>2009-07-14T11:11:07Z</time>
      </trkpt>
      <trkpt lat="45.11728" lon="4.96829">
        <ele>207.72300720215</ele>
        <time>2009-07-14T11:11:14Z</time>
      </trkpt>
      <trkpt lat="45.11749" lon="4.96875">
        <ele>208.05299377441</ele>
        <time>2009-07-14T11:11:20Z</time>
      </trkpt>
      <trkpt lat="45.11816" lon="4.96971">
        <ele>208.1190032959</ele>
        <time>2009-07-14T11:11:34Z</time>
      </trkpt>
      <trkpt lat="45.11874" lon="4.97051">
        <ele>208.75199890137</ele>
        <time>2009-07-14T11:11:45Z</time>
      </trkpt>
      <trkpt lat="45.11882" lon="4.97102">
        <ele>207.12300109863</ele>
        <time>2009-07-14T11:11:50Z</time>
      </trkpt>
      <trkpt lat="45.11878" lon="4.97124">
        <ele>207.11599731445</ele>
        <time>2009-07-14T11:11:52Z</time>
      </trkpt>
      <trkpt lat="45.11878" lon="4.9717">
        <ele>206.07099914551</ele>
        <time>2009-07-14T11:11:56Z</time>
      </trkpt>
      <trkpt lat="45.11918" lon="4.97401">
        <ele>206.69599914551</ele>
        <time>2009-07-14T11:12:16Z</time>
      </trkpt>
      <trkpt lat="45.11954" lon="4.9761">
        <ele>208.39500427246</ele>
        <time>2009-07-14T11:12:36Z</time>
      </trkpt>
      <trkpt lat="45.11983" lon="4.97779">
        <ele>208.60200500488</ele>
        <time>2009-07-14T11:12:52Z</time>
      </trkpt>
      <trkpt lat="45.12" lon="4.97874">
        <ele>209.72799682617</ele>
        <time>2009-07-14T11:13:01Z</time>
      </trkpt>
      <trkpt lat="45.12011" lon="4.97936">
        <ele>210.03999328613</ele>
        <time>2009-07-14T11:13:07Z</time>
      </trkpt>
      <trkpt lat="45.12048" lon="4.98075">
        <ele>211.73500061035</ele>
        <time>2009-07-14T11:13:21Z</time>
      </trkpt>
      <trkpt lat="45.12068" lon="4.9825">
        <ele>212.67100524902</ele>
        <time>2009-07-14T11:13:38Z</time>
      </trkpt>
      <trkpt lat="45.12044" lon="4.98389">
        <ele>213.58200073242</ele>
        <time>2009-07-14T11:13:52Z</time>
      </trkpt>
      <trkpt lat="45.12032" lon="4.98421">
        <ele>213.88400268555</ele>
        <time>2009-07-14T11:13:56Z</time>
      </trkpt>
      <trkpt lat="45.12016" lon="4.98565">
        <ele>213.55499267578</ele>
        <time>2009-07-14T11:14:10Z</time>
      </trkpt>
      <trkpt lat="45.12041" lon="4.98758">
        <ele>213.46800231934</ele>
        <time>2009-07-14T11:14:28Z</time>
      </trkpt>
      <trkpt lat="45.12098" lon="4.98908">
        <ele>214.99600219727</ele>
        <time>2009-07-14T11:14:44Z</time>
      </trkpt>
      <trkpt lat="45.12165" lon="4.99009">
        <ele>217.49099731445</ele>
        <time>2009-07-14T11:14:57Z</time>
      </trkpt>
      <trkpt lat="45.12202" lon="4.99048">
        <ele>219.15800476074</ele>
        <time>2009-07-14T11:15:04Z</time>
      </trkpt>
      <trkpt lat="45.12214" lon="4.99112">
        <ele>218.96000671387</ele>
        <time>2009-07-14T11:15:12Z</time>
      </trkpt>
      <trkpt lat="45.12166" lon="4.99291">
        <ele>216.88999938965</ele>
        <time>2009-07-14T11:15:29Z</time>
      </trkpt>
      <trkpt lat="45.12119" lon="4.99446">
        <ele>217.30700683594</ele>
        <time>2009-07-14T11:15:44Z</time>
      </trkpt>
      <trkpt lat="45.1209" lon="4.99505">
        <ele>219.51499938965</ele>
        <time>2009-07-14T11:15:51Z</time>
      </trkpt>
      <trkpt lat="45.1202" lon="4.99628">
        <ele>218.78799438477</ele>
        <time>2009-07-14T11:16:07Z</time>
      </trkpt>
      <trkpt lat="45.11916" lon="4.99802">
        <ele>220.73699951172</ele>
        <time>2009-07-14T11:16:29Z</time>
      </trkpt>
      <trkpt lat="45.11905" lon="4.99813">
        <ele>221.3809967041</ele>
        <time>2009-07-14T11:16:31Z</time>
      </trkpt>
      <trkpt lat="45.11839" lon="4.99861">
        <ele>225.08999633789</ele>
        <time>2009-07-14T11:16:44Z</time>
      </trkpt>
      <trkpt lat="45.11777" lon="4.99886">
        <ele>229.32000732422</ele>
        <time>2009-07-14T11:16:56Z</time>
      </trkpt>
      <trkpt lat="45.11729" lon="4.99905">
        <ele>232.53500366211</ele>
        <time>2009-07-14T11:17:07Z</time>
      </trkpt>
      <trkpt lat="45.11678" lon="4.9993">
        <ele>235.2619934082</ele>
        <time>2009-07-14T11:17:20Z</time>
      </trkpt>
      <trkpt lat="45.11629" lon="4.99979">
        <ele>238.48399353027</ele>
        <time>2009-07-14T11:17:34Z</time>
      </trkpt>
      <trkpt lat="45.11604" lon="5.00016">
        <ele>240.02799987793</ele>
        <time>2009-07-14T11:17:41Z</time>
      </trkpt>
      <trkpt lat="45.11525" lon="5.00108">
        <ele>240.95399475098</ele>
        <time>2009-07-14T11:17:59Z</time>
      </trkpt>
      <trkpt lat="45.11399" lon="5.00225">
        <ele>241.55900573731</ele>
        <time>2009-07-14T11:18:21Z</time>
      </trkpt>
      <trkpt lat="45.11302" lon="5.0031">
        <ele>243.11000061035</ele>
        <time>2009-07-14T11:18:38Z</time>
      </trkpt>
      <trkpt lat="45.11296" lon="5.00314">
        <ele>243.06799316406</ele>
        <time>2009-07-14T11:18:39Z</time>
      </trkpt>
      <trkpt lat="45.11188" lon="5.00371">
        <ele>248.53199768066</ele>
        <time>2009-07-14T11:18:59Z</time>
      </trkpt>
      <trkpt lat="45.11116" lon="5.00409">
        <ele>251.48500061035</ele>
        <time>2009-07-14T11:19:14Z</time>
      </trkpt>
      <trkpt lat="45.11082" lon="5.00429">
        <ele>253.46899414062</ele>
        <time>2009-07-14T11:19:22Z</time>
      </trkpt>
      <trkpt lat="45.11024" lon="5.00466">
        <ele>257.2200012207</ele>
        <time>2009-07-14T11:19:36Z</time>
      </trkpt>
      <trkpt lat="45.10966" lon="5.00512">
        <ele>258.44400024414</ele>
        <time>2009-07-14T11:19:51Z</time>
      </trkpt>
      <trkpt lat="45.10957" lon="5.00518">
        <ele>258.20401000977</ele>
        <time>2009-07-14T11:19:53Z</time>
      </trkpt>
      <trkpt lat="45.10881" lon="5.00559">
        <ele>257.37298583984</ele>
        <time>2009-07-14T11:20:07Z</time>
      </trkpt>
      <trkpt lat="45.10852" lon="5.00566">
        <ele>256.01098632812</ele>
        <time>2009-07-14T11:20:11Z</time>
      </trkpt>
      <trkpt lat="45.10793" lon="5.00573">
        <ele>252.40800476074</ele>
        <time>2009-07-14T11:20:18Z</time>
      </trkpt>
      <trkpt lat="45.10732" lon="5.00584">
        <ele>247.85800170898</ele>
        <time>2009-07-14T11:20:24Z</time>
      </trkpt>
      <trkpt lat="45.10699" lon="5.00593">
        <ele>247.27200317383</ele>
        <time>2009-07-14T11:20:27Z</time>
      </trkpt>
      <trkpt lat="45.10689" lon="5.00596">
        <ele>247.55099487305</ele>
        <time>2009-07-14T11:20:28Z</time>
      </trkpt>
      <trkpt lat="45.10656" lon="5.0061">
        <ele>246.03300476074</ele>
        <time>2009-07-14T11:20:31Z</time>
      </trkpt>
      <trkpt lat="45.10645" lon="5.00615">
        <ele>244.23399353027</ele>
        <time>2009-07-14T11:20:32Z</time>
      </trkpt>
      <trkpt lat="45.10624" lon="5.00628">
        <ele>242.19500732422</ele>
        <time>2009-07-14T11:20:34Z</time>
      </trkpt>
      <trkpt lat="45.10583" lon="5.00661">
        <ele>239.74899291992</ele>
        <time>2009-07-14T11:20:38Z</time>
      </trkpt>
      <trkpt lat="45.1052" lon="5.00712">
        <ele>237.82400512695</ele>
        <time>2009-07-14T11:20:44Z</time>
      </trkpt>
      <trkpt lat="45.10447" lon="5.00773">
        <ele>234.46099853516</ele>
        <time>2009-07-14T11:20:51Z</time>
      </trkpt>
      <trkpt lat="45.10384" lon="5.00821">
        <ele>236.58799743652</ele>
        <time>2009-07-14T11:20:58Z</time>
      </trkpt>
      <trkpt lat="45.10256" lon="5.00926">
        <ele>238.47799682617</ele>
        <time>2009-07-14T11:21:16Z</time>
      </trkpt>
      <trkpt lat="45.10232" lon="5.00948">
        <ele>239.25100708008</ele>
        <time>2009-07-14T11:21:20Z</time>
      </trkpt>
      <trkpt lat="45.10194" lon="5.00997">
        <ele>239.92199707031</ele>
        <time>2009-07-14T11:21:27Z</time>
      </trkpt>
      <trkpt lat="45.10132" lon="5.01095">
        <ele>240.24699401856</ele>
        <time>2009-07-14T11:21:40Z</time>
      </trkpt>
      <trkpt lat="45.10115" lon="5.01127">
        <ele>241.61199951172</ele>
        <time>2009-07-14T11:21:44Z</time>
      </trkpt>
      <trkpt lat="45.10084" lon="5.01265">
        <ele>241.72500610352</ele>
        <time>2009-07-14T11:21:58Z</time>
      </trkpt>
      <trkpt lat="45.10067" lon="5.01473">
        <ele>240.11099243164</ele>
        <time>2009-07-14T11:22:17Z</time>
      </trkpt>
      <trkpt lat="45.1004" lon="5.01684">
        <ele>240.0299987793</ele>
        <time>2009-07-14T11:22:35Z</time>
      </trkpt>
      <trkpt lat="45.09981" lon="5.01859">
        <ele>241.48399353027</ele>
        <time>2009-07-14T11:22:53Z</time>
      </trkpt>
      <trkpt lat="45.09925" lon="5.02018">
        <ele>245.9880065918</ele>
        <time>2009-07-14T11:23:12Z</time>
      </trkpt>
      <trkpt lat="45.09913" lon="5.02052">
        <ele>246.26100158691</ele>
        <time>2009-07-14T11:23:16Z</time>
      </trkpt>
      <trkpt lat="45.09901" lon="5.02086">
        <ele>247.23100280762</ele>
        <time>2009-07-14T11:23:20Z</time>
      </trkpt>
      <trkpt lat="45.09892" lon="5.02112">
        <ele>248.97300720215</ele>
        <time>2009-07-14T11:23:23Z</time>
      </trkpt>
      <trkpt lat="45.09874" lon="5.02162">
        <ele>252.09899902344</ele>
        <time>2009-07-14T11:23:29Z</time>
      </trkpt>
      <trkpt lat="45.09862" lon="5.02196">
        <ele>254.50300598144</ele>
        <time>2009-07-14T11:23:33Z</time>
      </trkpt>
      <trkpt lat="45.09846" lon="5.02275">
        <ele>258.29098510742</ele>
        <time>2009-07-14T11:23:42Z</time>
      </trkpt>
      <trkpt lat="45.09853" lon="5.02309">
        <ele>259.92401123047</ele>
        <time>2009-07-14T11:23:46Z</time>
      </trkpt>
      <trkpt lat="45.09855" lon="5.02317">
        <ele>259.98699951172</ele>
        <time>2009-07-14T11:23:47Z</time>
      </trkpt>
      <trkpt lat="45.09869" lon="5.02376">
        <ele>261.53100585938</ele>
        <time>2009-07-14T11:23:54Z</time>
      </trkpt>
      <trkpt lat="45.09888" lon="5.02436">
        <ele>261.16101074219</ele>
        <time>2009-07-14T11:24:01Z</time>
      </trkpt>
      <trkpt lat="45.09905" lon="5.02478">
        <ele>259.19299316406</ele>
        <time>2009-07-14T11:24:05Z</time>
      </trkpt>
      <trkpt lat="45.09917" lon="5.02516">
        <ele>257.22601318359</ele>
        <time>2009-07-14T11:24:08Z</time>
      </trkpt>
      <trkpt lat="45.0995" lon="5.02555">
        <ele>254.0059967041</ele>
        <time>2009-07-14T11:24:12Z</time>
      </trkpt>
      <trkpt lat="45.09982" lon="5.02626">
        <ele>249.92399597168</ele>
        <time>2009-07-14T11:24:17Z</time>
      </trkpt>
      <trkpt lat="45.10008" lon="5.02684">
        <ele>246.83500671387</ele>
        <time>2009-07-14T11:24:21Z</time>
      </trkpt>
      <trkpt lat="45.10046" lon="5.02744">
        <ele>242.85099792481</ele>
        <time>2009-07-14T11:24:26Z</time>
      </trkpt>
      <trkpt lat="45.10052" lon="5.02817">
        <ele>238.78399658203</ele>
        <time>2009-07-14T11:24:31Z</time>
      </trkpt>
      <trkpt lat="45.10041" lon="5.02864">
        <ele>238.00199890137</ele>
        <time>2009-07-14T11:24:35Z</time>
      </trkpt>
      <trkpt lat="45.10029" lon="5.02942">
        <ele>234.23399353027</ele>
        <time>2009-07-14T11:24:41Z</time>
      </trkpt>
      <trkpt lat="45.10022" lon="5.02969">
        <ele>233.30400085449</ele>
        <time>2009-07-14T11:24:43Z</time>
      </trkpt>
      <trkpt lat="45.10003" lon="5.03038">
        <ele>230.04899597168</ele>
        <time>2009-07-14T11:24:48Z</time>
      </trkpt>
      <trkpt lat="45.09969" lon="5.03169">
        <ele>227.16600036621</ele>
        <time>2009-07-14T11:24:57Z</time>
      </trkpt>
      <trkpt lat="45.09915" lon="5.03355">
        <ele>220.4049987793</ele>
        <time>2009-07-14T11:25:09Z</time>
      </trkpt>
      <trkpt lat="45.09896" lon="5.03417">
        <ele>220.34599304199</ele>
        <time>2009-07-14T11:25:13Z</time>
      </trkpt>
      <trkpt lat="45.09863" lon="5.03479">
        <ele>218.58000183106</ele>
        <time>2009-07-14T11:25:18Z</time>
      </trkpt>
      <trkpt lat="45.09795" lon="5.03587">
        <ele>221.64900207519</ele>
        <time>2009-07-14T11:25:29Z</time>
      </trkpt>
      <trkpt lat="45.09789" lon="5.03658">
        <ele>221.88400268555</ele>
        <time>2009-07-14T11:25:35Z</time>
      </trkpt>
      <trkpt lat="45.09806" lon="5.03766">
        <ele>218.72900390625</ele>
        <time>2009-07-14T11:25:43Z</time>
      </trkpt>
      <trkpt lat="45.09812" lon="5.03793">
        <ele>217.95399475098</ele>
        <time>2009-07-14T11:25:45Z</time>
      </trkpt>
      <trkpt lat="45.09874" lon="5.03958">
        <ele>217.58200073242</ele>
        <time>2009-07-14T11:25:59Z</time>
      </trkpt>
      <trkpt lat="45.09882" lon="5.03981">
        <ele>218.31500244141</ele>
        <time>2009-07-14T11:26:01Z</time>
      </trkpt>
      <trkpt lat="45.09883" lon="5.04056">
        <ele>217.22399902344</ele>
        <time>2009-07-14T11:26:07Z</time>
      </trkpt>
      <trkpt lat="45.09866" lon="5.04126">
        <ele>216.91600036621</ele>
        <time>2009-07-14T11:26:13Z</time>
      </trkpt>
      <trkpt lat="45.09845" lon="5.04164">
        <ele>217.71600341797</ele>
        <time>2009-07-14T11:26:17Z</time>
      </trkpt>
      <trkpt lat="45.09763" lon="5.04248">
        <ele>218.68699645996</ele>
        <time>2009-07-14T11:26:29Z</time>
      </trkpt>
      <trkpt lat="45.09664" lon="5.04358">
        <ele>220.24699401856</ele>
        <time>2009-07-14T11:26:46Z</time>
      </trkpt>
      <trkpt lat="45.09624" lon="5.04473">
        <ele>218.97500610352</ele>
        <time>2009-07-14T11:26:58Z</time>
      </trkpt>
      <trkpt lat="45.09617" lon="5.04505">
        <ele>218.10600280762</ele>
        <time>2009-07-14T11:27:01Z</time>
      </trkpt>
      <trkpt lat="45.09587" lon="5.04574">
        <ele>215.2619934082</ele>
        <time>2009-07-14T11:27:08Z</time>
      </trkpt>
      <trkpt lat="45.09577" lon="5.0459">
        <ele>214.43800354004</ele>
        <time>2009-07-14T11:27:10Z</time>
      </trkpt>
      <trkpt lat="45.09555" lon="5.04612">
        <ele>214.95399475098</ele>
        <time>2009-07-14T11:27:14Z</time>
      </trkpt>
      <trkpt lat="45.09526" lon="5.0463">
        <ele>214.09300231934</ele>
        <time>2009-07-14T11:27:18Z</time>
      </trkpt>
      <trkpt lat="45.09397" lon="5.04687">
        <ele>210.89100646973</ele>
        <time>2009-07-14T11:27:34Z</time>
      </trkpt>
      <trkpt lat="45.0933" lon="5.04745">
        <ele>209.27400207519</ele>
        <time>2009-07-14T11:27:43Z</time>
      </trkpt>
      <trkpt lat="45.09312" lon="5.0476">
        <ele>209.2440032959</ele>
        <time>2009-07-14T11:27:46Z</time>
      </trkpt>
      <trkpt lat="45.09305" lon="5.04821">
        <ele>208.96000671387</ele>
        <time>2009-07-14T11:27:52Z</time>
      </trkpt>
      <trkpt lat="45.09302" lon="5.04873">
        <ele>208.93800354004</ele>
        <time>2009-07-14T11:27:57Z</time>
      </trkpt>
      <trkpt lat="45.0928" lon="5.04929">
        <ele>210.23100280762</ele>
        <time>2009-07-14T11:28:04Z</time>
      </trkpt>
      <trkpt lat="45.09253" lon="5.04964">
        <ele>211.55299377441</ele>
        <time>2009-07-14T11:28:10Z</time>
      </trkpt>
      <trkpt lat="45.09241" lon="5.05036">
        <ele>213.15400695801</ele>
        <time>2009-07-14T11:28:19Z</time>
      </trkpt>
      <trkpt lat="45.09243" lon="5.05045">
        <ele>213.47799682617</ele>
        <time>2009-07-14T11:28:20Z</time>
      </trkpt>
      <trkpt lat="45.09257" lon="5.05085">
        <ele>214.43099975586</ele>
        <time>2009-07-14T11:28:25Z</time>
      </trkpt>
      <trkpt lat="45.09274" lon="5.05123">
        <ele>215.68499755859</ele>
        <time>2009-07-14T11:28:30Z</time>
      </trkpt>
      <trkpt lat="45.09302" lon="5.05178">
        <ele>215.87800598144</ele>
        <time>2009-07-14T11:28:37Z</time>
      </trkpt>
      <trkpt lat="45.09389" lon="5.05324">
        <ele>214.89500427246</ele>
        <time>2009-07-14T11:28:54Z</time>
      </trkpt>
      <trkpt lat="45.09428" lon="5.05451">
        <ele>216.55700683594</ele>
        <time>2009-07-14T11:29:07Z</time>
      </trkpt>
      <trkpt lat="45.09435" lon="5.05655">
        <ele>216.0890045166</ele>
        <time>2009-07-14T11:29:26Z</time>
      </trkpt>
      <trkpt lat="45.09399" lon="5.05837">
        <ele>214.47599792481</ele>
        <time>2009-07-14T11:29:42Z</time>
      </trkpt>
      <trkpt lat="45.09371" lon="5.06031">
        <ele>214.87399291992</ele>
        <time>2009-07-14T11:29:59Z</time>
      </trkpt>
      <trkpt lat="45.0937" lon="5.06237">
        <ele>216.88499450684</ele>
        <time>2009-07-14T11:30:17Z</time>
      </trkpt>
      <trkpt lat="45.09376" lon="5.06441">
        <ele>218.40100097656</ele>
        <time>2009-07-14T11:30:36Z</time>
      </trkpt>
      <trkpt lat="45.09377" lon="5.06643">
        <ele>220.49000549316</ele>
        <time>2009-07-14T11:30:55Z</time>
      </trkpt>
      <trkpt lat="45.09368" lon="5.068">
        <ele>222.26600646973</ele>
        <time>2009-07-14T11:31:10Z</time>
      </trkpt>
      <trkpt lat="45.09379" lon="5.06986">
        <ele>223.96200561523</ele>
        <time>2009-07-14T11:31:28Z</time>
      </trkpt>
      <trkpt lat="45.09386" lon="5.07145">
        <ele>227.49000549316</ele>
        <time>2009-07-14T11:31:45Z</time>
      </trkpt>
      <trkpt lat="45.09385" lon="5.07163">
        <ele>227.55799865723</ele>
        <time>2009-07-14T11:31:47Z</time>
      </trkpt>
      <trkpt lat="45.09362" lon="5.07205">
        <ele>228.20700073242</ele>
        <time>2009-07-14T11:31:53Z</time>
      </trkpt>
      <trkpt lat="45.09349" lon="5.07212">
        <ele>228.49200439453</ele>
        <time>2009-07-14T11:31:55Z</time>
      </trkpt>
      <trkpt lat="45.09324" lon="5.07248">
        <ele>227.67199707031</ele>
        <time>2009-07-14T11:32:00Z</time>
      </trkpt>
      <trkpt lat="45.09254" lon="5.07394">
        <ele>227.11099243164</ele>
        <time>2009-07-14T11:32:16Z</time>
      </trkpt>
      <trkpt lat="45.09225" lon="5.07452">
        <ele>228.47500610352</ele>
        <time>2009-07-14T11:32:23Z</time>
      </trkpt>
      <trkpt lat="45.09145" lon="5.07625">
        <ele>232.15800476074</ele>
        <time>2009-07-14T11:32:45Z</time>
      </trkpt>
      <trkpt lat="45.09077" lon="5.07713">
        <ele>234.18299865723</ele>
        <time>2009-07-14T11:33:00Z</time>
      </trkpt>
      <trkpt lat="45.08977" lon="5.07797">
        <ele>232.57600402832</ele>
        <time>2009-07-14T11:33:17Z</time>
      </trkpt>
      <trkpt lat="45.0897" lon="5.07802">
        <ele>232.30099487305</ele>
        <time>2009-07-14T11:33:18Z</time>
      </trkpt>
      <trkpt lat="45.08888" lon="5.07853">
        <ele>230.78999328613</ele>
        <time>2009-07-14T11:33:29Z</time>
      </trkpt>
      <trkpt lat="45.08873" lon="5.07868">
        <ele>229.70100402832</ele>
        <time>2009-07-14T11:33:31Z</time>
      </trkpt>
      <trkpt lat="45.08846" lon="5.0792">
        <ele>227.25500488281</ele>
        <time>2009-07-14T11:33:36Z</time>
      </trkpt>
      <trkpt lat="45.08842" lon="5.07933">
        <ele>226.45700073242</ele>
        <time>2009-07-14T11:33:37Z</time>
      </trkpt>
      <trkpt lat="45.08813" lon="5.08081">
        <ele>222.49499511719</ele>
        <time>2009-07-14T11:33:48Z</time>
      </trkpt>
      <trkpt lat="45.08811" lon="5.08095">
        <ele>222.2200012207</ele>
        <time>2009-07-14T11:33:49Z</time>
      </trkpt>
      <trkpt lat="45.0879" lon="5.08208">
        <ele>219.5890045166</ele>
        <time>2009-07-14T11:33:57Z</time>
      </trkpt>
      <trkpt lat="45.08773" lon="5.08316">
        <ele>215.06500244141</ele>
        <time>2009-07-14T11:34:04Z</time>
      </trkpt>
      <trkpt lat="45.08765" lon="5.08378">
        <ele>213.16700744629</ele>
        <time>2009-07-14T11:34:08Z</time>
      </trkpt>
      <trkpt lat="45.08757" lon="5.0844">
        <ele>210.64900207519</ele>
        <time>2009-07-14T11:34:12Z</time>
      </trkpt>
      <trkpt lat="45.08755" lon="5.08456">
        <ele>210.45899963379</ele>
        <time>2009-07-14T11:34:13Z</time>
      </trkpt>
      <trkpt lat="45.08749" lon="5.08503">
        <ele>209.13000488281</ele>
        <time>2009-07-14T11:34:16Z</time>
      </trkpt>
      <trkpt lat="45.08741" lon="5.08565">
        <ele>207.58000183106</ele>
        <time>2009-07-14T11:34:20Z</time>
      </trkpt>
      <trkpt lat="45.08738" lon="5.0858">
        <ele>207.40600585938</ele>
        <time>2009-07-14T11:34:21Z</time>
      </trkpt>
      <trkpt lat="45.08734" lon="5.08624">
        <ele>206.91999816894</ele>
        <time>2009-07-14T11:34:24Z</time>
      </trkpt>
      <trkpt lat="45.08685" lon="5.08838">
        <ele>204.57899475098</ele>
        <time>2009-07-14T11:34:40Z</time>
      </trkpt>
      <trkpt lat="45.08644" lon="5.08946">
        <ele>202.40199279785</ele>
        <time>2009-07-14T11:34:49Z</time>
      </trkpt>
      <trkpt lat="45.08591" lon="5.0906">
        <ele>201.64399719238</ele>
        <time>2009-07-14T11:34:59Z</time>
      </trkpt>
      <trkpt lat="45.08552" lon="5.09213">
        <ele>198.96200561523</ele>
        <time>2009-07-14T11:35:11Z</time>
      </trkpt>
      <trkpt lat="45.08496" lon="5.09301">
        <ele>198.28999328613</ele>
        <time>2009-07-14T11:35:20Z</time>
      </trkpt>
      <trkpt lat="45.08476" lon="5.09346">
        <ele>197.00399780273</ele>
        <time>2009-07-14T11:35:24Z</time>
      </trkpt>
      <trkpt lat="45.08458" lon="5.09473">
        <ele>197.63400268555</ele>
        <time>2009-07-14T11:35:34Z</time>
      </trkpt>
      <trkpt lat="45.08453" lon="5.0956">
        <ele>198.00900268555</ele>
        <time>2009-07-14T11:35:41Z</time>
      </trkpt>
      <trkpt lat="45.08465" lon="5.09607">
        <ele>198.61000061035</ele>
        <time>2009-07-14T11:35:45Z</time>
      </trkpt>
      <trkpt lat="45.08549" lon="5.09819">
        <ele>200.51300048828</ele>
        <time>2009-07-14T11:36:04Z</time>
      </trkpt>
      <trkpt lat="45.0861" lon="5.10041">
        <ele>201.53799438477</ele>
        <time>2009-07-14T11:36:23Z</time>
      </trkpt>
      <trkpt lat="45.08659" lon="5.10265">
        <ele>202.37300109863</ele>
        <time>2009-07-14T11:36:43Z</time>
      </trkpt>
      <trkpt lat="45.08732" lon="5.10527">
        <ele>200.25199890137</ele>
        <time>2009-07-14T11:37:04Z</time>
      </trkpt>
      <trkpt lat="45.0878" lon="5.10792">
        <ele>199.6309967041</ele>
        <time>2009-07-14T11:37:23Z</time>
      </trkpt>
      <trkpt lat="45.08803" lon="5.11062">
        <ele>200.38499450684</ele>
        <time>2009-07-14T11:37:43Z</time>
      </trkpt>
      <trkpt lat="45.08838" lon="5.11316">
        <ele>201.92399597168</ele>
        <time>2009-07-14T11:38:03Z</time>
      </trkpt>
      <trkpt lat="45.08861" lon="5.11581">
        <ele>204.44400024414</ele>
        <time>2009-07-14T11:38:25Z</time>
      </trkpt>
      <trkpt lat="45.08881" lon="5.11859">
        <ele>205.22300720215</ele>
        <time>2009-07-14T11:38:48Z</time>
      </trkpt>
      <trkpt lat="45.08898" lon="5.12106">
        <ele>207.3809967041</ele>
        <time>2009-07-14T11:39:09Z</time>
      </trkpt>
      <trkpt lat="45.08912" lon="5.1235">
        <ele>209.9940032959</ele>
        <time>2009-07-14T11:39:30Z</time>
      </trkpt>
      <trkpt lat="45.08905" lon="5.12535">
        <ele>212.41200256348</ele>
        <time>2009-07-14T11:39:47Z</time>
      </trkpt>
      <trkpt lat="45.08866" lon="5.12663">
        <ele>211.01899719238</ele>
        <time>2009-07-14T11:39:59Z</time>
      </trkpt>
      <trkpt lat="45.08826" lon="5.12795">
        <ele>211.06100463867</ele>
        <time>2009-07-14T11:40:11Z</time>
      </trkpt>
      <trkpt lat="45.08821" lon="5.12817">
        <ele>210.14199829102</ele>
        <time>2009-07-14T11:40:13Z</time>
      </trkpt>
      <trkpt lat="45.08807" lon="5.12894">
        <ele>210.10600280762</ele>
        <time>2009-07-14T11:40:20Z</time>
      </trkpt>
      <trkpt lat="45.08799" lon="5.12944">
        <ele>208.94299316406</ele>
        <time>2009-07-14T11:40:26Z</time>
      </trkpt>
      <trkpt lat="45.08799" lon="5.13013">
        <ele>207.55099487305</ele>
        <time>2009-07-14T11:40:33Z</time>
      </trkpt>
      <trkpt lat="45.088" lon="5.13033">
        <ele>207.7380065918</ele>
        <time>2009-07-14T11:40:35Z</time>
      </trkpt>
      <trkpt lat="45.08791" lon="5.13079">
        <ele>207.19299316406</ele>
        <time>2009-07-14T11:40:40Z</time>
      </trkpt>
      <trkpt lat="45.08787" lon="5.13103">
        <ele>208.10400390625</ele>
        <time>2009-07-14T11:40:43Z</time>
      </trkpt>
      <trkpt lat="45.08772" lon="5.1316">
        <ele>208.0119934082</ele>
        <time>2009-07-14T11:40:50Z</time>
      </trkpt>
      <trkpt lat="45.08757" lon="5.13188">
        <ele>207.77900695801</ele>
        <time>2009-07-14T11:40:55Z</time>
      </trkpt>
      <trkpt lat="45.08741" lon="5.13217">
        <ele>207.68699645996</ele>
        <time>2009-07-14T11:40:59Z</time>
      </trkpt>
      <trkpt lat="45.08709" lon="5.13292">
        <ele>207.95500183106</ele>
        <time>2009-07-14T11:41:08Z</time>
      </trkpt>
      <trkpt lat="45.08665" lon="5.13395">
        <ele>208.48699951172</ele>
        <time>2009-07-14T11:41:21Z</time>
      </trkpt>
      <trkpt lat="45.0865" lon="5.13436">
        <ele>208.26600646973</ele>
        <time>2009-07-14T11:41:26Z</time>
      </trkpt>
      <trkpt lat="45.08636" lon="5.13466">
        <ele>208.14100646973</ele>
        <time>2009-07-14T11:41:30Z</time>
      </trkpt>
      <trkpt lat="45.08601" lon="5.1355">
        <ele>207.7619934082</ele>
        <time>2009-07-14T11:41:40Z</time>
      </trkpt>
      <trkpt lat="45.08544" lon="5.13642">
        <ele>206.94900512695</ele>
        <time>2009-07-14T11:41:51Z</time>
      </trkpt>
      <trkpt lat="45.08459" lon="5.13754">
        <ele>207.48399353027</ele>
        <time>2009-07-14T11:42:06Z</time>
      </trkpt>
      <trkpt lat="45.08356" lon="5.13904">
        <ele>207.03300476074</ele>
        <time>2009-07-14T11:42:25Z</time>
      </trkpt>
      <trkpt lat="45.08303" lon="5.14077">
        <ele>207.2559967041</ele>
        <time>2009-07-14T11:42:41Z</time>
      </trkpt>
      <trkpt lat="45.08258" lon="5.14235">
        <ele>209.56500244141</ele>
        <time>2009-07-14T11:42:57Z</time>
      </trkpt>
      <trkpt lat="45.082" lon="5.14412">
        <ele>210.13800048828</ele>
        <time>2009-07-14T11:43:16Z</time>
      </trkpt>
      <trkpt lat="45.08158" lon="5.14554">
        <ele>209.86599731445</ele>
        <time>2009-07-14T11:43:31Z</time>
      </trkpt>
      <trkpt lat="45.08106" lon="5.14702">
        <ele>207.03700256348</ele>
        <time>2009-07-14T11:43:44Z</time>
      </trkpt>
      <trkpt lat="45.08044" lon="5.14888">
        <ele>206.34700012207</ele>
        <time>2009-07-14T11:44:00Z</time>
      </trkpt>
      <trkpt lat="45.08003" lon="5.15053">
        <ele>209.80299377441</ele>
        <time>2009-07-14T11:44:17Z</time>
      </trkpt>
      <trkpt lat="45.0799" lon="5.15117">
        <ele>210.47099304199</ele>
        <time>2009-07-14T11:44:24Z</time>
      </trkpt>
      <trkpt lat="45.07969" lon="5.15281">
        <ele>209.15800476074</ele>
        <time>2009-07-14T11:44:38Z</time>
      </trkpt>
      <trkpt lat="45.0792" lon="5.15471">
        <ele>210.39399719238</ele>
        <time>2009-07-14T11:44:56Z</time>
      </trkpt>
      <trkpt lat="45.0788" lon="5.15666">
        <ele>207.25399780273</ele>
        <time>2009-07-14T11:45:12Z</time>
      </trkpt>
      <trkpt lat="45.07845" lon="5.15832">
        <ele>205.38299560547</ele>
        <time>2009-07-14T11:45:25Z</time>
      </trkpt>
      <trkpt lat="45.07801" lon="5.15995">
        <ele>204.27499389648</ele>
        <time>2009-07-14T11:45:39Z</time>
      </trkpt>
      <trkpt lat="45.07779" lon="5.16079">
        <ele>200.875</ele>
        <time>2009-07-14T11:45:46Z</time>
      </trkpt>
      <trkpt lat="45.07774" lon="5.16091">
        <ele>200.80999755859</ele>
        <time>2009-07-14T11:45:47Z</time>
      </trkpt>
      <trkpt lat="45.07727" lon="5.16172">
        <ele>196.35800170898</ele>
        <time>2009-07-14T11:45:54Z</time>
      </trkpt>
      <trkpt lat="45.07701" lon="5.16214">
        <ele>196.0119934082</ele>
        <time>2009-07-14T11:45:59Z</time>
      </trkpt>
      <trkpt lat="45.07687" lon="5.16236">
        <ele>196.42999267578</ele>
        <time>2009-07-14T11:46:02Z</time>
      </trkpt>
      <trkpt lat="45.07682" lon="5.16243">
        <ele>196.0950012207</ele>
        <time>2009-07-14T11:46:03Z</time>
      </trkpt>
      <trkpt lat="45.07667" lon="5.16271">
        <ele>196.50100708008</ele>
        <time>2009-07-14T11:46:10Z</time>
      </trkpt>
      <trkpt lat="45.07678" lon="5.16331">
        <ele>196.80299377441</ele>
        <time>2009-07-14T11:46:18Z</time>
      </trkpt>
      <trkpt lat="45.07681" lon="5.16348">
        <ele>196.60200500488</ele>
        <time>2009-07-14T11:46:20Z</time>
      </trkpt>
      <trkpt lat="45.07705" lon="5.16456">
        <ele>196.83099365234</ele>
        <time>2009-07-14T11:46:31Z</time>
      </trkpt>
      <trkpt lat="45.07745" lon="5.16634">
        <ele>196.49499511719</ele>
        <time>2009-07-14T11:46:47Z</time>
      </trkpt>
      <trkpt lat="45.07785" lon="5.16808">
        <ele>194.92100524902</ele>
        <time>2009-07-14T11:47:01Z</time>
      </trkpt>
      <trkpt lat="45.07824" lon="5.16948">
        <ele>193.88299560547</ele>
        <time>2009-07-14T11:47:12Z</time>
      </trkpt>
      <trkpt lat="45.07903" lon="5.17136">
        <ele>192.74499511719</ele>
        <time>2009-07-14T11:47:28Z</time>
      </trkpt>
      <trkpt lat="45.07958" lon="5.17233">
        <ele>190.37100219727</ele>
        <time>2009-07-14T11:47:37Z</time>
      </trkpt>
      <trkpt lat="45.0798" lon="5.17268">
        <ele>188.31199645996</ele>
        <time>2009-07-14T11:47:40Z</time>
      </trkpt>
      <trkpt lat="45.08014" lon="5.17315">
        <ele>186.02099609375</ele>
        <time>2009-07-14T11:47:44Z</time>
      </trkpt>
      <trkpt lat="45.08107" lon="5.17464">
        <ele>182.31900024414</ele>
        <time>2009-07-14T11:47:55Z</time>
      </trkpt>
      <trkpt lat="45.08124" lon="5.1749">
        <ele>180.48599243164</ele>
        <time>2009-07-14T11:47:57Z</time>
      </trkpt>
      <trkpt lat="45.08179" lon="5.17575">
        <ele>180.16799926758</ele>
        <time>2009-07-14T11:48:04Z</time>
      </trkpt>
      <trkpt lat="45.08241" lon="5.17667">
        <ele>178.64999389648</ele>
        <time>2009-07-14T11:48:12Z</time>
      </trkpt>
      <trkpt lat="45.08289" lon="5.1773">
        <ele>177.55900573731</ele>
        <time>2009-07-14T11:48:18Z</time>
      </trkpt>
      <trkpt lat="45.08312" lon="5.17759">
        <ele>177.66000366211</ele>
        <time>2009-07-14T11:48:21Z</time>
      </trkpt>
      <trkpt lat="45.08366" lon="5.17826">
        <ele>177.21899414062</ele>
        <time>2009-07-14T11:48:28Z</time>
      </trkpt>
      <trkpt lat="45.08388" lon="5.17857">
        <ele>176.30599975586</ele>
        <time>2009-07-14T11:48:31Z</time>
      </trkpt>
      <trkpt lat="45.08477" lon="5.18029">
        <ele>171.88000488281</ele>
        <time>2009-07-14T11:48:45Z</time>
      </trkpt>
      <trkpt lat="45.08523" lon="5.18165">
        <ele>169.51600646973</ele>
        <time>2009-07-14T11:48:56Z</time>
      </trkpt>
      <trkpt lat="45.0855" lon="5.18246">
        <ele>168.81399536133</ele>
        <time>2009-07-14T11:49:07Z</time>
      </trkpt>
      <trkpt lat="45.08562" lon="5.18276">
        <ele>168.08399963379</ele>
        <time>2009-07-14T11:49:19Z</time>
      </trkpt>
      <trkpt lat="45.08567" lon="5.18294">
        <ele>166.98500061035</ele>
        <time>2009-07-14T11:49:24Z</time>
      </trkpt>
      <trkpt lat="45.0857" lon="5.18334">
        <ele>165.28199768066</ele>
        <time>2009-07-14T11:49:29Z</time>
      </trkpt>
      <trkpt lat="45.08574" lon="5.18464">
        <ele>162.66700744629</ele>
        <time>2009-07-14T11:49:42Z</time>
      </trkpt>
      <trkpt lat="45.08573" lon="5.18579">
        <ele>160.64500427246</ele>
        <time>2009-07-14T11:49:51Z</time>
      </trkpt>
      <trkpt lat="45.08573" lon="5.18605">
        <ele>161.30099487305</ele>
        <time>2009-07-14T11:49:53Z</time>
      </trkpt>
      <trkpt lat="45.08573" lon="5.18617">
        <ele>161.67700195312</ele>
        <time>2009-07-14T11:49:54Z</time>
      </trkpt>
      <trkpt lat="45.08573" lon="5.18667">
        <ele>161.01400756836</ele>
        <time>2009-07-14T11:49:58Z</time>
      </trkpt>
      <trkpt lat="45.08573" lon="5.18716">
        <ele>161.20100402832</ele>
        <time>2009-07-14T11:50:02Z</time>
      </trkpt>
      <trkpt lat="45.08569" lon="5.18753">
        <ele>161.30299377441</ele>
        <time>2009-07-14T11:50:05Z</time>
      </trkpt>
      <trkpt lat="45.08554" lon="5.18793">
        <ele>161.69299316406</ele>
        <time>2009-07-14T11:50:09Z</time>
      </trkpt>
      <trkpt lat="45.0856" lon="5.18858">
        <ele>161.98899841309</ele>
        <time>2009-07-14T11:50:15Z</time>
      </trkpt>
      <trkpt lat="45.08561" lon="5.18891">
        <ele>162.27699279785</ele>
        <time>2009-07-14T11:50:18Z</time>
      </trkpt>
      <trkpt lat="45.08549" lon="5.19032">
        <ele>162.18600463867</ele>
        <time>2009-07-14T11:50:30Z</time>
      </trkpt>
      <trkpt lat="45.08543" lon="5.19115">
        <ele>162.81300354004</ele>
        <time>2009-07-14T11:50:37Z</time>
      </trkpt>
      <trkpt lat="45.0853" lon="5.19295">
        <ele>164.21699523926</ele>
        <time>2009-07-14T11:50:53Z</time>
      </trkpt>
      <trkpt lat="45.08514" lon="5.19517">
        <ele>167.62399291992</ele>
        <time>2009-07-14T11:51:13Z</time>
      </trkpt>
      <trkpt lat="45.0851" lon="5.19681">
        <ele>170.00300598144</ele>
        <time>2009-07-14T11:51:29Z</time>
      </trkpt>
      <trkpt lat="45.08506" lon="5.19888">
        <ele>171.02499389648</ele>
        <time>2009-07-14T11:51:48Z</time>
      </trkpt>
      <trkpt lat="45.08509" lon="5.20103">
        <ele>171.98399353027</ele>
        <time>2009-07-14T11:52:07Z</time>
      </trkpt>
      <trkpt lat="45.08511" lon="5.20263">
        <ele>172.52600097656</ele>
        <time>2009-07-14T11:52:21Z</time>
      </trkpt>
      <trkpt lat="45.08513" lon="5.20434">
        <ele>172.94200134277</ele>
        <time>2009-07-14T11:52:36Z</time>
      </trkpt>
      <trkpt lat="45.08518" lon="5.20669">
        <ele>172.93699645996</ele>
        <time>2009-07-14T11:52:56Z</time>
      </trkpt>
      <trkpt lat="45.08523" lon="5.20905">
        <ele>173.24200439453</ele>
        <time>2009-07-14T11:53:15Z</time>
      </trkpt>
      <trkpt lat="45.08522" lon="5.21001">
        <ele>173.71499633789</ele>
        <time>2009-07-14T11:53:23Z</time>
      </trkpt>
      <trkpt lat="45.08508" lon="5.21069">
        <ele>176.60499572754</ele>
        <time>2009-07-14T11:53:30Z</time>
      </trkpt>
      <trkpt lat="45.0849" lon="5.21123">
        <ele>178.63200378418</ele>
        <time>2009-07-14T11:53:36Z</time>
      </trkpt>
      <trkpt lat="45.08477" lon="5.21176">
        <ele>179.89500427246</ele>
        <time>2009-07-14T11:53:42Z</time>
      </trkpt>
      <trkpt lat="45.08476" lon="5.21193">
        <ele>181.00100708008</ele>
        <time>2009-07-14T11:53:44Z</time>
      </trkpt>
      <trkpt lat="45.08466" lon="5.21226">
        <ele>180.79100036621</ele>
        <time>2009-07-14T11:53:48Z</time>
      </trkpt>
      <trkpt lat="45.08445" lon="5.21273">
        <ele>182.83799743652</ele>
        <time>2009-07-14T11:53:54Z</time>
      </trkpt>
      <trkpt lat="45.0843" lon="5.2134">
        <ele>186.99499511719</ele>
        <time>2009-07-14T11:54:03Z</time>
      </trkpt>
      <trkpt lat="45.0841" lon="5.21399">
        <ele>187.40800476074</ele>
        <time>2009-07-14T11:54:11Z</time>
      </trkpt>
      <trkpt lat="45.08388" lon="5.21447">
        <ele>186.98399353027</ele>
        <time>2009-07-14T11:54:17Z</time>
      </trkpt>
      <trkpt lat="45.08386" lon="5.21483">
        <ele>188.00399780273</ele>
        <time>2009-07-14T11:54:21Z</time>
      </trkpt>
      <trkpt lat="45.0838" lon="5.21531">
        <ele>188.37600708008</ele>
        <time>2009-07-14T11:54:27Z</time>
      </trkpt>
      <trkpt lat="45.08372" lon="5.21545">
        <ele>188.69000244141</ele>
        <time>2009-07-14T11:54:29Z</time>
      </trkpt>
      <trkpt lat="45.08374" lon="5.21614">
        <ele>188.90800476074</ele>
        <time>2009-07-14T11:54:37Z</time>
      </trkpt>
      <trkpt lat="45.08387" lon="5.21622">
        <ele>189.78500366211</ele>
        <time>2009-07-14T11:54:39Z</time>
      </trkpt>
      <trkpt lat="45.08414" lon="5.21653">
        <ele>191.63999938965</ele>
        <time>2009-07-14T11:54:45Z</time>
      </trkpt>
      <trkpt lat="45.08419" lon="5.21666">
        <ele>192.31500244141</ele>
        <time>2009-07-14T11:54:47Z</time>
      </trkpt>
      <trkpt lat="45.08431" lon="5.21709">
        <ele>195.6130065918</ele>
        <time>2009-07-14T11:54:54Z</time>
      </trkpt>
      <trkpt lat="45.08436" lon="5.21762">
        <ele>199.95199584961</ele>
        <time>2009-07-14T11:55:04Z</time>
      </trkpt>
      <trkpt lat="45.08448" lon="5.21795">
        <ele>200.72200012207</ele>
        <time>2009-07-14T11:55:10Z</time>
      </trkpt>
      <trkpt lat="45.08502" lon="5.21842">
        <ele>199.6549987793</ele>
        <time>2009-07-14T11:55:21Z</time>
      </trkpt>
      <trkpt lat="45.08522" lon="5.21869">
        <ele>200.24600219727</ele>
        <time>2009-07-14T11:55:27Z</time>
      </trkpt>
      <trkpt lat="45.08519" lon="5.21875">
        <ele>200.40299987793</ele>
        <time>2009-07-14T11:55:28Z</time>
      </trkpt>
      <trkpt lat="45.08481" lon="5.2197">
        <ele>201.55099487305</ele>
        <time>2009-07-14T11:55:41Z</time>
      </trkpt>
      <trkpt lat="45.08435" lon="5.22069">
        <ele>202.16299438477</ele>
        <time>2009-07-14T11:55:54Z</time>
      </trkpt>
      <trkpt lat="45.08361" lon="5.22205">
        <ele>201.37100219727</ele>
        <time>2009-07-14T11:56:11Z</time>
      </trkpt>
      <trkpt lat="45.08329" lon="5.22352">
        <ele>201.66499328613</ele>
        <time>2009-07-14T11:56:25Z</time>
      </trkpt>
      <trkpt lat="45.08287" lon="5.22508">
        <ele>199.83700561523</ele>
        <time>2009-07-14T11:56:39Z</time>
      </trkpt>
      <trkpt lat="45.08204" lon="5.22624">
        <ele>201.56900024414</ele>
        <time>2009-07-14T11:56:53Z</time>
      </trkpt>
      <trkpt lat="45.08138" lon="5.22715">
        <ele>205.32299804688</ele>
        <time>2009-07-14T11:57:07Z</time>
      </trkpt>
      <trkpt lat="45.08125" lon="5.22733">
        <ele>206.62699890137</ele>
        <time>2009-07-14T11:57:10Z</time>
      </trkpt>
      <trkpt lat="45.08101" lon="5.2278">
        <ele>208.88900756836</ele>
        <time>2009-07-14T11:57:17Z</time>
      </trkpt>
      <trkpt lat="45.08058" lon="5.22886">
        <ele>210.55700683594</ele>
        <time>2009-07-14T11:57:31Z</time>
      </trkpt>
      <trkpt lat="45.08032" lon="5.23008">
        <ele>211.48199462891</ele>
        <time>2009-07-14T11:57:44Z</time>
      </trkpt>
      <trkpt lat="45.07991" lon="5.2314">
        <ele>213.41400146484</ele>
        <time>2009-07-14T11:57:58Z</time>
      </trkpt>
      <trkpt lat="45.07939" lon="5.23285">
        <ele>213.12199401856</ele>
        <time>2009-07-14T11:58:14Z</time>
      </trkpt>
      <trkpt lat="45.07886" lon="5.23395">
        <ele>213.77099609375</ele>
        <time>2009-07-14T11:58:26Z</time>
      </trkpt>
      <trkpt lat="45.07867" lon="5.23442">
        <ele>213.45599365234</ele>
        <time>2009-07-14T11:58:31Z</time>
      </trkpt>
      <trkpt lat="45.0782" lon="5.23622">
        <ele>214.63999938965</ele>
        <time>2009-07-14T11:58:49Z</time>
      </trkpt>
      <trkpt lat="45.07762" lon="5.23815">
        <ele>213.75799560547</ele>
        <time>2009-07-14T11:59:07Z</time>
      </trkpt>
      <trkpt lat="45.07709" lon="5.23991">
        <ele>212.46600341797</ele>
        <time>2009-07-14T11:59:23Z</time>
      </trkpt>
      <trkpt lat="45.07668" lon="5.2403">
        <ele>211.72900390625</ele>
        <time>2009-07-14T11:59:29Z</time>
      </trkpt>
      <trkpt lat="45.07487" lon="5.24048">
        <ele>210.28199768066</ele>
        <time>2009-07-14T11:59:50Z</time>
      </trkpt>
      <trkpt lat="45.0731" lon="5.24067">
        <ele>207.67199707031</ele>
        <time>2009-07-14T12:00:12Z</time>
      </trkpt>
      <trkpt lat="45.07215" lon="5.24075">
        <ele>204.13900756836</ele>
        <time>2009-07-14T12:00:23Z</time>
      </trkpt>
      <trkpt lat="45.07184" lon="5.2407">
        <ele>202.29299926758</ele>
        <time>2009-07-14T12:00:26Z</time>
      </trkpt>
      <trkpt lat="45.07135" lon="5.24051">
        <ele>201.55499267578</ele>
        <time>2009-07-14T12:00:31Z</time>
      </trkpt>
      <trkpt lat="45.07094" lon="5.24097">
        <ele>201.97799682617</ele>
        <time>2009-07-14T12:00:37Z</time>
      </trkpt>
      <trkpt lat="45.07064" lon="5.24248">
        <ele>203.10699462891</ele>
        <time>2009-07-14T12:00:50Z</time>
      </trkpt>
      <trkpt lat="45.07046" lon="5.24298">
        <ele>202.66200256348</ele>
        <time>2009-07-14T12:00:55Z</time>
      </trkpt>
      <trkpt lat="45.07038" lon="5.24317">
        <ele>202.43899536133</ele>
        <time>2009-07-14T12:00:57Z</time>
      </trkpt>
      <trkpt lat="45.06989" lon="5.24388">
        <ele>201.99299621582</ele>
        <time>2009-07-14T12:01:06Z</time>
      </trkpt>
      <trkpt lat="45.06957" lon="5.24395">
        <ele>200.09599304199</ele>
        <time>2009-07-14T12:01:10Z</time>
      </trkpt>
      <trkpt lat="45.06948" lon="5.2439">
        <ele>199.125</ele>
        <time>2009-07-14T12:01:11Z</time>
      </trkpt>
      <trkpt lat="45.06915" lon="5.24374">
        <ele>198.71600341797</ele>
        <time>2009-07-14T12:01:15Z</time>
      </trkpt>
      <trkpt lat="45.06889" lon="5.24363">
        <ele>196.88999938965</ele>
        <time>2009-07-14T12:01:18Z</time>
      </trkpt>
      <trkpt lat="45.06851" lon="5.24349">
        <ele>195.21800231934</ele>
        <time>2009-07-14T12:01:22Z</time>
      </trkpt>
      <trkpt lat="45.06821" lon="5.24337">
        <ele>193.81700134277</ele>
        <time>2009-07-14T12:01:25Z</time>
      </trkpt>
      <trkpt lat="45.0667" lon="5.24282">
        <ele>191.07800292969</ele>
        <time>2009-07-14T12:01:39Z</time>
      </trkpt>
      <trkpt lat="45.06575" lon="5.24244">
        <ele>191.27000427246</ele>
        <time>2009-07-14T12:01:48Z</time>
      </trkpt>
      <trkpt lat="45.06549" lon="5.24214">
        <ele>193.25500488281</ele>
        <time>2009-07-14T12:01:52Z</time>
      </trkpt>
      <trkpt lat="45.0654" lon="5.24186">
        <ele>194.47500610352</ele>
        <time>2009-07-14T12:01:55Z</time>
      </trkpt>
      <trkpt lat="45.06533" lon="5.24161">
        <ele>195.78700256348</ele>
        <time>2009-07-14T12:01:58Z</time>
      </trkpt>
      <trkpt lat="45.06525" lon="5.24133">
        <ele>197.05000305176</ele>
        <time>2009-07-14T12:02:02Z</time>
      </trkpt>
      <trkpt lat="45.06511" lon="5.24111">
        <ele>198.36099243164</ele>
        <time>2009-07-14T12:02:08Z</time>
      </trkpt>
      <trkpt lat="45.06463" lon="5.24135">
        <ele>198.67700195312</ele>
        <time>2009-07-14T12:02:18Z</time>
      </trkpt>
      <trkpt lat="45.06384" lon="5.24188">
        <ele>200.01800537109</ele>
        <time>2009-07-14T12:02:32Z</time>
      </trkpt>
      <trkpt lat="45.06298" lon="5.2424">
        <ele>199.61500549316</ele>
        <time>2009-07-14T12:02:46Z</time>
      </trkpt>
      <trkpt lat="45.06199" lon="5.24256">
        <ele>198.22599792481</ele>
        <time>2009-07-14T12:02:58Z</time>
      </trkpt>
      <trkpt lat="45.06091" lon="5.24268">
        <ele>195.47099304199</ele>
        <time>2009-07-14T12:03:09Z</time>
      </trkpt>
      <trkpt lat="45.06034" lon="5.24302">
        <ele>193.95199584961</ele>
        <time>2009-07-14T12:03:15Z</time>
      </trkpt>
      <trkpt lat="45.06018" lon="5.24322">
        <ele>193.26100158691</ele>
        <time>2009-07-14T12:03:17Z</time>
      </trkpt>
      <trkpt lat="45.05982" lon="5.24392">
        <ele>191.05900573731</ele>
        <time>2009-07-14T12:03:23Z</time>
      </trkpt>
      <trkpt lat="45.05977" lon="5.24458">
        <ele>189.55099487305</ele>
        <time>2009-07-14T12:03:28Z</time>
      </trkpt>
      <trkpt lat="45.05977" lon="5.24485">
        <ele>188.68800354004</ele>
        <time>2009-07-14T12:03:30Z</time>
      </trkpt>
      <trkpt lat="45.05976" lon="5.24539">
        <ele>187.80599975586</ele>
        <time>2009-07-14T12:03:34Z</time>
      </trkpt>
      <trkpt lat="45.05985" lon="5.24605">
        <ele>185.81799316406</ele>
        <time>2009-07-14T12:03:39Z</time>
      </trkpt>
      <trkpt lat="45.05991" lon="5.24644">
        <ele>184.72200012207</ele>
        <time>2009-07-14T12:03:42Z</time>
      </trkpt>
      <trkpt lat="45.06023" lon="5.24688">
        <ele>184.94900512695</ele>
        <time>2009-07-14T12:03:48Z</time>
      </trkpt>
      <trkpt lat="45.06048" lon="5.24701">
        <ele>185.14300537109</ele>
        <time>2009-07-14T12:03:52Z</time>
      </trkpt>
      <trkpt lat="45.06128" lon="5.24734">
        <ele>181.79499816894</ele>
        <time>2009-07-14T12:04:04Z</time>
      </trkpt>
      <trkpt lat="45.06159" lon="5.24746">
        <ele>181.85899353027</ele>
        <time>2009-07-14T12:04:08Z</time>
      </trkpt>
      <trkpt lat="45.06179" lon="5.2478">
        <ele>182.43800354004</ele>
        <time>2009-07-14T12:04:12Z</time>
      </trkpt>
      <trkpt lat="45.06192" lon="5.24872">
        <ele>183.82200622559</ele>
        <time>2009-07-14T12:04:20Z</time>
      </trkpt>
      <trkpt lat="45.06194" lon="5.24941">
        <ele>184.59399414062</ele>
        <time>2009-07-14T12:04:26Z</time>
      </trkpt>
      <trkpt lat="45.06194" lon="5.25024">
        <ele>185.22399902344</ele>
        <time>2009-07-14T12:04:33Z</time>
      </trkpt>
      <trkpt lat="45.06185" lon="5.25097">
        <ele>186.2440032959</ele>
        <time>2009-07-14T12:04:39Z</time>
      </trkpt>
      <trkpt lat="45.06177" lon="5.25173">
        <ele>186.94700622559</ele>
        <time>2009-07-14T12:04:45Z</time>
      </trkpt>
      <trkpt lat="45.06167" lon="5.25235">
        <ele>187.92500305176</ele>
        <time>2009-07-14T12:04:50Z</time>
      </trkpt>
      <trkpt lat="45.06143" lon="5.25379">
        <ele>189.85299682617</ele>
        <time>2009-07-14T12:05:02Z</time>
      </trkpt>
      <trkpt lat="45.06134" lon="5.25538">
        <ele>191.47399902344</ele>
        <time>2009-07-14T12:05:16Z</time>
      </trkpt>
      <trkpt lat="45.0615" lon="5.25615">
        <ele>193.4700012207</ele>
        <time>2009-07-14T12:05:23Z</time>
      </trkpt>
      <trkpt lat="45.06173" lon="5.25737">
        <ele>194.0059967041</ele>
        <time>2009-07-14T12:05:34Z</time>
      </trkpt>
      <trkpt lat="45.06201" lon="5.25892">
        <ele>196.19900512695</ele>
        <time>2009-07-14T12:05:48Z</time>
      </trkpt>
      <trkpt lat="45.0622" lon="5.26051">
        <ele>197.65699768066</ele>
        <time>2009-07-14T12:06:02Z</time>
      </trkpt>
      <trkpt lat="45.06238" lon="5.26275">
        <ele>199.93499755859</ele>
        <time>2009-07-14T12:06:22Z</time>
      </trkpt>
      <trkpt lat="45.06264" lon="5.26428">
        <ele>202.02900695801</ele>
        <time>2009-07-14T12:06:36Z</time>
      </trkpt>
      <trkpt lat="45.06334" lon="5.26545">
        <ele>202.6609954834</ele>
        <time>2009-07-14T12:06:49Z</time>
      </trkpt>
      <trkpt lat="45.064" lon="5.26731">
        <ele>204.55299377441</ele>
        <time>2009-07-14T12:07:07Z</time>
      </trkpt>
      <trkpt lat="45.06414" lon="5.26771">
        <ele>204.68099975586</ele>
        <time>2009-07-14T12:07:11Z</time>
      </trkpt>
      <trkpt lat="45.06395" lon="5.26817">
        <ele>204.86099243164</ele>
        <time>2009-07-14T12:07:17Z</time>
      </trkpt>
      <trkpt lat="45.06333" lon="5.26833">
        <ele>205.84199523926</ele>
        <time>2009-07-14T12:07:25Z</time>
      </trkpt>
      <trkpt lat="45.06308" lon="5.26855">
        <ele>205.85099792481</ele>
        <time>2009-07-14T12:07:29Z</time>
      </trkpt>
      <trkpt lat="45.06277" lon="5.26917">
        <ele>204.81399536133</ele>
        <time>2009-07-14T12:07:36Z</time>
      </trkpt>
      <trkpt lat="45.06252" lon="5.27019">
        <ele>204.13299560547</ele>
        <time>2009-07-14T12:07:45Z</time>
      </trkpt>
      <trkpt lat="45.06224" lon="5.27071">
        <ele>202.58799743652</ele>
        <time>2009-07-14T12:07:50Z</time>
      </trkpt>
      <trkpt lat="45.06126" lon="5.27239">
        <ele>197.00399780273</ele>
        <time>2009-07-14T12:08:05Z</time>
      </trkpt>
      <trkpt lat="45.06109" lon="5.27295">
        <ele>194.89300537109</ele>
        <time>2009-07-14T12:08:09Z</time>
      </trkpt>
      <trkpt lat="45.06094" lon="5.27375">
        <ele>192.90199279785</ele>
        <time>2009-07-14T12:08:14Z</time>
      </trkpt>
      <trkpt lat="45.06077" lon="5.27499">
        <ele>189.69299316406</ele>
        <time>2009-07-14T12:08:22Z</time>
      </trkpt>
      <trkpt lat="45.061" lon="5.27632">
        <ele>186.23599243164</ele>
        <time>2009-07-14T12:08:31Z</time>
      </trkpt>
      <trkpt lat="45.06112" lon="5.27781">
        <ele>183.66999816894</ele>
        <time>2009-07-14T12:08:41Z</time>
      </trkpt>
      <trkpt lat="45.06127" lon="5.27849">
        <ele>182.69700622559</ele>
        <time>2009-07-14T12:08:46Z</time>
      </trkpt>
      <trkpt lat="45.06149" lon="5.27896">
        <ele>181.65800476074</ele>
        <time>2009-07-14T12:08:50Z</time>
      </trkpt>
      <trkpt lat="45.06157" lon="5.27949">
        <ele>182.01899719238</ele>
        <time>2009-07-14T12:08:54Z</time>
      </trkpt>
      <trkpt lat="45.06131" lon="5.28111">
        <ele>183.10200500488</ele>
        <time>2009-07-14T12:09:07Z</time>
      </trkpt>
      <trkpt lat="45.06111" lon="5.28219">
        <ele>184.63200378418</ele>
        <time>2009-07-14T12:09:17Z</time>
      </trkpt>
      <trkpt lat="45.0611" lon="5.2823">
        <ele>184.66400146484</ele>
        <time>2009-07-14T12:09:18Z</time>
      </trkpt>
      <trkpt lat="45.06103" lon="5.28291">
        <ele>185.24800109863</ele>
        <time>2009-07-14T12:09:24Z</time>
      </trkpt>
      <trkpt lat="45.06073" lon="5.28427">
        <ele>185.94700622559</ele>
        <time>2009-07-14T12:09:38Z</time>
      </trkpt>
      <trkpt lat="45.06086" lon="5.28573">
        <ele>186.48500061035</ele>
        <time>2009-07-14T12:09:52Z</time>
      </trkpt>
      <trkpt lat="45.06155" lon="5.28797">
        <ele>187.18299865723</ele>
        <time>2009-07-14T12:10:14Z</time>
      </trkpt>
      <trkpt lat="45.06246" lon="5.28954">
        <ele>187.47399902344</ele>
        <time>2009-07-14T12:10:32Z</time>
      </trkpt>
      <trkpt lat="45.06337" lon="5.29013">
        <ele>188.06599426269</ele>
        <time>2009-07-14T12:10:44Z</time>
      </trkpt>
      <trkpt lat="45.06388" lon="5.29107">
        <ele>187.65800476074</ele>
        <time>2009-07-14T12:10:54Z</time>
      </trkpt>
      <trkpt lat="45.0641" lon="5.29245">
        <ele>188.26800537109</ele>
        <time>2009-07-14T12:11:06Z</time>
      </trkpt>
      <trkpt lat="45.06405" lon="5.29314">
        <ele>188.92599487305</ele>
        <time>2009-07-14T12:11:12Z</time>
      </trkpt>
      <trkpt lat="45.06396" lon="5.29514">
        <ele>188.62699890137</ele>
        <time>2009-07-14T12:11:29Z</time>
      </trkpt>
      <trkpt lat="45.06387" lon="5.29728">
        <ele>189.04600524902</ele>
        <time>2009-07-14T12:11:48Z</time>
      </trkpt>
      <trkpt lat="45.06384" lon="5.29817">
        <ele>189.4880065918</ele>
        <time>2009-07-14T12:11:56Z</time>
      </trkpt>
      <trkpt lat="45.06382" lon="5.2986">
        <ele>190</ele>
        <time>2009-07-14T12:12:00Z</time>
      </trkpt>
      <trkpt lat="45.06381" lon="5.2987">
        <ele>190.24800109863</ele>
        <time>2009-07-14T12:12:01Z</time>
      </trkpt>
      <trkpt lat="45.06379" lon="5.29918">
        <ele>191.96200561523</ele>
        <time>2009-07-14T12:12:06Z</time>
      </trkpt>
      <trkpt lat="45.06375" lon="5.29991">
        <ele>194.19099426269</ele>
        <time>2009-07-14T12:12:14Z</time>
      </trkpt>
      <trkpt lat="45.06367" lon="5.30055">
        <ele>195.42399597168</ele>
        <time>2009-07-14T12:12:21Z</time>
      </trkpt>
      <trkpt lat="45.06344" lon="5.30112">
        <ele>196.9049987793</ele>
        <time>2009-07-14T12:12:28Z</time>
      </trkpt>
      <trkpt lat="45.06334" lon="5.30135">
        <ele>197.38900756836</ele>
        <time>2009-07-14T12:12:31Z</time>
      </trkpt>
      <trkpt lat="45.06304" lon="5.30196">
        <ele>198.7380065918</ele>
        <time>2009-07-14T12:12:39Z</time>
      </trkpt>
      <trkpt lat="45.06268" lon="5.30313">
        <ele>198.91900634766</ele>
        <time>2009-07-14T12:12:52Z</time>
      </trkpt>
      <trkpt lat="45.06259" lon="5.30349">
        <ele>199.19099426269</ele>
        <time>2009-07-14T12:12:56Z</time>
      </trkpt>
      <trkpt lat="45.06194" lon="5.30462">
        <ele>200.92100524902</ele>
        <time>2009-07-14T12:13:11Z</time>
      </trkpt>
      <trkpt lat="45.06145" lon="5.30583">
        <ele>202.23100280762</ele>
        <time>2009-07-14T12:13:25Z</time>
      </trkpt>
      <trkpt lat="45.06136" lon="5.30607">
        <ele>202.55099487305</ele>
        <time>2009-07-14T12:13:28Z</time>
      </trkpt>
      <trkpt lat="45.06097" lon="5.30687">
        <ele>203.52900695801</ele>
        <time>2009-07-14T12:13:38Z</time>
      </trkpt>
      <trkpt lat="45.0603" lon="5.30774">
        <ele>204.77699279785</ele>
        <time>2009-07-14T12:13:51Z</time>
      </trkpt>
      <trkpt lat="45.05955" lon="5.30826">
        <ele>205.64900207519</ele>
        <time>2009-07-14T12:14:03Z</time>
      </trkpt>
      <trkpt lat="45.0592" lon="5.30831">
        <ele>206.90600585938</ele>
        <time>2009-07-14T12:14:08Z</time>
      </trkpt>
      <trkpt lat="45.05886" lon="5.30857">
        <ele>206.7859954834</ele>
        <time>2009-07-14T12:14:14Z</time>
      </trkpt>
      <trkpt lat="45.05816" lon="5.30866">
        <ele>207.48599243164</ele>
        <time>2009-07-14T12:14:24Z</time>
      </trkpt>
      <trkpt lat="45.05738" lon="5.30831">
        <ele>208.62699890137</ele>
        <time>2009-07-14T12:14:35Z</time>
      </trkpt>
      <trkpt lat="45.05684" lon="5.30819">
        <ele>209.2859954834</ele>
        <time>2009-07-14T12:14:42Z</time>
      </trkpt>
      <trkpt lat="45.05581" lon="5.3086">
        <ele>210.86700439453</ele>
        <time>2009-07-14T12:14:56Z</time>
      </trkpt>
      <trkpt lat="45.05559" lon="5.3089">
        <ele>211.52699279785</ele>
        <time>2009-07-14T12:15:00Z</time>
      </trkpt>
      <trkpt lat="45.05531" lon="5.30952">
        <ele>212.95599365234</ele>
        <time>2009-07-14T12:15:07Z</time>
      </trkpt>
      <trkpt lat="45.05524" lon="5.3097">
        <ele>212.79800415039</ele>
        <time>2009-07-14T12:15:09Z</time>
      </trkpt>
      <trkpt lat="45.0547" lon="5.31118">
        <ele>215.46000671387</ele>
        <time>2009-07-14T12:15:25Z</time>
      </trkpt>
      <trkpt lat="45.05458" lon="5.31226">
        <ele>217.27499389648</ele>
        <time>2009-07-14T12:15:36Z</time>
      </trkpt>
      <trkpt lat="45.05457" lon="5.31349">
        <ele>219.30900573731</ele>
        <time>2009-07-14T12:15:49Z</time>
      </trkpt>
      <trkpt lat="45.05504" lon="5.31479">
        <ele>219.94999694824</ele>
        <time>2009-07-14T12:16:04Z</time>
      </trkpt>
      <trkpt lat="45.05525" lon="5.31598">
        <ele>223.00300598144</ele>
        <time>2009-07-14T12:16:17Z</time>
      </trkpt>
      <trkpt lat="45.05525" lon="5.31615">
        <ele>223.17199707031</ele>
        <time>2009-07-14T12:16:19Z</time>
      </trkpt>
      <trkpt lat="45.05524" lon="5.31676">
        <ele>224.02299499512</ele>
        <time>2009-07-14T12:16:26Z</time>
      </trkpt>
      <trkpt lat="45.05519" lon="5.31799">
        <ele>225.94599914551</ele>
        <time>2009-07-14T12:16:39Z</time>
      </trkpt>
      <trkpt lat="45.05555" lon="5.31856">
        <ele>226.4109954834</ele>
        <time>2009-07-14T12:16:47Z</time>
      </trkpt>
      <trkpt lat="45.05562" lon="5.31859">
        <ele>226.67300415039</ele>
        <time>2009-07-14T12:16:48Z</time>
      </trkpt>
      <trkpt lat="45.05708" lon="5.31914">
        <ele>229.44200134277</ele>
        <time>2009-07-14T12:17:09Z</time>
      </trkpt>
      <trkpt lat="45.05772" lon="5.31998">
        <ele>229.78900146484</ele>
        <time>2009-07-14T12:17:21Z</time>
      </trkpt>
      <trkpt lat="45.05806" lon="5.3205">
        <ele>229.67500305176</ele>
        <time>2009-07-14T12:17:28Z</time>
      </trkpt>
      <trkpt lat="45.05819" lon="5.32118">
        <ele>228.00399780273</ele>
        <time>2009-07-14T12:17:35Z</time>
      </trkpt>
      <trkpt lat="45.05814" lon="5.32172">
        <ele>228.18699645996</ele>
        <time>2009-07-14T12:17:40Z</time>
      </trkpt>
      <trkpt lat="45.05842" lon="5.3225">
        <ele>226.67999267578</ele>
        <time>2009-07-14T12:17:48Z</time>
      </trkpt>
      <trkpt lat="45.05863" lon="5.32271">
        <ele>225.62399291992</ele>
        <time>2009-07-14T12:17:51Z</time>
      </trkpt>
      <trkpt lat="45.05897" lon="5.32356">
        <ele>225.50300598144</ele>
        <time>2009-07-14T12:17:59Z</time>
      </trkpt>
      <trkpt lat="45.05901" lon="5.32524">
        <ele>223.21800231934</ele>
        <time>2009-07-14T12:18:12Z</time>
      </trkpt>
      <trkpt lat="45.05886" lon="5.32599">
        <ele>222.49800109863</ele>
        <time>2009-07-14T12:18:18Z</time>
      </trkpt>
      <trkpt lat="45.05903" lon="5.32664">
        <ele>221.96800231934</ele>
        <time>2009-07-14T12:18:24Z</time>
      </trkpt>
      <trkpt lat="45.05965" lon="5.3269">
        <ele>220.31599426269</ele>
        <time>2009-07-14T12:18:31Z</time>
      </trkpt>
      <trkpt lat="45.05974" lon="5.32697">
        <ele>220.30799865723</ele>
        <time>2009-07-14T12:18:32Z</time>
      </trkpt>
      <trkpt lat="45.06041" lon="5.32786">
        <ele>218.82200622559</ele>
        <time>2009-07-14T12:18:42Z</time>
      </trkpt>
      <trkpt lat="45.06065" lon="5.3284">
        <ele>218.07400512695</ele>
        <time>2009-07-14T12:18:47Z</time>
      </trkpt>
      <trkpt lat="45.06073" lon="5.32903">
        <ele>217.06500244141</ele>
        <time>2009-07-14T12:18:52Z</time>
      </trkpt>
      <trkpt lat="45.06072" lon="5.32943">
        <ele>216.49200439453</ele>
        <time>2009-07-14T12:18:55Z</time>
      </trkpt>
      <trkpt lat="45.06084" lon="5.33005">
        <ele>215.58000183106</ele>
        <time>2009-07-14T12:19:00Z</time>
      </trkpt>
      <trkpt lat="45.06131" lon="5.33162">
        <ele>213.37300109863</ele>
        <time>2009-07-14T12:19:13Z</time>
      </trkpt>
      <trkpt lat="45.06179" lon="5.3331">
        <ele>212.13900756836</ele>
        <time>2009-07-14T12:19:25Z</time>
      </trkpt>
      <trkpt lat="45.06246" lon="5.33425">
        <ele>211.64900207519</ele>
        <time>2009-07-14T12:19:37Z</time>
      </trkpt>
      <trkpt lat="45.06267" lon="5.33437">
        <ele>211.28799438477</ele>
        <time>2009-07-14T12:19:40Z</time>
      </trkpt>
      <trkpt lat="45.06296" lon="5.33446">
        <ele>209.58399963379</ele>
        <time>2009-07-14T12:19:44Z</time>
      </trkpt>
      <trkpt lat="45.06304" lon="5.33447">
        <ele>209.95399475098</ele>
        <time>2009-07-14T12:19:45Z</time>
      </trkpt>
      <trkpt lat="45.06393" lon="5.33486">
        <ele>207.18899536133</ele>
        <time>2009-07-14T12:19:56Z</time>
      </trkpt>
      <trkpt lat="45.06432" lon="5.33527">
        <ele>207.27299499512</ele>
        <time>2009-07-14T12:20:02Z</time>
      </trkpt>
      <trkpt lat="45.06448" lon="5.33595">
        <ele>206.6609954834</ele>
        <time>2009-07-14T12:20:09Z</time>
      </trkpt>
      <trkpt lat="45.06445" lon="5.33604">
        <ele>206.25700378418</ele>
        <time>2009-07-14T12:20:10Z</time>
      </trkpt>
      <trkpt lat="45.06429" lon="5.33651">
        <ele>205.79699707031</ele>
        <time>2009-07-14T12:20:15Z</time>
      </trkpt>
      <trkpt lat="45.06403" lon="5.33708">
        <ele>205.78100585938</ele>
        <time>2009-07-14T12:20:22Z</time>
      </trkpt>
      <trkpt lat="45.06386" lon="5.33735">
        <ele>205.90199279785</ele>
        <time>2009-07-14T12:20:26Z</time>
      </trkpt>
      <trkpt lat="45.06316" lon="5.3386">
        <ele>206.8630065918</ele>
        <time>2009-07-14T12:20:42Z</time>
      </trkpt>
      <trkpt lat="45.06264" lon="5.33991">
        <ele>206.44400024414</ele>
        <time>2009-07-14T12:20:57Z</time>
      </trkpt>
      <trkpt lat="45.06224" lon="5.34099">
        <ele>208.06100463867</ele>
        <time>2009-07-14T12:21:10Z</time>
      </trkpt>
      <trkpt lat="45.06221" lon="5.34115">
        <ele>208.41200256348</ele>
        <time>2009-07-14T12:21:12Z</time>
      </trkpt>
      <trkpt lat="45.06215" lon="5.34147">
        <ele>208.94000244141</ele>
        <time>2009-07-14T12:21:16Z</time>
      </trkpt>
      <trkpt lat="45.06205" lon="5.34207">
        <ele>210.09399414062</ele>
        <time>2009-07-14T12:21:23Z</time>
      </trkpt>
      <trkpt lat="45.06173" lon="5.34308">
        <ele>212.57400512695</ele>
        <time>2009-07-14T12:21:36Z</time>
      </trkpt>
      <trkpt lat="45.06139" lon="5.34357">
        <ele>213.26499938965</ele>
        <time>2009-07-14T12:21:44Z</time>
      </trkpt>
      <trkpt lat="45.0611" lon="5.3443">
        <ele>209.91600036621</ele>
        <time>2009-07-14T12:21:52Z</time>
      </trkpt>
      <trkpt lat="45.06094" lon="5.34481">
        <ele>210.6309967041</ele>
        <time>2009-07-14T12:21:57Z</time>
      </trkpt>
      <trkpt lat="45.06097" lon="5.34509">
        <ele>212.08799743652</ele>
        <time>2009-07-14T12:22:00Z</time>
      </trkpt>
      <trkpt lat="45.06097" lon="5.34541">
        <ele>213.53500366211</ele>
        <time>2009-07-14T12:22:03Z</time>
      </trkpt>
      <trkpt lat="45.06096" lon="5.34622">
        <ele>214.77400207519</ele>
        <time>2009-07-14T12:22:12Z</time>
      </trkpt>
      <trkpt lat="45.06076" lon="5.3469">
        <ele>218.34199523926</ele>
        <time>2009-07-14T12:22:22Z</time>
      </trkpt>
      <trkpt lat="45.0605" lon="5.34698">
        <ele>219.52699279785</ele>
        <time>2009-07-14T12:22:30Z</time>
      </trkpt>
      <trkpt lat="45.06047" lon="5.34712">
        <ele>219.50999450684</ele>
        <time>2009-07-14T12:22:33Z</time>
      </trkpt>
      <trkpt lat="45.06051" lon="5.34737">
        <ele>220.10899353027</ele>
        <time>2009-07-14T12:22:37Z</time>
      </trkpt>
      <trkpt lat="45.06071" lon="5.34764">
        <ele>220.77600097656</ele>
        <time>2009-07-14T12:22:42Z</time>
      </trkpt>
      <trkpt lat="45.06096" lon="5.34801">
        <ele>221.41799926758</ele>
        <time>2009-07-14T12:22:48Z</time>
      </trkpt>
      <trkpt lat="45.06174" lon="5.3489">
        <ele>223.68499755859</ele>
        <time>2009-07-14T12:23:04Z</time>
      </trkpt>
      <trkpt lat="45.06189" lon="5.34903">
        <ele>223.68699645996</ele>
        <time>2009-07-14T12:23:07Z</time>
      </trkpt>
      <trkpt lat="45.0626" lon="5.34937">
        <ele>225.85600280762</ele>
        <time>2009-07-14T12:23:19Z</time>
      </trkpt>
      <trkpt lat="45.06287" lon="5.34946">
        <ele>226.99299621582</ele>
        <time>2009-07-14T12:23:24Z</time>
      </trkpt>
      <trkpt lat="45.06348" lon="5.34991">
        <ele>229.02400207519</ele>
        <time>2009-07-14T12:23:35Z</time>
      </trkpt>
      <trkpt lat="45.06401" lon="5.3509">
        <ele>230.16200256348</ele>
        <time>2009-07-14T12:23:48Z</time>
      </trkpt>
      <trkpt lat="45.06455" lon="5.35242">
        <ele>232.64599609375</ele>
        <time>2009-07-14T12:24:08Z</time>
      </trkpt>
      <trkpt lat="45.06478" lon="5.3532">
        <ele>234.42999267578</ele>
        <time>2009-07-14T12:24:18Z</time>
      </trkpt>
      <trkpt lat="45.06488" lon="5.35377">
        <ele>235.58799743652</ele>
        <time>2009-07-14T12:24:25Z</time>
      </trkpt>
      <trkpt lat="45.06516" lon="5.3542">
        <ele>235.47999572754</ele>
        <time>2009-07-14T12:24:32Z</time>
      </trkpt>
      <trkpt lat="45.06539" lon="5.35463">
        <ele>235.69500732422</ele>
        <time>2009-07-14T12:24:39Z</time>
      </trkpt>
      <trkpt lat="45.06536" lon="5.35481">
        <ele>235.99699401856</ele>
        <time>2009-07-14T12:24:41Z</time>
      </trkpt>
      <trkpt lat="45.06501" lon="5.35666">
        <ele>236.8690032959</ele>
        <time>2009-07-14T12:25:00Z</time>
      </trkpt>
      <trkpt lat="45.06521" lon="5.35747">
        <ele>237.16999816894</ele>
        <time>2009-07-14T12:25:08Z</time>
      </trkpt>
      <trkpt lat="45.06553" lon="5.35771">
        <ele>237.75300598144</ele>
        <time>2009-07-14T12:25:13Z</time>
      </trkpt>
      <trkpt lat="45.06602" lon="5.35792">
        <ele>236.79800415039</ele>
        <time>2009-07-14T12:25:20Z</time>
      </trkpt>
      <trkpt lat="45.06631" lon="5.35837">
        <ele>237.19700622559</ele>
        <time>2009-07-14T12:25:26Z</time>
      </trkpt>
      <trkpt lat="45.06655" lon="5.35983">
        <ele>238.39500427246</ele>
        <time>2009-07-14T12:25:41Z</time>
      </trkpt>
      <trkpt lat="45.06643" lon="5.36133">
        <ele>239.77099609375</ele>
        <time>2009-07-14T12:25:56Z</time>
      </trkpt>
      <trkpt lat="45.06606" lon="5.36339">
        <ele>240.42300415039</ele>
        <time>2009-07-14T12:26:16Z</time>
      </trkpt>
      <trkpt lat="45.06618" lon="5.36458">
        <ele>240.89199829102</ele>
        <time>2009-07-14T12:26:27Z</time>
      </trkpt>
      <trkpt lat="45.06628" lon="5.36523">
        <ele>241.07899475098</ele>
        <time>2009-07-14T12:26:33Z</time>
      </trkpt>
      <trkpt lat="45.06649" lon="5.36555">
        <ele>241.66700744629</ele>
        <time>2009-07-14T12:26:37Z</time>
      </trkpt>
      <trkpt lat="45.06663" lon="5.36566">
        <ele>241.69099426269</ele>
        <time>2009-07-14T12:26:39Z</time>
      </trkpt>
      <trkpt lat="45.06711" lon="5.36645">
        <ele>241.80799865723</ele>
        <time>2009-07-14T12:26:48Z</time>
      </trkpt>
      <trkpt lat="45.0672" lon="5.36702">
        <ele>242.11099243164</ele>
        <time>2009-07-14T12:26:53Z</time>
      </trkpt>
      <trkpt lat="45.06712" lon="5.36781">
        <ele>242.33399963379</ele>
        <time>2009-07-14T12:27:00Z</time>
      </trkpt>
      <trkpt lat="45.06659" lon="5.36879">
        <ele>243.24800109863</ele>
        <time>2009-07-14T12:27:11Z</time>
      </trkpt>
      <trkpt lat="45.06565" lon="5.37038">
        <ele>244.44400024414</ele>
        <time>2009-07-14T12:27:29Z</time>
      </trkpt>
      <trkpt lat="45.0653" lon="5.37083">
        <ele>244.1309967041</ele>
        <time>2009-07-14T12:27:35Z</time>
      </trkpt>
      <trkpt lat="45.06512" lon="5.37103">
        <ele>244.61000061035</ele>
        <time>2009-07-14T12:27:38Z</time>
      </trkpt>
      <trkpt lat="45.06478" lon="5.37143">
        <ele>245.26300048828</ele>
        <time>2009-07-14T12:27:44Z</time>
      </trkpt>
      <trkpt lat="45.06471" lon="5.37209">
        <ele>245.82899475098</ele>
        <time>2009-07-14T12:27:51Z</time>
      </trkpt>
      <trkpt lat="45.06474" lon="5.37218">
        <ele>245.80900573731</ele>
        <time>2009-07-14T12:27:52Z</time>
      </trkpt>
      <trkpt lat="45.06485" lon="5.37246">
        <ele>246.66200256348</ele>
        <time>2009-07-14T12:27:55Z</time>
      </trkpt>
      <trkpt lat="45.06516" lon="5.3728">
        <ele>246.70199584961</ele>
        <time>2009-07-14T12:28:00Z</time>
      </trkpt>
      <trkpt lat="45.0663" lon="5.37326">
        <ele>247.81199645996</ele>
        <time>2009-07-14T12:28:15Z</time>
      </trkpt>
      <trkpt lat="45.06653" lon="5.37333">
        <ele>247.62399291992</ele>
        <time>2009-07-14T12:28:18Z</time>
      </trkpt>
      <trkpt lat="45.06697" lon="5.37397">
        <ele>248.42900085449</ele>
        <time>2009-07-14T12:28:26Z</time>
      </trkpt>
      <trkpt lat="45.06707" lon="5.3754">
        <ele>249.35699462891</ele>
        <time>2009-07-14T12:28:39Z</time>
      </trkpt>
      <trkpt lat="45.06713" lon="5.3768">
        <ele>249.75500488281</ele>
        <time>2009-07-14T12:28:52Z</time>
      </trkpt>
      <trkpt lat="45.0672" lon="5.37722">
        <ele>251.3450012207</ele>
        <time>2009-07-14T12:28:56Z</time>
      </trkpt>
      <trkpt lat="45.06718" lon="5.37875">
        <ele>254.08700561523</ele>
        <time>2009-07-14T12:29:11Z</time>
      </trkpt>
      <trkpt lat="45.06725" lon="5.37954">
        <ele>255.65400695801</ele>
        <time>2009-07-14T12:29:19Z</time>
      </trkpt>
      <trkpt lat="45.06744" lon="5.38085">
        <ele>258.33499145508</ele>
        <time>2009-07-14T12:29:33Z</time>
      </trkpt>
      <trkpt lat="45.06768" lon="5.38177">
        <ele>260.50201416016</ele>
        <time>2009-07-14T12:29:43Z</time>
      </trkpt>
      <trkpt lat="45.06771" lon="5.38244">
        <ele>261.83099365234</ele>
        <time>2009-07-14T12:29:50Z</time>
      </trkpt>
      <trkpt lat="45.06773" lon="5.38302">
        <ele>262.46499633789</ele>
        <time>2009-07-14T12:29:56Z</time>
      </trkpt>
      <trkpt lat="45.06802" lon="5.38464">
        <ele>266.01400756836</ele>
        <time>2009-07-14T12:30:13Z</time>
      </trkpt>
      <trkpt lat="45.06803" lon="5.38494">
        <ele>266.27499389648</ele>
        <time>2009-07-14T12:30:16Z</time>
      </trkpt>
      <trkpt lat="45.06794" lon="5.38553">
        <ele>266.50201416016</ele>
        <time>2009-07-14T12:30:22Z</time>
      </trkpt>
      <trkpt lat="45.06776" lon="5.38596">
        <ele>268.20098876953</ele>
        <time>2009-07-14T12:30:27Z</time>
      </trkpt>
      <trkpt lat="45.0677" lon="5.38613">
        <ele>269.02899169922</ele>
        <time>2009-07-14T12:30:29Z</time>
      </trkpt>
      <trkpt lat="45.06739" lon="5.38737">
        <ele>271.41101074219</ele>
        <time>2009-07-14T12:30:42Z</time>
      </trkpt>
      <trkpt lat="45.06734" lon="5.38777">
        <ele>272.3450012207</ele>
        <time>2009-07-14T12:30:46Z</time>
      </trkpt>
      <trkpt lat="45.06733" lon="5.38817">
        <ele>272.87701416016</ele>
        <time>2009-07-14T12:30:50Z</time>
      </trkpt>
      <trkpt lat="45.06701" lon="5.38887">
        <ele>274.67199707031</ele>
        <time>2009-07-14T12:30:59Z</time>
      </trkpt>
      <trkpt lat="45.06682" lon="5.38891">
        <ele>275.60800170898</ele>
        <time>2009-07-14T12:31:02Z</time>
      </trkpt>
      <trkpt lat="45.0665" lon="5.38913">
        <ele>275.70901489258</ele>
        <time>2009-07-14T12:31:07Z</time>
      </trkpt>
      <trkpt lat="45.06636" lon="5.38989">
        <ele>277.28298950195</ele>
        <time>2009-07-14T12:31:15Z</time>
      </trkpt>
      <trkpt lat="45.06672" lon="5.39102">
        <ele>280.52600097656</ele>
        <time>2009-07-14T12:31:28Z</time>
      </trkpt>
      <trkpt lat="45.06681" lon="5.39153">
        <ele>280.36099243164</ele>
        <time>2009-07-14T12:31:33Z</time>
      </trkpt>
      <trkpt lat="45.06681" lon="5.39188">
        <ele>279.17001342773</ele>
        <time>2009-07-14T12:31:36Z</time>
      </trkpt>
      <trkpt lat="45.0669" lon="5.3923">
        <ele>278.20599365234</ele>
        <time>2009-07-14T12:31:40Z</time>
      </trkpt>
      <trkpt lat="45.06677" lon="5.39275">
        <ele>279.43399047852</ele>
        <time>2009-07-14T12:31:46Z</time>
      </trkpt>
      <trkpt lat="45.06635" lon="5.39281">
        <ele>280.90899658203</ele>
        <time>2009-07-14T12:31:53Z</time>
      </trkpt>
      <trkpt lat="45.06625" lon="5.39289">
        <ele>281.73699951172</ele>
        <time>2009-07-14T12:31:55Z</time>
      </trkpt>
      <trkpt lat="45.06591" lon="5.39347">
        <ele>283.16299438477</ele>
        <time>2009-07-14T12:32:04Z</time>
      </trkpt>
      <trkpt lat="45.06541" lon="5.39438">
        <ele>287.97799682617</ele>
        <time>2009-07-14T12:32:19Z</time>
      </trkpt>
      <trkpt lat="45.06539" lon="5.39445">
        <ele>288.12701416016</ele>
        <time>2009-07-14T12:32:20Z</time>
      </trkpt>
      <trkpt lat="45.06541" lon="5.3956">
        <ele>292.85998535156</ele>
        <time>2009-07-14T12:32:36Z</time>
      </trkpt>
      <trkpt lat="45.06544" lon="5.39608">
        <ele>294.39401245117</ele>
        <time>2009-07-14T12:32:43Z</time>
      </trkpt>
      <trkpt lat="45.06546" lon="5.39633">
        <ele>296.0119934082</ele>
        <time>2009-07-14T12:32:47Z</time>
      </trkpt>
      <trkpt lat="45.06543" lon="5.39655">
        <ele>296.85198974609</ele>
        <time>2009-07-14T12:32:51Z</time>
      </trkpt>
      <trkpt lat="45.0653" lon="5.39681">
        <ele>298.16299438477</ele>
        <time>2009-07-14T12:32:56Z</time>
      </trkpt>
      <trkpt lat="45.06486" lon="5.39749">
        <ele>301.67098999023</ele>
        <time>2009-07-14T12:33:10Z</time>
      </trkpt>
      <trkpt lat="45.06457" lon="5.39818">
        <ele>304.80200195312</ele>
        <time>2009-07-14T12:33:24Z</time>
      </trkpt>
      <trkpt lat="45.06446" lon="5.39834">
        <ele>305.69400024414</ele>
        <time>2009-07-14T12:33:28Z</time>
      </trkpt>
      <trkpt lat="45.06424" lon="5.39877">
        <ele>308.03698730469</ele>
        <time>2009-07-14T12:33:37Z</time>
      </trkpt>
      <trkpt lat="45.06373" lon="5.39928">
        <ele>311.70401000977</ele>
        <time>2009-07-14T12:33:52Z</time>
      </trkpt>
      <trkpt lat="45.0632" lon="5.39982">
        <ele>315.60699462891</ele>
        <time>2009-07-14T12:34:10Z</time>
      </trkpt>
      <trkpt lat="45.0627" lon="5.4003">
        <ele>319.10900878906</ele>
        <time>2009-07-14T12:34:27Z</time>
      </trkpt>
      <trkpt lat="45.06239" lon="5.40106">
        <ele>323.03201293945</ele>
        <time>2009-07-14T12:34:44Z</time>
      </trkpt>
      <trkpt lat="45.06228" lon="5.40192">
        <ele>327.04400634766</ele>
        <time>2009-07-14T12:35:00Z</time>
      </trkpt>
      <trkpt lat="45.06229" lon="5.40268">
        <ele>330.30899047852</ele>
        <time>2009-07-14T12:35:14Z</time>
      </trkpt>
      <trkpt lat="45.06204" lon="5.4032">
        <ele>333.13299560547</ele>
        <time>2009-07-14T12:35:27Z</time>
      </trkpt>
      <trkpt lat="45.06199" lon="5.40328">
        <ele>333.68399047852</ele>
        <time>2009-07-14T12:35:29Z</time>
      </trkpt>
      <trkpt lat="45.06178" lon="5.40363">
        <ele>335.81600952148</ele>
        <time>2009-07-14T12:35:37Z</time>
      </trkpt>
      <trkpt lat="45.06175" lon="5.40376">
        <ele>336.64300537109</ele>
        <time>2009-07-14T12:35:39Z</time>
      </trkpt>
      <trkpt lat="45.06157" lon="5.40466">
        <ele>339.97900390625</ele>
        <time>2009-07-14T12:35:54Z</time>
      </trkpt>
      <trkpt lat="45.06155" lon="5.40478">
        <ele>340.28900146484</ele>
        <time>2009-07-14T12:35:56Z</time>
      </trkpt>
      <trkpt lat="45.06154" lon="5.40503">
        <ele>341.44100952148</ele>
        <time>2009-07-14T12:36:00Z</time>
      </trkpt>
      <trkpt lat="45.06158" lon="5.40525">
        <ele>342.20199584961</ele>
        <time>2009-07-14T12:36:04Z</time>
      </trkpt>
      <trkpt lat="45.06163" lon="5.40542">
        <ele>342.64498901367</ele>
        <time>2009-07-14T12:36:07Z</time>
      </trkpt>
      <trkpt lat="45.06153" lon="5.40585">
        <ele>344.57998657227</ele>
        <time>2009-07-14T12:36:15Z</time>
      </trkpt>
      <trkpt lat="45.06132" lon="5.40635">
        <ele>347.07598876953</ele>
        <time>2009-07-14T12:36:26Z</time>
      </trkpt>
      <trkpt lat="45.06105" lon="5.40646">
        <ele>348.3630065918</ele>
        <time>2009-07-14T12:36:33Z</time>
      </trkpt>
      <trkpt lat="45.06073" lon="5.40645">
        <ele>350.92999267578</ele>
        <time>2009-07-14T12:36:41Z</time>
      </trkpt>
      <trkpt lat="45.06058" lon="5.40651">
        <ele>351.64199829102</ele>
        <time>2009-07-14T12:36:45Z</time>
      </trkpt>
      <trkpt lat="45.06051" lon="5.40667">
        <ele>352.78399658203</ele>
        <time>2009-07-14T12:36:48Z</time>
      </trkpt>
      <trkpt lat="45.06046" lon="5.40678">
        <ele>353.70300292969</ele>
        <time>2009-07-14T12:36:50Z</time>
      </trkpt>
      <trkpt lat="45.06036" lon="5.407">
        <ele>353.5539855957</ele>
        <time>2009-07-14T12:36:54Z</time>
      </trkpt>
      <trkpt lat="45.06014" lon="5.40743">
        <ele>357.26998901367</ele>
        <time>2009-07-14T12:37:03Z</time>
      </trkpt>
      <trkpt lat="45.06008" lon="5.40751">
        <ele>357.04800415039</ele>
        <time>2009-07-14T12:37:05Z</time>
      </trkpt>
      <trkpt lat="45.05941" lon="5.40809">
        <ele>360.86700439453</ele>
        <time>2009-07-14T12:37:22Z</time>
      </trkpt>
      <trkpt lat="45.05925" lon="5.40822">
        <ele>362.93600463867</ele>
        <time>2009-07-14T12:37:26Z</time>
      </trkpt>
      <trkpt lat="45.05909" lon="5.40839">
        <ele>363.60101318359</ele>
        <time>2009-07-14T12:37:31Z</time>
      </trkpt>
      <trkpt lat="45.05895" lon="5.40863">
        <ele>365.46200561523</ele>
        <time>2009-07-14T12:37:36Z</time>
      </trkpt>
      <trkpt lat="45.05894" lon="5.40868">
        <ele>365.73901367188</ele>
        <time>2009-07-14T12:37:37Z</time>
      </trkpt>
      <trkpt lat="45.05891" lon="5.40917">
        <ele>366.8869934082</ele>
        <time>2009-07-14T12:37:45Z</time>
      </trkpt>
      <trkpt lat="45.05877" lon="5.40955">
        <ele>369.02200317383</ele>
        <time>2009-07-14T12:37:52Z</time>
      </trkpt>
      <trkpt lat="45.05863" lon="5.40975">
        <ele>370.70599365234</ele>
        <time>2009-07-14T12:37:57Z</time>
      </trkpt>
      <trkpt lat="45.05866" lon="5.41037">
        <ele>373.08801269531</ele>
        <time>2009-07-14T12:38:09Z</time>
      </trkpt>
      <trkpt lat="45.05903" lon="5.41093">
        <ele>375.45098876953</ele>
        <time>2009-07-14T12:38:23Z</time>
      </trkpt>
      <trkpt lat="45.0596" lon="5.41129">
        <ele>377.74200439453</ele>
        <time>2009-07-14T12:38:39Z</time>
      </trkpt>
      <trkpt lat="45.05976" lon="5.412">
        <ele>380.38900756836</ele>
        <time>2009-07-14T12:38:53Z</time>
      </trkpt>
      <trkpt lat="45.05983" lon="5.41272">
        <ele>382.77301025391</ele>
        <time>2009-07-14T12:39:05Z</time>
      </trkpt>
      <trkpt lat="45.05993" lon="5.41306">
        <ele>384.36801147461</ele>
        <time>2009-07-14T12:39:11Z</time>
      </trkpt>
      <trkpt lat="45.06009" lon="5.41338">
        <ele>384.83499145508</ele>
        <time>2009-07-14T12:39:17Z</time>
      </trkpt>
      <trkpt lat="45.06017" lon="5.41362">
        <ele>385.87899780273</ele>
        <time>2009-07-14T12:39:21Z</time>
      </trkpt>
      <trkpt lat="45.06025" lon="5.4146">
        <ele>389.48098754883</ele>
        <time>2009-07-14T12:39:38Z</time>
      </trkpt>
      <trkpt lat="45.06027" lon="5.41465">
        <ele>389.50799560547</ele>
        <time>2009-07-14T12:39:39Z</time>
      </trkpt>
      <trkpt lat="45.06035" lon="5.41478">
        <ele>390.31698608398</ele>
        <time>2009-07-14T12:39:42Z</time>
      </trkpt>
      <trkpt lat="45.06063" lon="5.41505">
        <ele>391.66900634766</ele>
        <time>2009-07-14T12:39:50Z</time>
      </trkpt>
      <trkpt lat="45.06078" lon="5.41552">
        <ele>393.51599121094</ele>
        <time>2009-07-14T12:39:59Z</time>
      </trkpt>
      <trkpt lat="45.06073" lon="5.4164">
        <ele>397.07998657227</ele>
        <time>2009-07-14T12:40:14Z</time>
      </trkpt>
      <trkpt lat="45.061" lon="5.41759">
        <ele>402.61700439453</ele>
        <time>2009-07-14T12:40:33Z</time>
      </trkpt>
      <trkpt lat="45.06112" lon="5.41842">
        <ele>405.97601318359</ele>
        <time>2009-07-14T12:40:45Z</time>
      </trkpt>
      <trkpt lat="45.06154" lon="5.41929">
        <ele>410.62399291992</ele>
        <time>2009-07-14T12:41:01Z</time>
      </trkpt>
      <trkpt lat="45.06205" lon="5.41993">
        <ele>414.69500732422</ele>
        <time>2009-07-14T12:41:18Z</time>
      </trkpt>
      <trkpt lat="45.06259" lon="5.42058">
        <ele>418.90899658203</ele>
        <time>2009-07-14T12:41:37Z</time>
      </trkpt>
      <trkpt lat="45.06297" lon="5.42118">
        <ele>421.77301025391</ele>
        <time>2009-07-14T12:41:53Z</time>
      </trkpt>
      <trkpt lat="45.06306" lon="5.4217">
        <ele>424.08700561523</ele>
        <time>2009-07-14T12:42:03Z</time>
      </trkpt>
      <trkpt lat="45.06317" lon="5.42248">
        <ele>427.00299072266</ele>
        <time>2009-07-14T12:42:18Z</time>
      </trkpt>
      <trkpt lat="45.0632" lon="5.42275">
        <ele>429.05499267578</ele>
        <time>2009-07-14T12:42:23Z</time>
      </trkpt>
      <trkpt lat="45.06321" lon="5.42272">
        <ele>428.44000244141</ele>
        <time>2009-07-14T12:42:29Z</time>
      </trkpt>
      <trkpt lat="45.06321" lon="5.42272">
        <ele>428.54699707031</ele>
        <time>2009-07-14T12:42:30Z</time>
      </trkpt>
      <trkpt lat="45.0632" lon="5.42282">
        <ele>429.10400390625</ele>
        <time>2009-07-14T12:42:39Z</time>
      </trkpt>
      <trkpt lat="45.06321" lon="5.42295">
        <ele>429.50201416016</ele>
        <time>2009-07-14T12:42:43Z</time>
      </trkpt>
      <trkpt lat="45.06327" lon="5.42366">
        <ele>432.7380065918</ele>
        <time>2009-07-14T12:42:58Z</time>
      </trkpt>
      <trkpt lat="45.06337" lon="5.42468">
        <ele>437.41799926758</ele>
        <time>2009-07-14T12:43:18Z</time>
      </trkpt>
      <trkpt lat="45.06356" lon="5.42578">
        <ele>442.56399536133</ele>
        <time>2009-07-14T12:43:39Z</time>
      </trkpt>
      <trkpt lat="45.06369" lon="5.4266">
        <ele>446.29998779297</ele>
        <time>2009-07-14T12:43:55Z</time>
      </trkpt>
      <trkpt lat="45.06402" lon="5.4271">
        <ele>449.02700805664</ele>
        <time>2009-07-14T12:44:08Z</time>
      </trkpt>
      <trkpt lat="45.06469" lon="5.42746">
        <ele>452.56201171875</ele>
        <time>2009-07-14T12:44:26Z</time>
      </trkpt>
      <trkpt lat="45.06506" lon="5.42791">
        <ele>455.83801269531</ele>
        <time>2009-07-14T12:44:40Z</time>
      </trkpt>
      <trkpt lat="45.06527" lon="5.42848">
        <ele>458.49200439453</ele>
        <time>2009-07-14T12:44:53Z</time>
      </trkpt>
      <trkpt lat="45.06549" lon="5.42891">
        <ele>460.8450012207</ele>
        <time>2009-07-14T12:45:03Z</time>
      </trkpt>
      <trkpt lat="45.06596" lon="5.4295">
        <ele>464.34201049805</ele>
        <time>2009-07-14T12:45:19Z</time>
      </trkpt>
      <trkpt lat="45.0664" lon="5.42991">
        <ele>466.66598510742</ele>
        <time>2009-07-14T12:45:32Z</time>
      </trkpt>
      <trkpt lat="45.06682" lon="5.43054">
        <ele>469.95199584961</ele>
        <time>2009-07-14T12:45:48Z</time>
      </trkpt>
      <trkpt lat="45.06713" lon="5.43108">
        <ele>472.71301269531</ele>
        <time>2009-07-14T12:46:01Z</time>
      </trkpt>
      <trkpt lat="45.06726" lon="5.43122">
        <ele>473.60998535156</ele>
        <time>2009-07-14T12:46:05Z</time>
      </trkpt>
      <trkpt lat="45.06766" lon="5.43198">
        <ele>477.10198974609</ele>
        <time>2009-07-14T12:46:22Z</time>
      </trkpt>
      <trkpt lat="45.06808" lon="5.43303">
        <ele>480.79901123047</ele>
        <time>2009-07-14T12:46:43Z</time>
      </trkpt>
      <trkpt lat="45.06826" lon="5.43392">
        <ele>483.76599121094</ele>
        <time>2009-07-14T12:47:00Z</time>
      </trkpt>
      <trkpt lat="45.06824" lon="5.43489">
        <ele>487.66000366211</ele>
        <time>2009-07-14T12:47:16Z</time>
      </trkpt>
      <trkpt lat="45.06826" lon="5.43501">
        <ele>488.12100219727</ele>
        <time>2009-07-14T12:47:18Z</time>
      </trkpt>
      <trkpt lat="45.06858" lon="5.4363">
        <ele>493.50100708008</ele>
        <time>2009-07-14T12:47:39Z</time>
      </trkpt>
      <trkpt lat="45.06878" lon="5.43672">
        <ele>494.29000854492</ele>
        <time>2009-07-14T12:47:47Z</time>
      </trkpt>
      <trkpt lat="45.06912" lon="5.43764">
        <ele>499.22399902344</ele>
        <time>2009-07-14T12:48:05Z</time>
      </trkpt>
      <trkpt lat="45.06943" lon="5.43831">
        <ele>502.62701416016</ele>
        <time>2009-07-14T12:48:19Z</time>
      </trkpt>
      <trkpt lat="45.06963" lon="5.439">
        <ele>506.30499267578</ele>
        <time>2009-07-14T12:48:33Z</time>
      </trkpt>
      <trkpt lat="45.07005" lon="5.43983">
        <ele>510.43200683594</ele>
        <time>2009-07-14T12:48:52Z</time>
      </trkpt>
      <trkpt lat="45.0705" lon="5.4404">
        <ele>513.79400634766</ele>
        <time>2009-07-14T12:49:08Z</time>
      </trkpt>
      <trkpt lat="45.07084" lon="5.44093">
        <ele>517.16900634766</ele>
        <time>2009-07-14T12:49:22Z</time>
      </trkpt>
      <trkpt lat="45.07125" lon="5.44144">
        <ele>519.65802001953</ele>
        <time>2009-07-14T12:49:36Z</time>
      </trkpt>
      <trkpt lat="45.07174" lon="5.44204">
        <ele>524.13598632812</ele>
        <time>2009-07-14T12:49:52Z</time>
      </trkpt>
      <trkpt lat="45.07183" lon="5.44284">
        <ele>528.21002197266</ele>
        <time>2009-07-14T12:50:08Z</time>
      </trkpt>
      <trkpt lat="45.07179" lon="5.44336">
        <ele>530.09100341797</ele>
        <time>2009-07-14T12:50:18Z</time>
      </trkpt>
      <trkpt lat="45.07169" lon="5.44365">
        <ele>532.6669921875</ele>
        <time>2009-07-14T12:50:23Z</time>
      </trkpt>
      <trkpt lat="45.07191" lon="5.44453">
        <ele>536.27697753906</ele>
        <time>2009-07-14T12:50:41Z</time>
      </trkpt>
      <trkpt lat="45.07235" lon="5.4451">
        <ele>539.46600341797</ele>
        <time>2009-07-14T12:50:57Z</time>
      </trkpt>
      <trkpt lat="45.0725" lon="5.44576">
        <ele>542.25897216797</ele>
        <time>2009-07-14T12:51:12Z</time>
      </trkpt>
      <trkpt lat="45.07266" lon="5.44614">
        <ele>544.50598144531</ele>
        <time>2009-07-14T12:51:21Z</time>
      </trkpt>
      <trkpt lat="45.07269" lon="5.4463">
        <ele>545.583984375</ele>
        <time>2009-07-14T12:51:24Z</time>
      </trkpt>
      <trkpt lat="45.07275" lon="5.44643">
        <ele>546.61199951172</ele>
        <time>2009-07-14T12:51:27Z</time>
      </trkpt>
      <trkpt lat="45.07285" lon="5.44657">
        <ele>547.81896972656</ele>
        <time>2009-07-14T12:51:37Z</time>
      </trkpt>
      <trkpt lat="45.07299" lon="5.44684">
        <ele>549.80499267578</ele>
        <time>2009-07-14T12:51:44Z</time>
      </trkpt>
      <trkpt lat="45.07303" lon="5.44691">
        <ele>549.88598632812</ele>
        <time>2009-07-14T12:51:46Z</time>
      </trkpt>
      <trkpt lat="45.07325" lon="5.44727">
        <ele>552.35498046875</ele>
        <time>2009-07-14T12:51:57Z</time>
      </trkpt>
      <trkpt lat="45.07366" lon="5.44747">
        <ele>554.40899658203</ele>
        <time>2009-07-14T12:52:12Z</time>
      </trkpt>
      <trkpt lat="45.07394" lon="5.4477">
        <ele>556.28302001953</ele>
        <time>2009-07-14T12:52:21Z</time>
      </trkpt>
      <trkpt lat="45.07399" lon="5.44775">
        <ele>556.86401367188</ele>
        <time>2009-07-14T12:52:23Z</time>
      </trkpt>
      <trkpt lat="45.07421" lon="5.44813">
        <ele>558.47900390625</ele>
        <time>2009-07-14T12:52:33Z</time>
      </trkpt>
      <trkpt lat="45.07445" lon="5.44864">
        <ele>561.35198974609</ele>
        <time>2009-07-14T12:52:46Z</time>
      </trkpt>
      <trkpt lat="45.07489" lon="5.44892">
        <ele>564.10998535156</ele>
        <time>2009-07-14T12:52:59Z</time>
      </trkpt>
      <trkpt lat="45.07545" lon="5.44935">
        <ele>567.81298828125</ele>
        <time>2009-07-14T12:53:15Z</time>
      </trkpt>
      <trkpt lat="45.07583" lon="5.44971">
        <ele>570.86297607422</ele>
        <time>2009-07-14T12:53:28Z</time>
      </trkpt>
      <trkpt lat="45.07629" lon="5.45004">
        <ele>574.23901367188</ele>
        <time>2009-07-14T12:53:43Z</time>
      </trkpt>
      <trkpt lat="45.07677" lon="5.45043">
        <ele>577.42797851562</ele>
        <time>2009-07-14T12:53:58Z</time>
      </trkpt>
      <trkpt lat="45.07715" lon="5.45077">
        <ele>580.02398681641</ele>
        <time>2009-07-14T12:54:11Z</time>
      </trkpt>
      <trkpt lat="45.07743" lon="5.45108">
        <ele>582.21002197266</ele>
        <time>2009-07-14T12:54:21Z</time>
      </trkpt>
      <trkpt lat="45.07759" lon="5.45139">
        <ele>585.39898681641</ele>
        <time>2009-07-14T12:54:32Z</time>
      </trkpt>
      <trkpt lat="45.07767" lon="5.45296">
        <ele>595.25500488281</ele>
        <time>2009-07-14T12:55:13Z</time>
      </trkpt>
      <trkpt lat="45.07796" lon="5.45353">
        <ele>596.71600341797</ele>
        <time>2009-07-14T12:55:20Z</time>
      </trkpt>
      <trkpt lat="45.07847" lon="5.4541">
        <ele>600.89599609375</ele>
        <time>2009-07-14T12:55:36Z</time>
      </trkpt>
      <trkpt lat="45.07892" lon="5.45442">
        <ele>603.01702880859</ele>
        <time>2009-07-14T12:55:49Z</time>
      </trkpt>
      <trkpt lat="45.07941" lon="5.45487">
        <ele>606.92498779297</ele>
        <time>2009-07-14T12:56:04Z</time>
      </trkpt>
      <trkpt lat="45.07975" lon="5.45535">
        <ele>609.32202148438</ele>
        <time>2009-07-14T12:56:15Z</time>
      </trkpt>
      <trkpt lat="45.0801" lon="5.45551">
        <ele>612.58502197266</ele>
        <time>2009-07-14T12:56:26Z</time>
      </trkpt>
      <trkpt lat="45.08032" lon="5.45581">
        <ele>616.11602783203</ele>
        <time>2009-07-14T12:56:37Z</time>
      </trkpt>
      <trkpt lat="45.08065" lon="5.45605">
        <ele>618.68402099609</ele>
        <time>2009-07-14T12:56:47Z</time>
      </trkpt>
      <trkpt lat="45.08112" lon="5.45651">
        <ele>622.30700683594</ele>
        <time>2009-07-14T12:57:00Z</time>
      </trkpt>
      <trkpt lat="45.08151" lon="5.45678">
        <ele>625.60498046875</ele>
        <time>2009-07-14T12:57:12Z</time>
      </trkpt>
      <trkpt lat="45.08199" lon="5.45737">
        <ele>629.97100830078</ele>
        <time>2009-07-14T12:57:27Z</time>
      </trkpt>
      <trkpt lat="45.08249" lon="5.45743">
        <ele>633.48699951172</ele>
        <time>2009-07-14T12:57:40Z</time>
      </trkpt>
      <trkpt lat="45.08265" lon="5.45742">
        <ele>634.291015625</ele>
        <time>2009-07-14T12:57:43Z</time>
      </trkpt>
      <trkpt lat="45.08298" lon="5.45732">
        <ele>636.01702880859</ele>
        <time>2009-07-14T12:57:50Z</time>
      </trkpt>
      <trkpt lat="45.08329" lon="5.45776">
        <ele>637.62200927734</ele>
        <time>2009-07-14T12:58:00Z</time>
      </trkpt>
      <trkpt lat="45.0838" lon="5.45827">
        <ele>638.60998535156</ele>
        <time>2009-07-14T12:58:11Z</time>
      </trkpt>
      <trkpt lat="45.08412" lon="5.45867">
        <ele>638.32800292969</ele>
        <time>2009-07-14T12:58:18Z</time>
      </trkpt>
      <trkpt lat="45.08438" lon="5.45897">
        <ele>638.87200927734</ele>
        <time>2009-07-14T12:58:23Z</time>
      </trkpt>
      <trkpt lat="45.08503" lon="5.45967">
        <ele>640.20599365234</ele>
        <time>2009-07-14T12:58:35Z</time>
      </trkpt>
      <trkpt lat="45.08517" lon="5.45984">
        <ele>640.66998291016</ele>
        <time>2009-07-14T12:58:38Z</time>
      </trkpt>
      <trkpt lat="45.08556" lon="5.46016">
        <ele>640.46002197266</ele>
        <time>2009-07-14T12:58:45Z</time>
      </trkpt>
      <trkpt lat="45.08572" lon="5.46024">
        <ele>640.02801513672</ele>
        <time>2009-07-14T12:58:48Z</time>
      </trkpt>
      <trkpt lat="45.08618" lon="5.4605">
        <ele>640.76098632812</ele>
        <time>2009-07-14T12:58:55Z</time>
      </trkpt>
      <trkpt lat="45.08643" lon="5.46086">
        <ele>641.29602050781</ele>
        <time>2009-07-14T12:59:00Z</time>
      </trkpt>
      <trkpt lat="45.08665" lon="5.46136">
        <ele>642.16400146484</ele>
        <time>2009-07-14T12:59:09Z</time>
      </trkpt>
      <trkpt lat="45.08673" lon="5.46154">
        <ele>642.25</ele>
        <time>2009-07-14T12:59:12Z</time>
      </trkpt>
      <trkpt lat="45.08677" lon="5.4617">
        <ele>642.05297851562</ele>
        <time>2009-07-14T12:59:14Z</time>
      </trkpt>
      <trkpt lat="45.08679" lon="5.46187">
        <ele>641.61700439453</ele>
        <time>2009-07-14T12:59:16Z</time>
      </trkpt>
      <trkpt lat="45.08677" lon="5.46244">
        <ele>644.166015625</ele>
        <time>2009-07-14T12:59:22Z</time>
      </trkpt>
      <trkpt lat="45.08677" lon="5.46253">
        <ele>644.28302001953</ele>
        <time>2009-07-14T12:59:23Z</time>
      </trkpt>
      <trkpt lat="45.08705" lon="5.46352">
        <ele>645.45501708984</ele>
        <time>2009-07-14T12:59:35Z</time>
      </trkpt>
      <trkpt lat="45.08727" lon="5.46454">
        <ele>646.00598144531</ele>
        <time>2009-07-14T12:59:47Z</time>
      </trkpt>
      <trkpt lat="45.08725" lon="5.46554">
        <ele>647.75201416016</ele>
        <time>2009-07-14T12:59:57Z</time>
      </trkpt>
      <trkpt lat="45.08736" lon="5.46601">
        <ele>648.96197509766</ele>
        <time>2009-07-14T13:00:02Z</time>
      </trkpt>
      <trkpt lat="45.08786" lon="5.46714">
        <ele>649.42797851562</ele>
        <time>2009-07-14T13:00:16Z</time>
      </trkpt>
      <trkpt lat="45.08813" lon="5.46785">
        <ele>649.56097412109</ele>
        <time>2009-07-14T13:00:25Z</time>
      </trkpt>
      <trkpt lat="45.08823" lon="5.46801">
        <ele>649.67199707031</ele>
        <time>2009-07-14T13:00:29Z</time>
      </trkpt>
      <trkpt lat="45.08827" lon="5.46795">
        <ele>649.80902099609</ele>
        <time>2009-07-14T13:00:33Z</time>
      </trkpt>
      <trkpt lat="45.08827" lon="5.46791">
        <ele>650.15100097656</ele>
        <time>2009-07-14T13:00:37Z</time>
      </trkpt>
      <trkpt lat="45.08824" lon="5.4678">
        <ele>650.55798339844</ele>
        <time>2009-07-14T13:02:38Z</time>
      </trkpt>
      <trkpt lat="45.08824" lon="5.4678">
        <ele>650.55499267578</ele>
        <time>2009-07-14T13:02:39Z</time>
      </trkpt>
      <trkpt lat="45.08821" lon="5.46779">
        <ele>650.48199462891</ele>
        <time>2009-07-14T13:04:52Z</time>
      </trkpt>
      <trkpt lat="45.08821" lon="5.46779">
        <ele>650.50799560547</ele>
        <time>2009-07-14T13:04:53Z</time>
      </trkpt>
      <trkpt lat="45.08826" lon="5.46817">
        <ele>650.46502685547</ele>
        <time>2009-07-14T13:05:09Z</time>
      </trkpt>
      <trkpt lat="45.08835" lon="5.46832">
        <ele>650.55700683594</ele>
        <time>2009-07-14T13:05:12Z</time>
      </trkpt>
      <trkpt lat="45.0885" lon="5.46847">
        <ele>650.58599853516</ele>
        <time>2009-07-14T13:05:16Z</time>
      </trkpt>
      <trkpt lat="45.08888" lon="5.46865">
        <ele>650.93701171875</ele>
        <time>2009-07-14T13:05:24Z</time>
      </trkpt>
      <trkpt lat="45.08957" lon="5.46927">
        <ele>651.59899902344</ele>
        <time>2009-07-14T13:05:38Z</time>
      </trkpt>
      <trkpt lat="45.08963" lon="5.4694">
        <ele>651.36102294922</ele>
        <time>2009-07-14T13:05:40Z</time>
      </trkpt>
      <trkpt lat="45.08975" lon="5.46991">
        <ele>651.21899414062</ele>
        <time>2009-07-14T13:05:46Z</time>
      </trkpt>
      <trkpt lat="45.08973" lon="5.47027">
        <ele>651.20697021484</ele>
        <time>2009-07-14T13:05:50Z</time>
      </trkpt>
      <trkpt lat="45.08958" lon="5.47075">
        <ele>651.54998779297</ele>
        <time>2009-07-14T13:05:56Z</time>
      </trkpt>
      <trkpt lat="45.08902" lon="5.47166">
        <ele>653.27099609375</ele>
        <time>2009-07-14T13:06:11Z</time>
      </trkpt>
      <trkpt lat="45.08825" lon="5.4729">
        <ele>654.33801269531</ele>
        <time>2009-07-14T13:06:30Z</time>
      </trkpt>
      <trkpt lat="45.08772" lon="5.4738">
        <ele>654.83599853516</ele>
        <time>2009-07-14T13:06:43Z</time>
      </trkpt>
      <trkpt lat="45.08753" lon="5.47439">
        <ele>655.30603027344</ele>
        <time>2009-07-14T13:06:50Z</time>
      </trkpt>
      <trkpt lat="45.08743" lon="5.47464">
        <ele>655.62200927734</ele>
        <time>2009-07-14T13:06:53Z</time>
      </trkpt>
      <trkpt lat="45.0871" lon="5.47537">
        <ele>656.34698486328</ele>
        <time>2009-07-14T13:07:02Z</time>
      </trkpt>
      <trkpt lat="45.08686" lon="5.47587">
        <ele>656.63397216797</ele>
        <time>2009-07-14T13:07:08Z</time>
      </trkpt>
      <trkpt lat="45.08625" lon="5.47718">
        <ele>658.07098388672</ele>
        <time>2009-07-14T13:07:23Z</time>
      </trkpt>
      <trkpt lat="45.08579" lon="5.47809">
        <ele>659.39300537109</ele>
        <time>2009-07-14T13:07:33Z</time>
      </trkpt>
      <trkpt lat="45.08569" lon="5.47873">
        <ele>659.88299560547</ele>
        <time>2009-07-14T13:07:39Z</time>
      </trkpt>
      <trkpt lat="45.08559" lon="5.47915">
        <ele>660.54302978516</ele>
        <time>2009-07-14T13:07:43Z</time>
      </trkpt>
      <trkpt lat="45.08527" lon="5.47978">
        <ele>661.61602783203</ele>
        <time>2009-07-14T13:07:50Z</time>
      </trkpt>
      <trkpt lat="45.08509" lon="5.48052">
        <ele>662.29797363281</ele>
        <time>2009-07-14T13:07:57Z</time>
      </trkpt>
      <trkpt lat="45.0849" lon="5.48102">
        <ele>662.45001220703</ele>
        <time>2009-07-14T13:08:02Z</time>
      </trkpt>
      <trkpt lat="45.0843" lon="5.48177">
        <ele>663.65802001953</ele>
        <time>2009-07-14T13:08:12Z</time>
      </trkpt>
      <trkpt lat="45.08407" lon="5.48245">
        <ele>665.10498046875</ele>
        <time>2009-07-14T13:08:19Z</time>
      </trkpt>
      <trkpt lat="45.08409" lon="5.48311">
        <ele>665.96801757812</ele>
        <time>2009-07-14T13:08:24Z</time>
      </trkpt>
      <trkpt lat="45.08402" lon="5.48372">
        <ele>664.45397949219</ele>
        <time>2009-07-14T13:08:29Z</time>
      </trkpt>
      <trkpt lat="45.08397" lon="5.48416">
        <ele>665.49200439453</ele>
        <time>2009-07-14T13:08:33Z</time>
      </trkpt>
      <trkpt lat="45.08385" lon="5.48455">
        <ele>663.78002929688</ele>
        <time>2009-07-14T13:08:37Z</time>
      </trkpt>
      <trkpt lat="45.08365" lon="5.48469">
        <ele>663.62799072266</ele>
        <time>2009-07-14T13:08:40Z</time>
      </trkpt>
      <trkpt lat="45.08255" lon="5.48497">
        <ele>668.39801025391</ele>
        <time>2009-07-14T13:08:55Z</time>
      </trkpt>
      <trkpt lat="45.08212" lon="5.48536">
        <ele>668.79901123047</ele>
        <time>2009-07-14T13:09:01Z</time>
      </trkpt>
      <trkpt lat="45.082" lon="5.48553">
        <ele>669.61102294922</ele>
        <time>2009-07-14T13:09:03Z</time>
      </trkpt>
      <trkpt lat="45.08185" lon="5.48606">
        <ele>671.13500976562</ele>
        <time>2009-07-14T13:09:08Z</time>
      </trkpt>
      <trkpt lat="45.08179" lon="5.48728">
        <ele>674.16900634766</ele>
        <time>2009-07-14T13:09:19Z</time>
      </trkpt>
      <trkpt lat="45.08178" lon="5.48748">
        <ele>674.791015625</ele>
        <time>2009-07-14T13:09:21Z</time>
      </trkpt>
      <trkpt lat="45.08172" lon="5.48787">
        <ele>675.49798583984</ele>
        <time>2009-07-14T13:09:25Z</time>
      </trkpt>
      <trkpt lat="45.08148" lon="5.48833">
        <ele>677.20697021484</ele>
        <time>2009-07-14T13:09:31Z</time>
      </trkpt>
      <trkpt lat="45.08065" lon="5.48895">
        <ele>680.97601318359</ele>
        <time>2009-07-14T13:09:46Z</time>
      </trkpt>
      <trkpt lat="45.0796" lon="5.48947">
        <ele>685.82897949219</ele>
        <time>2009-07-14T13:10:04Z</time>
      </trkpt>
      <trkpt lat="45.07954" lon="5.48949">
        <ele>685.89202880859</ele>
        <time>2009-07-14T13:10:05Z</time>
      </trkpt>
      <trkpt lat="45.07876" lon="5.49003">
        <ele>688.85498046875</ele>
        <time>2009-07-14T13:10:19Z</time>
      </trkpt>
      <trkpt lat="45.07853" lon="5.49011">
        <ele>690.10601806641</ele>
        <time>2009-07-14T13:10:23Z</time>
      </trkpt>
      <trkpt lat="45.07828" lon="5.49005">
        <ele>690.22601318359</ele>
        <time>2009-07-14T13:10:27Z</time>
      </trkpt>
      <trkpt lat="45.07757" lon="5.48998">
        <ele>694.4169921875</ele>
        <time>2009-07-14T13:10:38Z</time>
      </trkpt>
      <trkpt lat="45.07672" lon="5.49016">
        <ele>697.88500976562</ele>
        <time>2009-07-14T13:10:52Z</time>
      </trkpt>
      <trkpt lat="45.07638" lon="5.49034">
        <ele>699.64898681641</ele>
        <time>2009-07-14T13:10:58Z</time>
      </trkpt>
      <trkpt lat="45.07548" lon="5.49112">
        <ele>703.83801269531</ele>
        <time>2009-07-14T13:11:15Z</time>
      </trkpt>
      <trkpt lat="45.07537" lon="5.49119">
        <ele>704.10302734375</ele>
        <time>2009-07-14T13:11:17Z</time>
      </trkpt>
      <trkpt lat="45.07486" lon="5.49152">
        <ele>706.88500976562</ele>
        <time>2009-07-14T13:11:26Z</time>
      </trkpt>
      <trkpt lat="45.07451" lon="5.49204">
        <ele>707.86901855469</ele>
        <time>2009-07-14T13:11:34Z</time>
      </trkpt>
      <trkpt lat="45.0741" lon="5.49243">
        <ele>711.93402099609</ele>
        <time>2009-07-14T13:11:43Z</time>
      </trkpt>
      <trkpt lat="45.07383" lon="5.49225">
        <ele>712.26000976562</ele>
        <time>2009-07-14T13:11:48Z</time>
      </trkpt>
      <trkpt lat="45.07352" lon="5.49218">
        <ele>712.71099853516</ele>
        <time>2009-07-14T13:11:52Z</time>
      </trkpt>
      <trkpt lat="45.07304" lon="5.49231">
        <ele>715.03100585938</ele>
        <time>2009-07-14T13:12:00Z</time>
      </trkpt>
      <trkpt lat="45.07285" lon="5.49242">
        <ele>716.51300048828</ele>
        <time>2009-07-14T13:12:04Z</time>
      </trkpt>
      <trkpt lat="45.07267" lon="5.49263">
        <ele>717.46997070312</ele>
        <time>2009-07-14T13:12:08Z</time>
      </trkpt>
      <trkpt lat="45.07235" lon="5.49306">
        <ele>719.44299316406</ele>
        <time>2009-07-14T13:12:19Z</time>
      </trkpt>
      <trkpt lat="45.07204" lon="5.49334">
        <ele>721.36602783203</ele>
        <time>2009-07-14T13:12:32Z</time>
      </trkpt>
      <trkpt lat="45.07197" lon="5.49361">
        <ele>722.88397216797</ele>
        <time>2009-07-14T13:12:39Z</time>
      </trkpt>
      <trkpt lat="45.07183" lon="5.49383">
        <ele>726.13897705078</ele>
        <time>2009-07-14T13:12:50Z</time>
      </trkpt>
      <trkpt lat="45.07182" lon="5.49409">
        <ele>726.87701416016</ele>
        <time>2009-07-14T13:12:55Z</time>
      </trkpt>
      <trkpt lat="45.07182" lon="5.49442">
        <ele>728.96002197266</ele>
        <time>2009-07-14T13:13:00Z</time>
      </trkpt>
      <trkpt lat="45.07184" lon="5.4947">
        <ele>730.27197265625</ele>
        <time>2009-07-14T13:13:04Z</time>
      </trkpt>
      <trkpt lat="45.07185" lon="5.49504">
        <ele>731.07397460938</ele>
        <time>2009-07-14T13:13:09Z</time>
      </trkpt>
      <trkpt lat="45.07184" lon="5.49554">
        <ele>735.19702148438</ele>
        <time>2009-07-14T13:13:19Z</time>
      </trkpt>
      <trkpt lat="45.07172" lon="5.49607">
        <ele>738.41998291016</ele>
        <time>2009-07-14T13:13:31Z</time>
      </trkpt>
      <trkpt lat="45.07162" lon="5.4965">
        <ele>740.99298095703</ele>
        <time>2009-07-14T13:13:41Z</time>
      </trkpt>
      <trkpt lat="45.07157" lon="5.49687">
        <ele>743.21502685547</ele>
        <time>2009-07-14T13:13:48Z</time>
      </trkpt>
      <trkpt lat="45.07158" lon="5.49751">
        <ele>747.0419921875</ele>
        <time>2009-07-14T13:14:01Z</time>
      </trkpt>
      <trkpt lat="45.07148" lon="5.4978">
        <ele>749.61297607422</ele>
        <time>2009-07-14T13:14:09Z</time>
      </trkpt>
      <trkpt lat="45.07142" lon="5.49817">
        <ele>751.89898681641</ele>
        <time>2009-07-14T13:14:18Z</time>
      </trkpt>
      <trkpt lat="45.07148" lon="5.4982">
        <ele>751.86999511719</ele>
        <time>2009-07-14T13:14:28Z</time>
      </trkpt>
      <trkpt lat="45.07151" lon="5.4982">
        <ele>751.98901367188</ele>
        <time>2009-07-14T13:14:32Z</time>
      </trkpt>
      <trkpt lat="45.07154" lon="5.49822">
        <ele>751.90698242188</ele>
        <time>2009-07-14T13:14:37Z</time>
      </trkpt>
      <trkpt lat="45.07156" lon="5.49834">
        <ele>752.98699951172</ele>
        <time>2009-07-14T13:14:43Z</time>
      </trkpt>
      <trkpt lat="45.07157" lon="5.49874">
        <ele>755.04498291016</ele>
        <time>2009-07-14T13:14:54Z</time>
      </trkpt>
      <trkpt lat="45.07153" lon="5.4994">
        <ele>757.37200927734</ele>
        <time>2009-07-14T13:15:05Z</time>
      </trkpt>
      <trkpt lat="45.07137" lon="5.50016">
        <ele>760.25701904297</ele>
        <time>2009-07-14T13:15:19Z</time>
      </trkpt>
      <trkpt lat="45.07122" lon="5.501">
        <ele>763.52801513672</ele>
        <time>2009-07-14T13:15:35Z</time>
      </trkpt>
      <trkpt lat="45.07109" lon="5.50161">
        <ele>766.32598876953</ele>
        <time>2009-07-14T13:15:46Z</time>
      </trkpt>
      <trkpt lat="45.07127" lon="5.50242">
        <ele>769.6259765625</ele>
        <time>2009-07-14T13:15:59Z</time>
      </trkpt>
      <trkpt lat="45.07126" lon="5.50271">
        <ele>770.98602294922</ele>
        <time>2009-07-14T13:16:05Z</time>
      </trkpt>
      <trkpt lat="45.0712" lon="5.50293">
        <ele>771.64599609375</ele>
        <time>2009-07-14T13:16:09Z</time>
      </trkpt>
      <trkpt lat="45.07114" lon="5.50329">
        <ele>773.03002929688</ele>
        <time>2009-07-14T13:16:15Z</time>
      </trkpt>
      <trkpt lat="45.07107" lon="5.50352">
        <ele>773.80902099609</ele>
        <time>2009-07-14T13:16:19Z</time>
      </trkpt>
      <trkpt lat="45.07098" lon="5.50374">
        <ele>774.93798828125</ele>
        <time>2009-07-14T13:16:23Z</time>
      </trkpt>
      <trkpt lat="45.07093" lon="5.50403">
        <ele>775.98901367188</ele>
        <time>2009-07-14T13:16:29Z</time>
      </trkpt>
      <trkpt lat="45.07106" lon="5.5043">
        <ele>776.78100585938</ele>
        <time>2009-07-14T13:16:34Z</time>
      </trkpt>
      <trkpt lat="45.07104" lon="5.50442">
        <ele>777.57202148438</ele>
        <time>2009-07-14T13:16:36Z</time>
      </trkpt>
      <trkpt lat="45.07086" lon="5.50494">
        <ele>779.07000732422</ele>
        <time>2009-07-14T13:16:43Z</time>
      </trkpt>
      <trkpt lat="45.07081" lon="5.50525">
        <ele>780.42901611328</ele>
        <time>2009-07-14T13:16:47Z</time>
      </trkpt>
      <trkpt lat="45.07074" lon="5.50571">
        <ele>782.00402832031</ele>
        <time>2009-07-14T13:16:53Z</time>
      </trkpt>
      <trkpt lat="45.07067" lon="5.5059">
        <ele>782.88098144531</ele>
        <time>2009-07-14T13:16:56Z</time>
      </trkpt>
      <trkpt lat="45.07038" lon="5.50632">
        <ele>785.24798583984</ele>
        <time>2009-07-14T13:17:05Z</time>
      </trkpt>
      <trkpt lat="45.07004" lon="5.50722">
        <ele>788.88598632812</ele>
        <time>2009-07-14T13:17:20Z</time>
      </trkpt>
      <trkpt lat="45.06978" lon="5.50801">
        <ele>791.88800048828</ele>
        <time>2009-07-14T13:17:35Z</time>
      </trkpt>
      <trkpt lat="45.06984" lon="5.50903">
        <ele>794.1259765625</ele>
        <time>2009-07-14T13:17:49Z</time>
      </trkpt>
      <trkpt lat="45.06963" lon="5.50953">
        <ele>796.36499023438</ele>
        <time>2009-07-14T13:18:03Z</time>
      </trkpt>
      <trkpt lat="45.06942" lon="5.50983">
        <ele>798.34497070312</ele>
        <time>2009-07-14T13:18:13Z</time>
      </trkpt>
      <trkpt lat="45.06931" lon="5.51031">
        <ele>800.64099121094</ele>
        <time>2009-07-14T13:18:24Z</time>
      </trkpt>
      <trkpt lat="45.06912" lon="5.51082">
        <ele>803.5</ele>
        <time>2009-07-14T13:18:35Z</time>
      </trkpt>
      <trkpt lat="45.06885" lon="5.51134">
        <ele>806.09899902344</ele>
        <time>2009-07-14T13:18:47Z</time>
      </trkpt>
      <trkpt lat="45.06877" lon="5.51204">
        <ele>809.93402099609</ele>
        <time>2009-07-14T13:18:59Z</time>
      </trkpt>
      <trkpt lat="45.0685" lon="5.51266">
        <ele>812.79699707031</ele>
        <time>2009-07-14T13:19:13Z</time>
      </trkpt>
      <trkpt lat="45.06825" lon="5.51316">
        <ele>816.52398681641</ele>
        <time>2009-07-14T13:19:26Z</time>
      </trkpt>
      <trkpt lat="45.06809" lon="5.51374">
        <ele>818.666015625</ele>
        <time>2009-07-14T13:19:38Z</time>
      </trkpt>
      <trkpt lat="45.068" lon="5.51403">
        <ele>820.43200683594</ele>
        <time>2009-07-14T13:19:44Z</time>
      </trkpt>
      <trkpt lat="45.068" lon="5.51428">
        <ele>821.56402587891</ele>
        <time>2009-07-14T13:19:48Z</time>
      </trkpt>
      <trkpt lat="45.06813" lon="5.51509">
        <ele>824.57397460938</ele>
        <time>2009-07-14T13:20:00Z</time>
      </trkpt>
      <trkpt lat="45.06804" lon="5.51588">
        <ele>827.67602539062</ele>
        <time>2009-07-14T13:20:14Z</time>
      </trkpt>
      <trkpt lat="45.06797" lon="5.51649">
        <ele>830.23101806641</ele>
        <time>2009-07-14T13:20:25Z</time>
      </trkpt>
      <trkpt lat="45.06812" lon="5.51691">
        <ele>832.37298583984</ele>
        <time>2009-07-14T13:20:32Z</time>
      </trkpt>
      <trkpt lat="45.06853" lon="5.51724">
        <ele>835.49298095703</ele>
        <time>2009-07-14T13:20:46Z</time>
      </trkpt>
      <trkpt lat="45.06886" lon="5.51776">
        <ele>837.8330078125</ele>
        <time>2009-07-14T13:20:58Z</time>
      </trkpt>
      <trkpt lat="45.06921" lon="5.51855">
        <ele>840.09698486328</ele>
        <time>2009-07-14T13:21:12Z</time>
      </trkpt>
      <trkpt lat="45.06954" lon="5.51883">
        <ele>842.8740234375</ele>
        <time>2009-07-14T13:21:25Z</time>
      </trkpt>
      <trkpt lat="45.06965" lon="5.51897">
        <ele>844.59100341797</ele>
        <time>2009-07-14T13:21:31Z</time>
      </trkpt>
      <trkpt lat="45.06987" lon="5.51942">
        <ele>847.61102294922</ele>
        <time>2009-07-14T13:21:43Z</time>
      </trkpt>
      <trkpt lat="45.06988" lon="5.51955">
        <ele>847.91302490234</ele>
        <time>2009-07-14T13:21:45Z</time>
      </trkpt>
      <trkpt lat="45.06996" lon="5.51982">
        <ele>849.08099365234</ele>
        <time>2009-07-14T13:21:50Z</time>
      </trkpt>
      <trkpt lat="45.06999" lon="5.51995">
        <ele>850.76599121094</ele>
        <time>2009-07-14T13:21:54Z</time>
      </trkpt>
      <trkpt lat="45.07088" lon="5.52095">
        <ele>853.67297363281</ele>
        <time>2009-07-14T13:22:06Z</time>
      </trkpt>
      <trkpt lat="45.0711" lon="5.52086">
        <ele>854.85400390625</ele>
        <time>2009-07-14T13:22:11Z</time>
      </trkpt>
      <trkpt lat="45.07166" lon="5.52092">
        <ele>859.24102783203</ele>
        <time>2009-07-14T13:22:24Z</time>
      </trkpt>
      <trkpt lat="45.07167" lon="5.52092">
        <ele>859.24102783203</ele>
        <time>2009-07-14T13:22:25Z</time>
      </trkpt>
      <trkpt lat="45.07211" lon="5.52072">
        <ele>862.17199707031</ele>
        <time>2009-07-14T13:22:40Z</time>
      </trkpt>
      <trkpt lat="45.07239" lon="5.52072">
        <ele>864.81597900391</ele>
        <time>2009-07-14T13:22:52Z</time>
      </trkpt>
      <trkpt lat="45.07248" lon="5.52075">
        <ele>865.68902587891</ele>
        <time>2009-07-14T13:22:55Z</time>
      </trkpt>
      <trkpt lat="45.07263" lon="5.5209">
        <ele>866.94897460938</ele>
        <time>2009-07-14T13:23:00Z</time>
      </trkpt>
      <trkpt lat="45.07277" lon="5.52097">
        <ele>867.82202148438</ele>
        <time>2009-07-14T13:23:04Z</time>
      </trkpt>
      <trkpt lat="45.07325" lon="5.52096">
        <ele>871.0009765625</ele>
        <time>2009-07-14T13:23:16Z</time>
      </trkpt>
      <trkpt lat="45.07364" lon="5.52084">
        <ele>873.94097900391</ele>
        <time>2009-07-14T13:23:26Z</time>
      </trkpt>
      <trkpt lat="45.07384" lon="5.52079">
        <ele>875.32897949219</ele>
        <time>2009-07-14T13:23:31Z</time>
      </trkpt>
      <trkpt lat="45.07431" lon="5.52074">
        <ele>878.98999023438</ele>
        <time>2009-07-14T13:23:43Z</time>
      </trkpt>
      <trkpt lat="45.0746" lon="5.52077">
        <ele>880.38299560547</ele>
        <time>2009-07-14T13:23:50Z</time>
      </trkpt>
      <trkpt lat="45.07478" lon="5.52078">
        <ele>881.51000976562</ele>
        <time>2009-07-14T13:23:54Z</time>
      </trkpt>
      <trkpt lat="45.07512" lon="5.52116">
        <ele>885.69799804688</ele>
        <time>2009-07-14T13:24:07Z</time>
      </trkpt>
      <trkpt lat="45.07531" lon="5.52114">
        <ele>887.00799560547</ele>
        <time>2009-07-14T13:24:14Z</time>
      </trkpt>
      <trkpt lat="45.07534" lon="5.52112">
        <ele>887.75201416016</ele>
        <time>2009-07-14T13:24:19Z</time>
      </trkpt>
      <trkpt lat="45.07561" lon="5.52143">
        <ele>889.86401367188</ele>
        <time>2009-07-14T13:24:30Z</time>
      </trkpt>
      <trkpt lat="45.076" lon="5.52143">
        <ele>892.55200195312</ele>
        <time>2009-07-14T13:24:41Z</time>
      </trkpt>
      <trkpt lat="45.07644" lon="5.52147">
        <ele>895.51202392578</ele>
        <time>2009-07-14T13:24:52Z</time>
      </trkpt>
      <trkpt lat="45.07681" lon="5.52126">
        <ele>898.18798828125</ele>
        <time>2009-07-14T13:25:03Z</time>
      </trkpt>
      <trkpt lat="45.07717" lon="5.521">
        <ele>901.63800048828</ele>
        <time>2009-07-14T13:25:14Z</time>
      </trkpt>
      <trkpt lat="45.07752" lon="5.52101">
        <ele>905.73797607422</ele>
        <time>2009-07-14T13:25:25Z</time>
      </trkpt>
      <trkpt lat="45.07809" lon="5.5212">
        <ele>910.97497558594</ele>
        <time>2009-07-14T13:25:41Z</time>
      </trkpt>
      <trkpt lat="45.0785" lon="5.52121">
        <ele>914.03698730469</ele>
        <time>2009-07-14T13:25:53Z</time>
      </trkpt>
      <trkpt lat="45.079" lon="5.52128">
        <ele>917.54699707031</ele>
        <time>2009-07-14T13:26:06Z</time>
      </trkpt>
      <trkpt lat="45.07936" lon="5.52139">
        <ele>919.29498291016</ele>
        <time>2009-07-14T13:26:14Z</time>
      </trkpt>
      <trkpt lat="45.07962" lon="5.5216">
        <ele>920.02398681641</ele>
        <time>2009-07-14T13:26:20Z</time>
      </trkpt>
      <trkpt lat="45.07995" lon="5.52178">
        <ele>921.81500244141</ele>
        <time>2009-07-14T13:26:27Z</time>
      </trkpt>
      <trkpt lat="45.0803" lon="5.52158">
        <ele>923.04901123047</ele>
        <time>2009-07-14T13:26:34Z</time>
      </trkpt>
      <trkpt lat="45.08084" lon="5.52136">
        <ele>925.14202880859</ele>
        <time>2009-07-14T13:26:46Z</time>
      </trkpt>
      <trkpt lat="45.08114" lon="5.52128">
        <ele>925.65698242188</ele>
        <time>2009-07-14T13:26:53Z</time>
      </trkpt>
      <trkpt lat="45.08122" lon="5.52125">
        <ele>926.03601074219</ele>
        <time>2009-07-14T13:26:55Z</time>
      </trkpt>
      <trkpt lat="45.08147" lon="5.52129">
        <ele>926.18902587891</ele>
        <time>2009-07-14T13:27:00Z</time>
      </trkpt>
      <trkpt lat="45.08155" lon="5.52131">
        <ele>926.53100585938</ele>
        <time>2009-07-14T13:27:02Z</time>
      </trkpt>
      <trkpt lat="45.08189" lon="5.5213">
        <ele>927.29602050781</ele>
        <time>2009-07-14T13:27:09Z</time>
      </trkpt>
      <trkpt lat="45.08209" lon="5.52112">
        <ele>928.30102539062</ele>
        <time>2009-07-14T13:27:14Z</time>
      </trkpt>
      <trkpt lat="45.08243" lon="5.52075">
        <ele>929.47998046875</ele>
        <time>2009-07-14T13:27:21Z</time>
      </trkpt>
      <trkpt lat="45.08272" lon="5.52033">
        <ele>930.8759765625</ele>
        <time>2009-07-14T13:27:30Z</time>
      </trkpt>
      <trkpt lat="45.08281" lon="5.52021">
        <ele>930.91400146484</ele>
        <time>2009-07-14T13:27:34Z</time>
      </trkpt>
      <trkpt lat="45.0831" lon="5.52011">
        <ele>931.23498535156</ele>
        <time>2009-07-14T13:27:40Z</time>
      </trkpt>
      <trkpt lat="45.08332" lon="5.52011">
        <ele>931.65802001953</ele>
        <time>2009-07-14T13:27:44Z</time>
      </trkpt>
      <trkpt lat="45.08368" lon="5.52019">
        <ele>933.17797851562</ele>
        <time>2009-07-14T13:27:51Z</time>
      </trkpt>
      <trkpt lat="45.08408" lon="5.52031">
        <ele>934.80200195312</ele>
        <time>2009-07-14T13:28:00Z</time>
      </trkpt>
      <trkpt lat="45.08413" lon="5.52032">
        <ele>934.67401123047</ele>
        <time>2009-07-14T13:28:01Z</time>
      </trkpt>
      <trkpt lat="45.08435" lon="5.5203">
        <ele>935.05999755859</ele>
        <time>2009-07-14T13:28:05Z</time>
      </trkpt>
      <trkpt lat="45.08462" lon="5.52042">
        <ele>934.74499511719</ele>
        <time>2009-07-14T13:28:10Z</time>
      </trkpt>
      <trkpt lat="45.08516" lon="5.52128">
        <ele>935.10498046875</ele>
        <time>2009-07-14T13:28:25Z</time>
      </trkpt>
      <trkpt lat="45.08541" lon="5.5218">
        <ele>934.70098876953</ele>
        <time>2009-07-14T13:28:33Z</time>
      </trkpt>
      <trkpt lat="45.08589" lon="5.52246">
        <ele>933.68798828125</ele>
        <time>2009-07-14T13:28:44Z</time>
      </trkpt>
      <trkpt lat="45.08599" lon="5.52308">
        <ele>934.20697021484</ele>
        <time>2009-07-14T13:28:51Z</time>
      </trkpt>
      <trkpt lat="45.08577" lon="5.52407">
        <ele>933.77301025391</ele>
        <time>2009-07-14T13:29:04Z</time>
      </trkpt>
      <trkpt lat="45.08575" lon="5.52418">
        <ele>933.71801757812</ele>
        <time>2009-07-14T13:29:06Z</time>
      </trkpt>
      <trkpt lat="45.08582" lon="5.52434">
        <ele>931.98498535156</ele>
        <time>2009-07-14T13:29:10Z</time>
      </trkpt>
      <trkpt lat="45.08592" lon="5.52435">
        <ele>932.3740234375</ele>
        <time>2009-07-14T13:29:12Z</time>
      </trkpt>
      <trkpt lat="45.08646" lon="5.52427">
        <ele>933.49700927734</ele>
        <time>2009-07-14T13:29:22Z</time>
      </trkpt>
      <trkpt lat="45.08725" lon="5.52411">
        <ele>935.26501464844</ele>
        <time>2009-07-14T13:29:35Z</time>
      </trkpt>
      <trkpt lat="45.08758" lon="5.52406">
        <ele>935.29498291016</ele>
        <time>2009-07-14T13:29:40Z</time>
      </trkpt>
      <trkpt lat="45.08812" lon="5.52419">
        <ele>935.78100585938</ele>
        <time>2009-07-14T13:29:48Z</time>
      </trkpt>
      <trkpt lat="45.08877" lon="5.52498">
        <ele>935.75500488281</ele>
        <time>2009-07-14T13:30:00Z</time>
      </trkpt>
      <trkpt lat="45.08922" lon="5.52536">
        <ele>936.88897705078</ele>
        <time>2009-07-14T13:30:07Z</time>
      </trkpt>
      <trkpt lat="45.08993" lon="5.5253">
        <ele>936.82098388672</ele>
        <time>2009-07-14T13:30:17Z</time>
      </trkpt>
      <trkpt lat="45.0908" lon="5.52446">
        <ele>939.38598632812</ele>
        <time>2009-07-14T13:30:31Z</time>
      </trkpt>
      <trkpt lat="45.09139" lon="5.52437">
        <ele>940.95098876953</ele>
        <time>2009-07-14T13:30:39Z</time>
      </trkpt>
      <trkpt lat="45.09175" lon="5.52505">
        <ele>941.72302246094</ele>
        <time>2009-07-14T13:30:46Z</time>
      </trkpt>
      <trkpt lat="45.09182" lon="5.52539">
        <ele>942.21502685547</ele>
        <time>2009-07-14T13:30:49Z</time>
      </trkpt>
      <trkpt lat="45.09195" lon="5.5258">
        <ele>942.44702148438</ele>
        <time>2009-07-14T13:30:53Z</time>
      </trkpt>
      <trkpt lat="45.09209" lon="5.52674">
        <ele>944.17700195312</ele>
        <time>2009-07-14T13:31:02Z</time>
      </trkpt>
      <trkpt lat="45.09226" lon="5.52717">
        <ele>945.08599853516</ele>
        <time>2009-07-14T13:31:07Z</time>
      </trkpt>
      <trkpt lat="45.09285" lon="5.52749">
        <ele>945.83599853516</ele>
        <time>2009-07-14T13:31:16Z</time>
      </trkpt>
      <trkpt lat="45.0933" lon="5.52736">
        <ele>945.24798583984</ele>
        <time>2009-07-14T13:31:22Z</time>
      </trkpt>
      <trkpt lat="45.0942" lon="5.52646">
        <ele>946.84002685547</ele>
        <time>2009-07-14T13:31:36Z</time>
      </trkpt>
      <trkpt lat="45.09431" lon="5.52632">
        <ele>946.89398193359</ele>
        <time>2009-07-14T13:31:38Z</time>
      </trkpt>
      <trkpt lat="45.09481" lon="5.52625">
        <ele>948.3330078125</ele>
        <time>2009-07-14T13:31:45Z</time>
      </trkpt>
      <trkpt lat="45.09572" lon="5.52664">
        <ele>949.57702636719</ele>
        <time>2009-07-14T13:31:58Z</time>
      </trkpt>
      <trkpt lat="45.09607" lon="5.52651">
        <ele>950.17999267578</ele>
        <time>2009-07-14T13:32:03Z</time>
      </trkpt>
      <trkpt lat="45.09644" lon="5.52621">
        <ele>950.53601074219</ele>
        <time>2009-07-14T13:32:09Z</time>
      </trkpt>
      <trkpt lat="45.0971" lon="5.52639">
        <ele>951.31402587891</ele>
        <time>2009-07-14T13:32:18Z</time>
      </trkpt>
      <trkpt lat="45.09719" lon="5.52656">
        <ele>951.39202880859</ele>
        <time>2009-07-14T13:32:20Z</time>
      </trkpt>
      <trkpt lat="45.09747" lon="5.52721">
        <ele>952.57098388672</ele>
        <time>2009-07-14T13:32:27Z</time>
      </trkpt>
      <trkpt lat="45.09793" lon="5.52747">
        <ele>952.72399902344</ele>
        <time>2009-07-14T13:32:34Z</time>
      </trkpt>
      <trkpt lat="45.09814" lon="5.5273">
        <ele>952.46301269531</ele>
        <time>2009-07-14T13:32:37Z</time>
      </trkpt>
      <trkpt lat="45.09832" lon="5.52708">
        <ele>952.65997314453</ele>
        <time>2009-07-14T13:32:40Z</time>
      </trkpt>
      <trkpt lat="45.09856" lon="5.52663">
        <ele>952.73498535156</ele>
        <time>2009-07-14T13:32:45Z</time>
      </trkpt>
      <trkpt lat="45.09887" lon="5.52552">
        <ele>953.33697509766</ele>
        <time>2009-07-14T13:32:55Z</time>
      </trkpt>
      <trkpt lat="45.0993" lon="5.52522">
        <ele>952.86102294922</ele>
        <time>2009-07-14T13:33:01Z</time>
      </trkpt>
      <trkpt lat="45.09947" lon="5.52531">
        <ele>953.96600341797</ele>
        <time>2009-07-14T13:33:03Z</time>
      </trkpt>
      <trkpt lat="45.09986" lon="5.52558">
        <ele>954.72601318359</ele>
        <time>2009-07-14T13:33:08Z</time>
      </trkpt>
      <trkpt lat="45.10019" lon="5.52604">
        <ele>953.99499511719</ele>
        <time>2009-07-14T13:33:13Z</time>
      </trkpt>
      <trkpt lat="45.10055" lon="5.52692">
        <ele>952.47698974609</ele>
        <time>2009-07-14T13:33:20Z</time>
      </trkpt>
      <trkpt lat="45.10081" lon="5.52741">
        <ele>952.14202880859</ele>
        <time>2009-07-14T13:33:24Z</time>
      </trkpt>
      <trkpt lat="45.10128" lon="5.52791">
        <ele>951.39099121094</ele>
        <time>2009-07-14T13:33:30Z</time>
      </trkpt>
      <trkpt lat="45.10194" lon="5.52792">
        <ele>951.30499267578</ele>
        <time>2009-07-14T13:33:37Z</time>
      </trkpt>
      <trkpt lat="45.10232" lon="5.52738">
        <ele>952.21197509766</ele>
        <time>2009-07-14T13:33:43Z</time>
      </trkpt>
      <trkpt lat="45.10241" lon="5.52715">
        <ele>952.85900878906</ele>
        <time>2009-07-14T13:33:45Z</time>
      </trkpt>
      <trkpt lat="45.10278" lon="5.52693">
        <ele>954.77801513672</ele>
        <time>2009-07-14T13:33:50Z</time>
      </trkpt>
      <trkpt lat="45.10339" lon="5.52699">
        <ele>954.86102294922</ele>
        <time>2009-07-14T13:33:57Z</time>
      </trkpt>
      <trkpt lat="45.10372" lon="5.52688">
        <ele>955.31500244141</ele>
        <time>2009-07-14T13:34:01Z</time>
      </trkpt>
      <trkpt lat="45.10403" lon="5.52671">
        <ele>955.82397460938</ele>
        <time>2009-07-14T13:34:05Z</time>
      </trkpt>
      <trkpt lat="45.10487" lon="5.52674">
        <ele>956.90502929688</ele>
        <time>2009-07-14T13:34:16Z</time>
      </trkpt>
      <trkpt lat="45.10512" lon="5.52682">
        <ele>956.77697753906</ele>
        <time>2009-07-14T13:34:19Z</time>
      </trkpt>
      <trkpt lat="45.10555" lon="5.52776">
        <ele>957.53900146484</ele>
        <time>2009-07-14T13:34:25Z</time>
      </trkpt>
      <trkpt lat="45.1052" lon="5.52848">
        <ele>958.81298828125</ele>
        <time>2009-07-14T13:34:32Z</time>
      </trkpt>
      <trkpt lat="45.10506" lon="5.52891">
        <ele>958.53497314453</ele>
        <time>2009-07-14T13:34:36Z</time>
      </trkpt>
      <trkpt lat="45.10499" lon="5.52914">
        <ele>958.63500976562</ele>
        <time>2009-07-14T13:34:38Z</time>
      </trkpt>
      <trkpt lat="45.10498" lon="5.52971">
        <ele>959.36499023438</ele>
        <time>2009-07-14T13:34:43Z</time>
      </trkpt>
      <trkpt lat="45.10527" lon="5.53017">
        <ele>958.93597412109</ele>
        <time>2009-07-14T13:34:50Z</time>
      </trkpt>
      <trkpt lat="45.10574" lon="5.52985">
        <ele>958.72802734375</ele>
        <time>2009-07-14T13:34:56Z</time>
      </trkpt>
      <trkpt lat="45.10599" lon="5.52946">
        <ele>958.71899414062</ele>
        <time>2009-07-14T13:35:00Z</time>
      </trkpt>
      <trkpt lat="45.10659" lon="5.52928">
        <ele>958.32897949219</ele>
        <time>2009-07-14T13:35:07Z</time>
      </trkpt>
      <trkpt lat="45.10765" lon="5.5298">
        <ele>958.32897949219</ele>
        <time>2009-07-14T13:35:20Z</time>
      </trkpt>
      <trkpt lat="45.10828" lon="5.5296">
        <ele>959.39501953125</ele>
        <time>2009-07-14T13:35:28Z</time>
      </trkpt>
      <trkpt lat="45.10849" lon="5.52938">
        <ele>959.42401123047</ele>
        <time>2009-07-14T13:35:31Z</time>
      </trkpt>
      <trkpt lat="45.10892" lon="5.52933">
        <ele>959.79602050781</ele>
        <time>2009-07-14T13:35:36Z</time>
      </trkpt>
      <trkpt lat="45.11051" lon="5.53012">
        <ele>960.67102050781</ele>
        <time>2009-07-14T13:35:55Z</time>
      </trkpt>
      <trkpt lat="45.11227" lon="5.53116">
        <ele>961.47900390625</ele>
        <time>2009-07-14T13:36:17Z</time>
      </trkpt>
      <trkpt lat="45.11323" lon="5.53134">
        <ele>960.69598388672</ele>
        <time>2009-07-14T13:36:28Z</time>
      </trkpt>
      <trkpt lat="45.11465" lon="5.53142">
        <ele>961.62902832031</ele>
        <time>2009-07-14T13:36:44Z</time>
      </trkpt>
      <trkpt lat="45.11583" lon="5.53191">
        <ele>962.91302490234</ele>
        <time>2009-07-14T13:36:59Z</time>
      </trkpt>
      <trkpt lat="45.11613" lon="5.53191">
        <ele>963.31701660156</ele>
        <time>2009-07-14T13:37:03Z</time>
      </trkpt>
      <trkpt lat="45.11751" lon="5.53156">
        <ele>963.42297363281</ele>
        <time>2009-07-14T13:37:20Z</time>
      </trkpt>
      <trkpt lat="45.11862" lon="5.53135">
        <ele>965.10498046875</ele>
        <time>2009-07-14T13:37:33Z</time>
      </trkpt>
      <trkpt lat="45.12003" lon="5.53108">
        <ele>965.63598632812</ele>
        <time>2009-07-14T13:37:49Z</time>
      </trkpt>
      <trkpt lat="45.12146" lon="5.53081">
        <ele>967.07598876953</ele>
        <time>2009-07-14T13:38:05Z</time>
      </trkpt>
      <trkpt lat="45.12272" lon="5.53059">
        <ele>969.90197753906</ele>
        <time>2009-07-14T13:38:21Z</time>
      </trkpt>
      <trkpt lat="45.12348" lon="5.53029">
        <ele>973.37799072266</ele>
        <time>2009-07-14T13:38:34Z</time>
      </trkpt>
      <trkpt lat="45.12412" lon="5.53006">
        <ele>975.97497558594</ele>
        <time>2009-07-14T13:38:46Z</time>
      </trkpt>
      <trkpt lat="45.12455" lon="5.52989">
        <ele>976.60699462891</ele>
        <time>2009-07-14T13:38:54Z</time>
      </trkpt>
      <trkpt lat="45.12473" lon="5.52983">
        <ele>976.67700195312</ele>
        <time>2009-07-14T13:38:57Z</time>
      </trkpt>
      <trkpt lat="45.12532" lon="5.5293">
        <ele>981.21197509766</ele>
        <time>2009-07-14T13:39:10Z</time>
      </trkpt>
      <trkpt lat="45.12586" lon="5.52852">
        <ele>984.81597900391</ele>
        <time>2009-07-14T13:39:26Z</time>
      </trkpt>
      <trkpt lat="45.12594" lon="5.52839">
        <ele>982.99597167969</ele>
        <time>2009-07-14T13:39:29Z</time>
      </trkpt>
      <trkpt lat="45.12604" lon="5.5282">
        <ele>984.40502929688</ele>
        <time>2009-07-14T13:39:33Z</time>
      </trkpt>
      <trkpt lat="45.12618" lon="5.52805">
        <ele>986.40197753906</ele>
        <time>2009-07-14T13:39:37Z</time>
      </trkpt>
      <trkpt lat="45.12646" lon="5.52787">
        <ele>985.333984375</ele>
        <time>2009-07-14T13:39:43Z</time>
      </trkpt>
      <trkpt lat="45.12656" lon="5.5278">
        <ele>986.30603027344</ele>
        <time>2009-07-14T13:39:45Z</time>
      </trkpt>
      <trkpt lat="45.12689" lon="5.52741">
        <ele>986.125</ele>
        <time>2009-07-14T13:39:53Z</time>
      </trkpt>
      <trkpt lat="45.12709" lon="5.5272">
        <ele>985.20202636719</ele>
        <time>2009-07-14T13:39:57Z</time>
      </trkpt>
      <trkpt lat="45.12745" lon="5.52728">
        <ele>985.57598876953</ele>
        <time>2009-07-14T13:40:03Z</time>
      </trkpt>
      <trkpt lat="45.12774" lon="5.52752">
        <ele>985.72698974609</ele>
        <time>2009-07-14T13:40:08Z</time>
      </trkpt>
      <trkpt lat="45.12798" lon="5.52766">
        <ele>986.34899902344</ele>
        <time>2009-07-14T13:40:12Z</time>
      </trkpt>
      <trkpt lat="45.12833" lon="5.52777">
        <ele>986.04901123047</ele>
        <time>2009-07-14T13:40:18Z</time>
      </trkpt>
      <trkpt lat="45.12845" lon="5.52779">
        <ele>985.04302978516</ele>
        <time>2009-07-14T13:40:20Z</time>
      </trkpt>
      <trkpt lat="45.12865" lon="5.52786">
        <ele>984.59997558594</ele>
        <time>2009-07-14T13:40:23Z</time>
      </trkpt>
      <trkpt lat="45.12923" lon="5.52789">
        <ele>982.77301025391</ele>
        <time>2009-07-14T13:40:31Z</time>
      </trkpt>
      <trkpt lat="45.12985" lon="5.52798">
        <ele>979.45501708984</ele>
        <time>2009-07-14T13:40:38Z</time>
      </trkpt>
      <trkpt lat="45.13069" lon="5.52809">
        <ele>974.16198730469</ele>
        <time>2009-07-14T13:40:47Z</time>
      </trkpt>
      <trkpt lat="45.13077" lon="5.52811">
        <ele>973.99298095703</ele>
        <time>2009-07-14T13:40:48Z</time>
      </trkpt>
      <trkpt lat="45.13103" lon="5.52834">
        <ele>975.32598876953</ele>
        <time>2009-07-14T13:40:52Z</time>
      </trkpt>
      <trkpt lat="45.13113" lon="5.5285">
        <ele>975.01800537109</ele>
        <time>2009-07-14T13:40:54Z</time>
      </trkpt>
      <trkpt lat="45.13126" lon="5.52862">
        <ele>973.99499511719</ele>
        <time>2009-07-14T13:40:56Z</time>
      </trkpt>
      <trkpt lat="45.1315" lon="5.5286">
        <ele>971.60900878906</ele>
        <time>2009-07-14T13:40:59Z</time>
      </trkpt>
      <trkpt lat="45.13172" lon="5.52851">
        <ele>973.53002929688</ele>
        <time>2009-07-14T13:41:02Z</time>
      </trkpt>
      <trkpt lat="45.13296" lon="5.52801">
        <ele>973.94000244141</ele>
        <time>2009-07-14T13:41:19Z</time>
      </trkpt>
      <trkpt lat="45.1337" lon="5.52772">
        <ele>973.93597412109</ele>
        <time>2009-07-14T13:41:29Z</time>
      </trkpt>
      <trkpt lat="45.13429" lon="5.52748">
        <ele>975.23699951172</ele>
        <time>2009-07-14T13:41:37Z</time>
      </trkpt>
      <trkpt lat="45.13506" lon="5.52718">
        <ele>975.34399414062</ele>
        <time>2009-07-14T13:41:48Z</time>
      </trkpt>
      <trkpt lat="45.13642" lon="5.52664">
        <ele>977.88299560547</ele>
        <time>2009-07-14T13:42:08Z</time>
      </trkpt>
      <trkpt lat="45.13763" lon="5.52636">
        <ele>980.8759765625</ele>
        <time>2009-07-14T13:42:27Z</time>
      </trkpt>
      <trkpt lat="45.1389" lon="5.5263">
        <ele>984.82897949219</ele>
        <time>2009-07-14T13:42:49Z</time>
      </trkpt>
      <trkpt lat="45.13969" lon="5.52638">
        <ele>988.10998535156</ele>
        <time>2009-07-14T13:43:03Z</time>
      </trkpt>
      <trkpt lat="45.1399" lon="5.5264">
        <ele>989.29901123047</ele>
        <time>2009-07-14T13:43:07Z</time>
      </trkpt>
      <trkpt lat="45.14063" lon="5.52643">
        <ele>989.39398193359</ele>
        <time>2009-07-14T13:43:19Z</time>
      </trkpt>
      <trkpt lat="45.14173" lon="5.52642">
        <ele>989.85699462891</ele>
        <time>2009-07-14T13:43:34Z</time>
      </trkpt>
      <trkpt lat="45.14314" lon="5.52638">
        <ele>993.02899169922</ele>
        <time>2009-07-14T13:43:53Z</time>
      </trkpt>
      <trkpt lat="45.14433" lon="5.52635">
        <ele>995.31402587891</ele>
        <time>2009-07-14T13:44:11Z</time>
      </trkpt>
      <trkpt lat="45.14562" lon="5.5263">
        <ele>996.09100341797</ele>
        <time>2009-07-14T13:44:29Z</time>
      </trkpt>
      <trkpt lat="45.14673" lon="5.52617">
        <ele>996.01800537109</ele>
        <time>2009-07-14T13:44:43Z</time>
      </trkpt>
      <trkpt lat="45.1479" lon="5.52599">
        <ele>996.69799804688</ele>
        <time>2009-07-14T13:44:58Z</time>
      </trkpt>
      <trkpt lat="45.14911" lon="5.52582">
        <ele>996.58197021484</ele>
        <time>2009-07-14T13:45:14Z</time>
      </trkpt>
      <trkpt lat="45.15037" lon="5.52577">
        <ele>996.75201416016</ele>
        <time>2009-07-14T13:45:30Z</time>
      </trkpt>
      <trkpt lat="45.15181" lon="5.52632">
        <ele>999.27600097656</ele>
        <time>2009-07-14T13:45:49Z</time>
      </trkpt>
      <trkpt lat="45.15342" lon="5.52697">
        <ele>1000.9780273438</ele>
        <time>2009-07-14T13:46:10Z</time>
      </trkpt>
      <trkpt lat="45.15551" lon="5.5278">
        <ele>1003.9420166016</ele>
        <time>2009-07-14T13:46:36Z</time>
      </trkpt>
      <trkpt lat="45.1576" lon="5.52863">
        <ele>1006.2659912109</ele>
        <time>2009-07-14T13:47:02Z</time>
      </trkpt>
      <trkpt lat="45.15898" lon="5.52942">
        <ele>1008.7659912109</ele>
        <time>2009-07-14T13:47:21Z</time>
      </trkpt>
      <trkpt lat="45.16065" lon="5.53057">
        <ele>1011.4550170898</ele>
        <time>2009-07-14T13:47:44Z</time>
      </trkpt>
      <trkpt lat="45.16206" lon="5.53153">
        <ele>1012.8790283203</ele>
        <time>2009-07-14T13:48:03Z</time>
      </trkpt>
      <trkpt lat="45.16315" lon="5.53226">
        <ele>1015.1729736328</ele>
        <time>2009-07-14T13:48:19Z</time>
      </trkpt>
      <trkpt lat="45.16413" lon="5.53294">
        <ele>1017.5609741211</ele>
        <time>2009-07-14T13:48:34Z</time>
      </trkpt>
      <trkpt lat="45.16523" lon="5.53367">
        <ele>1018.6010131836</ele>
        <time>2009-07-14T13:48:50Z</time>
      </trkpt>
      <trkpt lat="45.16588" lon="5.53415">
        <ele>1018.4580078125</ele>
        <time>2009-07-14T13:49:01Z</time>
      </trkpt>
      <trkpt lat="45.16691" lon="5.53483">
        <ele>1020.7440185547</ele>
        <time>2009-07-14T13:49:17Z</time>
      </trkpt>
      <trkpt lat="45.16703" lon="5.5349">
        <ele>1020.7520141602</ele>
        <time>2009-07-14T13:49:19Z</time>
      </trkpt>
      <trkpt lat="45.16748" lon="5.5352">
        <ele>1021.4199829102</ele>
        <time>2009-07-14T13:49:27Z</time>
      </trkpt>
      <trkpt lat="45.16767" lon="5.53539">
        <ele>1022.8129882812</ele>
        <time>2009-07-14T13:49:31Z</time>
      </trkpt>
      <trkpt lat="45.16803" lon="5.53559">
        <ele>1022.5720214844</ele>
        <time>2009-07-14T13:49:37Z</time>
      </trkpt>
      <trkpt lat="45.16887" lon="5.53617">
        <ele>1024.6920166016</ele>
        <time>2009-07-14T13:49:51Z</time>
      </trkpt>
      <trkpt lat="45.16945" lon="5.53656">
        <ele>1025.6009521484</ele>
        <time>2009-07-14T13:50:01Z</time>
      </trkpt>
      <trkpt lat="45.17063" lon="5.53737">
        <ele>1027.5229492188</ele>
        <time>2009-07-14T13:50:22Z</time>
      </trkpt>
      <trkpt lat="45.17143" lon="5.53798">
        <ele>1028.2580566406</ele>
        <time>2009-07-14T13:50:36Z</time>
      </trkpt>
      <trkpt lat="45.17157" lon="5.53814">
        <ele>1028.9200439453</ele>
        <time>2009-07-14T13:50:39Z</time>
      </trkpt>
      <trkpt lat="45.17223" lon="5.53885">
        <ele>1029.7750244141</ele>
        <time>2009-07-14T13:50:53Z</time>
      </trkpt>
      <trkpt lat="45.17253" lon="5.53919">
        <ele>1029.5860595703</ele>
        <time>2009-07-14T13:51:00Z</time>
      </trkpt>
      <trkpt lat="45.17265" lon="5.53944">
        <ele>1030.5209960938</ele>
        <time>2009-07-14T13:51:04Z</time>
      </trkpt>
      <trkpt lat="45.1727" lon="5.53973">
        <ele>1030.9990234375</ele>
        <time>2009-07-14T13:51:08Z</time>
      </trkpt>
      <trkpt lat="45.17284" lon="5.53989">
        <ele>1030.3139648438</ele>
        <time>2009-07-14T13:51:15Z</time>
      </trkpt>
      <trkpt lat="45.17293" lon="5.5398">
        <ele>1029.6579589844</ele>
        <time>2009-07-14T13:51:18Z</time>
      </trkpt>
      <trkpt lat="45.1732" lon="5.53993">
        <ele>1030.9940185547</ele>
        <time>2009-07-14T13:51:25Z</time>
      </trkpt>
      <trkpt lat="45.17359" lon="5.54034">
        <ele>1031.7490234375</ele>
        <time>2009-07-14T13:51:35Z</time>
      </trkpt>
      <trkpt lat="45.17381" lon="5.54022">
        <ele>1031.9499511719</ele>
        <time>2009-07-14T13:51:42Z</time>
      </trkpt>
      <trkpt lat="45.17389" lon="5.53986">
        <ele>1031.5799560547</ele>
        <time>2009-07-14T13:51:49Z</time>
      </trkpt>
      <trkpt lat="45.17391" lon="5.53976">
        <ele>1031.3630371094</ele>
        <time>2009-07-14T13:51:51Z</time>
      </trkpt>
      <trkpt lat="45.17394" lon="5.53955">
        <ele>1029.91796875</ele>
        <time>2009-07-14T13:51:54Z</time>
      </trkpt>
      <trkpt lat="45.17408" lon="5.53886">
        <ele>1030.6090087891</ele>
        <time>2009-07-14T13:52:04Z</time>
      </trkpt>
      <trkpt lat="45.17431" lon="5.53867">
        <ele>1031.333984375</ele>
        <time>2009-07-14T13:52:11Z</time>
      </trkpt>
      <trkpt lat="45.17435" lon="5.53871">
        <ele>1031.6999511719</ele>
        <time>2009-07-14T13:52:12Z</time>
      </trkpt>
      <trkpt lat="45.17462" lon="5.53891">
        <ele>1031.9759521484</ele>
        <time>2009-07-14T13:52:19Z</time>
      </trkpt>
      <trkpt lat="45.17529" lon="5.53939">
        <ele>1033.9790039062</ele>
        <time>2009-07-14T13:52:36Z</time>
      </trkpt>
      <trkpt lat="45.17552" lon="5.53957">
        <ele>1034.8050537109</ele>
        <time>2009-07-14T13:52:42Z</time>
      </trkpt>
      <trkpt lat="45.17545" lon="5.5398">
        <ele>1034.9389648438</ele>
        <time>2009-07-14T13:52:51Z</time>
      </trkpt>
      <trkpt lat="45.17545" lon="5.53984">
        <ele>1034.3509521484</ele>
        <time>2009-07-14T13:54:01Z</time>
      </trkpt>
      <trkpt lat="45.17544" lon="5.53984">
        <ele>1034.2259521484</ele>
        <time>2009-07-14T13:54:02Z</time>
      </trkpt>
      <trkpt lat="45.17544" lon="5.53984">
        <ele>1034.4639892578</ele>
        <time>2009-07-14T13:54:03Z</time>
      </trkpt>
      <trkpt lat="45.17548" lon="5.53992">
        <ele>1034.2779541016</ele>
        <time>2009-07-14T13:54:10Z</time>
      </trkpt>
      <trkpt lat="45.17551" lon="5.53979">
        <ele>1033.8509521484</ele>
        <time>2009-07-14T13:54:19Z</time>
      </trkpt>
      <trkpt lat="45.17551" lon="5.53978">
        <ele>1033.8070068359</ele>
        <time>2009-07-14T13:54:20Z</time>
      </trkpt>
      <trkpt lat="45.17552" lon="5.53975">
        <ele>1033.8759765625</ele>
        <time>2009-07-14T13:54:22Z</time>
      </trkpt>
      <trkpt lat="45.17551" lon="5.53965">
        <ele>1033.95703125</ele>
        <time>2009-07-14T13:54:27Z</time>
      </trkpt>
      <trkpt lat="45.17558" lon="5.5396">
        <ele>1034.2199707031</ele>
        <time>2009-07-14T13:54:32Z</time>
      </trkpt>
      <trkpt lat="45.17599" lon="5.53989">
        <ele>1035.6419677734</ele>
        <time>2009-07-14T13:54:47Z</time>
      </trkpt>
      <trkpt lat="45.17611" lon="5.53996">
        <ele>1035.6450195312</ele>
        <time>2009-07-14T13:54:51Z</time>
      </trkpt>
      <trkpt lat="45.17636" lon="5.54013">
        <ele>1036.6920166016</ele>
        <time>2009-07-14T13:54:58Z</time>
      </trkpt>
      <trkpt lat="45.17648" lon="5.54021">
        <ele>1036.8819580078</ele>
        <time>2009-07-14T13:55:01Z</time>
      </trkpt>
      <trkpt lat="45.17651" lon="5.54024">
        <ele>1037.0760498047</ele>
        <time>2009-07-14T13:55:02Z</time>
      </trkpt>
      <trkpt lat="45.17659" lon="5.5403">
        <ele>1037.501953125</ele>
        <time>2009-07-14T13:55:04Z</time>
      </trkpt>
      <trkpt lat="45.1768" lon="5.54046">
        <ele>1038.6240234375</ele>
        <time>2009-07-14T13:55:10Z</time>
      </trkpt>
      <trkpt lat="45.17693" lon="5.54059">
        <ele>1039.2490234375</ele>
        <time>2009-07-14T13:55:14Z</time>
      </trkpt>
      <trkpt lat="45.17715" lon="5.54083">
        <ele>1040.91796875</ele>
        <time>2009-07-14T13:55:21Z</time>
      </trkpt>
      <trkpt lat="45.17754" lon="5.54128">
        <ele>1043.0930175781</ele>
        <time>2009-07-14T13:55:33Z</time>
      </trkpt>
      <trkpt lat="45.17759" lon="5.54172">
        <ele>1043.2459716797</ele>
        <time>2009-07-14T13:55:41Z</time>
      </trkpt>
      <trkpt lat="45.17722" lon="5.54245">
        <ele>1043.91796875</ele>
        <time>2009-07-14T13:55:55Z</time>
      </trkpt>
      <trkpt lat="45.17711" lon="5.54245">
        <ele>1042.7609863281</ele>
        <time>2009-07-14T13:56:00Z</time>
      </trkpt>
      <trkpt lat="45.17682" lon="5.54234">
        <ele>1042.9270019531</ele>
        <time>2009-07-14T13:56:08Z</time>
      </trkpt>
      <trkpt lat="45.17674" lon="5.54231">
        <ele>1042.916015625</ele>
        <time>2009-07-14T13:56:10Z</time>
      </trkpt>
      <trkpt lat="45.17665" lon="5.54229">
        <ele>1041.9000244141</ele>
        <time>2009-07-14T13:56:12Z</time>
      </trkpt>
      <trkpt lat="45.17645" lon="5.54222">
        <ele>1040.8559570312</ele>
        <time>2009-07-14T13:56:16Z</time>
      </trkpt>
      <trkpt lat="45.1762" lon="5.54215">
        <ele>1039.2039794922</ele>
        <time>2009-07-14T13:56:20Z</time>
      </trkpt>
      <trkpt lat="45.17551" lon="5.54208">
        <ele>1039.3139648438</ele>
        <time>2009-07-14T13:56:30Z</time>
      </trkpt>
      <trkpt lat="45.17535" lon="5.54233">
        <ele>1038.6590576172</ele>
        <time>2009-07-14T13:56:36Z</time>
      </trkpt>
      <trkpt lat="45.17528" lon="5.54243">
        <ele>1038.2919921875</ele>
        <time>2009-07-14T13:56:38Z</time>
      </trkpt>
      <trkpt lat="45.17532" lon="5.54279">
        <ele>1037.6209716797</ele>
        <time>2009-07-14T13:56:45Z</time>
      </trkpt>
      <trkpt lat="45.17551" lon="5.54321">
        <ele>1038.0570068359</ele>
        <time>2009-07-14T13:56:54Z</time>
      </trkpt>
      <trkpt lat="45.17556" lon="5.54341">
        <ele>1038</ele>
        <time>2009-07-14T13:56:58Z</time>
      </trkpt>
      <trkpt lat="45.17567" lon="5.54366">
        <ele>1037.8010253906</ele>
        <time>2009-07-14T13:57:03Z</time>
      </trkpt>
      <trkpt lat="45.17572" lon="5.54375">
        <ele>1037.6789550781</ele>
        <time>2009-07-14T13:57:05Z</time>
      </trkpt>
      <trkpt lat="45.17609" lon="5.54442">
        <ele>1038.4790039062</ele>
        <time>2009-07-14T13:57:17Z</time>
      </trkpt>
      <trkpt lat="45.17619" lon="5.54457">
        <ele>1038.291015625</ele>
        <time>2009-07-14T13:57:20Z</time>
      </trkpt>
      <trkpt lat="45.17646" lon="5.54538">
        <ele>1038.9260253906</ele>
        <time>2009-07-14T13:57:33Z</time>
      </trkpt>
      <trkpt lat="45.17677" lon="5.54626">
        <ele>1039.3640136719</ele>
        <time>2009-07-14T13:57:45Z</time>
      </trkpt>
      <trkpt lat="45.17688" lon="5.54668">
        <ele>1039.3420410156</ele>
        <time>2009-07-14T13:57:50Z</time>
      </trkpt>
      <trkpt lat="45.17696" lon="5.54745">
        <ele>1040.7459716797</ele>
        <time>2009-07-14T13:57:59Z</time>
      </trkpt>
      <trkpt lat="45.17703" lon="5.54775">
        <ele>1042.0620117188</ele>
        <time>2009-07-14T13:58:03Z</time>
      </trkpt>
      <trkpt lat="45.17751" lon="5.54887">
        <ele>1045.4830322266</ele>
        <time>2009-07-14T13:58:21Z</time>
      </trkpt>
      <trkpt lat="45.17804" lon="5.55005">
        <ele>1048.5379638672</ele>
        <time>2009-07-14T13:58:40Z</time>
      </trkpt>
      <trkpt lat="45.17817" lon="5.55035">
        <ele>1049.3249511719</ele>
        <time>2009-07-14T13:58:45Z</time>
      </trkpt>
      <trkpt lat="45.17858" lon="5.55103">
        <ele>1049.8239746094</ele>
        <time>2009-07-14T13:58:56Z</time>
      </trkpt>
      <trkpt lat="45.17898" lon="5.5523">
        <ele>1051.3630371094</ele>
        <time>2009-07-14T13:59:12Z</time>
      </trkpt>
      <trkpt lat="45.17959" lon="5.55373">
        <ele>1054.2590332031</ele>
        <time>2009-07-14T13:59:32Z</time>
      </trkpt>
      <trkpt lat="45.18026" lon="5.55481">
        <ele>1056.5</ele>
        <time>2009-07-14T13:59:49Z</time>
      </trkpt>
      <trkpt lat="45.18095" lon="5.55618">
        <ele>1060.2110595703</ele>
        <time>2009-07-14T14:00:09Z</time>
      </trkpt>
      <trkpt lat="45.18155" lon="5.55735">
        <ele>1062.3480224609</ele>
        <time>2009-07-14T14:00:26Z</time>
      </trkpt>
      <trkpt lat="45.1825" lon="5.55816">
        <ele>1064.1669921875</ele>
        <time>2009-07-14T14:00:43Z</time>
      </trkpt>
      <trkpt lat="45.18328" lon="5.5586">
        <ele>1066.1429443359</ele>
        <time>2009-07-14T14:00:56Z</time>
      </trkpt>
      <trkpt lat="45.18345" lon="5.55873">
        <ele>1066.2409667969</ele>
        <time>2009-07-14T14:00:59Z</time>
      </trkpt>
      <trkpt lat="45.18357" lon="5.55881">
        <ele>1067.0670166016</ele>
        <time>2009-07-14T14:01:01Z</time>
      </trkpt>
      <trkpt lat="45.18377" lon="5.559">
        <ele>1068.7800292969</ele>
        <time>2009-07-14T14:01:05Z</time>
      </trkpt>
      <trkpt lat="45.18449" lon="5.55996">
        <ele>1069.7349853516</ele>
        <time>2009-07-14T14:01:22Z</time>
      </trkpt>
      <trkpt lat="45.18458" lon="5.56006">
        <ele>1070.0469970703</ele>
        <time>2009-07-14T14:01:24Z</time>
      </trkpt>
      <trkpt lat="45.18512" lon="5.56089">
        <ele>1071.4119873047</ele>
        <time>2009-07-14T14:01:37Z</time>
      </trkpt>
      <trkpt lat="45.1853" lon="5.56119">
        <ele>1072.8919677734</ele>
        <time>2009-07-14T14:01:42Z</time>
      </trkpt>
      <trkpt lat="45.18606" lon="5.56187">
        <ele>1076.8210449219</ele>
        <time>2009-07-14T14:01:58Z</time>
      </trkpt>
      <trkpt lat="45.18617" lon="5.56194">
        <ele>1076.8489990234</ele>
        <time>2009-07-14T14:02:00Z</time>
      </trkpt>
      <trkpt lat="45.18628" lon="5.56199">
        <ele>1076.9730224609</ele>
        <time>2009-07-14T14:02:02Z</time>
      </trkpt>
      <trkpt lat="45.18725" lon="5.56212">
        <ele>1075.6009521484</ele>
        <time>2009-07-14T14:02:16Z</time>
      </trkpt>
      <trkpt lat="45.18814" lon="5.56254">
        <ele>1075.3299560547</ele>
        <time>2009-07-14T14:02:28Z</time>
      </trkpt>
      <trkpt lat="45.1892" lon="5.56338">
        <ele>1076.8520507812</ele>
        <time>2009-07-14T14:02:43Z</time>
      </trkpt>
      <trkpt lat="45.1899" lon="5.56346">
        <ele>1077.9150390625</ele>
        <time>2009-07-14T14:02:52Z</time>
      </trkpt>
      <trkpt lat="45.1908" lon="5.56413">
        <ele>1079.3890380859</ele>
        <time>2009-07-14T14:03:05Z</time>
      </trkpt>
      <trkpt lat="45.19199" lon="5.56489">
        <ele>1081.6989746094</ele>
        <time>2009-07-14T14:03:22Z</time>
      </trkpt>
      <trkpt lat="45.19333" lon="5.56582">
        <ele>1084.248046875</ele>
        <time>2009-07-14T14:03:42Z</time>
      </trkpt>
      <trkpt lat="45.19485" lon="5.56707">
        <ele>1088.373046875</ele>
        <time>2009-07-14T14:04:05Z</time>
      </trkpt>
      <trkpt lat="45.19598" lon="5.56827">
        <ele>1091.8879394531</ele>
        <time>2009-07-14T14:04:24Z</time>
      </trkpt>
      <trkpt lat="45.19691" lon="5.56875">
        <ele>1094.08203125</ele>
        <time>2009-07-14T14:04:38Z</time>
      </trkpt>
      <trkpt lat="45.19778" lon="5.5689">
        <ele>1096.6120605469</ele>
        <time>2009-07-14T14:04:50Z</time>
      </trkpt>
      <trkpt lat="45.19893" lon="5.56944">
        <ele>1099.8020019531</ele>
        <time>2009-07-14T14:05:07Z</time>
      </trkpt>
      <trkpt lat="45.20035" lon="5.57008">
        <ele>1103.0560302734</ele>
        <time>2009-07-14T14:05:28Z</time>
      </trkpt>
      <trkpt lat="45.20118" lon="5.57064">
        <ele>1106.6400146484</ele>
        <time>2009-07-14T14:05:42Z</time>
      </trkpt>
      <trkpt lat="45.20215" lon="5.57113">
        <ele>1109.3480224609</ele>
        <time>2009-07-14T14:05:59Z</time>
      </trkpt>
      <trkpt lat="45.20313" lon="5.57144">
        <ele>1112.2640380859</ele>
        <time>2009-07-14T14:06:16Z</time>
      </trkpt>
      <trkpt lat="45.20353" lon="5.57174">
        <ele>1114.3640136719</ele>
        <time>2009-07-14T14:06:24Z</time>
      </trkpt>
      <trkpt lat="45.2042" lon="5.57228">
        <ele>1117.4429931641</ele>
        <time>2009-07-14T14:06:38Z</time>
      </trkpt>
      <trkpt lat="45.20497" lon="5.57268">
        <ele>1120.2370605469</ele>
        <time>2009-07-14T14:06:53Z</time>
      </trkpt>
      <trkpt lat="45.20588" lon="5.57315">
        <ele>1123.9069824219</ele>
        <time>2009-07-14T14:07:11Z</time>
      </trkpt>
      <trkpt lat="45.20661" lon="5.57353">
        <ele>1126.7469482422</ele>
        <time>2009-07-14T14:07:26Z</time>
      </trkpt>
      <trkpt lat="45.20749" lon="5.57397">
        <ele>1131.1789550781</ele>
        <time>2009-07-14T14:07:46Z</time>
      </trkpt>
      <trkpt lat="45.20817" lon="5.57427">
        <ele>1134.1280517578</ele>
        <time>2009-07-14T14:08:02Z</time>
      </trkpt>
      <trkpt lat="45.20886" lon="5.57462">
        <ele>1135.9880371094</ele>
        <time>2009-07-14T14:08:19Z</time>
      </trkpt>
      <trkpt lat="45.2091" lon="5.57475">
        <ele>1136.0209960938</ele>
        <time>2009-07-14T14:08:25Z</time>
      </trkpt>
      <trkpt lat="45.20918" lon="5.57479">
        <ele>1138.708984375</ele>
        <time>2009-07-14T14:08:27Z</time>
      </trkpt>
      <trkpt lat="45.2098" lon="5.57504">
        <ele>1142.4499511719</ele>
        <time>2009-07-14T14:08:44Z</time>
      </trkpt>
      <trkpt lat="45.21" lon="5.5751">
        <ele>1143.8950195312</ele>
        <time>2009-07-14T14:08:49Z</time>
      </trkpt>
      <trkpt lat="45.21022" lon="5.57515">
        <ele>1145.0639648438</ele>
        <time>2009-07-14T14:08:55Z</time>
      </trkpt>
      <trkpt lat="45.21043" lon="5.57521">
        <ele>1145.8520507812</ele>
        <time>2009-07-14T14:09:01Z</time>
      </trkpt>
      <trkpt lat="45.21112" lon="5.57543">
        <ele>1149.8089599609</ele>
        <time>2009-07-14T14:09:20Z</time>
      </trkpt>
      <trkpt lat="45.21195" lon="5.57565">
        <ele>1153.1970214844</ele>
        <time>2009-07-14T14:09:41Z</time>
      </trkpt>
      <trkpt lat="45.21264" lon="5.57592">
        <ele>1156.8929443359</ele>
        <time>2009-07-14T14:09:59Z</time>
      </trkpt>
      <trkpt lat="45.21333" lon="5.5762">
        <ele>1160.4870605469</ele>
        <time>2009-07-14T14:10:16Z</time>
      </trkpt>
      <trkpt lat="45.21403" lon="5.57651">
        <ele>1164.20703125</ele>
        <time>2009-07-14T14:10:34Z</time>
      </trkpt>
      <trkpt lat="45.21407" lon="5.57653">
        <ele>1164.6340332031</ele>
        <time>2009-07-14T14:10:35Z</time>
      </trkpt>
      <trkpt lat="45.21465" lon="5.57677">
        <ele>1167.9420166016</ele>
        <time>2009-07-14T14:10:50Z</time>
      </trkpt>
      <trkpt lat="45.21513" lon="5.57707">
        <ele>1170.2750244141</ele>
        <time>2009-07-14T14:11:03Z</time>
      </trkpt>
      <trkpt lat="45.21575" lon="5.57746">
        <ele>1174.6729736328</ele>
        <time>2009-07-14T14:11:21Z</time>
      </trkpt>
      <trkpt lat="45.21634" lon="5.57773">
        <ele>1178.2430419922</ele>
        <time>2009-07-14T14:11:37Z</time>
      </trkpt>
      <trkpt lat="45.21672" lon="5.57794">
        <ele>1180.7139892578</ele>
        <time>2009-07-14T14:11:48Z</time>
      </trkpt>
      <trkpt lat="45.2173" lon="5.57821">
        <ele>1184.0720214844</ele>
        <time>2009-07-14T14:12:04Z</time>
      </trkpt>
      <trkpt lat="45.2179" lon="5.57849">
        <ele>1187.7709960938</ele>
        <time>2009-07-14T14:12:21Z</time>
      </trkpt>
      <trkpt lat="45.21845" lon="5.57866">
        <ele>1190.1760253906</ele>
        <time>2009-07-14T14:12:36Z</time>
      </trkpt>
      <trkpt lat="45.21907" lon="5.57884">
        <ele>1192.7819824219</ele>
        <time>2009-07-14T14:12:53Z</time>
      </trkpt>
      <trkpt lat="45.21972" lon="5.57903">
        <ele>1196.5150146484</ele>
        <time>2009-07-14T14:13:11Z</time>
      </trkpt>
      <trkpt lat="45.22001" lon="5.57916">
        <ele>1199.2370605469</ele>
        <time>2009-07-14T14:13:23Z</time>
      </trkpt>
      <trkpt lat="45.2203" lon="5.57925">
        <ele>1201.4930419922</ele>
        <time>2009-07-14T14:13:33Z</time>
      </trkpt>
      <trkpt lat="45.22055" lon="5.57932">
        <ele>1203.1610107422</ele>
        <time>2009-07-14T14:13:42Z</time>
      </trkpt>
      <trkpt lat="45.22116" lon="5.57941">
        <ele>1205.8489990234</ele>
        <time>2009-07-14T14:14:00Z</time>
      </trkpt>
      <trkpt lat="45.2218" lon="5.57945">
        <ele>1208.1789550781</ele>
        <time>2009-07-14T14:14:17Z</time>
      </trkpt>
      <trkpt lat="45.22232" lon="5.57955">
        <ele>1211.2409667969</ele>
        <time>2009-07-14T14:14:32Z</time>
      </trkpt>
      <trkpt lat="45.22272" lon="5.57964">
        <ele>1214.5069580078</ele>
        <time>2009-07-14T14:14:46Z</time>
      </trkpt>
      <trkpt lat="45.22296" lon="5.57971">
        <ele>1216.8850097656</ele>
        <time>2009-07-14T14:14:55Z</time>
      </trkpt>
      <trkpt lat="45.22333" lon="5.5798">
        <ele>1219.6579589844</ele>
        <time>2009-07-14T14:15:09Z</time>
      </trkpt>
      <trkpt lat="45.22369" lon="5.57989">
        <ele>1222.9429931641</ele>
        <time>2009-07-14T14:15:23Z</time>
      </trkpt>
      <trkpt lat="45.22411" lon="5.58">
        <ele>1226.7719726562</ele>
        <time>2009-07-14T14:15:40Z</time>
      </trkpt>
      <trkpt lat="45.22447" lon="5.58016">
        <ele>1230.2380371094</ele>
        <time>2009-07-14T14:15:56Z</time>
      </trkpt>
      <trkpt lat="45.22473" lon="5.58029">
        <ele>1232.7979736328</ele>
        <time>2009-07-14T14:16:09Z</time>
      </trkpt>
      <trkpt lat="45.22478" lon="5.58032">
        <ele>1233.6960449219</ele>
        <time>2009-07-14T14:16:12Z</time>
      </trkpt>
      <trkpt lat="45.22487" lon="5.58039">
        <ele>1235.8909912109</ele>
        <time>2009-07-14T14:16:19Z</time>
      </trkpt>
      <trkpt lat="45.2249" lon="5.58041">
        <ele>1235.9680175781</ele>
        <time>2009-07-14T14:16:21Z</time>
      </trkpt>
      <trkpt lat="45.22501" lon="5.58041">
        <ele>1237.5200195312</ele>
        <time>2009-07-14T14:16:26Z</time>
      </trkpt>
      <trkpt lat="45.22509" lon="5.58043">
        <ele>1238.6209716797</ele>
        <time>2009-07-14T14:16:31Z</time>
      </trkpt>
      <trkpt lat="45.22529" lon="5.58047">
        <ele>1240.6850585938</ele>
        <time>2009-07-14T14:16:41Z</time>
      </trkpt>
      <trkpt lat="45.22556" lon="5.58041">
        <ele>1242.9029541016</ele>
        <time>2009-07-14T14:16:54Z</time>
      </trkpt>
      <trkpt lat="45.22602" lon="5.58052">
        <ele>1246.3229980469</ele>
        <time>2009-07-14T14:17:10Z</time>
      </trkpt>
      <trkpt lat="45.22651" lon="5.58053">
        <ele>1250.1080322266</ele>
        <time>2009-07-14T14:17:29Z</time>
      </trkpt>
      <trkpt lat="45.22676" lon="5.58043">
        <ele>1252.8850097656</ele>
        <time>2009-07-14T14:17:40Z</time>
      </trkpt>
      <trkpt lat="45.22694" lon="5.58037">
        <ele>1254.0009765625</ele>
        <time>2009-07-14T14:17:47Z</time>
      </trkpt>
      <trkpt lat="45.22699" lon="5.58036">
        <ele>1254.5200195312</ele>
        <time>2009-07-14T14:17:49Z</time>
      </trkpt>
      <trkpt lat="45.2271" lon="5.58037">
        <ele>1255.4139404297</ele>
        <time>2009-07-14T14:17:54Z</time>
      </trkpt>
      <trkpt lat="45.22744" lon="5.58046">
        <ele>1259.1300048828</ele>
        <time>2009-07-14T14:18:10Z</time>
      </trkpt>
      <trkpt lat="45.22767" lon="5.58053">
        <ele>1262.3420410156</ele>
        <time>2009-07-14T14:18:25Z</time>
      </trkpt>
      <trkpt lat="45.22791" lon="5.58058">
        <ele>1264.4709472656</ele>
        <time>2009-07-14T14:18:36Z</time>
      </trkpt>
      <trkpt lat="45.22817" lon="5.58058">
        <ele>1267.0080566406</ele>
        <time>2009-07-14T14:18:47Z</time>
      </trkpt>
      <trkpt lat="45.22847" lon="5.58061">
        <ele>1269.2650146484</ele>
        <time>2009-07-14T14:18:59Z</time>
      </trkpt>
      <trkpt lat="45.22879" lon="5.58078">
        <ele>1272.541015625</ele>
        <time>2009-07-14T14:19:14Z</time>
      </trkpt>
      <trkpt lat="45.22903" lon="5.58112">
        <ele>1276.1169433594</ele>
        <time>2009-07-14T14:19:29Z</time>
      </trkpt>
      <trkpt lat="45.22926" lon="5.5814">
        <ele>1278.8530273438</ele>
        <time>2009-07-14T14:19:42Z</time>
      </trkpt>
      <trkpt lat="45.22955" lon="5.58165">
        <ele>1282.3420410156</ele>
        <time>2009-07-14T14:19:57Z</time>
      </trkpt>
      <trkpt lat="45.22976" lon="5.5817">
        <ele>1283.7099609375</ele>
        <time>2009-07-14T14:20:09Z</time>
      </trkpt>
      <trkpt lat="45.22982" lon="5.58172">
        <ele>1284.5780029297</ele>
        <time>2009-07-14T14:20:15Z</time>
      </trkpt>
      <trkpt lat="45.22992" lon="5.58181">
        <ele>1285.4040527344</ele>
        <time>2009-07-14T14:20:22Z</time>
      </trkpt>
      <trkpt lat="45.23039" lon="5.58175">
        <ele>1287.8830566406</ele>
        <time>2009-07-14T14:20:41Z</time>
      </trkpt>
      <trkpt lat="45.23056" lon="5.58205">
        <ele>1290.2550048828</ele>
        <time>2009-07-14T14:20:51Z</time>
      </trkpt>
      <trkpt lat="45.23048" lon="5.58255">
        <ele>1293.2800292969</ele>
        <time>2009-07-14T14:21:05Z</time>
      </trkpt>
      <trkpt lat="45.23011" lon="5.58267">
        <ele>1295.79296875</ele>
        <time>2009-07-14T14:21:19Z</time>
      </trkpt>
      <trkpt lat="45.22964" lon="5.5827">
        <ele>1298.2459716797</ele>
        <time>2009-07-14T14:21:34Z</time>
      </trkpt>
      <trkpt lat="45.22957" lon="5.5831">
        <ele>1300.4479980469</ele>
        <time>2009-07-14T14:21:44Z</time>
      </trkpt>
      <trkpt lat="45.22982" lon="5.58343">
        <ele>1303.8759765625</ele>
        <time>2009-07-14T14:21:57Z</time>
      </trkpt>
      <trkpt lat="45.23003" lon="5.58358">
        <ele>1305.2280273438</ele>
        <time>2009-07-14T14:22:05Z</time>
      </trkpt>
      <trkpt lat="45.23041" lon="5.58372">
        <ele>1308.9489746094</ele>
        <time>2009-07-14T14:22:19Z</time>
      </trkpt>
      <trkpt lat="45.23074" lon="5.58357">
        <ele>1311.7409667969</ele>
        <time>2009-07-14T14:22:32Z</time>
      </trkpt>
      <trkpt lat="45.23101" lon="5.58344">
        <ele>1315.1459960938</ele>
        <time>2009-07-14T14:22:44Z</time>
      </trkpt>
      <trkpt lat="45.23132" lon="5.58323">
        <ele>1318.8260498047</ele>
        <time>2009-07-14T14:22:57Z</time>
      </trkpt>
      <trkpt lat="45.23164" lon="5.58302">
        <ele>1322.6910400391</ele>
        <time>2009-07-14T14:23:11Z</time>
      </trkpt>
      <trkpt lat="45.23192" lon="5.58282">
        <ele>1325.5520019531</ele>
        <time>2009-07-14T14:23:24Z</time>
      </trkpt>
      <trkpt lat="45.23223" lon="5.58271">
        <ele>1329.6440429688</ele>
        <time>2009-07-14T14:23:38Z</time>
      </trkpt>
      <trkpt lat="45.23254" lon="5.58288">
        <ele>1331.8330078125</ele>
        <time>2009-07-14T14:23:51Z</time>
      </trkpt>
      <trkpt lat="45.2328" lon="5.58308">
        <ele>1334.0350341797</ele>
        <time>2009-07-14T14:24:00Z</time>
      </trkpt>
      <trkpt lat="45.23298" lon="5.58324">
        <ele>1335.6259765625</ele>
        <time>2009-07-14T14:24:07Z</time>
      </trkpt>
      <trkpt lat="45.23332" lon="5.58357">
        <ele>1338.8659667969</ele>
        <time>2009-07-14T14:24:22Z</time>
      </trkpt>
      <trkpt lat="45.23362" lon="5.58388">
        <ele>1341.6560058594</ele>
        <time>2009-07-14T14:24:35Z</time>
      </trkpt>
      <trkpt lat="45.23389" lon="5.58398">
        <ele>1344.3690185547</ele>
        <time>2009-07-14T14:24:47Z</time>
      </trkpt>
      <trkpt lat="45.23417" lon="5.5839">
        <ele>1346.9649658203</ele>
        <time>2009-07-14T14:24:59Z</time>
      </trkpt>
      <trkpt lat="45.23443" lon="5.58382">
        <ele>1349.5489501953</ele>
        <time>2009-07-14T14:25:11Z</time>
      </trkpt>
      <trkpt lat="45.23471" lon="5.58373">
        <ele>1352.3229980469</ele>
        <time>2009-07-14T14:25:22Z</time>
      </trkpt>
      <trkpt lat="45.23503" lon="5.58363">
        <ele>1355.1500244141</ele>
        <time>2009-07-14T14:25:35Z</time>
      </trkpt>
      <trkpt lat="45.23535" lon="5.58346">
        <ele>1358.1519775391</ele>
        <time>2009-07-14T14:25:49Z</time>
      </trkpt>
      <trkpt lat="45.23563" lon="5.58331">
        <ele>1360.708984375</ele>
        <time>2009-07-14T14:26:02Z</time>
      </trkpt>
      <trkpt lat="45.23595" lon="5.5831">
        <ele>1363.6070556641</ele>
        <time>2009-07-14T14:26:16Z</time>
      </trkpt>
      <trkpt lat="45.23612" lon="5.58295">
        <ele>1364.8489990234</ele>
        <time>2009-07-14T14:26:26Z</time>
      </trkpt>
      <trkpt lat="45.2365" lon="5.58258">
        <ele>1368.0670166016</ele>
        <time>2009-07-14T14:26:44Z</time>
      </trkpt>
      <trkpt lat="45.2369" lon="5.58214">
        <ele>1371.8499755859</ele>
        <time>2009-07-14T14:27:02Z</time>
      </trkpt>
      <trkpt lat="45.23729" lon="5.58167">
        <ele>1374.9510498047</ele>
        <time>2009-07-14T14:27:18Z</time>
      </trkpt>
      <trkpt lat="45.23757" lon="5.58139">
        <ele>1375.7209472656</ele>
        <time>2009-07-14T14:27:32Z</time>
      </trkpt>
      <trkpt lat="45.23759" lon="5.58133">
        <ele>1376.0040283203</ele>
        <time>2009-07-14T14:27:38Z</time>
      </trkpt>
      <trkpt lat="45.23767" lon="5.5813">
        <ele>1376.6610107422</ele>
        <time>2009-07-14T14:28:50Z</time>
      </trkpt>
      <trkpt lat="45.2379" lon="5.58107">
        <ele>1378.3699951172</ele>
        <time>2009-07-14T14:29:03Z</time>
      </trkpt>
      <trkpt lat="45.23812" lon="5.58095">
        <ele>1380.2189941406</ele>
        <time>2009-07-14T14:29:12Z</time>
      </trkpt>
      <trkpt lat="45.23835" lon="5.58091">
        <ele>1383.6550292969</ele>
        <time>2009-07-14T14:29:23Z</time>
      </trkpt>
      <trkpt lat="45.23849" lon="5.58098">
        <ele>1385.3239746094</ele>
        <time>2009-07-14T14:29:30Z</time>
      </trkpt>
      <trkpt lat="45.2387" lon="5.58134">
        <ele>1387.998046875</ele>
        <time>2009-07-14T14:29:44Z</time>
      </trkpt>
      <trkpt lat="45.23875" lon="5.58146">
        <ele>1388.5150146484</ele>
        <time>2009-07-14T14:29:48Z</time>
      </trkpt>
      <trkpt lat="45.23883" lon="5.58161">
        <ele>1389.6109619141</ele>
        <time>2009-07-14T14:29:53Z</time>
      </trkpt>
      <trkpt lat="45.23886" lon="5.58213">
        <ele>1392.0600585938</ele>
        <time>2009-07-14T14:30:09Z</time>
      </trkpt>
      <trkpt lat="45.23866" lon="5.58266">
        <ele>1394.4689941406</ele>
        <time>2009-07-14T14:30:23Z</time>
      </trkpt>
      <trkpt lat="45.23847" lon="5.5832">
        <ele>1397.2280273438</ele>
        <time>2009-07-14T14:30:37Z</time>
      </trkpt>
      <trkpt lat="45.23827" lon="5.58367">
        <ele>1398.9720458984</ele>
        <time>2009-07-14T14:30:50Z</time>
      </trkpt>
      <trkpt lat="45.23809" lon="5.58379">
        <ele>1400.9279785156</ele>
        <time>2009-07-14T14:30:57Z</time>
      </trkpt>
      <trkpt lat="45.23768" lon="5.58369">
        <ele>1403.5340576172</ele>
        <time>2009-07-14T14:31:11Z</time>
      </trkpt>
      <trkpt lat="45.23741" lon="5.58387">
        <ele>1405.5030517578</ele>
        <time>2009-07-14T14:31:21Z</time>
      </trkpt>
      <trkpt lat="45.23708" lon="5.58425">
        <ele>1407.7969970703</ele>
        <time>2009-07-14T14:31:34Z</time>
      </trkpt>
      <trkpt lat="45.2367" lon="5.58481">
        <ele>1411.5870361328</ele>
        <time>2009-07-14T14:31:50Z</time>
      </trkpt>
      <trkpt lat="45.23631" lon="5.58523">
        <ele>1415.0040283203</ele>
        <time>2009-07-14T14:32:05Z</time>
      </trkpt>
      <trkpt lat="45.2359" lon="5.58566">
        <ele>1418.1130371094</ele>
        <time>2009-07-14T14:32:21Z</time>
      </trkpt>
      <trkpt lat="45.23552" lon="5.58615">
        <ele>1422.8149414062</ele>
        <time>2009-07-14T14:32:39Z</time>
      </trkpt>
      <trkpt lat="45.23526" lon="5.58665">
        <ele>1426.2469482422</ele>
        <time>2009-07-14T14:32:53Z</time>
      </trkpt>
      <trkpt lat="45.2352" lon="5.58714">
        <ele>1428.9229736328</ele>
        <time>2009-07-14T14:33:05Z</time>
      </trkpt>
      <trkpt lat="45.2351" lon="5.58774">
        <ele>1432.9560546875</ele>
        <time>2009-07-14T14:33:21Z</time>
      </trkpt>
      <trkpt lat="45.23448" lon="5.58783">
        <ele>1435.5080566406</ele>
        <time>2009-07-14T14:33:38Z</time>
      </trkpt>
      <trkpt lat="45.23394" lon="5.58777">
        <ele>1437.3499755859</ele>
        <time>2009-07-14T14:33:52Z</time>
      </trkpt>
      <trkpt lat="45.2339" lon="5.58778">
        <ele>1437.2259521484</ele>
        <time>2009-07-14T14:33:53Z</time>
      </trkpt>
      <trkpt lat="45.23364" lon="5.58761">
        <ele>1437.666015625</ele>
        <time>2009-07-14T14:34:00Z</time>
      </trkpt>
      <trkpt lat="45.23333" lon="5.58744">
        <ele>1438.2750244141</ele>
        <time>2009-07-14T14:34:08Z</time>
      </trkpt>
      <trkpt lat="45.23319" lon="5.58748">
        <ele>1437.7700195312</ele>
        <time>2009-07-14T14:34:11Z</time>
      </trkpt>
      <trkpt lat="45.23298" lon="5.58744">
        <ele>1437.8380126953</ele>
        <time>2009-07-14T14:34:15Z</time>
      </trkpt>
      <trkpt lat="45.23261" lon="5.58752">
        <ele>1438.791015625</ele>
        <time>2009-07-14T14:34:23Z</time>
      </trkpt>
      <trkpt lat="45.23209" lon="5.58768">
        <ele>1438.5159912109</ele>
        <time>2009-07-14T14:34:34Z</time>
      </trkpt>
      <trkpt lat="45.23187" lon="5.58774">
        <ele>1439.2550048828</ele>
        <time>2009-07-14T14:34:38Z</time>
      </trkpt>
      <trkpt lat="45.23167" lon="5.58786">
        <ele>1439.9389648438</ele>
        <time>2009-07-14T14:34:42Z</time>
      </trkpt>
      <trkpt lat="45.2314" lon="5.58789">
        <ele>1439.8289794922</ele>
        <time>2009-07-14T14:34:47Z</time>
      </trkpt>
      <trkpt lat="45.2313" lon="5.58786">
        <ele>1440.2380371094</ele>
        <time>2009-07-14T14:34:49Z</time>
      </trkpt>
      <trkpt lat="45.23061" lon="5.588">
        <ele>1441.8929443359</ele>
        <time>2009-07-14T14:35:02Z</time>
      </trkpt>
      <trkpt lat="45.22981" lon="5.58809">
        <ele>1442.8959960938</ele>
        <time>2009-07-14T14:35:17Z</time>
      </trkpt>
      <trkpt lat="45.22887" lon="5.58841">
        <ele>1445.333984375</ele>
        <time>2009-07-14T14:35:37Z</time>
      </trkpt>
      <trkpt lat="45.22854" lon="5.58852">
        <ele>1447.0419921875</ele>
        <time>2009-07-14T14:35:44Z</time>
      </trkpt>
      <trkpt lat="45.2279" lon="5.58865">
        <ele>1450.3480224609</ele>
        <time>2009-07-14T14:35:58Z</time>
      </trkpt>
      <trkpt lat="45.22737" lon="5.58859">
        <ele>1453.4100341797</ele>
        <time>2009-07-14T14:36:11Z</time>
      </trkpt>
      <trkpt lat="45.22728" lon="5.58855">
        <ele>1453.7120361328</ele>
        <time>2009-07-14T14:36:13Z</time>
      </trkpt>
      <trkpt lat="45.22715" lon="5.58845">
        <ele>1454.3690185547</ele>
        <time>2009-07-14T14:36:16Z</time>
      </trkpt>
      <trkpt lat="45.22708" lon="5.58832">
        <ele>1455.0119628906</ele>
        <time>2009-07-14T14:36:19Z</time>
      </trkpt>
      <trkpt lat="45.22704" lon="5.58821">
        <ele>1455.3229980469</ele>
        <time>2009-07-14T14:36:21Z</time>
      </trkpt>
      <trkpt lat="45.22694" lon="5.58789">
        <ele>1456.6359863281</ele>
        <time>2009-07-14T14:36:27Z</time>
      </trkpt>
      <trkpt lat="45.22675" lon="5.58764">
        <ele>1457.4219970703</ele>
        <time>2009-07-14T14:36:33Z</time>
      </trkpt>
      <trkpt lat="45.22656" lon="5.58723">
        <ele>1458.3940429688</ele>
        <time>2009-07-14T14:36:41Z</time>
      </trkpt>
      <trkpt lat="45.22646" lon="5.5871">
        <ele>1458.7220458984</ele>
        <time>2009-07-14T14:36:44Z</time>
      </trkpt>
      <trkpt lat="45.2263" lon="5.58701">
        <ele>1459.3609619141</ele>
        <time>2009-07-14T14:36:48Z</time>
      </trkpt>
      <trkpt lat="45.22587" lon="5.58696">
        <ele>1460.4069824219</ele>
        <time>2009-07-14T14:36:57Z</time>
      </trkpt>
      <trkpt lat="45.22555" lon="5.58708">
        <ele>1462</ele>
        <time>2009-07-14T14:37:04Z</time>
      </trkpt>
      <trkpt lat="45.22548" lon="5.58716">
        <ele>1462.45703125</ele>
        <time>2009-07-14T14:37:06Z</time>
      </trkpt>
      <trkpt lat="45.22527" lon="5.58749">
        <ele>1463.4739990234</ele>
        <time>2009-07-14T14:37:13Z</time>
      </trkpt>
      <trkpt lat="45.22513" lon="5.58765">
        <ele>1464.2750244141</ele>
        <time>2009-07-14T14:37:17Z</time>
      </trkpt>
      <trkpt lat="45.22449" lon="5.58794">
        <ele>1466.9079589844</ele>
        <time>2009-07-14T14:37:31Z</time>
      </trkpt>
      <trkpt lat="45.22434" lon="5.58797">
        <ele>1467.4379882812</ele>
        <time>2009-07-14T14:37:34Z</time>
      </trkpt>
      <trkpt lat="45.22407" lon="5.58789">
        <ele>1468.1400146484</ele>
        <time>2009-07-14T14:37:40Z</time>
      </trkpt>
      <trkpt lat="45.22353" lon="5.58729">
        <ele>1470.7690429688</ele>
        <time>2009-07-14T14:37:55Z</time>
      </trkpt>
      <trkpt lat="45.22324" lon="5.58709">
        <ele>1472.5300292969</ele>
        <time>2009-07-14T14:38:02Z</time>
      </trkpt>
      <trkpt lat="45.22252" lon="5.587">
        <ele>1474.2679443359</ele>
        <time>2009-07-14T14:38:17Z</time>
      </trkpt>
      <trkpt lat="45.22195" lon="5.58705">
        <ele>1477.5219726562</ele>
        <time>2009-07-14T14:38:29Z</time>
      </trkpt>
      <trkpt lat="45.22113" lon="5.58697">
        <ele>1481.1280517578</ele>
        <time>2009-07-14T14:38:48Z</time>
      </trkpt>
      <trkpt lat="45.22042" lon="5.58673">
        <ele>1483.9739990234</ele>
        <time>2009-07-14T14:39:06Z</time>
      </trkpt>
      <trkpt lat="45.22033" lon="5.58673">
        <ele>1484.2419433594</ele>
        <time>2009-07-14T14:39:08Z</time>
      </trkpt>
      <trkpt lat="45.22012" lon="5.58686">
        <ele>1484.6070556641</ele>
        <time>2009-07-14T14:39:13Z</time>
      </trkpt>
      <trkpt lat="45.21981" lon="5.58735">
        <ele>1485.4940185547</ele>
        <time>2009-07-14T14:39:23Z</time>
      </trkpt>
      <trkpt lat="45.21974" lon="5.58744">
        <ele>1485.7030029297</ele>
        <time>2009-07-14T14:39:25Z</time>
      </trkpt>
      <trkpt lat="45.21954" lon="5.58761">
        <ele>1486.6330566406</ele>
        <time>2009-07-14T14:39:30Z</time>
      </trkpt>
      <trkpt lat="45.21944" lon="5.58773">
        <ele>1488.0550537109</ele>
        <time>2009-07-14T14:39:33Z</time>
      </trkpt>
      <trkpt lat="45.21938" lon="5.58783">
        <ele>1488.7099609375</ele>
        <time>2009-07-14T14:39:35Z</time>
      </trkpt>
      <trkpt lat="45.21935" lon="5.58814">
        <ele>1489.8590087891</ele>
        <time>2009-07-14T14:39:40Z</time>
      </trkpt>
      <trkpt lat="45.21937" lon="5.5886">
        <ele>1491.5369873047</ele>
        <time>2009-07-14T14:39:48Z</time>
      </trkpt>
      <trkpt lat="45.21924" lon="5.5889">
        <ele>1491.9000244141</ele>
        <time>2009-07-14T14:39:54Z</time>
      </trkpt>
      <trkpt lat="45.2191" lon="5.58902">
        <ele>1492.1450195312</ele>
        <time>2009-07-14T14:39:58Z</time>
      </trkpt>
      <trkpt lat="45.2186" lon="5.58911">
        <ele>1493.7290039062</ele>
        <time>2009-07-14T14:40:13Z</time>
      </trkpt>
      <trkpt lat="45.21813" lon="5.58905">
        <ele>1496.7939453125</ele>
        <time>2009-07-14T14:40:27Z</time>
      </trkpt>
      <trkpt lat="45.21802" lon="5.58896">
        <ele>1498.3389892578</ele>
        <time>2009-07-14T14:40:31Z</time>
      </trkpt>
      <trkpt lat="45.21797" lon="5.58891">
        <ele>1499.5109863281</ele>
        <time>2009-07-14T14:40:33Z</time>
      </trkpt>
      <trkpt lat="45.21761" lon="5.58869">
        <ele>1501.7199707031</ele>
        <time>2009-07-14T14:40:45Z</time>
      </trkpt>
      <trkpt lat="45.21739" lon="5.58818">
        <ele>1504.6519775391</ele>
        <time>2009-07-14T14:40:59Z</time>
      </trkpt>
      <trkpt lat="45.21719" lon="5.58769">
        <ele>1506.5560302734</ele>
        <time>2009-07-14T14:41:12Z</time>
      </trkpt>
      <trkpt lat="45.21712" lon="5.58765">
        <ele>1506.5200195312</ele>
        <time>2009-07-14T14:41:14Z</time>
      </trkpt>
      <trkpt lat="45.21691" lon="5.58756">
        <ele>1507.2889404297</ele>
        <time>2009-07-14T14:41:19Z</time>
      </trkpt>
      <trkpt lat="45.21668" lon="5.58749">
        <ele>1507.0229492188</ele>
        <time>2009-07-14T14:41:24Z</time>
      </trkpt>
      <trkpt lat="45.21653" lon="5.58736">
        <ele>1507.876953125</ele>
        <time>2009-07-14T14:41:28Z</time>
      </trkpt>
      <trkpt lat="45.21622" lon="5.58715">
        <ele>1509.0150146484</ele>
        <time>2009-07-14T14:41:36Z</time>
      </trkpt>
      <trkpt lat="45.21599" lon="5.58703">
        <ele>1510.4189453125</ele>
        <time>2009-07-14T14:41:42Z</time>
      </trkpt>
      <trkpt lat="45.21529" lon="5.58684">
        <ele>1513.9410400391</ele>
        <time>2009-07-14T14:42:00Z</time>
      </trkpt>
      <trkpt lat="45.21469" lon="5.58677">
        <ele>1516.2879638672</ele>
        <time>2009-07-14T14:42:16Z</time>
      </trkpt>
      <trkpt lat="45.21411" lon="5.58668">
        <ele>1519.5620117188</ele>
        <time>2009-07-14T14:42:31Z</time>
      </trkpt>
      <trkpt lat="45.21365" lon="5.58648">
        <ele>1520.2709960938</ele>
        <time>2009-07-14T14:42:42Z</time>
      </trkpt>
      <trkpt lat="45.21356" lon="5.58643">
        <ele>1520.5389404297</ele>
        <time>2009-07-14T14:42:44Z</time>
      </trkpt>
      <trkpt lat="45.21317" lon="5.58631">
        <ele>1521.8210449219</ele>
        <time>2009-07-14T14:42:54Z</time>
      </trkpt>
      <trkpt lat="45.21275" lon="5.58622">
        <ele>1521.7769775391</ele>
        <time>2009-07-14T14:43:06Z</time>
      </trkpt>
      <trkpt lat="45.21215" lon="5.58597">
        <ele>1523.7440185547</ele>
        <time>2009-07-14T14:43:20Z</time>
      </trkpt>
      <trkpt lat="45.21151" lon="5.58566">
        <ele>1525.4019775391</ele>
        <time>2009-07-14T14:43:34Z</time>
      </trkpt>
      <trkpt lat="45.21121" lon="5.58561">
        <ele>1526.2709960938</ele>
        <time>2009-07-14T14:43:40Z</time>
      </trkpt>
      <trkpt lat="45.2109" lon="5.58542">
        <ele>1527.2729492188</ele>
        <time>2009-07-14T14:43:47Z</time>
      </trkpt>
      <trkpt lat="45.21039" lon="5.58524">
        <ele>1529.3990478516</ele>
        <time>2009-07-14T14:43:59Z</time>
      </trkpt>
      <trkpt lat="45.20987" lon="5.58517">
        <ele>1531.6739501953</ele>
        <time>2009-07-14T14:44:11Z</time>
      </trkpt>
      <trkpt lat="45.20957" lon="5.58509">
        <ele>1532.498046875</ele>
        <time>2009-07-14T14:44:19Z</time>
      </trkpt>
      <trkpt lat="45.20942" lon="5.58498">
        <ele>1532.5400390625</ele>
        <time>2009-07-14T14:44:23Z</time>
      </trkpt>
      <trkpt lat="45.20894" lon="5.58475">
        <ele>1532.4270019531</ele>
        <time>2009-07-14T14:44:32Z</time>
      </trkpt>
      <trkpt lat="45.20869" lon="5.58475">
        <ele>1531.0159912109</ele>
        <time>2009-07-14T14:44:36Z</time>
      </trkpt>
      <trkpt lat="45.20843" lon="5.58468">
        <ele>1530.3189697266</ele>
        <time>2009-07-14T14:44:43Z</time>
      </trkpt>
      <trkpt lat="45.20837" lon="5.58467">
        <ele>1529.9899902344</ele>
        <time>2009-07-14T14:44:47Z</time>
      </trkpt>
      <trkpt lat="45.20832" lon="5.58467">
        <ele>1529.6760253906</ele>
        <time>2009-07-14T14:44:49Z</time>
      </trkpt>
      <trkpt lat="45.2083" lon="5.58465">
        <ele>1529.6979980469</ele>
        <time>2009-07-14T14:44:53Z</time>
      </trkpt>
      <trkpt lat="45.20826" lon="5.58469">
        <ele>1530.8389892578</ele>
        <time>2009-07-14T14:46:51Z</time>
      </trkpt>
      <trkpt lat="45.20819" lon="5.58478">
        <ele>1530.8499755859</ele>
        <time>2009-07-14T14:46:57Z</time>
      </trkpt>
      <trkpt lat="45.20804" lon="5.58508">
        <ele>1530.45703125</ele>
        <time>2009-07-14T14:47:06Z</time>
      </trkpt>
      <trkpt lat="45.20776" lon="5.58521">
        <ele>1530.3819580078</ele>
        <time>2009-07-14T14:47:14Z</time>
      </trkpt>
      <trkpt lat="45.20736" lon="5.58494">
        <ele>1531.3179931641</ele>
        <time>2009-07-14T14:47:27Z</time>
      </trkpt>
      <trkpt lat="45.20724" lon="5.58499">
        <ele>1530.7979736328</ele>
        <time>2009-07-14T14:47:30Z</time>
      </trkpt>
      <trkpt lat="45.20714" lon="5.58511">
        <ele>1529.8120117188</ele>
        <time>2009-07-14T14:47:33Z</time>
      </trkpt>
      <trkpt lat="45.20693" lon="5.58542">
        <ele>1529.1209716797</ele>
        <time>2009-07-14T14:47:39Z</time>
      </trkpt>
      <trkpt lat="45.20681" lon="5.58576">
        <ele>1529.2700195312</ele>
        <time>2009-07-14T14:47:45Z</time>
      </trkpt>
      <trkpt lat="45.20645" lon="5.58623">
        <ele>1529.4300537109</ele>
        <time>2009-07-14T14:47:55Z</time>
      </trkpt>
      <trkpt lat="45.20612" lon="5.58674">
        <ele>1530.166015625</ele>
        <time>2009-07-14T14:48:05Z</time>
      </trkpt>
      <trkpt lat="45.20601" lon="5.58688">
        <ele>1530.8430175781</ele>
        <time>2009-07-14T14:48:08Z</time>
      </trkpt>
      <trkpt lat="45.20591" lon="5.58702">
        <ele>1531.5539550781</ele>
        <time>2009-07-14T14:48:11Z</time>
      </trkpt>
      <trkpt lat="45.20584" lon="5.58728">
        <ele>1531.625</ele>
        <time>2009-07-14T14:48:15Z</time>
      </trkpt>
      <trkpt lat="45.20571" lon="5.5876">
        <ele>1531.5</ele>
        <time>2009-07-14T14:48:20Z</time>
      </trkpt>
      <trkpt lat="45.20559" lon="5.58776">
        <ele>1531.8759765625</ele>
        <time>2009-07-14T14:48:23Z</time>
      </trkpt>
      <trkpt lat="45.20546" lon="5.58787">
        <ele>1531.9300537109</ele>
        <time>2009-07-14T14:48:26Z</time>
      </trkpt>
      <trkpt lat="45.20496" lon="5.58793">
        <ele>1532.0389404297</ele>
        <time>2009-07-14T14:48:36Z</time>
      </trkpt>
      <trkpt lat="45.20478" lon="5.58798">
        <ele>1532.5469970703</ele>
        <time>2009-07-14T14:48:40Z</time>
      </trkpt>
      <trkpt lat="45.20454" lon="5.58796">
        <ele>1533.0899658203</ele>
        <time>2009-07-14T14:48:49Z</time>
      </trkpt>
      <trkpt lat="45.20452" lon="5.5877">
        <ele>1533.5360107422</ele>
        <time>2009-07-14T14:48:54Z</time>
      </trkpt>
      <trkpt lat="45.20455" lon="5.58758">
        <ele>1533.2889404297</ele>
        <time>2009-07-14T14:48:56Z</time>
      </trkpt>
      <trkpt lat="45.20465" lon="5.5871">
        <ele>1533.5999755859</ele>
        <time>2009-07-14T14:49:05Z</time>
      </trkpt>
      <trkpt lat="45.20448" lon="5.58681">
        <ele>1533.6550292969</ele>
        <time>2009-07-14T14:49:11Z</time>
      </trkpt>
      <trkpt lat="45.20425" lon="5.5866">
        <ele>1534.6090087891</ele>
        <time>2009-07-14T14:49:17Z</time>
      </trkpt>
      <trkpt lat="45.20409" lon="5.58654">
        <ele>1535.1409912109</ele>
        <time>2009-07-14T14:49:21Z</time>
      </trkpt>
      <trkpt lat="45.20387" lon="5.58652">
        <ele>1535.3709716797</ele>
        <time>2009-07-14T14:49:26Z</time>
      </trkpt>
      <trkpt lat="45.20373" lon="5.58649">
        <ele>1535.3909912109</ele>
        <time>2009-07-14T14:49:29Z</time>
      </trkpt>
      <trkpt lat="45.20352" lon="5.58636">
        <ele>1535.6910400391</ele>
        <time>2009-07-14T14:49:34Z</time>
      </trkpt>
      <trkpt lat="45.20334" lon="5.58628">
        <ele>1536.5310058594</ele>
        <time>2009-07-14T14:49:38Z</time>
      </trkpt>
      <trkpt lat="45.20319" lon="5.58626">
        <ele>1536.4759521484</ele>
        <time>2009-07-14T14:49:41Z</time>
      </trkpt>
      <trkpt lat="45.203" lon="5.58623">
        <ele>1536.5229492188</ele>
        <time>2009-07-14T14:49:45Z</time>
      </trkpt>
      <trkpt lat="45.20251" lon="5.58617">
        <ele>1537.5589599609</ele>
        <time>2009-07-14T14:49:55Z</time>
      </trkpt>
      <trkpt lat="45.20232" lon="5.58614">
        <ele>1538.2110595703</ele>
        <time>2009-07-14T14:49:59Z</time>
      </trkpt>
      <trkpt lat="45.20204" lon="5.58612">
        <ele>1539.4079589844</ele>
        <time>2009-07-14T14:50:05Z</time>
      </trkpt>
      <trkpt lat="45.20169" lon="5.58617">
        <ele>1540.625</ele>
        <time>2009-07-14T14:50:13Z</time>
      </trkpt>
      <trkpt lat="45.20161" lon="5.58618">
        <ele>1540.7380371094</ele>
        <time>2009-07-14T14:50:15Z</time>
      </trkpt>
      <trkpt lat="45.20137" lon="5.58607">
        <ele>1541.2969970703</ele>
        <time>2009-07-14T14:50:21Z</time>
      </trkpt>
      <trkpt lat="45.20105" lon="5.58541">
        <ele>1544.4079589844</ele>
        <time>2009-07-14T14:50:36Z</time>
      </trkpt>
      <trkpt lat="45.20103" lon="5.58524">
        <ele>1545.3060302734</ele>
        <time>2009-07-14T14:50:39Z</time>
      </trkpt>
      <trkpt lat="45.20101" lon="5.58488">
        <ele>1545.1219482422</ele>
        <time>2009-07-14T14:50:45Z</time>
      </trkpt>
      <trkpt lat="45.20102" lon="5.58455">
        <ele>1546.0350341797</ele>
        <time>2009-07-14T14:50:50Z</time>
      </trkpt>
      <trkpt lat="45.20116" lon="5.5839">
        <ele>1546.8060302734</ele>
        <time>2009-07-14T14:51:00Z</time>
      </trkpt>
      <trkpt lat="45.20104" lon="5.5836">
        <ele>1547.7659912109</ele>
        <time>2009-07-14T14:51:06Z</time>
      </trkpt>
      <trkpt lat="45.20096" lon="5.58358">
        <ele>1547.9350585938</ele>
        <time>2009-07-14T14:51:08Z</time>
      </trkpt>
      <trkpt lat="45.20036" lon="5.58361">
        <ele>1549.5469970703</ele>
        <time>2009-07-14T14:51:22Z</time>
      </trkpt>
      <trkpt lat="45.19994" lon="5.58363">
        <ele>1550.7039794922</ele>
        <time>2009-07-14T14:51:32Z</time>
      </trkpt>
      <trkpt lat="45.19979" lon="5.58367">
        <ele>1550.7320556641</ele>
        <time>2009-07-14T14:51:36Z</time>
      </trkpt>
      <trkpt lat="45.19965" lon="5.58408">
        <ele>1552.1409912109</ele>
        <time>2009-07-14T14:51:44Z</time>
      </trkpt>
      <trkpt lat="45.19967" lon="5.58419">
        <ele>1552.541015625</ele>
        <time>2009-07-14T14:51:46Z</time>
      </trkpt>
      <trkpt lat="45.1997" lon="5.58443">
        <ele>1552.7120361328</ele>
        <time>2009-07-14T14:51:50Z</time>
      </trkpt>
      <trkpt lat="45.1997" lon="5.58471">
        <ele>1551.6939697266</ele>
        <time>2009-07-14T14:51:54Z</time>
      </trkpt>
      <trkpt lat="45.19968" lon="5.58487">
        <ele>1550.8559570312</ele>
        <time>2009-07-14T14:51:56Z</time>
      </trkpt>
      <trkpt lat="45.19966" lon="5.58495">
        <ele>1550.7259521484</ele>
        <time>2009-07-14T14:51:57Z</time>
      </trkpt>
      <trkpt lat="45.19951" lon="5.58547">
        <ele>1548.1429443359</ele>
        <time>2009-07-14T14:52:03Z</time>
      </trkpt>
      <trkpt lat="45.19942" lon="5.58572">
        <ele>1547.6970214844</ele>
        <time>2009-07-14T14:52:06Z</time>
      </trkpt>
      <trkpt lat="45.19909" lon="5.58616">
        <ele>1545.8349609375</ele>
        <time>2009-07-14T14:52:14Z</time>
      </trkpt>
      <trkpt lat="45.19884" lon="5.58634">
        <ele>1545.20703125</ele>
        <time>2009-07-14T14:52:20Z</time>
      </trkpt>
      <trkpt lat="45.19847" lon="5.58641">
        <ele>1543.7509765625</ele>
        <time>2009-07-14T14:52:28Z</time>
      </trkpt>
      <trkpt lat="45.19788" lon="5.58657">
        <ele>1541.9219970703</ele>
        <time>2009-07-14T14:52:39Z</time>
      </trkpt>
      <trkpt lat="45.19768" lon="5.58659">
        <ele>1540.9799804688</ele>
        <time>2009-07-14T14:52:42Z</time>
      </trkpt>
      <trkpt lat="45.1969" lon="5.58625">
        <ele>1539.0930175781</ele>
        <time>2009-07-14T14:52:56Z</time>
      </trkpt>
      <trkpt lat="45.19674" lon="5.58613">
        <ele>1537.7540283203</ele>
        <time>2009-07-14T14:52:59Z</time>
      </trkpt>
      <trkpt lat="45.19661" lon="5.58607">
        <ele>1537.3349609375</ele>
        <time>2009-07-14T14:53:01Z</time>
      </trkpt>
      <trkpt lat="45.19626" lon="5.58605">
        <ele>1535.7900390625</ele>
        <time>2009-07-14T14:53:06Z</time>
      </trkpt>
      <trkpt lat="45.19564" lon="5.58623">
        <ele>1533.0699462891</ele>
        <time>2009-07-14T14:53:14Z</time>
      </trkpt>
      <trkpt lat="45.19542" lon="5.58633">
        <ele>1532.5450439453</ele>
        <time>2009-07-14T14:53:17Z</time>
      </trkpt>
      <trkpt lat="45.19502" lon="5.58624">
        <ele>1531.7960205078</ele>
        <time>2009-07-14T14:53:23Z</time>
      </trkpt>
      <trkpt lat="45.19478" lon="5.58613">
        <ele>1531.2309570312</ele>
        <time>2009-07-14T14:53:27Z</time>
      </trkpt>
      <trkpt lat="45.1946" lon="5.58613">
        <ele>1531.3189697266</ele>
        <time>2009-07-14T14:53:30Z</time>
      </trkpt>
      <trkpt lat="45.19415" lon="5.58632">
        <ele>1531.1870117188</ele>
        <time>2009-07-14T14:53:37Z</time>
      </trkpt>
      <trkpt lat="45.19387" lon="5.58636">
        <ele>1529.5570068359</ele>
        <time>2009-07-14T14:53:41Z</time>
      </trkpt>
      <trkpt lat="45.19321" lon="5.58656">
        <ele>1526.876953125</ele>
        <time>2009-07-14T14:53:50Z</time>
      </trkpt>
      <trkpt lat="45.19301" lon="5.58672">
        <ele>1526.4499511719</ele>
        <time>2009-07-14T14:53:53Z</time>
      </trkpt>
      <trkpt lat="45.1927" lon="5.58666">
        <ele>1525.7290039062</ele>
        <time>2009-07-14T14:53:58Z</time>
      </trkpt>
      <trkpt lat="45.19251" lon="5.58628">
        <ele>1525.3509521484</ele>
        <time>2009-07-14T14:54:03Z</time>
      </trkpt>
      <trkpt lat="45.19206" lon="5.58581">
        <ele>1524.626953125</ele>
        <time>2009-07-14T14:54:12Z</time>
      </trkpt>
      <trkpt lat="45.1919" lon="5.58561">
        <ele>1523.5770263672</ele>
        <time>2009-07-14T14:54:15Z</time>
      </trkpt>
      <trkpt lat="45.19181" lon="5.58545">
        <ele>1523.4510498047</ele>
        <time>2009-07-14T14:54:17Z</time>
      </trkpt>
      <trkpt lat="45.19137" lon="5.58509">
        <ele>1522.2349853516</ele>
        <time>2009-07-14T14:54:24Z</time>
      </trkpt>
      <trkpt lat="45.19094" lon="5.58498">
        <ele>1521.2750244141</ele>
        <time>2009-07-14T14:54:30Z</time>
      </trkpt>
      <trkpt lat="45.19032" lon="5.58453">
        <ele>1519.7900390625</ele>
        <time>2009-07-14T14:54:40Z</time>
      </trkpt>
      <trkpt lat="45.19011" lon="5.58468">
        <ele>1521.7790527344</ele>
        <time>2009-07-14T14:54:48Z</time>
      </trkpt>
      <trkpt lat="45.19015" lon="5.58478">
        <ele>1522.5529785156</ele>
        <time>2009-07-14T14:54:52Z</time>
      </trkpt>
      <trkpt lat="45.19024" lon="5.58488">
        <ele>1523.3630371094</ele>
        <time>2009-07-14T14:54:57Z</time>
      </trkpt>
      <trkpt lat="45.19043" lon="5.58515">
        <ele>1525.9000244141</ele>
        <time>2009-07-14T14:55:07Z</time>
      </trkpt>
      <trkpt lat="45.19056" lon="5.58532">
        <ele>1528.1099853516</ele>
        <time>2009-07-14T14:55:14Z</time>
      </trkpt>
      <trkpt lat="45.19071" lon="5.58554">
        <ele>1531.1970214844</ele>
        <time>2009-07-14T14:55:23Z</time>
      </trkpt>
      <trkpt lat="45.1908" lon="5.58567">
        <ele>1533.1540527344</ele>
        <time>2009-07-14T14:55:29Z</time>
      </trkpt>
      <trkpt lat="45.19101" lon="5.58597">
        <ele>1536.2900390625</ele>
        <time>2009-07-14T14:55:41Z</time>
      </trkpt>
      <trkpt lat="45.19122" lon="5.5864">
        <ele>1539.8830566406</ele>
        <time>2009-07-14T14:55:56Z</time>
      </trkpt>
      <trkpt lat="45.19136" lon="5.58678">
        <ele>1542.9530029297</ele>
        <time>2009-07-14T14:56:10Z</time>
      </trkpt>
      <trkpt lat="45.19153" lon="5.5871">
        <ele>1546.3940429688</ele>
        <time>2009-07-14T14:56:23Z</time>
      </trkpt>
      <trkpt lat="45.19174" lon="5.58739">
        <ele>1548.7239990234</ele>
        <time>2009-07-14T14:56:35Z</time>
      </trkpt>
      <trkpt lat="45.192" lon="5.58774">
        <ele>1550.3599853516</ele>
        <time>2009-07-14T14:56:46Z</time>
      </trkpt>
      <trkpt lat="45.19234" lon="5.58816">
        <ele>1552.2370605469</ele>
        <time>2009-07-14T14:56:59Z</time>
      </trkpt>
      <trkpt lat="45.19271" lon="5.5885">
        <ele>1553.8349609375</ele>
        <time>2009-07-14T14:57:10Z</time>
      </trkpt>
      <trkpt lat="45.19312" lon="5.58895">
        <ele>1557.4219970703</ele>
        <time>2009-07-14T14:57:25Z</time>
      </trkpt>
      <trkpt lat="45.19344" lon="5.58902">
        <ele>1560.08203125</ele>
        <time>2009-07-14T14:57:35Z</time>
      </trkpt>
      <trkpt lat="45.19377" lon="5.58873">
        <ele>1564.2779541016</ele>
        <time>2009-07-14T14:57:49Z</time>
      </trkpt>
      <trkpt lat="45.19413" lon="5.58838">
        <ele>1568.4169921875</ele>
        <time>2009-07-14T14:58:04Z</time>
      </trkpt>
      <trkpt lat="45.19447" lon="5.58834">
        <ele>1573.2629394531</ele>
        <time>2009-07-14T14:58:20Z</time>
      </trkpt>
      <trkpt lat="45.19452" lon="5.58836">
        <ele>1574.0450439453</ele>
        <time>2009-07-14T14:58:22Z</time>
      </trkpt>
      <trkpt lat="45.19473" lon="5.58845">
        <ele>1576.7099609375</ele>
        <time>2009-07-14T14:58:33Z</time>
      </trkpt>
      <trkpt lat="45.19501" lon="5.58856">
        <ele>1579.4899902344</ele>
        <time>2009-07-14T14:58:45Z</time>
      </trkpt>
      <trkpt lat="45.19533" lon="5.58864">
        <ele>1582.3389892578</ele>
        <time>2009-07-14T14:58:57Z</time>
      </trkpt>
      <trkpt lat="45.19562" lon="5.58876">
        <ele>1584.5469970703</ele>
        <time>2009-07-14T14:59:08Z</time>
      </trkpt>
      <trkpt lat="45.19587" lon="5.58887">
        <ele>1587.4930419922</ele>
        <time>2009-07-14T14:59:19Z</time>
      </trkpt>
      <trkpt lat="45.19613" lon="5.58901">
        <ele>1591.1180419922</ele>
        <time>2009-07-14T14:59:32Z</time>
      </trkpt>
      <trkpt lat="45.19637" lon="5.58913">
        <ele>1595.251953125</ele>
        <time>2009-07-14T14:59:45Z</time>
      </trkpt>
      <trkpt lat="45.19655" lon="5.58923">
        <ele>1597.8129882812</ele>
        <time>2009-07-14T14:59:55Z</time>
      </trkpt>
      <trkpt lat="45.1966" lon="5.58926">
        <ele>1599.251953125</ele>
        <time>2009-07-14T14:59:59Z</time>
      </trkpt>
      <trkpt lat="45.19682" lon="5.5894">
        <ele>1602.123046875</ele>
        <time>2009-07-14T15:00:11Z</time>
      </trkpt>
      <trkpt lat="45.19694" lon="5.58953">
        <ele>1604.9730224609</ele>
        <time>2009-07-14T15:00:21Z</time>
      </trkpt>
      <trkpt lat="45.1971" lon="5.58972">
        <ele>1608.3370361328</ele>
        <time>2009-07-14T15:00:34Z</time>
      </trkpt>
      <trkpt lat="45.1973" lon="5.58995">
        <ele>1612.0119628906</ele>
        <time>2009-07-14T15:00:48Z</time>
      </trkpt>
      <trkpt lat="45.19745" lon="5.59019">
        <ele>1615.2299804688</ele>
        <time>2009-07-14T15:01:01Z</time>
      </trkpt>
      <trkpt lat="45.19759" lon="5.59044">
        <ele>1617.7840576172</ele>
        <time>2009-07-14T15:01:12Z</time>
      </trkpt>
      <trkpt lat="45.1977" lon="5.59063">
        <ele>1619.6090087891</ele>
        <time>2009-07-14T15:01:21Z</time>
      </trkpt>
      <trkpt lat="45.19785" lon="5.59108">
        <ele>1621.3680419922</ele>
        <time>2009-07-14T15:01:34Z</time>
      </trkpt>
      <trkpt lat="45.19785" lon="5.59122">
        <ele>1622.0460205078</ele>
        <time>2009-07-14T15:01:38Z</time>
      </trkpt>
      <trkpt lat="45.19791" lon="5.5914">
        <ele>1623.5679931641</ele>
        <time>2009-07-14T15:01:44Z</time>
      </trkpt>
      <trkpt lat="45.19791" lon="5.59169">
        <ele>1626.8540039062</ele>
        <time>2009-07-14T15:01:53Z</time>
      </trkpt>
      <trkpt lat="45.19785" lon="5.59195">
        <ele>1627.1689453125</ele>
        <time>2009-07-14T15:02:06Z</time>
      </trkpt>
      <trkpt lat="45.1978" lon="5.59196">
        <ele>1627.1429443359</ele>
        <time>2009-07-14T15:02:11Z</time>
      </trkpt>
      <trkpt lat="45.19798" lon="5.59202">
        <ele>1627.4610595703</ele>
        <time>2009-07-14T15:03:32Z</time>
      </trkpt>
      <trkpt lat="45.19795" lon="5.59199">
        <ele>1628.3409423828</ele>
        <time>2009-07-14T15:06:00Z</time>
      </trkpt>
      <trkpt lat="45.19795" lon="5.59198">
        <ele>1628.2139892578</ele>
        <time>2009-07-14T15:06:01Z</time>
      </trkpt>
      <trkpt lat="45.19794" lon="5.5919">
        <ele>1629.1860351562</ele>
        <time>2009-07-14T15:07:58Z</time>
      </trkpt>
      <trkpt lat="45.1979" lon="5.59172">
        <ele>1628.7020263672</ele>
        <time>2009-07-14T15:08:11Z</time>
      </trkpt>
      <trkpt lat="45.19793" lon="5.59165">
        <ele>1628.7080078125</ele>
        <time>2009-07-14T15:08:16Z</time>
      </trkpt>
      <trkpt lat="45.1979" lon="5.59153">
        <ele>1627.4079589844</ele>
        <time>2009-07-14T15:08:19Z</time>
      </trkpt>
      <trkpt lat="45.19788" lon="5.59132">
        <ele>1625.6180419922</ele>
        <time>2009-07-14T15:08:22Z</time>
      </trkpt>
      <trkpt lat="45.19788" lon="5.59127">
        <ele>1625.1979980469</ele>
        <time>2009-07-14T15:08:23Z</time>
      </trkpt>
      <trkpt lat="45.19785" lon="5.59106">
        <ele>1623.6879882812</ele>
        <time>2009-07-14T15:08:30Z</time>
      </trkpt>
      <trkpt lat="45.19777" lon="5.59079">
        <ele>1622.6500244141</ele>
        <time>2009-07-14T15:08:41Z</time>
      </trkpt>
      <trkpt lat="45.19759" lon="5.59037">
        <ele>1619.9389648438</ele>
        <time>2009-07-14T15:08:50Z</time>
      </trkpt>
      <trkpt lat="45.19743" lon="5.59009">
        <ele>1616.7189941406</ele>
        <time>2009-07-14T15:08:55Z</time>
      </trkpt>
      <trkpt lat="45.1969" lon="5.58947">
        <ele>1606.5639648438</ele>
        <time>2009-07-14T15:09:05Z</time>
      </trkpt>
      <trkpt lat="45.19677" lon="5.58935">
        <ele>1603.8289794922</ele>
        <time>2009-07-14T15:09:07Z</time>
      </trkpt>
      <trkpt lat="45.19607" lon="5.58892">
        <ele>1594.1369628906</ele>
        <time>2009-07-14T15:09:19Z</time>
      </trkpt>
      <trkpt lat="45.19589" lon="5.58882">
        <ele>1591.4169921875</ele>
        <time>2009-07-14T15:09:22Z</time>
      </trkpt>
      <trkpt lat="45.19566" lon="5.58873">
        <ele>1588.8449707031</ele>
        <time>2009-07-14T15:09:26Z</time>
      </trkpt>
      <trkpt lat="45.1955" lon="5.58868">
        <ele>1587.4389648438</ele>
        <time>2009-07-14T15:09:29Z</time>
      </trkpt>
      <trkpt lat="45.19527" lon="5.58862">
        <ele>1585.3630371094</ele>
        <time>2009-07-14T15:09:33Z</time>
      </trkpt>
      <trkpt lat="45.1951" lon="5.58858">
        <ele>1583.7969970703</ele>
        <time>2009-07-14T15:09:36Z</time>
      </trkpt>
      <trkpt lat="45.19497" lon="5.58854">
        <ele>1582.4649658203</ele>
        <time>2009-07-14T15:09:38Z</time>
      </trkpt>
      <trkpt lat="45.19465" lon="5.5884">
        <ele>1579.4000244141</ele>
        <time>2009-07-14T15:09:44Z</time>
      </trkpt>
      <trkpt lat="45.19455" lon="5.58835">
        <ele>1578.6569824219</ele>
        <time>2009-07-14T15:09:46Z</time>
      </trkpt>
      <trkpt lat="45.19445" lon="5.58831">
        <ele>1577.1800537109</ele>
        <time>2009-07-14T15:09:48Z</time>
      </trkpt>
      <trkpt lat="45.19427" lon="5.58829">
        <ele>1575.1319580078</ele>
        <time>2009-07-14T15:09:51Z</time>
      </trkpt>
      <trkpt lat="45.19381" lon="5.58858">
        <ele>1568.0670166016</ele>
        <time>2009-07-14T15:09:57Z</time>
      </trkpt>
      <trkpt lat="45.19361" lon="5.58881">
        <ele>1567.2960205078</ele>
        <time>2009-07-14T15:10:00Z</time>
      </trkpt>
      <trkpt lat="45.19309" lon="5.58892">
        <ele>1560.2860107422</ele>
        <time>2009-07-14T15:10:07Z</time>
      </trkpt>
      <trkpt lat="45.19295" lon="5.58879">
        <ele>1559.0059814453</ele>
        <time>2009-07-14T15:10:09Z</time>
      </trkpt>
      <trkpt lat="45.19282" lon="5.58863">
        <ele>1558.1789550781</ele>
        <time>2009-07-14T15:10:11Z</time>
      </trkpt>
      <trkpt lat="45.19247" lon="5.58827">
        <ele>1556.3900146484</ele>
        <time>2009-07-14T15:10:16Z</time>
      </trkpt>
      <trkpt lat="45.19225" lon="5.58808">
        <ele>1555.1409912109</ele>
        <time>2009-07-14T15:10:19Z</time>
      </trkpt>
      <trkpt lat="45.19195" lon="5.58767">
        <ele>1554.5770263672</ele>
        <time>2009-07-14T15:10:24Z</time>
      </trkpt>
      <trkpt lat="45.19157" lon="5.58716">
        <ele>1551.8239746094</ele>
        <time>2009-07-14T15:10:31Z</time>
      </trkpt>
      <trkpt lat="45.19151" lon="5.58708">
        <ele>1550.6569824219</ele>
        <time>2009-07-14T15:10:32Z</time>
      </trkpt>
      <trkpt lat="45.19098" lon="5.58595">
        <ele>1539.8840332031</ele>
        <time>2009-07-14T15:10:41Z</time>
      </trkpt>
      <trkpt lat="45.19031" lon="5.58498">
        <ele>1527.9150390625</ele>
        <time>2009-07-14T15:10:49Z</time>
      </trkpt>
      <trkpt lat="45.19024" lon="5.58488">
        <ele>1527.8699951172</ele>
        <time>2009-07-14T15:10:50Z</time>
      </trkpt>
      <trkpt lat="45.19004" lon="5.58462">
        <ele>1526.4050292969</ele>
        <time>2009-07-14T15:10:56Z</time>
      </trkpt>
      <trkpt lat="45.1899" lon="5.58451">
        <ele>1524.7640380859</ele>
        <time>2009-07-14T15:11:03Z</time>
      </trkpt>
      <trkpt lat="45.18951" lon="5.58424">
        <ele>1522.3399658203</ele>
        <time>2009-07-14T15:11:19Z</time>
      </trkpt>
      <trkpt lat="45.18932" lon="5.58425">
        <ele>1521.7769775391</ele>
        <time>2009-07-14T15:11:27Z</time>
      </trkpt>
      <trkpt lat="45.18878" lon="5.5843">
        <ele>1519.2840576172</ele>
        <time>2009-07-14T15:11:38Z</time>
      </trkpt>
      <trkpt lat="45.18841" lon="5.5844">
        <ele>1517.6359863281</ele>
        <time>2009-07-14T15:11:44Z</time>
      </trkpt>
      <trkpt lat="45.18828" lon="5.58443">
        <ele>1517.6090087891</ele>
        <time>2009-07-14T15:11:46Z</time>
      </trkpt>
      <trkpt lat="45.18782" lon="5.58414">
        <ele>1516.0939941406</ele>
        <time>2009-07-14T15:11:54Z</time>
      </trkpt>
      <trkpt lat="45.18698" lon="5.58361">
        <ele>1513.8850097656</ele>
        <time>2009-07-14T15:12:07Z</time>
      </trkpt>
      <trkpt lat="45.18685" lon="5.58353">
        <ele>1513.6650390625</ele>
        <time>2009-07-14T15:12:09Z</time>
      </trkpt>
      <trkpt lat="45.18664" lon="5.58325">
        <ele>1513.7049560547</ele>
        <time>2009-07-14T15:12:16Z</time>
      </trkpt>
      <trkpt lat="45.18662" lon="5.58297">
        <ele>1513.4129638672</ele>
        <time>2009-07-14T15:12:20Z</time>
      </trkpt>
      <trkpt lat="45.18662" lon="5.58245">
        <ele>1512.6180419922</ele>
        <time>2009-07-14T15:12:27Z</time>
      </trkpt>
      <trkpt lat="45.18659" lon="5.5822">
        <ele>1512.2919921875</ele>
        <time>2009-07-14T15:12:30Z</time>
      </trkpt>
      <trkpt lat="45.18658" lon="5.58213">
        <ele>1512.4320068359</ele>
        <time>2009-07-14T15:12:31Z</time>
      </trkpt>
      <trkpt lat="45.18656" lon="5.58205">
        <ele>1512.54296875</ele>
        <time>2009-07-14T15:12:32Z</time>
      </trkpt>
      <trkpt lat="45.18644" lon="5.58085">
        <ele>1511.7340087891</ele>
        <time>2009-07-14T15:12:47Z</time>
      </trkpt>
      <trkpt lat="45.18642" lon="5.58059">
        <ele>1511.4680175781</ele>
        <time>2009-07-14T15:12:50Z</time>
      </trkpt>
      <trkpt lat="45.18608" lon="5.58009">
        <ele>1511.4169921875</ele>
        <time>2009-07-14T15:12:59Z</time>
      </trkpt>
      <trkpt lat="45.18602" lon="5.58009">
        <ele>1511.6650390625</ele>
        <time>2009-07-14T15:13:00Z</time>
      </trkpt>
      <trkpt lat="45.18507" lon="5.5801">
        <ele>1510.9649658203</ele>
        <time>2009-07-14T15:13:16Z</time>
      </trkpt>
      <trkpt lat="45.18491" lon="5.58007">
        <ele>1510.7359619141</ele>
        <time>2009-07-14T15:13:19Z</time>
      </trkpt>
      <trkpt lat="45.18474" lon="5.58003">
        <ele>1510.4759521484</ele>
        <time>2009-07-14T15:13:22Z</time>
      </trkpt>
      <trkpt lat="45.18444" lon="5.58004">
        <ele>1509.6409912109</ele>
        <time>2009-07-14T15:13:27Z</time>
      </trkpt>
      <trkpt lat="45.18426" lon="5.58013">
        <ele>1509.5090332031</ele>
        <time>2009-07-14T15:13:30Z</time>
      </trkpt>
      <trkpt lat="45.18387" lon="5.58023">
        <ele>1509.3280029297</ele>
        <time>2009-07-14T15:13:36Z</time>
      </trkpt>
      <trkpt lat="45.18356" lon="5.58031">
        <ele>1508.7719726562</ele>
        <time>2009-07-14T15:13:41Z</time>
      </trkpt>
      <trkpt lat="45.1832" lon="5.58005">
        <ele>1509.4350585938</ele>
        <time>2009-07-14T15:13:48Z</time>
      </trkpt>
      <trkpt lat="45.18294" lon="5.57944">
        <ele>1511.3370361328</ele>
        <time>2009-07-14T15:13:57Z</time>
      </trkpt>
      <trkpt lat="45.18275" lon="5.57897">
        <ele>1512.3950195312</ele>
        <time>2009-07-14T15:14:04Z</time>
      </trkpt>
      <trkpt lat="45.18269" lon="5.57885">
        <ele>1512.7370605469</ele>
        <time>2009-07-14T15:14:06Z</time>
      </trkpt>
      <trkpt lat="45.18243" lon="5.57817">
        <ele>1513.2860107422</ele>
        <time>2009-07-14T15:14:16Z</time>
      </trkpt>
      <trkpt lat="45.18238" lon="5.57795">
        <ele>1513.9790039062</ele>
        <time>2009-07-14T15:14:19Z</time>
      </trkpt>
      <trkpt lat="45.1823" lon="5.5776">
        <ele>1514.3809814453</ele>
        <time>2009-07-14T15:14:24Z</time>
      </trkpt>
      <trkpt lat="45.18201" lon="5.5775">
        <ele>1515.3199462891</ele>
        <time>2009-07-14T15:14:31Z</time>
      </trkpt>
      <trkpt lat="45.18194" lon="5.5777">
        <ele>1514.5830078125</ele>
        <time>2009-07-14T15:14:34Z</time>
      </trkpt>
      <trkpt lat="45.18171" lon="5.57813">
        <ele>1512.7509765625</ele>
        <time>2009-07-14T15:14:40Z</time>
      </trkpt>
      <trkpt lat="45.18153" lon="5.5783">
        <ele>1512.5729980469</ele>
        <time>2009-07-14T15:14:43Z</time>
      </trkpt>
      <trkpt lat="45.18112" lon="5.57877">
        <ele>1508.5720214844</ele>
        <time>2009-07-14T15:14:51Z</time>
      </trkpt>
      <trkpt lat="45.18099" lon="5.5783">
        <ele>1507.2709960938</ele>
        <time>2009-07-14T15:14:56Z</time>
      </trkpt>
      <trkpt lat="45.181" lon="5.57808">
        <ele>1506.7840576172</ele>
        <time>2009-07-14T15:14:58Z</time>
      </trkpt>
      <trkpt lat="45.18102" lon="5.57786">
        <ele>1506.3489990234</ele>
        <time>2009-07-14T15:15:00Z</time>
      </trkpt>
      <trkpt lat="45.18087" lon="5.57709">
        <ele>1503.0240478516</ele>
        <time>2009-07-14T15:15:07Z</time>
      </trkpt>
      <trkpt lat="45.18048" lon="5.5768">
        <ele>1501.3239746094</ele>
        <time>2009-07-14T15:15:12Z</time>
      </trkpt>
      <trkpt lat="45.1799" lon="5.5769">
        <ele>1499.9809570312</ele>
        <time>2009-07-14T15:15:19Z</time>
      </trkpt>
      <trkpt lat="45.1798" lon="5.57677">
        <ele>1499.1440429688</ele>
        <time>2009-07-14T15:15:21Z</time>
      </trkpt>
      <trkpt lat="45.17979" lon="5.57647">
        <ele>1498.5570068359</ele>
        <time>2009-07-14T15:15:24Z</time>
      </trkpt>
      <trkpt lat="45.17979" lon="5.57627">
        <ele>1498.4720458984</ele>
        <time>2009-07-14T15:15:26Z</time>
      </trkpt>
      <trkpt lat="45.17957" lon="5.57587">
        <ele>1496.9129638672</ele>
        <time>2009-07-14T15:15:32Z</time>
      </trkpt>
      <trkpt lat="45.17949" lon="5.57587">
        <ele>1496.5069580078</ele>
        <time>2009-07-14T15:15:33Z</time>
      </trkpt>
      <trkpt lat="45.17934" lon="5.57588">
        <ele>1496.2049560547</ele>
        <time>2009-07-14T15:15:35Z</time>
      </trkpt>
      <trkpt lat="45.17908" lon="5.57613">
        <ele>1494.4360351562</ele>
        <time>2009-07-14T15:15:39Z</time>
      </trkpt>
      <trkpt lat="45.17887" lon="5.57648">
        <ele>1493.9000244141</ele>
        <time>2009-07-14T15:15:43Z</time>
      </trkpt>
      <trkpt lat="45.17845" lon="5.57647">
        <ele>1493.4399414062</ele>
        <time>2009-07-14T15:15:50Z</time>
      </trkpt>
      <trkpt lat="45.17827" lon="5.57587">
        <ele>1492.1540527344</ele>
        <time>2009-07-14T15:15:57Z</time>
      </trkpt>
      <trkpt lat="45.1782" lon="5.57582">
        <ele>1492.2790527344</ele>
        <time>2009-07-14T15:15:58Z</time>
      </trkpt>
      <trkpt lat="45.17732" lon="5.57557">
        <ele>1489.6479492188</ele>
        <time>2009-07-14T15:16:10Z</time>
      </trkpt>
      <trkpt lat="45.1769" lon="5.57554">
        <ele>1490.0450439453</ele>
        <time>2009-07-14T15:16:19Z</time>
      </trkpt>
      <trkpt lat="45.17673" lon="5.57551">
        <ele>1489.1109619141</ele>
        <time>2009-07-14T15:16:24Z</time>
      </trkpt>
      <trkpt lat="45.1766" lon="5.5755">
        <ele>1489.3000488281</ele>
        <time>2009-07-14T15:16:27Z</time>
      </trkpt>
      <trkpt lat="45.17609" lon="5.57573">
        <ele>1488.4090576172</ele>
        <time>2009-07-14T15:16:37Z</time>
      </trkpt>
      <trkpt lat="45.17593" lon="5.57579">
        <ele>1488.2769775391</ele>
        <time>2009-07-14T15:16:40Z</time>
      </trkpt>
      <trkpt lat="45.17564" lon="5.57554">
        <ele>1487.9289550781</ele>
        <time>2009-07-14T15:16:46Z</time>
      </trkpt>
      <trkpt lat="45.17533" lon="5.57501">
        <ele>1486.5810546875</ele>
        <time>2009-07-14T15:16:54Z</time>
      </trkpt>
      <trkpt lat="45.17527" lon="5.57486">
        <ele>1485.8759765625</ele>
        <time>2009-07-14T15:16:56Z</time>
      </trkpt>
      <trkpt lat="45.17511" lon="5.57453">
        <ele>1484.833984375</ele>
        <time>2009-07-14T15:17:05Z</time>
      </trkpt>
      <trkpt lat="45.17501" lon="5.57431">
        <ele>1484.1040039062</ele>
        <time>2009-07-14T15:17:10Z</time>
      </trkpt>
      <trkpt lat="45.17498" lon="5.57419">
        <ele>1483.5119628906</ele>
        <time>2009-07-14T15:17:12Z</time>
      </trkpt>
      <trkpt lat="45.17472" lon="5.57333">
        <ele>1480.5939941406</ele>
        <time>2009-07-14T15:17:22Z</time>
      </trkpt>
      <trkpt lat="45.17467" lon="5.57316">
        <ele>1480.0550537109</ele>
        <time>2009-07-14T15:17:24Z</time>
      </trkpt>
      <trkpt lat="45.17462" lon="5.57301">
        <ele>1479.3480224609</ele>
        <time>2009-07-14T15:17:26Z</time>
      </trkpt>
      <trkpt lat="45.17455" lon="5.57286">
        <ele>1478.1820068359</ele>
        <time>2009-07-14T15:17:28Z</time>
      </trkpt>
      <trkpt lat="45.17445" lon="5.57273">
        <ele>1477.4040527344</ele>
        <time>2009-07-14T15:17:30Z</time>
      </trkpt>
      <trkpt lat="45.17431" lon="5.57264">
        <ele>1476.6190185547</ele>
        <time>2009-07-14T15:17:32Z</time>
      </trkpt>
      <trkpt lat="45.17417" lon="5.57257">
        <ele>1476.5789794922</ele>
        <time>2009-07-14T15:17:34Z</time>
      </trkpt>
      <trkpt lat="45.17393" lon="5.57281">
        <ele>1475.8659667969</ele>
        <time>2009-07-14T15:17:41Z</time>
      </trkpt>
      <trkpt lat="45.17393" lon="5.57297">
        <ele>1475.2159423828</ele>
        <time>2009-07-14T15:17:43Z</time>
      </trkpt>
      <trkpt lat="45.17394" lon="5.57323">
        <ele>1474.2399902344</ele>
        <time>2009-07-14T15:17:46Z</time>
      </trkpt>
      <trkpt lat="45.17393" lon="5.5736">
        <ele>1472.3759765625</ele>
        <time>2009-07-14T15:17:50Z</time>
      </trkpt>
      <trkpt lat="45.17393" lon="5.57457">
        <ele>1469.2729492188</ele>
        <time>2009-07-14T15:18:00Z</time>
      </trkpt>
      <trkpt lat="45.17379" lon="5.57519">
        <ele>1467.0870361328</ele>
        <time>2009-07-14T15:18:06Z</time>
      </trkpt>
      <trkpt lat="45.17358" lon="5.57611">
        <ele>1464.9410400391</ele>
        <time>2009-07-14T15:18:16Z</time>
      </trkpt>
      <trkpt lat="45.17356" lon="5.57628">
        <ele>1464.6629638672</ele>
        <time>2009-07-14T15:18:18Z</time>
      </trkpt>
      <trkpt lat="45.17355" lon="5.57684">
        <ele>1464.4849853516</ele>
        <time>2009-07-14T15:18:25Z</time>
      </trkpt>
      <trkpt lat="45.17355" lon="5.57716">
        <ele>1465.2700195312</ele>
        <time>2009-07-14T15:18:29Z</time>
      </trkpt>
      <trkpt lat="45.17353" lon="5.5774">
        <ele>1465.2650146484</ele>
        <time>2009-07-14T15:18:32Z</time>
      </trkpt>
      <trkpt lat="45.17344" lon="5.5776">
        <ele>1464.7989501953</ele>
        <time>2009-07-14T15:18:35Z</time>
      </trkpt>
      <trkpt lat="45.17298" lon="5.57817">
        <ele>1462.9499511719</ele>
        <time>2009-07-14T15:18:45Z</time>
      </trkpt>
      <trkpt lat="45.1725" lon="5.57842">
        <ele>1461.9189453125</ele>
        <time>2009-07-14T15:18:53Z</time>
      </trkpt>
      <trkpt lat="45.17209" lon="5.57837">
        <ele>1460.16796875</ele>
        <time>2009-07-14T15:18:59Z</time>
      </trkpt>
      <trkpt lat="45.17188" lon="5.5784">
        <ele>1459.998046875</ele>
        <time>2009-07-14T15:19:02Z</time>
      </trkpt>
      <trkpt lat="45.17167" lon="5.57838">
        <ele>1460.0279541016</ele>
        <time>2009-07-14T15:19:05Z</time>
      </trkpt>
      <trkpt lat="45.17142" lon="5.57837">
        <ele>1460.7869873047</ele>
        <time>2009-07-14T15:19:09Z</time>
      </trkpt>
      <trkpt lat="45.17129" lon="5.57841">
        <ele>1461.5310058594</ele>
        <time>2009-07-14T15:19:11Z</time>
      </trkpt>
      <trkpt lat="45.17099" lon="5.57838">
        <ele>1461.9260253906</ele>
        <time>2009-07-14T15:19:16Z</time>
      </trkpt>
      <trkpt lat="45.17058" lon="5.57818">
        <ele>1463.2320556641</ele>
        <time>2009-07-14T15:19:23Z</time>
      </trkpt>
      <trkpt lat="45.17028" lon="5.57806">
        <ele>1464.3990478516</ele>
        <time>2009-07-14T15:19:28Z</time>
      </trkpt>
      <trkpt lat="45.17011" lon="5.57801">
        <ele>1465.0269775391</ele>
        <time>2009-07-14T15:19:31Z</time>
      </trkpt>
      <trkpt lat="45.16995" lon="5.57799">
        <ele>1465.8559570312</ele>
        <time>2009-07-14T15:19:34Z</time>
      </trkpt>
      <trkpt lat="45.16956" lon="5.57805">
        <ele>1466.7120361328</ele>
        <time>2009-07-14T15:19:41Z</time>
      </trkpt>
      <trkpt lat="45.16945" lon="5.57809">
        <ele>1466.6059570312</ele>
        <time>2009-07-14T15:19:43Z</time>
      </trkpt>
      <trkpt lat="45.16917" lon="5.57808">
        <ele>1465.5169677734</ele>
        <time>2009-07-14T15:19:48Z</time>
      </trkpt>
      <trkpt lat="45.16896" lon="5.57798">
        <ele>1464.8489990234</ele>
        <time>2009-07-14T15:19:52Z</time>
      </trkpt>
      <trkpt lat="45.16875" lon="5.57796">
        <ele>1463.1689453125</ele>
        <time>2009-07-14T15:19:57Z</time>
      </trkpt>
      <trkpt lat="45.16837" lon="5.57772">
        <ele>1458.9880371094</ele>
        <time>2009-07-14T15:20:04Z</time>
      </trkpt>
      <trkpt lat="45.1681" lon="5.57733">
        <ele>1456.0240478516</ele>
        <time>2009-07-14T15:20:09Z</time>
      </trkpt>
      <trkpt lat="45.16782" lon="5.57713">
        <ele>1454.4830322266</ele>
        <time>2009-07-14T15:20:13Z</time>
      </trkpt>
      <trkpt lat="45.16758" lon="5.57708">
        <ele>1452.5500488281</ele>
        <time>2009-07-14T15:20:16Z</time>
      </trkpt>
      <trkpt lat="45.16737" lon="5.57698">
        <ele>1451.0889892578</ele>
        <time>2009-07-14T15:20:19Z</time>
      </trkpt>
      <trkpt lat="45.16714" lon="5.57688">
        <ele>1449.2449951172</ele>
        <time>2009-07-14T15:20:22Z</time>
      </trkpt>
      <trkpt lat="45.16632" lon="5.57699">
        <ele>1448.6600341797</ele>
        <time>2009-07-14T15:20:32Z</time>
      </trkpt>
      <trkpt lat="45.16584" lon="5.57714">
        <ele>1448.6130371094</ele>
        <time>2009-07-14T15:20:39Z</time>
      </trkpt>
      <trkpt lat="45.16559" lon="5.57707">
        <ele>1447.9050292969</ele>
        <time>2009-07-14T15:20:43Z</time>
      </trkpt>
      <trkpt lat="45.16547" lon="5.57688">
        <ele>1447.5159912109</ele>
        <time>2009-07-14T15:20:46Z</time>
      </trkpt>
      <trkpt lat="45.16543" lon="5.57681">
        <ele>1446.8759765625</ele>
        <time>2009-07-14T15:20:47Z</time>
      </trkpt>
      <trkpt lat="45.16517" lon="5.57643">
        <ele>1446.2349853516</ele>
        <time>2009-07-14T15:20:54Z</time>
      </trkpt>
      <trkpt lat="45.16513" lon="5.57638">
        <ele>1445.9279785156</ele>
        <time>2009-07-14T15:20:55Z</time>
      </trkpt>
      <trkpt lat="45.16493" lon="5.5759">
        <ele>1445.6099853516</ele>
        <time>2009-07-14T15:21:02Z</time>
      </trkpt>
      <trkpt lat="45.16496" lon="5.57546">
        <ele>1444.6040039062</ele>
        <time>2009-07-14T15:21:11Z</time>
      </trkpt>
      <trkpt lat="45.16498" lon="5.57534">
        <ele>1444.4890136719</ele>
        <time>2009-07-14T15:21:13Z</time>
      </trkpt>
      <trkpt lat="45.16495" lon="5.57435">
        <ele>1442.623046875</ele>
        <time>2009-07-14T15:21:26Z</time>
      </trkpt>
      <trkpt lat="45.16497" lon="5.57345">
        <ele>1440.4489746094</ele>
        <time>2009-07-14T15:21:36Z</time>
      </trkpt>
      <trkpt lat="45.16499" lon="5.57258">
        <ele>1438.2960205078</ele>
        <time>2009-07-14T15:21:45Z</time>
      </trkpt>
      <trkpt lat="45.16502" lon="5.57124">
        <ele>1436.9759521484</ele>
        <time>2009-07-14T15:21:58Z</time>
      </trkpt>
      <trkpt lat="45.16504" lon="5.57058">
        <ele>1438.83203125</ele>
        <time>2009-07-14T15:22:05Z</time>
      </trkpt>
      <trkpt lat="45.16504" lon="5.57034">
        <ele>1438.6929931641</ele>
        <time>2009-07-14T15:22:08Z</time>
      </trkpt>
      <trkpt lat="45.16504" lon="5.57018">
        <ele>1438.8000488281</ele>
        <time>2009-07-14T15:22:10Z</time>
      </trkpt>
      <trkpt lat="45.16535" lon="5.56909">
        <ele>1435.4250488281</ele>
        <time>2009-07-14T15:22:24Z</time>
      </trkpt>
      <trkpt lat="45.16573" lon="5.56838">
        <ele>1426.7320556641</ele>
        <time>2009-07-14T15:22:33Z</time>
      </trkpt>
      <trkpt lat="45.16607" lon="5.56728">
        <ele>1427.5260009766</ele>
        <time>2009-07-14T15:22:43Z</time>
      </trkpt>
      <trkpt lat="45.16614" lon="5.56711">
        <ele>1427.0379638672</ele>
        <time>2009-07-14T15:22:45Z</time>
      </trkpt>
      <trkpt lat="45.16616" lon="5.56682">
        <ele>1425.3310546875</ele>
        <time>2009-07-14T15:22:48Z</time>
      </trkpt>
      <trkpt lat="45.16594" lon="5.56654">
        <ele>1422.9520263672</ele>
        <time>2009-07-14T15:22:52Z</time>
      </trkpt>
      <trkpt lat="45.16571" lon="5.5664">
        <ele>1421.7259521484</ele>
        <time>2009-07-14T15:22:55Z</time>
      </trkpt>
      <trkpt lat="45.16531" lon="5.56628">
        <ele>1420.3089599609</ele>
        <time>2009-07-14T15:23:00Z</time>
      </trkpt>
      <trkpt lat="45.16431" lon="5.56621">
        <ele>1417.6579589844</ele>
        <time>2009-07-14T15:23:13Z</time>
      </trkpt>
      <trkpt lat="45.16358" lon="5.56605">
        <ele>1416.4870605469</ele>
        <time>2009-07-14T15:23:26Z</time>
      </trkpt>
      <trkpt lat="45.16348" lon="5.56605">
        <ele>1416.0539550781</ele>
        <time>2009-07-14T15:23:28Z</time>
      </trkpt>
      <trkpt lat="45.16331" lon="5.56618">
        <ele>1415.7790527344</ele>
        <time>2009-07-14T15:23:32Z</time>
      </trkpt>
      <trkpt lat="45.16281" lon="5.56687">
        <ele>1413.6500244141</ele>
        <time>2009-07-14T15:23:44Z</time>
      </trkpt>
      <trkpt lat="45.16243" lon="5.56685">
        <ele>1412.6839599609</ele>
        <time>2009-07-14T15:23:51Z</time>
      </trkpt>
      <trkpt lat="45.1624" lon="5.56679">
        <ele>1412.8509521484</ele>
        <time>2009-07-14T15:23:52Z</time>
      </trkpt>
      <trkpt lat="45.16225" lon="5.56635">
        <ele>1411.8630371094</ele>
        <time>2009-07-14T15:23:58Z</time>
      </trkpt>
      <trkpt lat="45.16202" lon="5.566">
        <ele>1411.3079833984</ele>
        <time>2009-07-14T15:24:04Z</time>
      </trkpt>
      <trkpt lat="45.16192" lon="5.56593">
        <ele>1411.1049804688</ele>
        <time>2009-07-14T15:24:06Z</time>
      </trkpt>
      <trkpt lat="45.16116" lon="5.56583">
        <ele>1409.5179443359</ele>
        <time>2009-07-14T15:24:18Z</time>
      </trkpt>
      <trkpt lat="45.16087" lon="5.56578">
        <ele>1408.8590087891</ele>
        <time>2009-07-14T15:24:24Z</time>
      </trkpt>
      <trkpt lat="45.16075" lon="5.56575">
        <ele>1408.4499511719</ele>
        <time>2009-07-14T15:24:27Z</time>
      </trkpt>
      <trkpt lat="45.16048" lon="5.56574">
        <ele>1407.0140380859</ele>
        <time>2009-07-14T15:24:33Z</time>
      </trkpt>
      <trkpt lat="45.16014" lon="5.56587">
        <ele>1406.4320068359</ele>
        <time>2009-07-14T15:24:39Z</time>
      </trkpt>
      <trkpt lat="45.15968" lon="5.56577">
        <ele>1405.1319580078</ele>
        <time>2009-07-14T15:24:47Z</time>
      </trkpt>
      <trkpt lat="45.15933" lon="5.56511">
        <ele>1402.8809814453</ele>
        <time>2009-07-14T15:24:56Z</time>
      </trkpt>
      <trkpt lat="45.15923" lon="5.56498">
        <ele>1402.3680419922</ele>
        <time>2009-07-14T15:24:58Z</time>
      </trkpt>
      <trkpt lat="45.15882" lon="5.56471">
        <ele>1401.3070068359</ele>
        <time>2009-07-14T15:25:04Z</time>
      </trkpt>
      <trkpt lat="45.15853" lon="5.56473">
        <ele>1400.5899658203</ele>
        <time>2009-07-14T15:25:08Z</time>
      </trkpt>
      <trkpt lat="45.15811" lon="5.56537">
        <ele>1398.5260009766</ele>
        <time>2009-07-14T15:25:16Z</time>
      </trkpt>
      <trkpt lat="45.15807" lon="5.56561">
        <ele>1397.0069580078</ele>
        <time>2009-07-14T15:25:18Z</time>
      </trkpt>
      <trkpt lat="45.15815" lon="5.56608">
        <ele>1394.8590087891</ele>
        <time>2009-07-14T15:25:22Z</time>
      </trkpt>
      <trkpt lat="45.15826" lon="5.56631">
        <ele>1393.8370361328</ele>
        <time>2009-07-14T15:25:24Z</time>
      </trkpt>
      <trkpt lat="45.15832" lon="5.56643">
        <ele>1394.0040283203</ele>
        <time>2009-07-14T15:25:25Z</time>
      </trkpt>
      <trkpt lat="45.15838" lon="5.56706">
        <ele>1392.998046875</ele>
        <time>2009-07-14T15:25:30Z</time>
      </trkpt>
      <trkpt lat="45.15828" lon="5.56744">
        <ele>1392.1739501953</ele>
        <time>2009-07-14T15:25:33Z</time>
      </trkpt>
      <trkpt lat="45.15799" lon="5.56757">
        <ele>1390.4940185547</ele>
        <time>2009-07-14T15:25:38Z</time>
      </trkpt>
      <trkpt lat="45.15787" lon="5.56702">
        <ele>1389.5119628906</ele>
        <time>2009-07-14T15:25:44Z</time>
      </trkpt>
      <trkpt lat="45.15765" lon="5.56678">
        <ele>1388.2370605469</ele>
        <time>2009-07-14T15:25:48Z</time>
      </trkpt>
      <trkpt lat="45.15723" lon="5.56648">
        <ele>1387.0629882812</ele>
        <time>2009-07-14T15:25:54Z</time>
      </trkpt>
      <trkpt lat="45.15712" lon="5.56635">
        <ele>1386.3070068359</ele>
        <time>2009-07-14T15:25:56Z</time>
      </trkpt>
      <trkpt lat="45.15675" lon="5.56572">
        <ele>1385.291015625</ele>
        <time>2009-07-14T15:26:04Z</time>
      </trkpt>
      <trkpt lat="45.15644" lon="5.56573">
        <ele>1384.9100341797</ele>
        <time>2009-07-14T15:26:10Z</time>
      </trkpt>
      <trkpt lat="45.1562" lon="5.56618">
        <ele>1385.2130126953</ele>
        <time>2009-07-14T15:26:16Z</time>
      </trkpt>
      <trkpt lat="45.15614" lon="5.56635">
        <ele>1384.83203125</ele>
        <time>2009-07-14T15:26:18Z</time>
      </trkpt>
      <trkpt lat="45.15607" lon="5.56652">
        <ele>1384.8680419922</ele>
        <time>2009-07-14T15:26:20Z</time>
      </trkpt>
      <trkpt lat="45.15548" lon="5.56719">
        <ele>1384.9139404297</ele>
        <time>2009-07-14T15:26:31Z</time>
      </trkpt>
      <trkpt lat="45.15532" lon="5.5673">
        <ele>1385.2490234375</ele>
        <time>2009-07-14T15:26:34Z</time>
      </trkpt>
      <trkpt lat="45.155" lon="5.56712">
        <ele>1384.4060058594</ele>
        <time>2009-07-14T15:26:41Z</time>
      </trkpt>
      <trkpt lat="45.15503" lon="5.56682">
        <ele>1384.6219482422</ele>
        <time>2009-07-14T15:26:45Z</time>
      </trkpt>
      <trkpt lat="45.15512" lon="5.56661">
        <ele>1384.2569580078</ele>
        <time>2009-07-14T15:26:48Z</time>
      </trkpt>
      <trkpt lat="45.15525" lon="5.56639">
        <ele>1383.8609619141</ele>
        <time>2009-07-14T15:26:51Z</time>
      </trkpt>
      <trkpt lat="45.15543" lon="5.56612">
        <ele>1383.5550537109</ele>
        <time>2009-07-14T15:26:55Z</time>
      </trkpt>
      <trkpt lat="45.15547" lon="5.56578">
        <ele>1382.7060546875</ele>
        <time>2009-07-14T15:26:59Z</time>
      </trkpt>
      <trkpt lat="45.15538" lon="5.56535">
        <ele>1382.1409912109</ele>
        <time>2009-07-14T15:27:04Z</time>
      </trkpt>
      <trkpt lat="45.1552" lon="5.56494">
        <ele>1382.1979980469</ele>
        <time>2009-07-14T15:27:09Z</time>
      </trkpt>
      <trkpt lat="45.15491" lon="5.56466">
        <ele>1380.8489990234</ele>
        <time>2009-07-14T15:27:14Z</time>
      </trkpt>
      <trkpt lat="45.15469" lon="5.56427">
        <ele>1380.1879882812</ele>
        <time>2009-07-14T15:27:19Z</time>
      </trkpt>
      <trkpt lat="45.15413" lon="5.56342">
        <ele>1379.3959960938</ele>
        <time>2009-07-14T15:27:30Z</time>
      </trkpt>
      <trkpt lat="45.15355" lon="5.56329">
        <ele>1378.8850097656</ele>
        <time>2009-07-14T15:27:38Z</time>
      </trkpt>
      <trkpt lat="45.15306" lon="5.56366">
        <ele>1378.4959716797</ele>
        <time>2009-07-14T15:27:45Z</time>
      </trkpt>
      <trkpt lat="45.15291" lon="5.5639">
        <ele>1378.9539794922</ele>
        <time>2009-07-14T15:27:48Z</time>
      </trkpt>
      <trkpt lat="45.15272" lon="5.56451">
        <ele>1378.7139892578</ele>
        <time>2009-07-14T15:27:54Z</time>
      </trkpt>
      <trkpt lat="45.15227" lon="5.56475">
        <ele>1378.3800048828</ele>
        <time>2009-07-14T15:28:01Z</time>
      </trkpt>
      <trkpt lat="45.15213" lon="5.56468">
        <ele>1378.2690429688</ele>
        <time>2009-07-14T15:28:03Z</time>
      </trkpt>
      <trkpt lat="45.15177" lon="5.56456">
        <ele>1377.9899902344</ele>
        <time>2009-07-14T15:28:08Z</time>
      </trkpt>
      <trkpt lat="45.15155" lon="5.56458">
        <ele>1377.7409667969</ele>
        <time>2009-07-14T15:28:11Z</time>
      </trkpt>
      <trkpt lat="45.15123" lon="5.56479">
        <ele>1377.9780273438</ele>
        <time>2009-07-14T15:28:16Z</time>
      </trkpt>
      <trkpt lat="45.15115" lon="5.56531">
        <ele>1378.6369628906</ele>
        <time>2009-07-14T15:28:23Z</time>
      </trkpt>
      <trkpt lat="45.15125" lon="5.56588">
        <ele>1378.9549560547</ele>
        <time>2009-07-14T15:28:30Z</time>
      </trkpt>
      <trkpt lat="45.15099" lon="5.56591">
        <ele>1378.8590087891</ele>
        <time>2009-07-14T15:28:35Z</time>
      </trkpt>
      <trkpt lat="45.15095" lon="5.5659">
        <ele>1379.1280517578</ele>
        <time>2009-07-14T15:28:36Z</time>
      </trkpt>
      <trkpt lat="45.15068" lon="5.56593">
        <ele>1378.9820556641</ele>
        <time>2009-07-14T15:28:41Z</time>
      </trkpt>
      <trkpt lat="45.1504" lon="5.56563">
        <ele>1378.3280029297</ele>
        <time>2009-07-14T15:28:48Z</time>
      </trkpt>
      <trkpt lat="45.1504" lon="5.56555">
        <ele>1378.5539550781</ele>
        <time>2009-07-14T15:28:49Z</time>
      </trkpt>
      <trkpt lat="45.15018" lon="5.56523">
        <ele>1377.7530517578</ele>
        <time>2009-07-14T15:28:54Z</time>
      </trkpt>
      <trkpt lat="45.14973" lon="5.56471">
        <ele>1378.0460205078</ele>
        <time>2009-07-14T15:29:02Z</time>
      </trkpt>
      <trkpt lat="45.14927" lon="5.5642">
        <ele>1376.7159423828</ele>
        <time>2009-07-14T15:29:11Z</time>
      </trkpt>
      <trkpt lat="45.1491" lon="5.56424">
        <ele>1374.8830566406</ele>
        <time>2009-07-14T15:29:13Z</time>
      </trkpt>
      <trkpt lat="45.14883" lon="5.56422">
        <ele>1372.5489501953</ele>
        <time>2009-07-14T15:29:16Z</time>
      </trkpt>
      <trkpt lat="45.14856" lon="5.56376">
        <ele>1368.1040039062</ele>
        <time>2009-07-14T15:29:21Z</time>
      </trkpt>
      <trkpt lat="45.14838" lon="5.5632">
        <ele>1365.1209716797</ele>
        <time>2009-07-14T15:29:25Z</time>
      </trkpt>
      <trkpt lat="45.1481" lon="5.56259">
        <ele>1364.6369628906</ele>
        <time>2009-07-14T15:29:30Z</time>
      </trkpt>
      <trkpt lat="45.14769" lon="5.56241">
        <ele>1362.7559814453</ele>
        <time>2009-07-14T15:29:36Z</time>
      </trkpt>
      <trkpt lat="45.14732" lon="5.56253">
        <ele>1361.5629882812</ele>
        <time>2009-07-14T15:29:41Z</time>
      </trkpt>
      <trkpt lat="45.1471" lon="5.56279">
        <ele>1359.6920166016</ele>
        <time>2009-07-14T15:29:45Z</time>
      </trkpt>
      <trkpt lat="45.14705" lon="5.56298">
        <ele>1357.6689453125</ele>
        <time>2009-07-14T15:29:47Z</time>
      </trkpt>
      <trkpt lat="45.14711" lon="5.56334">
        <ele>1356.4840087891</ele>
        <time>2009-07-14T15:29:49Z</time>
      </trkpt>
      <trkpt lat="45.14669" lon="5.56394">
        <ele>1352.3070068359</ele>
        <time>2009-07-14T15:29:58Z</time>
      </trkpt>
      <trkpt lat="45.1465" lon="5.56455">
        <ele>1350.3559570312</ele>
        <time>2009-07-14T15:30:04Z</time>
      </trkpt>
      <trkpt lat="45.14642" lon="5.56461">
        <ele>1350.6109619141</ele>
        <time>2009-07-14T15:30:06Z</time>
      </trkpt>
      <trkpt lat="45.14643" lon="5.5644">
        <ele>1350.1629638672</ele>
        <time>2009-07-14T15:30:10Z</time>
      </trkpt>
      <trkpt lat="45.14643" lon="5.5641">
        <ele>1349.4260253906</ele>
        <time>2009-07-14T15:30:13Z</time>
      </trkpt>
      <trkpt lat="45.14624" lon="5.56361">
        <ele>1348.4599609375</ele>
        <time>2009-07-14T15:30:18Z</time>
      </trkpt>
      <trkpt lat="45.14614" lon="5.56345">
        <ele>1348.1359863281</ele>
        <time>2009-07-14T15:30:20Z</time>
      </trkpt>
      <trkpt lat="45.14594" lon="5.56309">
        <ele>1347.1619873047</ele>
        <time>2009-07-14T15:30:24Z</time>
      </trkpt>
      <trkpt lat="45.14561" lon="5.56251">
        <ele>1343.6910400391</ele>
        <time>2009-07-14T15:30:30Z</time>
      </trkpt>
      <trkpt lat="45.14515" lon="5.5622">
        <ele>1340.0360107422</ele>
        <time>2009-07-14T15:30:35Z</time>
      </trkpt>
      <trkpt lat="45.14482" lon="5.56211">
        <ele>1337.1719970703</ele>
        <time>2009-07-14T15:30:38Z</time>
      </trkpt>
      <trkpt lat="45.14423" lon="5.56223">
        <ele>1333.0080566406</ele>
        <time>2009-07-14T15:30:45Z</time>
      </trkpt>
      <trkpt lat="45.14389" lon="5.56243">
        <ele>1328.9959716797</ele>
        <time>2009-07-14T15:30:50Z</time>
      </trkpt>
      <trkpt lat="45.14374" lon="5.56229">
        <ele>1327.6140136719</ele>
        <time>2009-07-14T15:30:52Z</time>
      </trkpt>
      <trkpt lat="45.14314" lon="5.56228">
        <ele>1322.6020507812</ele>
        <time>2009-07-14T15:30:58Z</time>
      </trkpt>
      <trkpt lat="45.14283" lon="5.56243">
        <ele>1319.5510253906</ele>
        <time>2009-07-14T15:31:01Z</time>
      </trkpt>
      <trkpt lat="45.14219" lon="5.56215">
        <ele>1316.6910400391</ele>
        <time>2009-07-14T15:31:07Z</time>
      </trkpt>
      <trkpt lat="45.14172" lon="5.56211">
        <ele>1313.9050292969</ele>
        <time>2009-07-14T15:31:11Z</time>
      </trkpt>
      <trkpt lat="45.14137" lon="5.56212">
        <ele>1312.7159423828</ele>
        <time>2009-07-14T15:31:14Z</time>
      </trkpt>
      <trkpt lat="45.14102" lon="5.5625">
        <ele>1308.6529541016</ele>
        <time>2009-07-14T15:31:19Z</time>
      </trkpt>
      <trkpt lat="45.14089" lon="5.56273">
        <ele>1307.3590087891</ele>
        <time>2009-07-14T15:31:21Z</time>
      </trkpt>
      <trkpt lat="45.14065" lon="5.56291">
        <ele>1307.3120117188</ele>
        <time>2009-07-14T15:31:25Z</time>
      </trkpt>
      <trkpt lat="45.14048" lon="5.56253">
        <ele>1305.9200439453</ele>
        <time>2009-07-14T15:31:29Z</time>
      </trkpt>
      <trkpt lat="45.14038" lon="5.56231">
        <ele>1304.9870605469</ele>
        <time>2009-07-14T15:31:31Z</time>
      </trkpt>
      <trkpt lat="45.14014" lon="5.56189">
        <ele>1301.9329833984</ele>
        <time>2009-07-14T15:31:35Z</time>
      </trkpt>
      <trkpt lat="45.1397" lon="5.56183">
        <ele>1299.3990478516</ele>
        <time>2009-07-14T15:31:40Z</time>
      </trkpt>
      <trkpt lat="45.13951" lon="5.56235">
        <ele>1297.3000488281</ele>
        <time>2009-07-14T15:31:44Z</time>
      </trkpt>
      <trkpt lat="45.13919" lon="5.5624">
        <ele>1294.0949707031</ele>
        <time>2009-07-14T15:31:49Z</time>
      </trkpt>
      <trkpt lat="45.13916" lon="5.56217">
        <ele>1292.8349609375</ele>
        <time>2009-07-14T15:31:51Z</time>
      </trkpt>
      <trkpt lat="45.13911" lon="5.56091">
        <ele>1286.1209716797</ele>
        <time>2009-07-14T15:32:00Z</time>
      </trkpt>
      <trkpt lat="45.1388" lon="5.56039">
        <ele>1282.9449462891</ele>
        <time>2009-07-14T15:32:06Z</time>
      </trkpt>
      <trkpt lat="45.13861" lon="5.5604">
        <ele>1281.5570068359</ele>
        <time>2009-07-14T15:32:08Z</time>
      </trkpt>
      <trkpt lat="45.13819" lon="5.56043">
        <ele>1278.5830078125</ele>
        <time>2009-07-14T15:32:12Z</time>
      </trkpt>
      <trkpt lat="45.13721" lon="5.56083">
        <ele>1271.4000244141</ele>
        <time>2009-07-14T15:32:21Z</time>
      </trkpt>
      <trkpt lat="45.1362" lon="5.56109">
        <ele>1268.0260009766</ele>
        <time>2009-07-14T15:32:30Z</time>
      </trkpt>
      <trkpt lat="45.1358" lon="5.56115">
        <ele>1267.166015625</ele>
        <time>2009-07-14T15:32:34Z</time>
      </trkpt>
      <trkpt lat="45.13544" lon="5.56171">
        <ele>1266.2419433594</ele>
        <time>2009-07-14T15:32:41Z</time>
      </trkpt>
      <trkpt lat="45.13528" lon="5.56169">
        <ele>1265.9520263672</ele>
        <time>2009-07-14T15:32:43Z</time>
      </trkpt>
      <trkpt lat="45.13517" lon="5.56154">
        <ele>1265.6929931641</ele>
        <time>2009-07-14T15:32:45Z</time>
      </trkpt>
      <trkpt lat="45.13508" lon="5.56137">
        <ele>1264.8210449219</ele>
        <time>2009-07-14T15:32:47Z</time>
      </trkpt>
      <trkpt lat="45.13501" lon="5.5612">
        <ele>1263.8430175781</ele>
        <time>2009-07-14T15:32:49Z</time>
      </trkpt>
      <trkpt lat="45.1346" lon="5.56092">
        <ele>1261.6579589844</ele>
        <time>2009-07-14T15:32:54Z</time>
      </trkpt>
      <trkpt lat="45.13431" lon="5.5608">
        <ele>1259.5489501953</ele>
        <time>2009-07-14T15:32:57Z</time>
      </trkpt>
      <trkpt lat="45.13401" lon="5.56071">
        <ele>1257.9620361328</ele>
        <time>2009-07-14T15:33:00Z</time>
      </trkpt>
      <trkpt lat="45.13363" lon="5.56086">
        <ele>1255.6009521484</ele>
        <time>2009-07-14T15:33:04Z</time>
      </trkpt>
      <trkpt lat="45.13337" lon="5.56113">
        <ele>1253.7390136719</ele>
        <time>2009-07-14T15:33:07Z</time>
      </trkpt>
      <trkpt lat="45.13317" lon="5.56159">
        <ele>1253.3029785156</ele>
        <time>2009-07-14T15:33:11Z</time>
      </trkpt>
      <trkpt lat="45.13307" lon="5.56181">
        <ele>1252.7290039062</ele>
        <time>2009-07-14T15:33:13Z</time>
      </trkpt>
      <trkpt lat="45.13271" lon="5.56165">
        <ele>1251.0870361328</ele>
        <time>2009-07-14T15:33:18Z</time>
      </trkpt>
      <trkpt lat="45.13259" lon="5.56148">
        <ele>1249.5479736328</ele>
        <time>2009-07-14T15:33:20Z</time>
      </trkpt>
      <trkpt lat="45.13217" lon="5.56145">
        <ele>1247.5300292969</ele>
        <time>2009-07-14T15:33:25Z</time>
      </trkpt>
      <trkpt lat="45.13137" lon="5.56175">
        <ele>1242.3010253906</ele>
        <time>2009-07-14T15:33:33Z</time>
      </trkpt>
      <trkpt lat="45.13113" lon="5.56208">
        <ele>1241.5550537109</ele>
        <time>2009-07-14T15:33:37Z</time>
      </trkpt>
      <trkpt lat="45.13073" lon="5.56182">
        <ele>1240.3570556641</ele>
        <time>2009-07-14T15:33:45Z</time>
      </trkpt>
      <trkpt lat="45.13073" lon="5.56156">
        <ele>1239.7189941406</ele>
        <time>2009-07-14T15:33:47Z</time>
      </trkpt>
      <trkpt lat="45.13072" lon="5.56137">
        <ele>1239.5889892578</ele>
        <time>2009-07-14T15:33:49Z</time>
      </trkpt>
      <trkpt lat="45.13071" lon="5.5609">
        <ele>1238.3819580078</ele>
        <time>2009-07-14T15:33:54Z</time>
      </trkpt>
      <trkpt lat="45.13055" lon="5.5603">
        <ele>1238.0350341797</ele>
        <time>2009-07-14T15:34:01Z</time>
      </trkpt>
      <trkpt lat="45.1305" lon="5.55997">
        <ele>1236.3070068359</ele>
        <time>2009-07-14T15:34:06Z</time>
      </trkpt>
      <trkpt lat="45.13054" lon="5.55974">
        <ele>1235.3060302734</ele>
        <time>2009-07-14T15:34:12Z</time>
      </trkpt>
      <trkpt lat="45.13058" lon="5.55957">
        <ele>1234.7189941406</ele>
        <time>2009-07-14T15:34:19Z</time>
      </trkpt>
      <trkpt lat="45.13058" lon="5.55956">
        <ele>1234.6960449219</ele>
        <time>2009-07-14T15:34:21Z</time>
      </trkpt>
      <trkpt lat="45.13056" lon="5.55961">
        <ele>1234.54296875</ele>
        <time>2009-07-14T15:37:03Z</time>
      </trkpt>
      <trkpt lat="45.13066" lon="5.55964">
        <ele>1233.0949707031</ele>
        <time>2009-07-14T15:37:36Z</time>
      </trkpt>
      <trkpt lat="45.13076" lon="5.55956">
        <ele>1233.0469970703</ele>
        <time>2009-07-14T15:37:39Z</time>
      </trkpt>
      <trkpt lat="45.13116" lon="5.55911">
        <ele>1228.9499511719</ele>
        <time>2009-07-14T15:37:47Z</time>
      </trkpt>
      <trkpt lat="45.13129" lon="5.55896">
        <ele>1227.70703125</ele>
        <time>2009-07-14T15:37:49Z</time>
      </trkpt>
      <trkpt lat="45.13169" lon="5.55857">
        <ele>1224.1059570312</ele>
        <time>2009-07-14T15:37:54Z</time>
      </trkpt>
      <trkpt lat="45.13178" lon="5.5585">
        <ele>1222.8590087891</ele>
        <time>2009-07-14T15:37:55Z</time>
      </trkpt>
      <trkpt lat="45.13267" lon="5.55826">
        <ele>1216.7330322266</ele>
        <time>2009-07-14T15:38:03Z</time>
      </trkpt>
      <trkpt lat="45.13418" lon="5.55804">
        <ele>1206.3969726562</ele>
        <time>2009-07-14T15:38:15Z</time>
      </trkpt>
      <trkpt lat="45.13444" lon="5.558">
        <ele>1205.3840332031</ele>
        <time>2009-07-14T15:38:17Z</time>
      </trkpt>
      <trkpt lat="45.13482" lon="5.55795">
        <ele>1202.8110351562</ele>
        <time>2009-07-14T15:38:20Z</time>
      </trkpt>
      <trkpt lat="45.13562" lon="5.55785">
        <ele>1197.8260498047</ele>
        <time>2009-07-14T15:38:26Z</time>
      </trkpt>
      <trkpt lat="45.13614" lon="5.55799">
        <ele>1195.2740478516</ele>
        <time>2009-07-14T15:38:30Z</time>
      </trkpt>
      <trkpt lat="45.13687" lon="5.55823">
        <ele>1191.9270019531</ele>
        <time>2009-07-14T15:38:36Z</time>
      </trkpt>
      <trkpt lat="45.13734" lon="5.55816">
        <ele>1189.3580322266</ele>
        <time>2009-07-14T15:38:40Z</time>
      </trkpt>
      <trkpt lat="45.13767" lon="5.55799">
        <ele>1187.6989746094</ele>
        <time>2009-07-14T15:38:43Z</time>
      </trkpt>
      <trkpt lat="45.13789" lon="5.55787">
        <ele>1186.2919921875</ele>
        <time>2009-07-14T15:38:45Z</time>
      </trkpt>
      <trkpt lat="45.13864" lon="5.55751">
        <ele>1182.0970458984</ele>
        <time>2009-07-14T15:38:52Z</time>
      </trkpt>
      <trkpt lat="45.13909" lon="5.55747">
        <ele>1179.0389404297</ele>
        <time>2009-07-14T15:38:56Z</time>
      </trkpt>
      <trkpt lat="45.13988" lon="5.5576">
        <ele>1174.9320068359</ele>
        <time>2009-07-14T15:39:03Z</time>
      </trkpt>
      <trkpt lat="45.14037" lon="5.55763">
        <ele>1171.5510253906</ele>
        <time>2009-07-14T15:39:07Z</time>
      </trkpt>
      <trkpt lat="45.14086" lon="5.55772">
        <ele>1169.0090332031</ele>
        <time>2009-07-14T15:39:11Z</time>
      </trkpt>
      <trkpt lat="45.14109" lon="5.55781">
        <ele>1167.8060302734</ele>
        <time>2009-07-14T15:39:13Z</time>
      </trkpt>
      <trkpt lat="45.14167" lon="5.55801">
        <ele>1165.7309570312</ele>
        <time>2009-07-14T15:39:18Z</time>
      </trkpt>
      <trkpt lat="45.14202" lon="5.55796">
        <ele>1164.1309814453</ele>
        <time>2009-07-14T15:39:21Z</time>
      </trkpt>
      <trkpt lat="45.14212" lon="5.55789">
        <ele>1162.4300537109</ele>
        <time>2009-07-14T15:39:22Z</time>
      </trkpt>
      <trkpt lat="45.14242" lon="5.55765">
        <ele>1160.9139404297</ele>
        <time>2009-07-14T15:39:25Z</time>
      </trkpt>
      <trkpt lat="45.14325" lon="5.55712">
        <ele>1156.4709472656</ele>
        <time>2009-07-14T15:39:33Z</time>
      </trkpt>
      <trkpt lat="45.1435" lon="5.55679">
        <ele>1155.0930175781</ele>
        <time>2009-07-14T15:39:36Z</time>
      </trkpt>
      <trkpt lat="45.14362" lon="5.55632">
        <ele>1153.6810302734</ele>
        <time>2009-07-14T15:39:39Z</time>
      </trkpt>
      <trkpt lat="45.14366" lon="5.556">
        <ele>1153.6719970703</ele>
        <time>2009-07-14T15:39:41Z</time>
      </trkpt>
      <trkpt lat="45.14396" lon="5.55551">
        <ele>1149.1970214844</ele>
        <time>2009-07-14T15:39:45Z</time>
      </trkpt>
      <trkpt lat="45.14461" lon="5.5551">
        <ele>1145.0119628906</ele>
        <time>2009-07-14T15:39:51Z</time>
      </trkpt>
      <trkpt lat="45.14497" lon="5.55501">
        <ele>1143.5200195312</ele>
        <time>2009-07-14T15:39:54Z</time>
      </trkpt>
      <trkpt lat="45.14546" lon="5.555">
        <ele>1140.4270019531</ele>
        <time>2009-07-14T15:39:58Z</time>
      </trkpt>
      <trkpt lat="45.1461" lon="5.55517">
        <ele>1137.4449462891</ele>
        <time>2009-07-14T15:40:03Z</time>
      </trkpt>
      <trkpt lat="45.14635" lon="5.55527">
        <ele>1136.6290283203</ele>
        <time>2009-07-14T15:40:05Z</time>
      </trkpt>
      <trkpt lat="45.14706" lon="5.55495">
        <ele>1131.3959960938</ele>
        <time>2009-07-14T15:40:11Z</time>
      </trkpt>
      <trkpt lat="45.14718" lon="5.55461">
        <ele>1129.6440429688</ele>
        <time>2009-07-14T15:40:13Z</time>
      </trkpt>
      <trkpt lat="45.14773" lon="5.55396">
        <ele>1123.5109863281</ele>
        <time>2009-07-14T15:40:19Z</time>
      </trkpt>
      <trkpt lat="45.14799" lon="5.55398">
        <ele>1121.6020507812</ele>
        <time>2009-07-14T15:40:21Z</time>
      </trkpt>
      <trkpt lat="45.14984" lon="5.55426">
        <ele>1112.4849853516</ele>
        <time>2009-07-14T15:40:36Z</time>
      </trkpt>
      <trkpt lat="45.15031" lon="5.55425">
        <ele>1109.3480224609</ele>
        <time>2009-07-14T15:40:40Z</time>
      </trkpt>
      <trkpt lat="45.15088" lon="5.55401">
        <ele>1105.0789794922</ele>
        <time>2009-07-14T15:40:45Z</time>
      </trkpt>
      <trkpt lat="45.15108" lon="5.55386">
        <ele>1104.0439453125</ele>
        <time>2009-07-14T15:40:47Z</time>
      </trkpt>
      <trkpt lat="45.15142" lon="5.55373">
        <ele>1102.1710205078</ele>
        <time>2009-07-14T15:40:50Z</time>
      </trkpt>
      <trkpt lat="45.15195" lon="5.55401">
        <ele>1099.4530029297</ele>
        <time>2009-07-14T15:40:55Z</time>
      </trkpt>
      <trkpt lat="45.15276" lon="5.55415">
        <ele>1092.1889648438</ele>
        <time>2009-07-14T15:41:02Z</time>
      </trkpt>
      <trkpt lat="45.15337" lon="5.55397">
        <ele>1089.1770019531</ele>
        <time>2009-07-14T15:41:07Z</time>
      </trkpt>
      <trkpt lat="45.1535" lon="5.55398">
        <ele>1088.7159423828</ele>
        <time>2009-07-14T15:41:08Z</time>
      </trkpt>
      <trkpt lat="45.15445" lon="5.55419">
        <ele>1083.0169677734</ele>
        <time>2009-07-14T15:41:16Z</time>
      </trkpt>
      <trkpt lat="45.15528" lon="5.55435">
        <ele>1080.3380126953</ele>
        <time>2009-07-14T15:41:23Z</time>
      </trkpt>
      <trkpt lat="45.15582" lon="5.55416">
        <ele>1077.2750244141</ele>
        <time>2009-07-14T15:41:28Z</time>
      </trkpt>
      <trkpt lat="45.15596" lon="5.55402">
        <ele>1076.6240234375</ele>
        <time>2009-07-14T15:41:30Z</time>
      </trkpt>
      <trkpt lat="45.1559" lon="5.55363">
        <ele>1074.9919433594</ele>
        <time>2009-07-14T15:41:35Z</time>
      </trkpt>
      <trkpt lat="45.15514" lon="5.55308">
        <ele>1068.7199707031</ele>
        <time>2009-07-14T15:41:44Z</time>
      </trkpt>
      <trkpt lat="45.15407" lon="5.55257">
        <ele>1062.5600585938</ele>
        <time>2009-07-14T15:41:54Z</time>
      </trkpt>
      <trkpt lat="45.15361" lon="5.55236">
        <ele>1060.2869873047</ele>
        <time>2009-07-14T15:41:58Z</time>
      </trkpt>
      <trkpt lat="45.15226" lon="5.55175">
        <ele>1056.5610351562</ele>
        <time>2009-07-14T15:42:10Z</time>
      </trkpt>
      <trkpt lat="45.15167" lon="5.55178">
        <ele>1052.9289550781</ele>
        <time>2009-07-14T15:42:15Z</time>
      </trkpt>
      <trkpt lat="45.15119" lon="5.55198">
        <ele>1050.0439453125</ele>
        <time>2009-07-14T15:42:19Z</time>
      </trkpt>
      <trkpt lat="45.15064" lon="5.55247">
        <ele>1046.083984375</ele>
        <time>2009-07-14T15:42:24Z</time>
      </trkpt>
      <trkpt lat="45.14989" lon="5.5527">
        <ele>1043.0129394531</ele>
        <time>2009-07-14T15:42:30Z</time>
      </trkpt>
      <trkpt lat="45.14825" lon="5.55204">
        <ele>1041.0169677734</ele>
        <time>2009-07-14T15:42:44Z</time>
      </trkpt>
      <trkpt lat="45.14794" lon="5.55142">
        <ele>1039.9799804688</ele>
        <time>2009-07-14T15:42:50Z</time>
      </trkpt>
      <trkpt lat="45.14792" lon="5.54975">
        <ele>1038.1910400391</ele>
        <time>2009-07-14T15:43:03Z</time>
      </trkpt>
      <trkpt lat="45.14771" lon="5.54893">
        <ele>1036.1409912109</ele>
        <time>2009-07-14T15:43:10Z</time>
      </trkpt>
      <trkpt lat="45.14743" lon="5.54823">
        <ele>1034.2939453125</ele>
        <time>2009-07-14T15:43:16Z</time>
      </trkpt>
      <trkpt lat="45.1472" lon="5.54777">
        <ele>1032.6970214844</ele>
        <time>2009-07-14T15:43:20Z</time>
      </trkpt>
      <trkpt lat="45.14714" lon="5.54765">
        <ele>1032.4270019531</ele>
        <time>2009-07-14T15:43:21Z</time>
      </trkpt>
      <trkpt lat="45.14657" lon="5.54654">
        <ele>1030.9310302734</ele>
        <time>2009-07-14T15:43:31Z</time>
      </trkpt>
      <trkpt lat="45.14611" lon="5.54567">
        <ele>1029.1700439453</ele>
        <time>2009-07-14T15:43:39Z</time>
      </trkpt>
      <trkpt lat="45.14529" lon="5.54437">
        <ele>1026.3620605469</ele>
        <time>2009-07-14T15:43:52Z</time>
      </trkpt>
      <trkpt lat="45.14425" lon="5.54329">
        <ele>1024.6870117188</ele>
        <time>2009-07-14T15:44:06Z</time>
      </trkpt>
      <trkpt lat="45.14336" lon="5.54206">
        <ele>1022.5540161133</ele>
        <time>2009-07-14T15:44:20Z</time>
      </trkpt>
      <trkpt lat="45.14297" lon="5.54109">
        <ele>1021.3859863281</ele>
        <time>2009-07-14T15:44:29Z</time>
      </trkpt>
      <trkpt lat="45.14291" lon="5.54063">
        <ele>1020.9979858398</ele>
        <time>2009-07-14T15:44:33Z</time>
      </trkpt>
      <trkpt lat="45.14276" lon="5.53893">
        <ele>1020.7100219727</ele>
        <time>2009-07-14T15:44:48Z</time>
      </trkpt>
      <trkpt lat="45.14205" lon="5.53721">
        <ele>1019.5230102539</ele>
        <time>2009-07-14T15:45:04Z</time>
      </trkpt>
      <trkpt lat="45.14131" lon="5.53638">
        <ele>1017.2199707031</ele>
        <time>2009-07-14T15:45:15Z</time>
      </trkpt>
      <trkpt lat="45.14079" lon="5.53598">
        <ele>1015.3909912109</ele>
        <time>2009-07-14T15:45:21Z</time>
      </trkpt>
      <trkpt lat="45.14006" lon="5.53542">
        <ele>1013.4630126953</ele>
        <time>2009-07-14T15:45:29Z</time>
      </trkpt>
      <trkpt lat="45.13797" lon="5.53376">
        <ele>1010.8969726562</ele>
        <time>2009-07-14T15:45:51Z</time>
      </trkpt>
      <trkpt lat="45.13684" lon="5.53339">
        <ele>1010.0689697266</ele>
        <time>2009-07-14T15:46:02Z</time>
      </trkpt>
      <trkpt lat="45.1358" lon="5.53267">
        <ele>1009.4190063477</ele>
        <time>2009-07-14T15:46:13Z</time>
      </trkpt>
      <trkpt lat="45.13461" lon="5.53201">
        <ele>1009.0809936523</ele>
        <time>2009-07-14T15:46:25Z</time>
      </trkpt>
      <trkpt lat="45.13339" lon="5.531">
        <ele>1005.9229736328</ele>
        <time>2009-07-14T15:46:38Z</time>
      </trkpt>
      <trkpt lat="45.13247" lon="5.5304">
        <ele>1003.8950195312</ele>
        <time>2009-07-14T15:46:47Z</time>
      </trkpt>
      <trkpt lat="45.13193" lon="5.52985">
        <ele>1000.8430175781</ele>
        <time>2009-07-14T15:46:53Z</time>
      </trkpt>
      <trkpt lat="45.13113" lon="5.52841">
        <ele>1000.5170288086</ele>
        <time>2009-07-14T15:47:05Z</time>
      </trkpt>
      <trkpt lat="45.1309" lon="5.52792">
        <ele>1001.3109741211</ele>
        <time>2009-07-14T15:47:11Z</time>
      </trkpt>
      <trkpt lat="45.1306" lon="5.52801">
        <ele>1002.3469848633</ele>
        <time>2009-07-14T15:47:16Z</time>
      </trkpt>
      <trkpt lat="45.12975" lon="5.5279">
        <ele>1007.2800292969</ele>
        <time>2009-07-14T15:47:32Z</time>
      </trkpt>
      <trkpt lat="45.1291" lon="5.52785">
        <ele>1009.3590087891</ele>
        <time>2009-07-14T15:47:44Z</time>
      </trkpt>
      <trkpt lat="45.12827" lon="5.52772">
        <ele>1010.9940185547</ele>
        <time>2009-07-14T15:47:58Z</time>
      </trkpt>
      <trkpt lat="45.12814" lon="5.5277">
        <ele>1011.2490234375</ele>
        <time>2009-07-14T15:48:00Z</time>
      </trkpt>
      <trkpt lat="45.12741" lon="5.52719">
        <ele>1010.8170166016</ele>
        <time>2009-07-14T15:48:13Z</time>
      </trkpt>
      <trkpt lat="45.12699" lon="5.5272">
        <ele>1010.8590087891</ele>
        <time>2009-07-14T15:48:21Z</time>
      </trkpt>
      <trkpt lat="45.12695" lon="5.52725">
        <ele>1010.6820068359</ele>
        <time>2009-07-14T15:48:22Z</time>
      </trkpt>
      <trkpt lat="45.12661" lon="5.52768">
        <ele>1012.1770019531</ele>
        <time>2009-07-14T15:48:33Z</time>
      </trkpt>
      <trkpt lat="45.12645" lon="5.52783">
        <ele>1011.8439941406</ele>
        <time>2009-07-14T15:48:37Z</time>
      </trkpt>
      <trkpt lat="45.12616" lon="5.52801">
        <ele>1010.8779907227</ele>
        <time>2009-07-14T15:48:42Z</time>
      </trkpt>
      <trkpt lat="45.1256" lon="5.52882">
        <ele>1006.7030029297</ele>
        <time>2009-07-14T15:48:51Z</time>
      </trkpt>
      <trkpt lat="45.12521" lon="5.52934">
        <ele>1004.0850219727</ele>
        <time>2009-07-14T15:48:56Z</time>
      </trkpt>
      <trkpt lat="45.12504" lon="5.52953">
        <ele>1002.5460205078</ele>
        <time>2009-07-14T15:48:58Z</time>
      </trkpt>
      <trkpt lat="45.12452" lon="5.52987">
        <ele>999.72601318359</ele>
        <time>2009-07-14T15:49:03Z</time>
      </trkpt>
      <trkpt lat="45.12361" lon="5.53018">
        <ele>997.42199707031</ele>
        <time>2009-07-14T15:49:11Z</time>
      </trkpt>
      <trkpt lat="45.12269" lon="5.53049">
        <ele>993.54400634766</ele>
        <time>2009-07-14T15:49:19Z</time>
      </trkpt>
      <trkpt lat="45.12058" lon="5.53091">
        <ele>987.61499023438</ele>
        <time>2009-07-14T15:49:36Z</time>
      </trkpt>
      <trkpt lat="45.12017" lon="5.53098">
        <ele>987.29498291016</ele>
        <time>2009-07-14T15:49:39Z</time>
      </trkpt>
      <trkpt lat="45.11978" lon="5.53105">
        <ele>987.83197021484</ele>
        <time>2009-07-14T15:49:42Z</time>
      </trkpt>
      <trkpt lat="45.1194" lon="5.53112">
        <ele>987.35998535156</ele>
        <time>2009-07-14T15:49:45Z</time>
      </trkpt>
      <trkpt lat="45.11888" lon="5.53123">
        <ele>986.76800537109</ele>
        <time>2009-07-14T15:49:49Z</time>
      </trkpt>
      <trkpt lat="45.1185" lon="5.53129">
        <ele>986.1669921875</ele>
        <time>2009-07-14T15:49:52Z</time>
      </trkpt>
      <trkpt lat="45.11669" lon="5.53164">
        <ele>985.22698974609</ele>
        <time>2009-07-14T15:50:07Z</time>
      </trkpt>
      <trkpt lat="45.11602" lon="5.53183">
        <ele>986.10699462891</ele>
        <time>2009-07-14T15:50:13Z</time>
      </trkpt>
      <trkpt lat="45.11557" lon="5.53175">
        <ele>984.95001220703</ele>
        <time>2009-07-14T15:50:17Z</time>
      </trkpt>
      <trkpt lat="45.11388" lon="5.53122">
        <ele>981.89202880859</ele>
        <time>2009-07-14T15:50:32Z</time>
      </trkpt>
      <trkpt lat="45.11223" lon="5.53106">
        <ele>982.875</ele>
        <time>2009-07-14T15:50:47Z</time>
      </trkpt>
      <trkpt lat="45.11029" lon="5.52996">
        <ele>982.34497070312</ele>
        <time>2009-07-14T15:51:08Z</time>
      </trkpt>
      <trkpt lat="45.10884" lon="5.52926">
        <ele>981.79602050781</ele>
        <time>2009-07-14T15:51:22Z</time>
      </trkpt>
      <trkpt lat="45.10845" lon="5.52943">
        <ele>981.33898925781</ele>
        <time>2009-07-14T15:51:26Z</time>
      </trkpt>
      <trkpt lat="45.10829" lon="5.52964">
        <ele>980.70599365234</ele>
        <time>2009-07-14T15:51:28Z</time>
      </trkpt>
      <trkpt lat="45.10767" lon="5.5298">
        <ele>980.71398925781</ele>
        <time>2009-07-14T15:51:34Z</time>
      </trkpt>
      <trkpt lat="45.10756" lon="5.52975">
        <ele>980.94799804688</ele>
        <time>2009-07-14T15:51:35Z</time>
      </trkpt>
      <trkpt lat="45.10653" lon="5.5292">
        <ele>980.72998046875</ele>
        <time>2009-07-14T15:51:45Z</time>
      </trkpt>
      <trkpt lat="45.10587" lon="5.52953">
        <ele>980.50598144531</ele>
        <time>2009-07-14T15:51:52Z</time>
      </trkpt>
      <trkpt lat="45.10564" lon="5.52987">
        <ele>980.11199951172</ele>
        <time>2009-07-14T15:51:55Z</time>
      </trkpt>
      <trkpt lat="45.10511" lon="5.52981">
        <ele>979.92700195312</ele>
        <time>2009-07-14T15:52:01Z</time>
      </trkpt>
      <trkpt lat="45.10513" lon="5.52903">
        <ele>979.74700927734</ele>
        <time>2009-07-14T15:52:06Z</time>
      </trkpt>
      <trkpt lat="45.1051" lon="5.52819">
        <ele>979.89300537109</ele>
        <time>2009-07-14T15:52:12Z</time>
      </trkpt>
      <trkpt lat="45.10527" lon="5.52758">
        <ele>979.17797851562</ele>
        <time>2009-07-14T15:52:17Z</time>
      </trkpt>
      <trkpt lat="45.10513" lon="5.52688">
        <ele>977.65399169922</ele>
        <time>2009-07-14T15:52:23Z</time>
      </trkpt>
      <trkpt lat="45.10501" lon="5.52682">
        <ele>977.791015625</ele>
        <time>2009-07-14T15:52:24Z</time>
      </trkpt>
      <trkpt lat="45.10437" lon="5.52664">
        <ele>978.53497314453</ele>
        <time>2009-07-14T15:52:30Z</time>
      </trkpt>
      <trkpt lat="45.10393" lon="5.52667">
        <ele>978.00701904297</ele>
        <time>2009-07-14T15:52:34Z</time>
      </trkpt>
      <trkpt lat="45.1035" lon="5.52686">
        <ele>975.61297607422</ele>
        <time>2009-07-14T15:52:38Z</time>
      </trkpt>
      <trkpt lat="45.10339" lon="5.52689">
        <ele>975.32299804688</ele>
        <time>2009-07-14T15:52:39Z</time>
      </trkpt>
      <trkpt lat="45.10272" lon="5.5268">
        <ele>975.17401123047</ele>
        <time>2009-07-14T15:52:45Z</time>
      </trkpt>
      <trkpt lat="45.10229" lon="5.52716">
        <ele>974.19299316406</ele>
        <time>2009-07-14T15:52:50Z</time>
      </trkpt>
      <trkpt lat="45.10223" lon="5.52755">
        <ele>973.19897460938</ele>
        <time>2009-07-14T15:52:52Z</time>
      </trkpt>
      <trkpt lat="45.10144" lon="5.52798">
        <ele>972.53802490234</ele>
        <time>2009-07-14T15:52:59Z</time>
      </trkpt>
      <trkpt lat="45.10098" lon="5.52738">
        <ele>973.18701171875</ele>
        <time>2009-07-14T15:53:05Z</time>
      </trkpt>
      <trkpt lat="45.10092" lon="5.52716">
        <ele>973.43499755859</ele>
        <time>2009-07-14T15:53:07Z</time>
      </trkpt>
      <trkpt lat="45.10072" lon="5.52639">
        <ele>974.1259765625</ele>
        <time>2009-07-14T15:53:13Z</time>
      </trkpt>
      <trkpt lat="45.10015" lon="5.5257">
        <ele>975.55700683594</ele>
        <time>2009-07-14T15:53:19Z</time>
      </trkpt>
      <trkpt lat="45.09932" lon="5.52514">
        <ele>975.85101318359</ele>
        <time>2009-07-14T15:53:28Z</time>
      </trkpt>
      <trkpt lat="45.09879" lon="5.52541">
        <ele>974.98999023438</ele>
        <time>2009-07-14T15:53:34Z</time>
      </trkpt>
      <trkpt lat="45.09874" lon="5.52554">
        <ele>974.6669921875</ele>
        <time>2009-07-14T15:53:35Z</time>
      </trkpt>
      <trkpt lat="45.09845" lon="5.52661">
        <ele>975.40600585938</ele>
        <time>2009-07-14T15:53:43Z</time>
      </trkpt>
      <trkpt lat="45.09811" lon="5.52718">
        <ele>975.4169921875</ele>
        <time>2009-07-14T15:53:48Z</time>
      </trkpt>
      <trkpt lat="45.09748" lon="5.52726">
        <ele>974.91400146484</ele>
        <time>2009-07-14T15:53:55Z</time>
      </trkpt>
      <trkpt lat="45.09735" lon="5.52701">
        <ele>974.78802490234</ele>
        <time>2009-07-14T15:53:57Z</time>
      </trkpt>
      <trkpt lat="45.09714" lon="5.52649">
        <ele>974.40502929688</ele>
        <time>2009-07-14T15:54:01Z</time>
      </trkpt>
      <trkpt lat="45.09652" lon="5.52606">
        <ele>972.04602050781</ele>
        <time>2009-07-14T15:54:08Z</time>
      </trkpt>
      <trkpt lat="45.09623" lon="5.52622">
        <ele>971.45697021484</ele>
        <time>2009-07-14T15:54:11Z</time>
      </trkpt>
      <trkpt lat="45.09594" lon="5.52647">
        <ele>970.99401855469</ele>
        <time>2009-07-14T15:54:14Z</time>
      </trkpt>
      <trkpt lat="45.09551" lon="5.52653">
        <ele>969.52600097656</ele>
        <time>2009-07-14T15:54:18Z</time>
      </trkpt>
      <trkpt lat="45.0953" lon="5.52648">
        <ele>969.17602539062</ele>
        <time>2009-07-14T15:54:20Z</time>
      </trkpt>
      <trkpt lat="45.0951" lon="5.5264">
        <ele>969.61297607422</ele>
        <time>2009-07-14T15:54:22Z</time>
      </trkpt>
      <trkpt lat="45.09472" lon="5.52613">
        <ele>969.60601806641</ele>
        <time>2009-07-14T15:54:26Z</time>
      </trkpt>
      <trkpt lat="45.09431" lon="5.52618">
        <ele>968.0419921875</ele>
        <time>2009-07-14T15:54:30Z</time>
      </trkpt>
      <trkpt lat="45.09422" lon="5.52627">
        <ele>967.958984375</ele>
        <time>2009-07-14T15:54:31Z</time>
      </trkpt>
      <trkpt lat="45.09346" lon="5.52711">
        <ele>966.62298583984</ele>
        <time>2009-07-14T15:54:40Z</time>
      </trkpt>
      <trkpt lat="45.09262" lon="5.52732">
        <ele>965.98797607422</ele>
        <time>2009-07-14T15:54:48Z</time>
      </trkpt>
      <trkpt lat="45.09222" lon="5.52681">
        <ele>964.80401611328</ele>
        <time>2009-07-14T15:54:53Z</time>
      </trkpt>
      <trkpt lat="45.09211" lon="5.52633">
        <ele>963.42999267578</ele>
        <time>2009-07-14T15:54:56Z</time>
      </trkpt>
      <trkpt lat="45.09206" lon="5.52581">
        <ele>962.98199462891</ele>
        <time>2009-07-14T15:54:59Z</time>
      </trkpt>
      <trkpt lat="45.09185" lon="5.52522">
        <ele>961.18200683594</ele>
        <time>2009-07-14T15:55:03Z</time>
      </trkpt>
      <trkpt lat="45.09161" lon="5.52449">
        <ele>960.33502197266</ele>
        <time>2009-07-14T15:55:08Z</time>
      </trkpt>
      <trkpt lat="45.09098" lon="5.5242">
        <ele>959.21002197266</ele>
        <time>2009-07-14T15:55:14Z</time>
      </trkpt>
      <trkpt lat="45.0907" lon="5.52444">
        <ele>960.71899414062</ele>
        <time>2009-07-14T15:55:17Z</time>
      </trkpt>
      <trkpt lat="45.08992" lon="5.52524">
        <ele>959.78698730469</ele>
        <time>2009-07-14T15:55:26Z</time>
      </trkpt>
      <trkpt lat="45.0892" lon="5.52531">
        <ele>958.78802490234</ele>
        <time>2009-07-14T15:55:33Z</time>
      </trkpt>
      <trkpt lat="45.08911" lon="5.52524">
        <ele>958.79302978516</ele>
        <time>2009-07-14T15:55:34Z</time>
      </trkpt>
      <trkpt lat="45.08874" lon="5.52491">
        <ele>957.47198486328</ele>
        <time>2009-07-14T15:55:38Z</time>
      </trkpt>
      <trkpt lat="45.08826" lon="5.52425">
        <ele>957.97198486328</ele>
        <time>2009-07-14T15:55:44Z</time>
      </trkpt>
      <trkpt lat="45.0875" lon="5.52396">
        <ele>957.54699707031</ele>
        <time>2009-07-14T15:55:51Z</time>
      </trkpt>
      <trkpt lat="45.08601" lon="5.52422">
        <ele>955.18298339844</ele>
        <time>2009-07-14T15:56:05Z</time>
      </trkpt>
      <trkpt lat="45.08583" lon="5.5239">
        <ele>954.75299072266</ele>
        <time>2009-07-14T15:56:10Z</time>
      </trkpt>
      <trkpt lat="45.08587" lon="5.52369">
        <ele>953.89697265625</ele>
        <time>2009-07-14T15:56:12Z</time>
      </trkpt>
      <trkpt lat="45.08604" lon="5.52293">
        <ele>955.29998779297</ele>
        <time>2009-07-14T15:56:19Z</time>
      </trkpt>
      <trkpt lat="45.08595" lon="5.52232">
        <ele>955.21099853516</ele>
        <time>2009-07-14T15:56:25Z</time>
      </trkpt>
      <trkpt lat="45.08554" lon="5.52182">
        <ele>956.08801269531</ele>
        <time>2009-07-14T15:56:32Z</time>
      </trkpt>
      <trkpt lat="45.0853" lon="5.52131">
        <ele>955.72601318359</ele>
        <time>2009-07-14T15:56:38Z</time>
      </trkpt>
      <trkpt lat="45.08471" lon="5.52041">
        <ele>955.86297607422</ele>
        <time>2009-07-14T15:56:49Z</time>
      </trkpt>
      <trkpt lat="45.0842" lon="5.52025">
        <ele>954.69097900391</ele>
        <time>2009-07-14T15:56:56Z</time>
      </trkpt>
      <trkpt lat="45.08404" lon="5.5203">
        <ele>953.68499755859</ele>
        <time>2009-07-14T15:56:58Z</time>
      </trkpt>
      <trkpt lat="45.08354" lon="5.52014">
        <ele>952.708984375</ele>
        <time>2009-07-14T15:57:03Z</time>
      </trkpt>
      <trkpt lat="45.08274" lon="5.52041">
        <ele>950.97998046875</ele>
        <time>2009-07-14T15:57:12Z</time>
      </trkpt>
      <trkpt lat="45.08256" lon="5.52052">
        <ele>950.78100585938</ele>
        <time>2009-07-14T15:57:14Z</time>
      </trkpt>
      <trkpt lat="45.08242" lon="5.52065">
        <ele>950.47198486328</ele>
        <time>2009-07-14T15:57:16Z</time>
      </trkpt>
      <trkpt lat="45.08203" lon="5.52133">
        <ele>948.63500976562</ele>
        <time>2009-07-14T15:57:23Z</time>
      </trkpt>
      <trkpt lat="45.0816" lon="5.52142">
        <ele>947.66998291016</ele>
        <time>2009-07-14T15:57:27Z</time>
      </trkpt>
      <trkpt lat="45.08131" lon="5.52153">
        <ele>947.26202392578</ele>
        <time>2009-07-14T15:57:31Z</time>
      </trkpt>
      <trkpt lat="45.081" lon="5.52166">
        <ele>947.36798095703</ele>
        <time>2009-07-14T15:57:34Z</time>
      </trkpt>
      <trkpt lat="45.07991" lon="5.52201">
        <ele>944.28399658203</ele>
        <time>2009-07-14T15:57:44Z</time>
      </trkpt>
      <trkpt lat="45.0789" lon="5.52182">
        <ele>941.05200195312</ele>
        <time>2009-07-14T15:57:51Z</time>
      </trkpt>
      <trkpt lat="45.07827" lon="5.52154">
        <ele>937.09802246094</ele>
        <time>2009-07-14T15:57:58Z</time>
      </trkpt>
      <trkpt lat="45.07727" lon="5.52123">
        <ele>928.02899169922</ele>
        <time>2009-07-14T15:58:06Z</time>
      </trkpt>
      <trkpt lat="45.07663" lon="5.52161">
        <ele>922.55102539062</ele>
        <time>2009-07-14T15:58:11Z</time>
      </trkpt>
      <trkpt lat="45.07591" lon="5.52196">
        <ele>919.49499511719</ele>
        <time>2009-07-14T15:58:15Z</time>
      </trkpt>
      <trkpt lat="45.07486" lon="5.52172">
        <ele>916.39001464844</ele>
        <time>2009-07-14T15:58:20Z</time>
      </trkpt>
      <trkpt lat="45.07467" lon="5.52161">
        <ele>915.46002197266</ele>
        <time>2009-07-14T15:58:21Z</time>
      </trkpt>
      <trkpt lat="45.07424" lon="5.52133">
        <ele>914.70397949219</ele>
        <time>2009-07-14T15:58:24Z</time>
      </trkpt>
      <trkpt lat="45.07413" lon="5.52095">
        <ele>911.26599121094</ele>
        <time>2009-07-14T15:58:29Z</time>
      </trkpt>
      <trkpt lat="45.0741" lon="5.52066">
        <ele>909.18902587891</ele>
        <time>2009-07-14T15:58:31Z</time>
      </trkpt>
      <trkpt lat="45.07367" lon="5.5206">
        <ele>906.26397705078</ele>
        <time>2009-07-14T15:58:35Z</time>
      </trkpt>
      <trkpt lat="45.0732" lon="5.52076">
        <ele>903.40997314453</ele>
        <time>2009-07-14T15:58:39Z</time>
      </trkpt>
      <trkpt lat="45.07287" lon="5.52072">
        <ele>901.44396972656</ele>
        <time>2009-07-14T15:58:42Z</time>
      </trkpt>
      <trkpt lat="45.07251" lon="5.52079">
        <ele>899.62200927734</ele>
        <time>2009-07-14T15:58:44Z</time>
      </trkpt>
      <trkpt lat="45.07193" lon="5.52091">
        <ele>898.63000488281</ele>
        <time>2009-07-14T15:58:47Z</time>
      </trkpt>
      <trkpt lat="45.07132" lon="5.52044">
        <ele>895.04797363281</ele>
        <time>2009-07-14T15:58:52Z</time>
      </trkpt>
      <trkpt lat="45.06895" lon="5.51932">
        <ele>880.70397949219</ele>
        <time>2009-07-14T15:59:09Z</time>
      </trkpt>
      <trkpt lat="45.06796" lon="5.51947">
        <ele>877.46398925781</ele>
        <time>2009-07-14T15:59:15Z</time>
      </trkpt>
      <trkpt lat="45.06746" lon="5.51927">
        <ele>874.20098876953</ele>
        <time>2009-07-14T15:59:19Z</time>
      </trkpt>
      <trkpt lat="45.06732" lon="5.51922">
        <ele>873.37902832031</ele>
        <time>2009-07-14T15:59:20Z</time>
      </trkpt>
      <trkpt lat="45.06702" lon="5.51919">
        <ele>872.11401367188</ele>
        <time>2009-07-14T15:59:22Z</time>
      </trkpt>
      <trkpt lat="45.06664" lon="5.51918">
        <ele>870.083984375</ele>
        <time>2009-07-14T15:59:26Z</time>
      </trkpt>
      <trkpt lat="45.06627" lon="5.51903">
        <ele>868.87902832031</ele>
        <time>2009-07-14T15:59:29Z</time>
      </trkpt>
      <trkpt lat="45.06449" lon="5.51782">
        <ele>864.21502685547</ele>
        <time>2009-07-14T15:59:35Z</time>
      </trkpt>
      <trkpt lat="45.06277" lon="5.51607">
        <ele>856.21899414062</ele>
        <time>2009-07-14T15:59:42Z</time>
      </trkpt>
      <trkpt lat="45.06251" lon="5.51594">
        <ele>855.66400146484</ele>
        <time>2009-07-14T15:59:43Z</time>
      </trkpt>
      <trkpt lat="45.06419" lon="5.51416">
        <ele>854.81298828125</ele>
        <time>2009-07-14T15:59:47Z</time>
      </trkpt>
      <trkpt lat="45.06421" lon="5.51397">
        <ele>854.74102783203</ele>
        <time>2009-07-14T15:59:48Z</time>
      </trkpt>
      <trkpt lat="45.06429" lon="5.51359">
        <ele>852.31201171875</ele>
        <time>2009-07-14T15:59:50Z</time>
      </trkpt>
      <trkpt lat="45.06432" lon="5.51341">
        <ele>851.30297851562</ele>
        <time>2009-07-14T15:59:51Z</time>
      </trkpt>
      <trkpt lat="45.06433" lon="5.51325">
        <ele>849.99798583984</ele>
        <time>2009-07-14T15:59:52Z</time>
      </trkpt>
      <trkpt lat="45.0643" lon="5.51297">
        <ele>848.76599121094</ele>
        <time>2009-07-14T15:59:54Z</time>
      </trkpt>
      <trkpt lat="45.06545" lon="5.51217">
        <ele>847.20501708984</ele>
        <time>2009-07-14T15:59:56Z</time>
      </trkpt>
      <trkpt lat="45.06608" lon="5.5116">
        <ele>846.39300537109</ele>
        <time>2009-07-14T15:59:58Z</time>
      </trkpt>
      <trkpt lat="45.06849" lon="5.50985">
        <ele>843.02099609375</ele>
        <time>2009-07-14T16:00:05Z</time>
      </trkpt>
      <trkpt lat="45.06886" lon="5.50878">
        <ele>837.28198242188</ele>
        <time>2009-07-14T16:00:10Z</time>
      </trkpt>
      <trkpt lat="45.06912" lon="5.50781">
        <ele>834.73400878906</ele>
        <time>2009-07-14T16:00:15Z</time>
      </trkpt>
      <trkpt lat="45.06944" lon="5.50687">
        <ele>830.01800537109</ele>
        <time>2009-07-14T16:00:20Z</time>
      </trkpt>
      <trkpt lat="45.06984" lon="5.50605">
        <ele>823.59899902344</ele>
        <time>2009-07-14T16:00:25Z</time>
      </trkpt>
      <trkpt lat="45.07024" lon="5.50545">
        <ele>821.82897949219</ele>
        <time>2009-07-14T16:00:29Z</time>
      </trkpt>
      <trkpt lat="45.07034" lon="5.50492">
        <ele>818.54302978516</ele>
        <time>2009-07-14T16:00:32Z</time>
      </trkpt>
      <trkpt lat="45.07021" lon="5.50416">
        <ele>817.33099365234</ele>
        <time>2009-07-14T16:00:36Z</time>
      </trkpt>
      <trkpt lat="45.07016" lon="5.50363">
        <ele>815.32000732422</ele>
        <time>2009-07-14T16:00:39Z</time>
      </trkpt>
      <trkpt lat="45.0702" lon="5.50329">
        <ele>814.42901611328</ele>
        <time>2009-07-14T16:00:41Z</time>
      </trkpt>
      <trkpt lat="45.07023" lon="5.50295">
        <ele>813.16802978516</ele>
        <time>2009-07-14T16:00:43Z</time>
      </trkpt>
      <trkpt lat="45.07009" lon="5.50194">
        <ele>809.27697753906</ele>
        <time>2009-07-14T16:00:49Z</time>
      </trkpt>
      <trkpt lat="45.07008" lon="5.50167">
        <ele>808.74798583984</ele>
        <time>2009-07-14T16:00:51Z</time>
      </trkpt>
      <trkpt lat="45.07026" lon="5.50121">
        <ele>805.10400390625</ele>
        <time>2009-07-14T16:00:55Z</time>
      </trkpt>
      <trkpt lat="45.07064" lon="5.50011">
        <ele>800.27697753906</ele>
        <time>2009-07-14T16:01:01Z</time>
      </trkpt>
      <trkpt lat="45.0706" lon="5.4996">
        <ele>798.80297851562</ele>
        <time>2009-07-14T16:01:04Z</time>
      </trkpt>
      <trkpt lat="45.07062" lon="5.49927">
        <ele>796.72399902344</ele>
        <time>2009-07-14T16:01:06Z</time>
      </trkpt>
      <trkpt lat="45.07093" lon="5.49826">
        <ele>792.56402587891</ele>
        <time>2009-07-14T16:01:13Z</time>
      </trkpt>
      <trkpt lat="45.07107" lon="5.49797">
        <ele>790.89599609375</ele>
        <time>2009-07-14T16:01:15Z</time>
      </trkpt>
      <trkpt lat="45.07163" lon="5.49709">
        <ele>786.80102539062</ele>
        <time>2009-07-14T16:01:20Z</time>
      </trkpt>
      <trkpt lat="45.07159" lon="5.49479">
        <ele>776.36999511719</ele>
        <time>2009-07-14T16:01:33Z</time>
      </trkpt>
      <trkpt lat="45.07163" lon="5.49384">
        <ele>772.42901611328</ele>
        <time>2009-07-14T16:01:39Z</time>
      </trkpt>
      <trkpt lat="45.07167" lon="5.49369">
        <ele>771.19702148438</ele>
        <time>2009-07-14T16:01:40Z</time>
      </trkpt>
      <trkpt lat="45.07178" lon="5.4934">
        <ele>770.24798583984</ele>
        <time>2009-07-14T16:01:42Z</time>
      </trkpt>
      <trkpt lat="45.07201" lon="5.49299">
        <ele>768.03601074219</ele>
        <time>2009-07-14T16:01:45Z</time>
      </trkpt>
      <trkpt lat="45.07256" lon="5.49279">
        <ele>765.13500976562</ele>
        <time>2009-07-14T16:01:48Z</time>
      </trkpt>
      <trkpt lat="45.07268" lon="5.49275">
        <ele>763.8330078125</ele>
        <time>2009-07-14T16:01:49Z</time>
      </trkpt>
      <trkpt lat="45.07283" lon="5.49261">
        <ele>762.23101806641</ele>
        <time>2009-07-14T16:01:51Z</time>
      </trkpt>
      <trkpt lat="45.07302" lon="5.49244">
        <ele>760.17297363281</ele>
        <time>2009-07-14T16:01:53Z</time>
      </trkpt>
      <trkpt lat="45.07313" lon="5.49236">
        <ele>759.65002441406</ele>
        <time>2009-07-14T16:01:54Z</time>
      </trkpt>
      <trkpt lat="45.07366" lon="5.49209">
        <ele>755.91302490234</ele>
        <time>2009-07-14T16:01:59Z</time>
      </trkpt>
      <trkpt lat="45.07431" lon="5.49239">
        <ele>757.29797363281</ele>
        <time>2009-07-14T16:02:05Z</time>
      </trkpt>
      <trkpt lat="45.07451" lon="5.49233">
        <ele>755.99200439453</ele>
        <time>2009-07-14T16:02:07Z</time>
      </trkpt>
      <trkpt lat="45.07494" lon="5.49168">
        <ele>753.76501464844</ele>
        <time>2009-07-14T16:02:13Z</time>
      </trkpt>
      <trkpt lat="45.07589" lon="5.49112">
        <ele>750.34301757812</ele>
        <time>2009-07-14T16:02:23Z</time>
      </trkpt>
      <trkpt lat="45.0764" lon="5.49073">
        <ele>747.49798583984</ele>
        <time>2009-07-14T16:02:30Z</time>
      </trkpt>
      <trkpt lat="45.07653" lon="5.49061">
        <ele>746.86602783203</ele>
        <time>2009-07-14T16:02:32Z</time>
      </trkpt>
      <trkpt lat="45.07668" lon="5.49049">
        <ele>746.15002441406</ele>
        <time>2009-07-14T16:02:34Z</time>
      </trkpt>
      <trkpt lat="45.07758" lon="5.49012">
        <ele>742.52697753906</ele>
        <time>2009-07-14T16:02:45Z</time>
      </trkpt>
      <trkpt lat="45.07792" lon="5.49002">
        <ele>739.52301025391</ele>
        <time>2009-07-14T16:02:49Z</time>
      </trkpt>
      <trkpt lat="45.07844" lon="5.49007">
        <ele>738.17401123047</ele>
        <time>2009-07-14T16:02:55Z</time>
      </trkpt>
      <trkpt lat="45.07883" lon="5.49">
        <ele>736.73901367188</ele>
        <time>2009-07-14T16:03:00Z</time>
      </trkpt>
      <trkpt lat="45.07937" lon="5.48959">
        <ele>734.21398925781</ele>
        <time>2009-07-14T16:03:07Z</time>
      </trkpt>
      <trkpt lat="45.07995" lon="5.48928">
        <ele>730.60900878906</ele>
        <time>2009-07-14T16:03:14Z</time>
      </trkpt>
      <trkpt lat="45.08037" lon="5.48909">
        <ele>729.24401855469</ele>
        <time>2009-07-14T16:03:19Z</time>
      </trkpt>
      <trkpt lat="45.08133" lon="5.48853">
        <ele>725.89202880859</ele>
        <time>2009-07-14T16:03:31Z</time>
      </trkpt>
      <trkpt lat="45.08164" lon="5.48827">
        <ele>725.05297851562</ele>
        <time>2009-07-14T16:03:35Z</time>
      </trkpt>
      <trkpt lat="45.08189" lon="5.48744">
        <ele>722.17297363281</ele>
        <time>2009-07-14T16:03:42Z</time>
      </trkpt>
      <trkpt lat="45.08192" lon="5.48704">
        <ele>720.45098876953</ele>
        <time>2009-07-14T16:03:45Z</time>
      </trkpt>
      <trkpt lat="45.08196" lon="5.48609">
        <ele>718.21002197266</ele>
        <time>2009-07-14T16:03:52Z</time>
      </trkpt>
      <trkpt lat="45.08218" lon="5.48536">
        <ele>715.20300292969</ele>
        <time>2009-07-14T16:03:58Z</time>
      </trkpt>
      <trkpt lat="45.08232" lon="5.48519">
        <ele>715.35900878906</ele>
        <time>2009-07-14T16:04:00Z</time>
      </trkpt>
      <trkpt lat="45.0827" lon="5.48492">
        <ele>715.19702148438</ele>
        <time>2009-07-14T16:04:05Z</time>
      </trkpt>
      <trkpt lat="45.08355" lon="5.4847">
        <ele>712.36102294922</ele>
        <time>2009-07-14T16:04:16Z</time>
      </trkpt>
      <trkpt lat="45.08374" lon="5.48464">
        <ele>712.36602783203</ele>
        <time>2009-07-14T16:04:18Z</time>
      </trkpt>
      <trkpt lat="45.08408" lon="5.48417">
        <ele>713.65802001953</ele>
        <time>2009-07-14T16:04:23Z</time>
      </trkpt>
      <trkpt lat="45.08409" lon="5.48403">
        <ele>713.23101806641</ele>
        <time>2009-07-14T16:04:24Z</time>
      </trkpt>
      <trkpt lat="45.08419" lon="5.48344">
        <ele>711.67999267578</ele>
        <time>2009-07-14T16:04:28Z</time>
      </trkpt>
      <trkpt lat="45.08422" lon="5.48287">
        <ele>711.50799560547</ele>
        <time>2009-07-14T16:04:32Z</time>
      </trkpt>
      <trkpt lat="45.08435" lon="5.48195">
        <ele>710.73101806641</ele>
        <time>2009-07-14T16:04:39Z</time>
      </trkpt>
      <trkpt lat="45.08493" lon="5.48087">
        <ele>708.40802001953</ele>
        <time>2009-07-14T16:04:49Z</time>
      </trkpt>
      <trkpt lat="45.0852" lon="5.47993">
        <ele>707.44598388672</ele>
        <time>2009-07-14T16:04:56Z</time>
      </trkpt>
      <trkpt lat="45.08563" lon="5.479">
        <ele>706.15100097656</ele>
        <time>2009-07-14T16:05:04Z</time>
      </trkpt>
      <trkpt lat="45.08577" lon="5.47848">
        <ele>705.21099853516</ele>
        <time>2009-07-14T16:05:08Z</time>
      </trkpt>
      <trkpt lat="45.0858" lon="5.47821">
        <ele>704.68798828125</ele>
        <time>2009-07-14T16:05:10Z</time>
      </trkpt>
      <trkpt lat="45.08599" lon="5.47774">
        <ele>704.00897216797</ele>
        <time>2009-07-14T16:05:14Z</time>
      </trkpt>
      <trkpt lat="45.08633" lon="5.47711">
        <ele>704.38098144531</ele>
        <time>2009-07-14T16:05:20Z</time>
      </trkpt>
      <trkpt lat="45.08695" lon="5.47582">
        <ele>701.73602294922</ele>
        <time>2009-07-14T16:05:32Z</time>
      </trkpt>
      <trkpt lat="45.08755" lon="5.47457">
        <ele>702.41400146484</ele>
        <time>2009-07-14T16:05:43Z</time>
      </trkpt>
      <trkpt lat="45.08765" lon="5.47432">
        <ele>702.07598876953</ele>
        <time>2009-07-14T16:05:45Z</time>
      </trkpt>
      <trkpt lat="45.08782" lon="5.47378">
        <ele>701.72601318359</ele>
        <time>2009-07-14T16:05:49Z</time>
      </trkpt>
      <trkpt lat="45.08867" lon="5.47234">
        <ele>699.58197021484</ele>
        <time>2009-07-14T16:06:02Z</time>
      </trkpt>
      <trkpt lat="45.08963" lon="5.4708">
        <ele>697.10101318359</ele>
        <time>2009-07-14T16:06:17Z</time>
      </trkpt>
      <trkpt lat="45.08979" lon="5.47034">
        <ele>695.18103027344</ele>
        <time>2009-07-14T16:06:21Z</time>
      </trkpt>
      <trkpt lat="45.08983" lon="5.46986">
        <ele>695.02697753906</ele>
        <time>2009-07-14T16:06:25Z</time>
      </trkpt>
      <trkpt lat="45.08961" lon="5.46916">
        <ele>695.84301757812</ele>
        <time>2009-07-14T16:06:32Z</time>
      </trkpt>
      <trkpt lat="45.08924" lon="5.46878">
        <ele>695.63299560547</ele>
        <time>2009-07-14T16:06:38Z</time>
      </trkpt>
      <trkpt lat="45.08887" lon="5.46857">
        <ele>695.05603027344</ele>
        <time>2009-07-14T16:06:43Z</time>
      </trkpt>
      <trkpt lat="45.08845" lon="5.46834">
        <ele>694.75897216797</ele>
        <time>2009-07-14T16:06:49Z</time>
      </trkpt>
      <trkpt lat="45.08834" lon="5.46794">
        <ele>694.95098876953</ele>
        <time>2009-07-14T16:06:56Z</time>
      </trkpt>
      <trkpt lat="45.08835" lon="5.46787">
        <ele>695.24401855469</ele>
        <time>2009-07-14T16:06:58Z</time>
      </trkpt>
      <trkpt lat="45.08833" lon="5.46784">
        <ele>695.17199707031</ele>
        <time>2009-07-14T16:07:02Z</time>
      </trkpt>
      <trkpt lat="45.08832" lon="5.46784">
        <ele>695.31799316406</ele>
        <time>2009-07-14T16:07:05Z</time>
      </trkpt>
      <trkpt lat="45.08826" lon="5.46781">
        <ele>690.88598632812</ele>
        <time>2009-07-14T16:10:06Z</time>
      </trkpt>
      <trkpt lat="45.08825" lon="5.46781">
        <ele>690.68103027344</ele>
        <time>2009-07-14T16:10:07Z</time>
      </trkpt>
      <trkpt lat="45.08821" lon="5.46779">
        <ele>690.77697753906</ele>
        <time>2009-07-14T16:10:09Z</time>
      </trkpt>
      <trkpt lat="45.08806" lon="5.46744">
        <ele>690.60900878906</ele>
        <time>2009-07-14T16:10:23Z</time>
      </trkpt>
      <trkpt lat="45.0879" lon="5.46694">
        <ele>689.68499755859</ele>
        <time>2009-07-14T16:10:30Z</time>
      </trkpt>
      <trkpt lat="45.0878" lon="5.46665">
        <ele>689.11901855469</ele>
        <time>2009-07-14T16:10:33Z</time>
      </trkpt>
      <trkpt lat="45.0877" lon="5.46642">
        <ele>688.56597900391</ele>
        <time>2009-07-14T16:10:35Z</time>
      </trkpt>
      <trkpt lat="45.08754" lon="5.46612">
        <ele>688.54498291016</ele>
        <time>2009-07-14T16:10:38Z</time>
      </trkpt>
      <trkpt lat="45.08748" lon="5.46602">
        <ele>688.59197998047</ele>
        <time>2009-07-14T16:10:39Z</time>
      </trkpt>
      <trkpt lat="45.0874" lon="5.46581">
        <ele>688.36901855469</ele>
        <time>2009-07-14T16:10:41Z</time>
      </trkpt>
      <trkpt lat="45.08736" lon="5.46569">
        <ele>687.92700195312</ele>
        <time>2009-07-14T16:10:42Z</time>
      </trkpt>
      <trkpt lat="45.08731" lon="5.46531">
        <ele>686.45397949219</ele>
        <time>2009-07-14T16:10:45Z</time>
      </trkpt>
      <trkpt lat="45.08732" lon="5.46505">
        <ele>686.24298095703</ele>
        <time>2009-07-14T16:10:47Z</time>
      </trkpt>
      <trkpt lat="45.08735" lon="5.46466">
        <ele>685.78497314453</ele>
        <time>2009-07-14T16:10:50Z</time>
      </trkpt>
      <trkpt lat="45.08704" lon="5.46322">
        <ele>684.46002197266</ele>
        <time>2009-07-14T16:11:02Z</time>
      </trkpt>
      <trkpt lat="45.08682" lon="5.46248">
        <ele>682.44897460938</ele>
        <time>2009-07-14T16:11:08Z</time>
      </trkpt>
      <trkpt lat="45.0868" lon="5.46221">
        <ele>681.76397705078</ele>
        <time>2009-07-14T16:11:10Z</time>
      </trkpt>
      <trkpt lat="45.08681" lon="5.46179">
        <ele>680.76000976562</ele>
        <time>2009-07-14T16:11:13Z</time>
      </trkpt>
      <trkpt lat="45.08666" lon="5.46115">
        <ele>680.72802734375</ele>
        <time>2009-07-14T16:11:18Z</time>
      </trkpt>
      <trkpt lat="45.08641" lon="5.46058">
        <ele>679.37902832031</ele>
        <time>2009-07-14T16:11:23Z</time>
      </trkpt>
      <trkpt lat="45.08613" lon="5.46028">
        <ele>679.53698730469</ele>
        <time>2009-07-14T16:11:27Z</time>
      </trkpt>
      <trkpt lat="45.08495" lon="5.45945">
        <ele>679.35900878906</ele>
        <time>2009-07-14T16:11:41Z</time>
      </trkpt>
      <trkpt lat="45.08472" lon="5.45922">
        <ele>678.75500488281</ele>
        <time>2009-07-14T16:11:44Z</time>
      </trkpt>
      <trkpt lat="45.08395" lon="5.45859">
        <ele>677.99298095703</ele>
        <time>2009-07-14T16:11:53Z</time>
      </trkpt>
      <trkpt lat="45.08378" lon="5.45846">
        <ele>677.88299560547</ele>
        <time>2009-07-14T16:11:55Z</time>
      </trkpt>
      <trkpt lat="45.0831" lon="5.45794">
        <ele>676.89202880859</ele>
        <time>2009-07-14T16:12:03Z</time>
      </trkpt>
      <trkpt lat="45.08293" lon="5.45774">
        <ele>675.75799560547</ele>
        <time>2009-07-14T16:12:06Z</time>
      </trkpt>
      <trkpt lat="45.08239" lon="5.4577">
        <ele>672.64202880859</ele>
        <time>2009-07-14T16:12:13Z</time>
      </trkpt>
      <trkpt lat="45.08195" lon="5.45745">
        <ele>668.66998291016</ele>
        <time>2009-07-14T16:12:17Z</time>
      </trkpt>
      <trkpt lat="45.08187" lon="5.45736">
        <ele>668.35400390625</ele>
        <time>2009-07-14T16:12:18Z</time>
      </trkpt>
      <trkpt lat="45.08136" lon="5.45696">
        <ele>665.81298828125</ele>
        <time>2009-07-14T16:12:24Z</time>
      </trkpt>
      <trkpt lat="45.08106" lon="5.45673">
        <ele>662.88897705078</ele>
        <time>2009-07-14T16:12:27Z</time>
      </trkpt>
      <trkpt lat="45.08086" lon="5.45652">
        <ele>661.916015625</ele>
        <time>2009-07-14T16:12:29Z</time>
      </trkpt>
      <trkpt lat="45.08053" lon="5.45623">
        <ele>658.79797363281</ele>
        <time>2009-07-14T16:12:32Z</time>
      </trkpt>
      <trkpt lat="45.08005" lon="5.45556">
        <ele>652.20501708984</ele>
        <time>2009-07-14T16:12:37Z</time>
      </trkpt>
      <trkpt lat="45.07891" lon="5.45445">
        <ele>643.99298095703</ele>
        <time>2009-07-14T16:12:47Z</time>
      </trkpt>
      <trkpt lat="45.07832" lon="5.45392">
        <ele>639.53900146484</ele>
        <time>2009-07-14T16:12:52Z</time>
      </trkpt>
      <trkpt lat="45.0781" lon="5.45367">
        <ele>638.56201171875</ele>
        <time>2009-07-14T16:12:54Z</time>
      </trkpt>
      <trkpt lat="45.07771" lon="5.45312">
        <ele>633.72302246094</ele>
        <time>2009-07-14T16:12:58Z</time>
      </trkpt>
      <trkpt lat="45.07683" lon="5.45026">
        <ele>619.35601806641</ele>
        <time>2009-07-14T16:13:15Z</time>
      </trkpt>
      <trkpt lat="45.0766" lon="5.45007">
        <ele>618.08001708984</ele>
        <time>2009-07-14T16:13:17Z</time>
      </trkpt>
      <trkpt lat="45.07547" lon="5.44908">
        <ele>609.23699951172</ele>
        <time>2009-07-14T16:13:27Z</time>
      </trkpt>
      <trkpt lat="45.07442" lon="5.44821">
        <ele>602.44799804688</ele>
        <time>2009-07-14T16:13:36Z</time>
      </trkpt>
      <trkpt lat="45.07417" lon="5.44755">
        <ele>600.07000732422</ele>
        <time>2009-07-14T16:13:40Z</time>
      </trkpt>
      <trkpt lat="45.07404" lon="5.44743">
        <ele>599.89099121094</ele>
        <time>2009-07-14T16:13:41Z</time>
      </trkpt>
      <trkpt lat="45.07378" lon="5.44729">
        <ele>597.58099365234</ele>
        <time>2009-07-14T16:13:43Z</time>
      </trkpt>
      <trkpt lat="45.07352" lon="5.44718">
        <ele>596.58197021484</ele>
        <time>2009-07-14T16:13:45Z</time>
      </trkpt>
      <trkpt lat="45.07339" lon="5.44716">
        <ele>596.15197753906</ele>
        <time>2009-07-14T16:13:46Z</time>
      </trkpt>
      <trkpt lat="45.07285" lon="5.44687">
        <ele>592.36401367188</ele>
        <time>2009-07-14T16:13:51Z</time>
      </trkpt>
      <trkpt lat="45.07263" lon="5.44655">
        <ele>589.86499023438</ele>
        <time>2009-07-14T16:13:54Z</time>
      </trkpt>
      <trkpt lat="45.07234" lon="5.44554">
        <ele>585.66101074219</ele>
        <time>2009-07-14T16:14:01Z</time>
      </trkpt>
      <trkpt lat="45.07219" lon="5.44473">
        <ele>580.75500488281</ele>
        <time>2009-07-14T16:14:06Z</time>
      </trkpt>
      <trkpt lat="45.0719" lon="5.44438">
        <ele>578.41302490234</ele>
        <time>2009-07-14T16:14:09Z</time>
      </trkpt>
      <trkpt lat="45.07167" lon="5.4442">
        <ele>577.17199707031</ele>
        <time>2009-07-14T16:14:11Z</time>
      </trkpt>
      <trkpt lat="45.07149" lon="5.44325">
        <ele>573.70098876953</ele>
        <time>2009-07-14T16:14:18Z</time>
      </trkpt>
      <trkpt lat="45.07121" lon="5.44248">
        <ele>567.14599609375</ele>
        <time>2009-07-14T16:14:24Z</time>
      </trkpt>
      <trkpt lat="45.0709" lon="5.44083">
        <ele>559.87701416016</ele>
        <time>2009-07-14T16:14:33Z</time>
      </trkpt>
      <trkpt lat="45.07031" lon="5.43993">
        <ele>555.26300048828</ele>
        <time>2009-07-14T16:14:40Z</time>
      </trkpt>
      <trkpt lat="45.0701" lon="5.4397">
        <ele>552.76501464844</ele>
        <time>2009-07-14T16:14:42Z</time>
      </trkpt>
      <trkpt lat="45.06961" lon="5.43879">
        <ele>547.29901123047</ele>
        <time>2009-07-14T16:14:48Z</time>
      </trkpt>
      <trkpt lat="45.06929" lon="5.43775">
        <ele>542.86798095703</ele>
        <time>2009-07-14T16:14:54Z</time>
      </trkpt>
      <trkpt lat="45.06899" lon="5.4371">
        <ele>539.52398681641</ele>
        <time>2009-07-14T16:14:58Z</time>
      </trkpt>
      <trkpt lat="45.06838" lon="5.43543">
        <ele>532.48699951172</ele>
        <time>2009-07-14T16:15:08Z</time>
      </trkpt>
      <trkpt lat="45.06827" lon="5.43472">
        <ele>530.31201171875</ele>
        <time>2009-07-14T16:15:12Z</time>
      </trkpt>
      <trkpt lat="45.06827" lon="5.43401">
        <ele>527.94799804688</ele>
        <time>2009-07-14T16:15:16Z</time>
      </trkpt>
      <trkpt lat="45.06827" lon="5.43365">
        <ele>527.63897705078</ele>
        <time>2009-07-14T16:15:18Z</time>
      </trkpt>
      <trkpt lat="45.06808" lon="5.43281">
        <ele>524.13598632812</ele>
        <time>2009-07-14T16:15:23Z</time>
      </trkpt>
      <trkpt lat="45.06771" lon="5.43186">
        <ele>520.60101318359</ele>
        <time>2009-07-14T16:15:29Z</time>
      </trkpt>
      <trkpt lat="45.06733" lon="5.43112">
        <ele>517.59698486328</ele>
        <time>2009-07-14T16:15:34Z</time>
      </trkpt>
      <trkpt lat="45.06713" lon="5.43089">
        <ele>516.38201904297</ele>
        <time>2009-07-14T16:15:36Z</time>
      </trkpt>
      <trkpt lat="45.06681" lon="5.43034">
        <ele>512.81500244141</ele>
        <time>2009-07-14T16:15:40Z</time>
      </trkpt>
      <trkpt lat="45.06647" lon="5.4298">
        <ele>509.91101074219</ele>
        <time>2009-07-14T16:15:44Z</time>
      </trkpt>
      <trkpt lat="45.06614" lon="5.4295">
        <ele>507.60501098633</ele>
        <time>2009-07-14T16:15:47Z</time>
      </trkpt>
      <trkpt lat="45.06603" lon="5.4294">
        <ele>507.36700439453</ele>
        <time>2009-07-14T16:15:48Z</time>
      </trkpt>
      <trkpt lat="45.06544" lon="5.42869">
        <ele>502.56900024414</ele>
        <time>2009-07-14T16:15:54Z</time>
      </trkpt>
      <trkpt lat="45.06519" lon="5.42805">
        <ele>499.13101196289</ele>
        <time>2009-07-14T16:15:58Z</time>
      </trkpt>
      <trkpt lat="45.06512" lon="5.42789">
        <ele>498.71899414062</ele>
        <time>2009-07-14T16:15:59Z</time>
      </trkpt>
      <trkpt lat="45.06464" lon="5.42729">
        <ele>495.26501464844</ele>
        <time>2009-07-14T16:16:04Z</time>
      </trkpt>
      <trkpt lat="45.06414" lon="5.42706">
        <ele>491.48001098633</ele>
        <time>2009-07-14T16:16:08Z</time>
      </trkpt>
      <trkpt lat="45.06364" lon="5.42606">
        <ele>486.27899169922</ele>
        <time>2009-07-14T16:16:15Z</time>
      </trkpt>
      <trkpt lat="45.06336" lon="5.42409">
        <ele>478.35501098633</ele>
        <time>2009-07-14T16:16:26Z</time>
      </trkpt>
      <trkpt lat="45.06329" lon="5.42317">
        <ele>474.96398925781</ele>
        <time>2009-07-14T16:16:31Z</time>
      </trkpt>
      <trkpt lat="45.06321" lon="5.42223">
        <ele>470.43099975586</ele>
        <time>2009-07-14T16:16:36Z</time>
      </trkpt>
      <trkpt lat="45.06311" lon="5.42148">
        <ele>467.29998779297</ele>
        <time>2009-07-14T16:16:40Z</time>
      </trkpt>
      <trkpt lat="45.06304" lon="5.42111">
        <ele>467.16000366211</ele>
        <time>2009-07-14T16:16:42Z</time>
      </trkpt>
      <trkpt lat="45.06272" lon="5.42052">
        <ele>463.45401000977</ele>
        <time>2009-07-14T16:16:46Z</time>
      </trkpt>
      <trkpt lat="45.06157" lon="5.41911">
        <ele>455.5719909668</ele>
        <time>2009-07-14T16:16:57Z</time>
      </trkpt>
      <trkpt lat="45.06131" lon="5.41866">
        <ele>455.51501464844</ele>
        <time>2009-07-14T16:17:00Z</time>
      </trkpt>
      <trkpt lat="45.0611" lon="5.41778">
        <ele>447.29400634766</ele>
        <time>2009-07-14T16:17:05Z</time>
      </trkpt>
      <trkpt lat="45.06084" lon="5.41652">
        <ele>442.55599975586</ele>
        <time>2009-07-14T16:17:12Z</time>
      </trkpt>
      <trkpt lat="45.06082" lon="5.41575">
        <ele>438.42599487305</ele>
        <time>2009-07-14T16:17:16Z</time>
      </trkpt>
      <trkpt lat="45.06059" lon="5.41478">
        <ele>434.78201293945</ele>
        <time>2009-07-14T16:17:22Z</time>
      </trkpt>
      <trkpt lat="45.06027" lon="5.41405">
        <ele>431.30599975586</ele>
        <time>2009-07-14T16:17:27Z</time>
      </trkpt>
      <trkpt lat="45.06021" lon="5.41335">
        <ele>429.42498779297</ele>
        <time>2009-07-14T16:17:31Z</time>
      </trkpt>
      <trkpt lat="45.06008" lon="5.41303">
        <ele>428.30099487305</ele>
        <time>2009-07-14T16:17:33Z</time>
      </trkpt>
      <trkpt lat="45.05983" lon="5.41162">
        <ele>422.79800415039</ele>
        <time>2009-07-14T16:17:41Z</time>
      </trkpt>
      <trkpt lat="45.05946" lon="5.41098">
        <ele>420.21499633789</ele>
        <time>2009-07-14T16:17:46Z</time>
      </trkpt>
      <trkpt lat="45.05911" lon="5.41077">
        <ele>418.63900756836</ele>
        <time>2009-07-14T16:17:49Z</time>
      </trkpt>
      <trkpt lat="45.0587" lon="5.41008">
        <ele>415.00299072266</ele>
        <time>2009-07-14T16:17:54Z</time>
      </trkpt>
      <trkpt lat="45.0589" lon="5.40951">
        <ele>411.59600830078</ele>
        <time>2009-07-14T16:17:58Z</time>
      </trkpt>
      <trkpt lat="45.05904" lon="5.40904">
        <ele>409.34100341797</ele>
        <time>2009-07-14T16:18:01Z</time>
      </trkpt>
      <trkpt lat="45.05927" lon="5.40828">
        <ele>406.10900878906</ele>
        <time>2009-07-14T16:18:06Z</time>
      </trkpt>
      <trkpt lat="45.05938" lon="5.4082">
        <ele>404.73199462891</ele>
        <time>2009-07-14T16:18:07Z</time>
      </trkpt>
      <trkpt lat="45.05981" lon="5.40784">
        <ele>402.39898681641</ele>
        <time>2009-07-14T16:18:11Z</time>
      </trkpt>
      <trkpt lat="45.06013" lon="5.40756">
        <ele>399.38500976562</ele>
        <time>2009-07-14T16:18:14Z</time>
      </trkpt>
      <trkpt lat="45.0604" lon="5.40721">
        <ele>397.82699584961</ele>
        <time>2009-07-14T16:18:17Z</time>
      </trkpt>
      <trkpt lat="45.06067" lon="5.40666">
        <ele>395.11801147461</ele>
        <time>2009-07-14T16:18:21Z</time>
      </trkpt>
      <trkpt lat="45.06109" lon="5.40649">
        <ele>392.94799804688</ele>
        <time>2009-07-14T16:18:25Z</time>
      </trkpt>
      <trkpt lat="45.06147" lon="5.40623">
        <ele>391.08999633789</ele>
        <time>2009-07-14T16:18:29Z</time>
      </trkpt>
      <trkpt lat="45.06164" lon="5.4058">
        <ele>388.68301391602</ele>
        <time>2009-07-14T16:18:32Z</time>
      </trkpt>
      <trkpt lat="45.06176" lon="5.40532">
        <ele>386.66000366211</ele>
        <time>2009-07-14T16:18:35Z</time>
      </trkpt>
      <trkpt lat="45.06169" lon="5.40466">
        <ele>383.82598876953</ele>
        <time>2009-07-14T16:18:39Z</time>
      </trkpt>
      <trkpt lat="45.06196" lon="5.4035">
        <ele>378.03298950195</ele>
        <time>2009-07-14T16:18:46Z</time>
      </trkpt>
      <trkpt lat="45.06216" lon="5.40308">
        <ele>376.62799072266</ele>
        <time>2009-07-14T16:18:49Z</time>
      </trkpt>
      <trkpt lat="45.0623" lon="5.40281">
        <ele>375.91000366211</ele>
        <time>2009-07-14T16:18:51Z</time>
      </trkpt>
      <trkpt lat="45.06239" lon="5.40199">
        <ele>371.64001464844</ele>
        <time>2009-07-14T16:18:56Z</time>
      </trkpt>
      <trkpt lat="45.06268" lon="5.4005">
        <ele>363.3030090332</ele>
        <time>2009-07-14T16:19:05Z</time>
      </trkpt>
      <trkpt lat="45.06282" lon="5.40023">
        <ele>362.4700012207</ele>
        <time>2009-07-14T16:19:07Z</time>
      </trkpt>
      <trkpt lat="45.0631" lon="5.39993">
        <ele>360.61999511719</ele>
        <time>2009-07-14T16:19:10Z</time>
      </trkpt>
      <trkpt lat="45.06342" lon="5.39969">
        <ele>358.43200683594</ele>
        <time>2009-07-14T16:19:13Z</time>
      </trkpt>
      <trkpt lat="45.0638" lon="5.39928">
        <ele>355.60699462891</ele>
        <time>2009-07-14T16:19:17Z</time>
      </trkpt>
      <trkpt lat="45.06421" lon="5.39889">
        <ele>351.72601318359</ele>
        <time>2009-07-14T16:19:21Z</time>
      </trkpt>
      <trkpt lat="45.06461" lon="5.39824">
        <ele>347.9880065918</ele>
        <time>2009-07-14T16:19:26Z</time>
      </trkpt>
      <trkpt lat="45.0649" lon="5.39769">
        <ele>344.97601318359</ele>
        <time>2009-07-14T16:19:30Z</time>
      </trkpt>
      <trkpt lat="45.0654" lon="5.39674">
        <ele>341.23400878906</ele>
        <time>2009-07-14T16:19:37Z</time>
      </trkpt>
      <trkpt lat="45.06555" lon="5.39593">
        <ele>337.34799194336</ele>
        <time>2009-07-14T16:19:42Z</time>
      </trkpt>
      <trkpt lat="45.06549" lon="5.39484">
        <ele>331.50900268555</ele>
        <time>2009-07-14T16:19:48Z</time>
      </trkpt>
      <trkpt lat="45.06549" lon="5.39466">
        <ele>330.88101196289</ele>
        <time>2009-07-14T16:19:49Z</time>
      </trkpt>
      <trkpt lat="45.06586" lon="5.39362">
        <ele>326.31500244141</ele>
        <time>2009-07-14T16:19:56Z</time>
      </trkpt>
      <trkpt lat="45.06603" lon="5.39339">
        <ele>325.10998535156</ele>
        <time>2009-07-14T16:19:58Z</time>
      </trkpt>
      <trkpt lat="45.06623" lon="5.393">
        <ele>324.20098876953</ele>
        <time>2009-07-14T16:20:01Z</time>
      </trkpt>
      <trkpt lat="45.06678" lon="5.39264">
        <ele>322.92700195312</ele>
        <time>2009-07-14T16:20:07Z</time>
      </trkpt>
      <trkpt lat="45.06706" lon="5.39235">
        <ele>322.12399291992</ele>
        <time>2009-07-14T16:20:11Z</time>
      </trkpt>
      <trkpt lat="45.06699" lon="5.39209">
        <ele>322.02600097656</ele>
        <time>2009-07-14T16:20:13Z</time>
      </trkpt>
      <trkpt lat="45.06688" lon="5.39126">
        <ele>323.07901000977</ele>
        <time>2009-07-14T16:20:20Z</time>
      </trkpt>
      <trkpt lat="45.0667" lon="5.39075">
        <ele>322.96798706055</ele>
        <time>2009-07-14T16:20:25Z</time>
      </trkpt>
      <trkpt lat="45.06657" lon="5.39032">
        <ele>321.50500488281</ele>
        <time>2009-07-14T16:20:29Z</time>
      </trkpt>
      <trkpt lat="45.06646" lon="5.38985">
        <ele>320.74600219727</ele>
        <time>2009-07-14T16:20:33Z</time>
      </trkpt>
      <trkpt lat="45.06643" lon="5.38961">
        <ele>319.87701416016</ele>
        <time>2009-07-14T16:20:35Z</time>
      </trkpt>
      <trkpt lat="45.06667" lon="5.38897">
        <ele>317.88400268555</ele>
        <time>2009-07-14T16:20:41Z</time>
      </trkpt>
      <trkpt lat="45.06693" lon="5.38884">
        <ele>317.50399780273</ele>
        <time>2009-07-14T16:20:44Z</time>
      </trkpt>
      <trkpt lat="45.06744" lon="5.3883">
        <ele>315.93600463867</ele>
        <time>2009-07-14T16:20:51Z</time>
      </trkpt>
      <trkpt lat="45.06749" lon="5.38732">
        <ele>312.95401000977</ele>
        <time>2009-07-14T16:20:58Z</time>
      </trkpt>
      <trkpt lat="45.06753" lon="5.38718">
        <ele>313.07998657227</ele>
        <time>2009-07-14T16:20:59Z</time>
      </trkpt>
      <trkpt lat="45.06761" lon="5.38691">
        <ele>311.78500366211</ele>
        <time>2009-07-14T16:21:01Z</time>
      </trkpt>
      <trkpt lat="45.068" lon="5.38552">
        <ele>309.63299560547</ele>
        <time>2009-07-14T16:21:11Z</time>
      </trkpt>
      <trkpt lat="45.06812" lon="5.38473">
        <ele>308.34899902344</ele>
        <time>2009-07-14T16:21:16Z</time>
      </trkpt>
      <trkpt lat="45.06786" lon="5.3832">
        <ele>305.19100952148</ele>
        <time>2009-07-14T16:21:26Z</time>
      </trkpt>
      <trkpt lat="45.06779" lon="5.38196">
        <ele>303.18701171875</ele>
        <time>2009-07-14T16:21:34Z</time>
      </trkpt>
      <trkpt lat="45.0676" lon="5.38105">
        <ele>300.86499023438</ele>
        <time>2009-07-14T16:21:40Z</time>
      </trkpt>
      <trkpt lat="45.06748" lon="5.3806">
        <ele>299.58099365234</ele>
        <time>2009-07-14T16:21:43Z</time>
      </trkpt>
      <trkpt lat="45.06725" lon="5.37866">
        <ele>295.96099853516</ele>
        <time>2009-07-14T16:21:55Z</time>
      </trkpt>
      <trkpt lat="45.06724" lon="5.37767">
        <ele>294.39999389648</ele>
        <time>2009-07-14T16:22:01Z</time>
      </trkpt>
      <trkpt lat="45.06726" lon="5.37718">
        <ele>292.47299194336</ele>
        <time>2009-07-14T16:22:04Z</time>
      </trkpt>
      <trkpt lat="45.06711" lon="5.37584">
        <ele>290.04598999023</ele>
        <time>2009-07-14T16:22:12Z</time>
      </trkpt>
      <trkpt lat="45.06712" lon="5.37551">
        <ele>289.82598876953</ele>
        <time>2009-07-14T16:22:14Z</time>
      </trkpt>
      <trkpt lat="45.06714" lon="5.37474">
        <ele>289.20300292969</ele>
        <time>2009-07-14T16:22:19Z</time>
      </trkpt>
      <trkpt lat="45.06698" lon="5.37371">
        <ele>288.57299804688</ele>
        <time>2009-07-14T16:22:26Z</time>
      </trkpt>
      <trkpt lat="45.06652" lon="5.37313">
        <ele>287.84399414062</ele>
        <time>2009-07-14T16:22:32Z</time>
      </trkpt>
      <trkpt lat="45.06564" lon="5.37281">
        <ele>286.09899902344</ele>
        <time>2009-07-14T16:22:40Z</time>
      </trkpt>
      <trkpt lat="45.06532" lon="5.3727">
        <ele>285.91900634766</ele>
        <time>2009-07-14T16:22:43Z</time>
      </trkpt>
      <trkpt lat="45.0648" lon="5.37201">
        <ele>285.67401123047</ele>
        <time>2009-07-14T16:22:50Z</time>
      </trkpt>
      <trkpt lat="45.06487" lon="5.37136">
        <ele>285.43798828125</ele>
        <time>2009-07-14T16:22:55Z</time>
      </trkpt>
      <trkpt lat="45.06494" lon="5.37126">
        <ele>285.46499633789</ele>
        <time>2009-07-14T16:22:56Z</time>
      </trkpt>
      <trkpt lat="45.06606" lon="5.36974">
        <ele>284.43399047852</ele>
        <time>2009-07-14T16:23:11Z</time>
      </trkpt>
      <trkpt lat="45.06701" lon="5.36818">
        <ele>284.43200683594</ele>
        <time>2009-07-14T16:23:25Z</time>
      </trkpt>
      <trkpt lat="45.06707" lon="5.36807">
        <ele>284.32800292969</ele>
        <time>2009-07-14T16:23:26Z</time>
      </trkpt>
      <trkpt lat="45.06722" lon="5.36753">
        <ele>283.85501098633</ele>
        <time>2009-07-14T16:23:30Z</time>
      </trkpt>
      <trkpt lat="45.06725" lon="5.36684">
        <ele>282.92999267578</ele>
        <time>2009-07-14T16:23:35Z</time>
      </trkpt>
      <trkpt lat="45.06698" lon="5.36592">
        <ele>282.59298706055</ele>
        <time>2009-07-14T16:23:42Z</time>
      </trkpt>
      <trkpt lat="45.06685" lon="5.36571">
        <ele>282.29501342773</ele>
        <time>2009-07-14T16:23:44Z</time>
      </trkpt>
      <trkpt lat="45.06652" lon="5.36539">
        <ele>282.26501464844</ele>
        <time>2009-07-14T16:23:48Z</time>
      </trkpt>
      <trkpt lat="45.0663" lon="5.36494">
        <ele>281.5419921875</ele>
        <time>2009-07-14T16:23:52Z</time>
      </trkpt>
      <trkpt lat="45.06615" lon="5.36303">
        <ele>279.54501342773</ele>
        <time>2009-07-14T16:24:05Z</time>
      </trkpt>
      <trkpt lat="45.06659" lon="5.36052">
        <ele>278.08898925781</ele>
        <time>2009-07-14T16:24:23Z</time>
      </trkpt>
      <trkpt lat="45.06652" lon="5.35882">
        <ele>277.03298950195</ele>
        <time>2009-07-14T16:24:35Z</time>
      </trkpt>
      <trkpt lat="45.06634" lon="5.35806">
        <ele>276.99798583984</ele>
        <time>2009-07-14T16:24:41Z</time>
      </trkpt>
      <trkpt lat="45.06597" lon="5.35767">
        <ele>276.42700195312</ele>
        <time>2009-07-14T16:24:46Z</time>
      </trkpt>
      <trkpt lat="45.06552" lon="5.3575">
        <ele>275.89300537109</ele>
        <time>2009-07-14T16:24:51Z</time>
      </trkpt>
      <trkpt lat="45.0651" lon="5.35686">
        <ele>275.00900268555</ele>
        <time>2009-07-14T16:24:58Z</time>
      </trkpt>
      <trkpt lat="45.06511" lon="5.35634">
        <ele>274.98699951172</ele>
        <time>2009-07-14T16:25:02Z</time>
      </trkpt>
      <trkpt lat="45.06543" lon="5.35472">
        <ele>275.37298583984</ele>
        <time>2009-07-14T16:25:14Z</time>
      </trkpt>
      <trkpt lat="45.06545" lon="5.35458">
        <ele>275.53601074219</ele>
        <time>2009-07-14T16:25:15Z</time>
      </trkpt>
      <trkpt lat="45.06524" lon="5.35406">
        <ele>274.47100830078</ele>
        <time>2009-07-14T16:25:20Z</time>
      </trkpt>
      <trkpt lat="45.06486" lon="5.3535">
        <ele>273.58499145508</ele>
        <time>2009-07-14T16:25:26Z</time>
      </trkpt>
      <trkpt lat="45.06472" lon="5.3528">
        <ele>272.18099975586</ele>
        <time>2009-07-14T16:25:31Z</time>
      </trkpt>
      <trkpt lat="45.06429" lon="5.35133">
        <ele>269.56500244141</ele>
        <time>2009-07-14T16:25:41Z</time>
      </trkpt>
      <trkpt lat="45.06397" lon="5.35049">
        <ele>267.41799926758</ele>
        <time>2009-07-14T16:25:47Z</time>
      </trkpt>
      <trkpt lat="45.06385" lon="5.35023">
        <ele>267.33898925781</ele>
        <time>2009-07-14T16:25:49Z</time>
      </trkpt>
      <trkpt lat="45.06351" lon="5.34981">
        <ele>266.57800292969</ele>
        <time>2009-07-14T16:25:53Z</time>
      </trkpt>
      <trkpt lat="45.063" lon="5.34948">
        <ele>265.41000366211</ele>
        <time>2009-07-14T16:25:58Z</time>
      </trkpt>
      <trkpt lat="45.06259" lon="5.34924">
        <ele>264.29501342773</ele>
        <time>2009-07-14T16:26:02Z</time>
      </trkpt>
      <trkpt lat="45.06176" lon="5.34885">
        <ele>261.5539855957</ele>
        <time>2009-07-14T16:26:10Z</time>
      </trkpt>
      <trkpt lat="45.06167" lon="5.34877">
        <ele>260.54598999023</ele>
        <time>2009-07-14T16:26:11Z</time>
      </trkpt>
      <trkpt lat="45.06091" lon="5.34783">
        <ele>258.63101196289</ele>
        <time>2009-07-14T16:26:20Z</time>
      </trkpt>
      <trkpt lat="45.06046" lon="5.34728">
        <ele>258.22601318359</ele>
        <time>2009-07-14T16:26:26Z</time>
      </trkpt>
      <trkpt lat="45.06041" lon="5.34678">
        <ele>258.37899780273</ele>
        <time>2009-07-14T16:26:33Z</time>
      </trkpt>
      <trkpt lat="45.06047" lon="5.34663">
        <ele>257.37701416016</ele>
        <time>2009-07-14T16:26:37Z</time>
      </trkpt>
      <trkpt lat="45.0605" lon="5.34647">
        <ele>256.67700195312</ele>
        <time>2009-07-14T16:26:40Z</time>
      </trkpt>
      <trkpt lat="45.06055" lon="5.34636">
        <ele>255.68699645996</ele>
        <time>2009-07-14T16:26:42Z</time>
      </trkpt>
      <trkpt lat="45.06073" lon="5.3461">
        <ele>253.99000549316</ele>
        <time>2009-07-14T16:26:46Z</time>
      </trkpt>
      <trkpt lat="45.06107" lon="5.34568">
        <ele>252.91400146484</ele>
        <time>2009-07-14T16:26:53Z</time>
      </trkpt>
      <trkpt lat="45.06111" lon="5.34551">
        <ele>252.75799560547</ele>
        <time>2009-07-14T16:26:56Z</time>
      </trkpt>
      <trkpt lat="45.0611" lon="5.34544">
        <ele>252.24899291992</ele>
        <time>2009-07-14T16:26:57Z</time>
      </trkpt>
      <trkpt lat="45.06102" lon="5.34526">
        <ele>251.9880065918</ele>
        <time>2009-07-14T16:26:59Z</time>
      </trkpt>
      <trkpt lat="45.06115" lon="5.34427">
        <ele>247.61700439453</ele>
        <time>2009-07-14T16:27:10Z</time>
      </trkpt>
      <trkpt lat="45.06118" lon="5.34418">
        <ele>247.33399963379</ele>
        <time>2009-07-14T16:27:11Z</time>
      </trkpt>
      <trkpt lat="45.06121" lon="5.34409">
        <ele>247.77600097656</ele>
        <time>2009-07-14T16:27:12Z</time>
      </trkpt>
      <trkpt lat="45.06134" lon="5.34381">
        <ele>249.16700744629</ele>
        <time>2009-07-14T16:27:15Z</time>
      </trkpt>
      <trkpt lat="45.06138" lon="5.34373">
        <ele>249.96299743652</ele>
        <time>2009-07-14T16:27:16Z</time>
      </trkpt>
      <trkpt lat="45.06146" lon="5.34358">
        <ele>250.80900573731</ele>
        <time>2009-07-14T16:27:18Z</time>
      </trkpt>
      <trkpt lat="45.06154" lon="5.34342">
        <ele>251.16299438477</ele>
        <time>2009-07-14T16:27:20Z</time>
      </trkpt>
      <trkpt lat="45.06163" lon="5.34325">
        <ele>250.86599731445</ele>
        <time>2009-07-14T16:27:22Z</time>
      </trkpt>
      <trkpt lat="45.0617" lon="5.34303">
        <ele>250.41799926758</ele>
        <time>2009-07-14T16:27:25Z</time>
      </trkpt>
      <trkpt lat="45.062" lon="5.34227">
        <ele>248.03100585938</ele>
        <time>2009-07-14T16:27:32Z</time>
      </trkpt>
      <trkpt lat="45.06245" lon="5.34062">
        <ele>244.42199707031</ele>
        <time>2009-07-14T16:27:45Z</time>
      </trkpt>
      <trkpt lat="45.06253" lon="5.34036">
        <ele>245.00500488281</ele>
        <time>2009-07-14T16:27:47Z</time>
      </trkpt>
      <trkpt lat="45.06309" lon="5.33882">
        <ele>244.23899841309</ele>
        <time>2009-07-14T16:28:00Z</time>
      </trkpt>
      <trkpt lat="45.06367" lon="5.33775">
        <ele>243.38900756836</ele>
        <time>2009-07-14T16:28:12Z</time>
      </trkpt>
      <trkpt lat="45.06394" lon="5.33733">
        <ele>243.01800537109</ele>
        <time>2009-07-14T16:28:16Z</time>
      </trkpt>
      <trkpt lat="45.06447" lon="5.3361">
        <ele>242.80099487305</ele>
        <time>2009-07-14T16:28:26Z</time>
      </trkpt>
      <trkpt lat="45.06441" lon="5.33523">
        <ele>244.38600158691</ele>
        <time>2009-07-14T16:28:33Z</time>
      </trkpt>
      <trkpt lat="45.06428" lon="5.33507">
        <ele>244.58799743652</ele>
        <time>2009-07-14T16:28:35Z</time>
      </trkpt>
      <trkpt lat="45.06352" lon="5.33443">
        <ele>246.25199890137</ele>
        <time>2009-07-14T16:28:46Z</time>
      </trkpt>
      <trkpt lat="45.06286" lon="5.33426">
        <ele>247.57800292969</ele>
        <time>2009-07-14T16:28:55Z</time>
      </trkpt>
      <trkpt lat="45.06268" lon="5.3342">
        <ele>247.44200134277</ele>
        <time>2009-07-14T16:28:58Z</time>
      </trkpt>
      <trkpt lat="45.06248" lon="5.33416">
        <ele>248.96000671387</ele>
        <time>2009-07-14T16:29:04Z</time>
      </trkpt>
      <trkpt lat="45.06211" lon="5.33357">
        <ele>248.24200439453</ele>
        <time>2009-07-14T16:29:16Z</time>
      </trkpt>
      <trkpt lat="45.06187" lon="5.33308">
        <ele>248.32699584961</ele>
        <time>2009-07-14T16:29:23Z</time>
      </trkpt>
      <trkpt lat="45.06161" lon="5.33231">
        <ele>248.81399536133</ele>
        <time>2009-07-14T16:29:33Z</time>
      </trkpt>
      <trkpt lat="45.06145" lon="5.33173">
        <ele>249.80900573731</ele>
        <time>2009-07-14T16:29:39Z</time>
      </trkpt>
      <trkpt lat="45.06111" lon="5.3304">
        <ele>250.91299438477</ele>
        <time>2009-07-14T16:29:52Z</time>
      </trkpt>
      <trkpt lat="45.06087" lon="5.32978">
        <ele>251.73599243164</ele>
        <time>2009-07-14T16:29:59Z</time>
      </trkpt>
      <trkpt lat="45.06079" lon="5.32929">
        <ele>252.28199768066</ele>
        <time>2009-07-14T16:30:04Z</time>
      </trkpt>
      <trkpt lat="45.06078" lon="5.32859">
        <ele>253.63400268555</ele>
        <time>2009-07-14T16:30:11Z</time>
      </trkpt>
      <trkpt lat="45.06036" lon="5.32752">
        <ele>254.44200134277</ele>
        <time>2009-07-14T16:30:23Z</time>
      </trkpt>
      <trkpt lat="45.05963" lon="5.32668">
        <ele>255.78700256348</ele>
        <time>2009-07-14T16:30:36Z</time>
      </trkpt>
      <trkpt lat="45.0592" lon="5.32653">
        <ele>256.34698486328</ele>
        <time>2009-07-14T16:30:42Z</time>
      </trkpt>
      <trkpt lat="45.0589" lon="5.32605">
        <ele>256.99398803711</ele>
        <time>2009-07-14T16:30:49Z</time>
      </trkpt>
      <trkpt lat="45.0589" lon="5.32594">
        <ele>257.57501220703</ele>
        <time>2009-07-14T16:30:50Z</time>
      </trkpt>
      <trkpt lat="45.05904" lon="5.32529">
        <ele>257.58099365234</ele>
        <time>2009-07-14T16:30:57Z</time>
      </trkpt>
      <trkpt lat="45.05904" lon="5.32377">
        <ele>258.99200439453</ele>
        <time>2009-07-14T16:31:12Z</time>
      </trkpt>
      <trkpt lat="45.05879" lon="5.32277">
        <ele>260.06900024414</ele>
        <time>2009-07-14T16:31:23Z</time>
      </trkpt>
      <trkpt lat="45.05836" lon="5.32228">
        <ele>260.88900756836</ele>
        <time>2009-07-14T16:31:31Z</time>
      </trkpt>
      <trkpt lat="45.05817" lon="5.32157">
        <ele>262.54400634766</ele>
        <time>2009-07-14T16:31:40Z</time>
      </trkpt>
      <trkpt lat="45.0582" lon="5.32123">
        <ele>261.68301391602</ele>
        <time>2009-07-14T16:31:44Z</time>
      </trkpt>
      <trkpt lat="45.05822" lon="5.32107">
        <ele>261.89001464844</ele>
        <time>2009-07-14T16:31:46Z</time>
      </trkpt>
      <trkpt lat="45.05817" lon="5.3206">
        <ele>263.0299987793</ele>
        <time>2009-07-14T16:31:52Z</time>
      </trkpt>
      <trkpt lat="45.05762" lon="5.31966">
        <ele>261.75900268555</ele>
        <time>2009-07-14T16:32:05Z</time>
      </trkpt>
      <trkpt lat="45.05681" lon="5.31884">
        <ele>261.76300048828</ele>
        <time>2009-07-14T16:32:19Z</time>
      </trkpt>
      <trkpt lat="45.05567" lon="5.31848">
        <ele>258.59100341797</ele>
        <time>2009-07-14T16:32:33Z</time>
      </trkpt>
      <trkpt lat="45.05526" lon="5.31789">
        <ele>257.39199829102</ele>
        <time>2009-07-14T16:32:40Z</time>
      </trkpt>
      <trkpt lat="45.05524" lon="5.31776">
        <ele>256.86700439453</ele>
        <time>2009-07-14T16:32:41Z</time>
      </trkpt>
      <trkpt lat="45.05524" lon="5.31735">
        <ele>255.3390045166</ele>
        <time>2009-07-14T16:32:44Z</time>
      </trkpt>
      <trkpt lat="45.0553" lon="5.31552">
        <ele>253.03399658203</ele>
        <time>2009-07-14T16:32:58Z</time>
      </trkpt>
      <trkpt lat="45.05526" lon="5.31512">
        <ele>252.19900512695</ele>
        <time>2009-07-14T16:33:01Z</time>
      </trkpt>
      <trkpt lat="45.05465" lon="5.31333">
        <ele>248.73100280762</ele>
        <time>2009-07-14T16:33:15Z</time>
      </trkpt>
      <trkpt lat="45.05461" lon="5.31273">
        <ele>247.54699707031</ele>
        <time>2009-07-14T16:33:19Z</time>
      </trkpt>
      <trkpt lat="45.05469" lon="5.31156">
        <ele>246.00700378418</ele>
        <time>2009-07-14T16:33:27Z</time>
      </trkpt>
      <trkpt lat="45.05521" lon="5.30984">
        <ele>242.94000244141</ele>
        <time>2009-07-14T16:33:40Z</time>
      </trkpt>
      <trkpt lat="45.05563" lon="5.30885">
        <ele>240.37600708008</ele>
        <time>2009-07-14T16:33:48Z</time>
      </trkpt>
      <trkpt lat="45.05577" lon="5.30864">
        <ele>239.40899658203</ele>
        <time>2009-07-14T16:33:50Z</time>
      </trkpt>
      <trkpt lat="45.05602" lon="5.30845">
        <ele>238.92500305176</ele>
        <time>2009-07-14T16:33:53Z</time>
      </trkpt>
      <trkpt lat="45.0562" lon="5.30837">
        <ele>240.06199645996</ele>
        <time>2009-07-14T16:33:55Z</time>
      </trkpt>
      <trkpt lat="45.05638" lon="5.30829">
        <ele>239.32699584961</ele>
        <time>2009-07-14T16:33:57Z</time>
      </trkpt>
      <trkpt lat="45.05656" lon="5.30822">
        <ele>238.59700012207</ele>
        <time>2009-07-14T16:33:59Z</time>
      </trkpt>
      <trkpt lat="45.05685" lon="5.30818">
        <ele>238.55799865723</ele>
        <time>2009-07-14T16:34:02Z</time>
      </trkpt>
      <trkpt lat="45.05789" lon="5.30853">
        <ele>237.03500366211</ele>
        <time>2009-07-14T16:34:13Z</time>
      </trkpt>
      <trkpt lat="45.05816" lon="5.30868">
        <ele>236.26899719238</ele>
        <time>2009-07-14T16:34:16Z</time>
      </trkpt>
      <trkpt lat="45.05834" lon="5.30876">
        <ele>236.44099426269</ele>
        <time>2009-07-14T16:34:18Z</time>
      </trkpt>
      <trkpt lat="45.0589" lon="5.30857">
        <ele>235.84300231934</ele>
        <time>2009-07-14T16:34:24Z</time>
      </trkpt>
      <trkpt lat="45.05933" lon="5.30831">
        <ele>232.89399719238</ele>
        <time>2009-07-14T16:34:29Z</time>
      </trkpt>
      <trkpt lat="45.05959" lon="5.30827">
        <ele>232.77600097656</ele>
        <time>2009-07-14T16:34:32Z</time>
      </trkpt>
      <trkpt lat="45.05992" lon="5.30809">
        <ele>233.6130065918</ele>
        <time>2009-07-14T16:34:36Z</time>
      </trkpt>
      <trkpt lat="45.06099" lon="5.30694">
        <ele>230.91799926758</ele>
        <time>2009-07-14T16:34:50Z</time>
      </trkpt>
      <trkpt lat="45.06137" lon="5.30616">
        <ele>229.66999816894</ele>
        <time>2009-07-14T16:34:57Z</time>
      </trkpt>
      <trkpt lat="45.06168" lon="5.30532">
        <ele>229.35899353027</ele>
        <time>2009-07-14T16:35:04Z</time>
      </trkpt>
      <trkpt lat="45.06186" lon="5.30484">
        <ele>228.7380065918</ele>
        <time>2009-07-14T16:35:08Z</time>
      </trkpt>
      <trkpt lat="45.0626" lon="5.30357">
        <ele>227.25799560547</ele>
        <time>2009-07-14T16:35:20Z</time>
      </trkpt>
      <trkpt lat="45.06288" lon="5.30248">
        <ele>227.22500610352</ele>
        <time>2009-07-14T16:35:29Z</time>
      </trkpt>
      <trkpt lat="45.0634" lon="5.30121">
        <ele>223.99299621582</ele>
        <time>2009-07-14T16:35:41Z</time>
      </trkpt>
      <trkpt lat="45.06349" lon="5.30101">
        <ele>223.31599426269</ele>
        <time>2009-07-14T16:35:43Z</time>
      </trkpt>
      <trkpt lat="45.06374" lon="5.30037">
        <ele>222.82099914551</ele>
        <time>2009-07-14T16:35:49Z</time>
      </trkpt>
      <trkpt lat="45.06387" lon="5.29864">
        <ele>216.69299316406</ele>
        <time>2009-07-14T16:36:02Z</time>
      </trkpt>
      <trkpt lat="45.06395" lon="5.29675">
        <ele>214.83099365234</ele>
        <time>2009-07-14T16:36:18Z</time>
      </trkpt>
      <trkpt lat="45.064" lon="5.29554">
        <ele>215.57299804688</ele>
        <time>2009-07-14T16:36:29Z</time>
      </trkpt>
      <trkpt lat="45.064" lon="5.29543">
        <ele>215.38200378418</ele>
        <time>2009-07-14T16:36:30Z</time>
      </trkpt>
      <trkpt lat="45.06406" lon="5.29363">
        <ele>214.89700317383</ele>
        <time>2009-07-14T16:36:46Z</time>
      </trkpt>
      <trkpt lat="45.06414" lon="5.29255">
        <ele>215.29600524902</ele>
        <time>2009-07-14T16:36:56Z</time>
      </trkpt>
      <trkpt lat="45.06393" lon="5.29097">
        <ele>214.38200378418</ele>
        <time>2009-07-14T16:37:10Z</time>
      </trkpt>
      <trkpt lat="45.06343" lon="5.28997">
        <ele>213.66299438477</ele>
        <time>2009-07-14T16:37:21Z</time>
      </trkpt>
      <trkpt lat="45.06268" lon="5.28952">
        <ele>213.65100097656</ele>
        <time>2009-07-14T16:37:31Z</time>
      </trkpt>
      <trkpt lat="45.06253" lon="5.28941">
        <ele>213.57600402832</ele>
        <time>2009-07-14T16:37:33Z</time>
      </trkpt>
      <trkpt lat="45.06178" lon="5.28821">
        <ele>213.34700012207</ele>
        <time>2009-07-14T16:37:47Z</time>
      </trkpt>
      <trkpt lat="45.06121" lon="5.2868">
        <ele>212.10499572754</ele>
        <time>2009-07-14T16:38:01Z</time>
      </trkpt>
      <trkpt lat="45.06076" lon="5.28457">
        <ele>212.29100036621</ele>
        <time>2009-07-14T16:38:20Z</time>
      </trkpt>
      <trkpt lat="45.06097" lon="5.28302">
        <ele>211.69500732422</ele>
        <time>2009-07-14T16:38:33Z</time>
      </trkpt>
      <trkpt lat="45.06121" lon="5.28168">
        <ele>208.49099731445</ele>
        <time>2009-07-14T16:38:44Z</time>
      </trkpt>
      <trkpt lat="45.06133" lon="5.28109">
        <ele>205.78399658203</ele>
        <time>2009-07-14T16:38:49Z</time>
      </trkpt>
      <trkpt lat="45.06161" lon="5.27935">
        <ele>206.36399841309</ele>
        <time>2009-07-14T16:39:04Z</time>
      </trkpt>
      <trkpt lat="45.06148" lon="5.27868">
        <ele>206.89900207519</ele>
        <time>2009-07-14T16:39:10Z</time>
      </trkpt>
      <trkpt lat="45.06139" lon="5.27849">
        <ele>207.36999511719</ele>
        <time>2009-07-14T16:39:12Z</time>
      </trkpt>
      <trkpt lat="45.0611" lon="5.27718">
        <ele>207.94299316406</ele>
        <time>2009-07-14T16:39:25Z</time>
      </trkpt>
      <trkpt lat="45.06108" lon="5.27682">
        <ele>209.22700500488</ele>
        <time>2009-07-14T16:39:29Z</time>
      </trkpt>
      <trkpt lat="45.06109" lon="5.27628">
        <ele>209.83700561523</ele>
        <time>2009-07-14T16:39:35Z</time>
      </trkpt>
      <trkpt lat="45.06087" lon="5.27517">
        <ele>214.01100158691</ele>
        <time>2009-07-14T16:39:48Z</time>
      </trkpt>
      <trkpt lat="45.06086" lon="5.2748">
        <ele>214.73100280762</ele>
        <time>2009-07-14T16:39:52Z</time>
      </trkpt>
      <trkpt lat="45.06087" lon="5.27462">
        <ele>214.24699401856</ele>
        <time>2009-07-14T16:39:54Z</time>
      </trkpt>
      <trkpt lat="45.06095" lon="5.27412">
        <ele>215.71600341797</ele>
        <time>2009-07-14T16:40:00Z</time>
      </trkpt>
      <trkpt lat="45.061" lon="5.2738">
        <ele>216.83500671387</ele>
        <time>2009-07-14T16:40:04Z</time>
      </trkpt>
      <trkpt lat="45.06125" lon="5.27261">
        <ele>220.40800476074</ele>
        <time>2009-07-14T16:40:19Z</time>
      </trkpt>
      <trkpt lat="45.06142" lon="5.27215">
        <ele>220.91799926758</ele>
        <time>2009-07-14T16:40:25Z</time>
      </trkpt>
      <trkpt lat="45.06203" lon="5.27116">
        <ele>223.83299255371</ele>
        <time>2009-07-14T16:40:41Z</time>
      </trkpt>
      <trkpt lat="45.06246" lon="5.27049">
        <ele>226.49600219727</ele>
        <time>2009-07-14T16:40:53Z</time>
      </trkpt>
      <trkpt lat="45.06253" lon="5.27037">
        <ele>227.34700012207</ele>
        <time>2009-07-14T16:40:55Z</time>
      </trkpt>
      <trkpt lat="45.06262" lon="5.27016">
        <ele>227.06100463867</ele>
        <time>2009-07-14T16:40:58Z</time>
      </trkpt>
      <trkpt lat="45.06293" lon="5.26893">
        <ele>227.70899963379</ele>
        <time>2009-07-14T16:41:12Z</time>
      </trkpt>
      <trkpt lat="45.06313" lon="5.26858">
        <ele>227.94999694824</ele>
        <time>2009-07-14T16:41:17Z</time>
      </trkpt>
      <trkpt lat="45.06364" lon="5.26826">
        <ele>226.32800292969</ele>
        <time>2009-07-14T16:41:25Z</time>
      </trkpt>
      <trkpt lat="45.06432" lon="5.26821">
        <ele>226.13600158691</ele>
        <time>2009-07-14T16:41:34Z</time>
      </trkpt>
      <trkpt lat="45.0644" lon="5.26786">
        <ele>226.41499328613</ele>
        <time>2009-07-14T16:41:39Z</time>
      </trkpt>
      <trkpt lat="45.06434" lon="5.2678">
        <ele>226.51600646973</ele>
        <time>2009-07-14T16:41:40Z</time>
      </trkpt>
      <trkpt lat="45.06377" lon="5.26645">
        <ele>224.40899658203</ele>
        <time>2009-07-14T16:41:54Z</time>
      </trkpt>
      <trkpt lat="45.06309" lon="5.26475">
        <ele>222.42999267578</ele>
        <time>2009-07-14T16:42:10Z</time>
      </trkpt>
      <trkpt lat="45.06268" lon="5.26414">
        <ele>221.65600585938</ele>
        <time>2009-07-14T16:42:17Z</time>
      </trkpt>
      <trkpt lat="45.06251" lon="5.26356">
        <ele>220.3809967041</ele>
        <time>2009-07-14T16:42:22Z</time>
      </trkpt>
      <trkpt lat="45.06232" lon="5.26144">
        <ele>217.36599731445</ele>
        <time>2009-07-14T16:42:38Z</time>
      </trkpt>
      <trkpt lat="45.06211" lon="5.25907">
        <ele>212.84100341797</ele>
        <time>2009-07-14T16:42:56Z</time>
      </trkpt>
      <trkpt lat="45.0618" lon="5.25751">
        <ele>211.86599731445</ele>
        <time>2009-07-14T16:43:10Z</time>
      </trkpt>
      <trkpt lat="45.06151" lon="5.25583">
        <ele>210.11799621582</ele>
        <time>2009-07-14T16:43:24Z</time>
      </trkpt>
      <trkpt lat="45.06136" lon="5.25492">
        <ele>209.2440032959</ele>
        <time>2009-07-14T16:43:31Z</time>
      </trkpt>
      <trkpt lat="45.06157" lon="5.2531">
        <ele>206.09899902344</ele>
        <time>2009-07-14T16:43:45Z</time>
      </trkpt>
      <trkpt lat="45.06181" lon="5.25189">
        <ele>202.86399841309</ele>
        <time>2009-07-14T16:43:55Z</time>
      </trkpt>
      <trkpt lat="45.06202" lon="5.24979">
        <ele>202.50799560547</ele>
        <time>2009-07-14T16:44:11Z</time>
      </trkpt>
      <trkpt lat="45.06195" lon="5.24813">
        <ele>201.07699584961</ele>
        <time>2009-07-14T16:44:23Z</time>
      </trkpt>
      <trkpt lat="45.06185" lon="5.2476">
        <ele>200.62199401856</ele>
        <time>2009-07-14T16:44:27Z</time>
      </trkpt>
      <trkpt lat="45.06148" lon="5.24724">
        <ele>200.04800415039</ele>
        <time>2009-07-14T16:44:32Z</time>
      </trkpt>
      <trkpt lat="45.06078" lon="5.24697">
        <ele>200.42799377441</ele>
        <time>2009-07-14T16:44:40Z</time>
      </trkpt>
      <trkpt lat="45.06056" lon="5.24689">
        <ele>202.3630065918</ele>
        <time>2009-07-14T16:44:43Z</time>
      </trkpt>
      <trkpt lat="45.06027" lon="5.24682">
        <ele>203.25799560547</ele>
        <time>2009-07-14T16:44:47Z</time>
      </trkpt>
      <trkpt lat="45.06004" lon="5.24674">
        <ele>203.34700012207</ele>
        <time>2009-07-14T16:44:50Z</time>
      </trkpt>
      <trkpt lat="45.0599" lon="5.24608">
        <ele>205.19700622559</ele>
        <time>2009-07-14T16:44:58Z</time>
      </trkpt>
      <trkpt lat="45.05988" lon="5.24581">
        <ele>205.79699707031</ele>
        <time>2009-07-14T16:45:01Z</time>
      </trkpt>
      <trkpt lat="45.05983" lon="5.24539">
        <ele>206.35200500488</ele>
        <time>2009-07-14T16:45:06Z</time>
      </trkpt>
      <trkpt lat="45.05984" lon="5.24458">
        <ele>208.41299438477</ele>
        <time>2009-07-14T16:45:15Z</time>
      </trkpt>
      <trkpt lat="45.05984" lon="5.24419">
        <ele>209.24600219727</ele>
        <time>2009-07-14T16:45:20Z</time>
      </trkpt>
      <trkpt lat="45.06001" lon="5.24368">
        <ele>209.72900390625</ele>
        <time>2009-07-14T16:45:27Z</time>
      </trkpt>
      <trkpt lat="45.06019" lon="5.24332">
        <ele>210.93800354004</ele>
        <time>2009-07-14T16:45:32Z</time>
      </trkpt>
      <trkpt lat="45.06048" lon="5.24294">
        <ele>210.94599914551</ele>
        <time>2009-07-14T16:45:38Z</time>
      </trkpt>
      <trkpt lat="45.06101" lon="5.24272">
        <ele>211.9640045166</ele>
        <time>2009-07-14T16:45:45Z</time>
      </trkpt>
      <trkpt lat="45.06165" lon="5.24269">
        <ele>213.02099609375</ele>
        <time>2009-07-14T16:45:53Z</time>
      </trkpt>
      <trkpt lat="45.06187" lon="5.24266">
        <ele>214.86999511719</ele>
        <time>2009-07-14T16:45:56Z</time>
      </trkpt>
      <trkpt lat="45.06295" lon="5.2425">
        <ele>216.91799926758</ele>
        <time>2009-07-14T16:46:11Z</time>
      </trkpt>
      <trkpt lat="45.06385" lon="5.242">
        <ele>216.39100646973</ele>
        <time>2009-07-14T16:46:24Z</time>
      </trkpt>
      <trkpt lat="45.06491" lon="5.24133">
        <ele>213.74200439453</ele>
        <time>2009-07-14T16:46:39Z</time>
      </trkpt>
      <trkpt lat="45.06497" lon="5.24129">
        <ele>213.35899353027</ele>
        <time>2009-07-14T16:46:40Z</time>
      </trkpt>
      <trkpt lat="45.06536" lon="5.2416">
        <ele>210.89799499512</ele>
        <time>2009-07-14T16:46:47Z</time>
      </trkpt>
      <trkpt lat="45.0654" lon="5.24171">
        <ele>211.38999938965</ele>
        <time>2009-07-14T16:46:48Z</time>
      </trkpt>
      <trkpt lat="45.06552" lon="5.24217">
        <ele>209.55200195312</ele>
        <time>2009-07-14T16:46:52Z</time>
      </trkpt>
      <trkpt lat="45.06588" lon="5.24257">
        <ele>207.30999755859</ele>
        <time>2009-07-14T16:46:57Z</time>
      </trkpt>
      <trkpt lat="45.06628" lon="5.24272">
        <ele>206.24800109863</ele>
        <time>2009-07-14T16:47:01Z</time>
      </trkpt>
      <trkpt lat="45.06742" lon="5.24313">
        <ele>210.69999694824</ele>
        <time>2009-07-14T16:47:14Z</time>
      </trkpt>
      <trkpt lat="45.06778" lon="5.24326">
        <ele>210.2799987793</ele>
        <time>2009-07-14T16:47:19Z</time>
      </trkpt>
      <trkpt lat="45.06808" lon="5.24336">
        <ele>209.04100036621</ele>
        <time>2009-07-14T16:47:23Z</time>
      </trkpt>
      <trkpt lat="45.069" lon="5.24371">
        <ele>212.20199584961</ele>
        <time>2009-07-14T16:47:37Z</time>
      </trkpt>
      <trkpt lat="45.06932" lon="5.24383">
        <ele>213.61199951172</ele>
        <time>2009-07-14T16:47:42Z</time>
      </trkpt>
      <trkpt lat="45.06969" lon="5.24403">
        <ele>215.58799743652</ele>
        <time>2009-07-14T16:47:48Z</time>
      </trkpt>
      <trkpt lat="45.06974" lon="5.24406">
        <ele>215.60400390625</ele>
        <time>2009-07-14T16:47:49Z</time>
      </trkpt>
      <trkpt lat="45.07002" lon="5.24378">
        <ele>215.49899291992</ele>
        <time>2009-07-14T16:47:56Z</time>
      </trkpt>
      <trkpt lat="45.07006" lon="5.24373">
        <ele>215.37800598144</ele>
        <time>2009-07-14T16:47:57Z</time>
      </trkpt>
      <trkpt lat="45.07032" lon="5.24334">
        <ele>216.69299316406</ele>
        <time>2009-07-14T16:48:03Z</time>
      </trkpt>
      <trkpt lat="45.07073" lon="5.24231">
        <ele>216.74699401856</ele>
        <time>2009-07-14T16:48:15Z</time>
      </trkpt>
      <trkpt lat="45.07104" lon="5.24079">
        <ele>216.16299438477</ele>
        <time>2009-07-14T16:48:30Z</time>
      </trkpt>
      <trkpt lat="45.07149" lon="5.24055">
        <ele>216.20500183106</ele>
        <time>2009-07-14T16:48:37Z</time>
      </trkpt>
      <trkpt lat="45.07156" lon="5.24057">
        <ele>216.22500610352</ele>
        <time>2009-07-14T16:48:38Z</time>
      </trkpt>
      <trkpt lat="45.07178" lon="5.24063">
        <ele>216.57400512695</ele>
        <time>2009-07-14T16:48:41Z</time>
      </trkpt>
      <trkpt lat="45.0721" lon="5.24076">
        <ele>217.30999755859</ele>
        <time>2009-07-14T16:48:46Z</time>
      </trkpt>
      <trkpt lat="45.07295" lon="5.24071">
        <ele>222.08099365234</ele>
        <time>2009-07-14T16:49:00Z</time>
      </trkpt>
      <trkpt lat="45.07389" lon="5.2406">
        <ele>223.83999633789</ele>
        <time>2009-07-14T16:49:13Z</time>
      </trkpt>
      <trkpt lat="45.07516" lon="5.24047">
        <ele>222.93400573731</ele>
        <time>2009-07-14T16:49:29Z</time>
      </trkpt>
      <trkpt lat="45.07597" lon="5.24038">
        <ele>223.60400390625</ele>
        <time>2009-07-14T16:49:39Z</time>
      </trkpt>
      <trkpt lat="45.07677" lon="5.24029">
        <ele>224.48399353027</ele>
        <time>2009-07-14T16:49:49Z</time>
      </trkpt>
      <trkpt lat="45.0771" lon="5.23998">
        <ele>223.73199462891</ele>
        <time>2009-07-14T16:49:54Z</time>
      </trkpt>
      <trkpt lat="45.07725" lon="5.23961">
        <ele>224.88999938965</ele>
        <time>2009-07-14T16:49:58Z</time>
      </trkpt>
      <trkpt lat="45.07751" lon="5.23871">
        <ele>225.7559967041</ele>
        <time>2009-07-14T16:50:07Z</time>
      </trkpt>
      <trkpt lat="45.07799" lon="5.23706">
        <ele>224.30299377441</ele>
        <time>2009-07-14T16:50:23Z</time>
      </trkpt>
      <trkpt lat="45.07827" lon="5.23613">
        <ele>226.93699645996</ele>
        <time>2009-07-14T16:50:32Z</time>
      </trkpt>
      <trkpt lat="45.07869" lon="5.23446">
        <ele>226.3630065918</ele>
        <time>2009-07-14T16:50:47Z</time>
      </trkpt>
      <trkpt lat="45.07875" lon="5.23424">
        <ele>224.73199462891</ele>
        <time>2009-07-14T16:50:49Z</time>
      </trkpt>
      <trkpt lat="45.07936" lon="5.23291">
        <ele>224.51100158691</ele>
        <time>2009-07-14T16:51:03Z</time>
      </trkpt>
      <trkpt lat="45.0799" lon="5.2315">
        <ele>224.03500366211</ele>
        <time>2009-07-14T16:51:17Z</time>
      </trkpt>
      <trkpt lat="45.08038" lon="5.2299">
        <ele>223.32499694824</ele>
        <time>2009-07-14T16:51:31Z</time>
      </trkpt>
      <trkpt lat="45.0805" lon="5.22916">
        <ele>222.01699829102</ele>
        <time>2009-07-14T16:51:37Z</time>
      </trkpt>
      <trkpt lat="45.08058" lon="5.22894">
        <ele>220.14500427246</ele>
        <time>2009-07-14T16:51:39Z</time>
      </trkpt>
      <trkpt lat="45.08116" lon="5.22753">
        <ele>218.99899291992</ele>
        <time>2009-07-14T16:51:52Z</time>
      </trkpt>
      <trkpt lat="45.08128" lon="5.22732">
        <ele>217.67100524902</ele>
        <time>2009-07-14T16:51:54Z</time>
      </trkpt>
      <trkpt lat="45.08163" lon="5.22681">
        <ele>215.68299865723</ele>
        <time>2009-07-14T16:51:59Z</time>
      </trkpt>
      <trkpt lat="45.08201" lon="5.22627">
        <ele>212.07600402832</ele>
        <time>2009-07-14T16:52:04Z</time>
      </trkpt>
      <trkpt lat="45.0824" lon="5.22573">
        <ele>211.79600524902</ele>
        <time>2009-07-14T16:52:09Z</time>
      </trkpt>
      <trkpt lat="45.08297" lon="5.22493">
        <ele>210.92700195312</ele>
        <time>2009-07-14T16:52:17Z</time>
      </trkpt>
      <trkpt lat="45.08332" lon="5.22369">
        <ele>212.08700561523</ele>
        <time>2009-07-14T16:52:28Z</time>
      </trkpt>
      <trkpt lat="45.08366" lon="5.22202">
        <ele>212.65299987793</ele>
        <time>2009-07-14T16:52:43Z</time>
      </trkpt>
      <trkpt lat="45.08435" lon="5.22072">
        <ele>212.98300170898</ele>
        <time>2009-07-14T16:52:57Z</time>
      </trkpt>
      <trkpt lat="45.08461" lon="5.22025">
        <ele>212.33500671387</ele>
        <time>2009-07-14T16:53:02Z</time>
      </trkpt>
      <trkpt lat="45.08512" lon="5.21894">
        <ele>209.44299316406</ele>
        <time>2009-07-14T16:53:15Z</time>
      </trkpt>
      <trkpt lat="45.08529" lon="5.21858">
        <ele>208.93299865723</ele>
        <time>2009-07-14T16:53:19Z</time>
      </trkpt>
      <trkpt lat="45.0855" lon="5.21824">
        <ele>209.64900207519</ele>
        <time>2009-07-14T16:53:24Z</time>
      </trkpt>
      <trkpt lat="45.0856" lon="5.21816">
        <ele>210.61700439453</ele>
        <time>2009-07-14T16:53:26Z</time>
      </trkpt>
      <trkpt lat="45.08565" lon="5.21813">
        <ele>210.51100158691</ele>
        <time>2009-07-14T16:53:27Z</time>
      </trkpt>
      <trkpt lat="45.08588" lon="5.21813">
        <ele>212.48500061035</ele>
        <time>2009-07-14T16:53:31Z</time>
      </trkpt>
      <trkpt lat="45.08643" lon="5.21836">
        <ele>214.37600708008</ele>
        <time>2009-07-14T16:53:41Z</time>
      </trkpt>
      <trkpt lat="45.08687" lon="5.21821">
        <ele>213.98300170898</ele>
        <time>2009-07-14T16:53:50Z</time>
      </trkpt>
      <trkpt lat="45.08698" lon="5.2181">
        <ele>214.0119934082</ele>
        <time>2009-07-14T16:53:53Z</time>
      </trkpt>
      <trkpt lat="45.08698" lon="5.21775">
        <ele>213.83399963379</ele>
        <time>2009-07-14T16:53:59Z</time>
      </trkpt>
      <trkpt lat="45.0863" lon="5.21649">
        <ele>210.18600463867</ele>
        <time>2009-07-14T16:54:15Z</time>
      </trkpt>
      <trkpt lat="45.08574" lon="5.21503">
        <ele>202.24600219727</ele>
        <time>2009-07-14T16:54:28Z</time>
      </trkpt>
      <trkpt lat="45.08533" lon="5.21373">
        <ele>195.90199279785</ele>
        <time>2009-07-14T16:54:38Z</time>
      </trkpt>
      <trkpt lat="45.08504" lon="5.21273">
        <ele>192.44099426269</ele>
        <time>2009-07-14T16:54:45Z</time>
      </trkpt>
      <trkpt lat="45.08486" lon="5.21211">
        <ele>189.46099853516</ele>
        <time>2009-07-14T16:54:49Z</time>
      </trkpt>
      <trkpt lat="45.08488" lon="5.21128">
        <ele>186.92300415039</ele>
        <time>2009-07-14T16:54:54Z</time>
      </trkpt>
      <trkpt lat="45.08493" lon="5.21113">
        <ele>185.63499450684</ele>
        <time>2009-07-14T16:54:55Z</time>
      </trkpt>
      <trkpt lat="45.08527" lon="5.20949">
        <ele>180.29699707031</ele>
        <time>2009-07-14T16:55:06Z</time>
      </trkpt>
      <trkpt lat="45.08524" lon="5.20775">
        <ele>182.29400634766</ele>
        <time>2009-07-14T16:55:18Z</time>
      </trkpt>
      <trkpt lat="45.08523" lon="5.2071">
        <ele>182.05700683594</ele>
        <time>2009-07-14T16:55:23Z</time>
      </trkpt>
      <trkpt lat="45.08522" lon="5.20673">
        <ele>180.71099853516</ele>
        <time>2009-07-14T16:55:26Z</time>
      </trkpt>
      <trkpt lat="45.08522" lon="5.20626">
        <ele>182.69799804688</ele>
        <time>2009-07-14T16:55:30Z</time>
      </trkpt>
      <trkpt lat="45.0852" lon="5.20545">
        <ele>182.58299255371</ele>
        <time>2009-07-14T16:55:37Z</time>
      </trkpt>
      <trkpt lat="45.08519" lon="5.20474">
        <ele>181.07400512695</ele>
        <time>2009-07-14T16:55:43Z</time>
      </trkpt>
      <trkpt lat="45.08517" lon="5.20348">
        <ele>180.69400024414</ele>
        <time>2009-07-14T16:55:54Z</time>
      </trkpt>
      <trkpt lat="45.08513" lon="5.2015">
        <ele>180.52299499512</ele>
        <time>2009-07-14T16:56:12Z</time>
      </trkpt>
      <trkpt lat="45.0851" lon="5.19895">
        <ele>178.31799316406</ele>
        <time>2009-07-14T16:56:34Z</time>
      </trkpt>
      <trkpt lat="45.08514" lon="5.19633">
        <ele>176.65299987793</ele>
        <time>2009-07-14T16:56:57Z</time>
      </trkpt>
      <trkpt lat="45.08523" lon="5.19441">
        <ele>172.36999511719</ele>
        <time>2009-07-14T16:57:13Z</time>
      </trkpt>
      <trkpt lat="45.08539" lon="5.19231">
        <ele>172.33299255371</ele>
        <time>2009-07-14T16:57:31Z</time>
      </trkpt>
      <trkpt lat="45.08553" lon="5.19034">
        <ele>170.35299682617</ele>
        <time>2009-07-14T16:57:49Z</time>
      </trkpt>
      <trkpt lat="45.08564" lon="5.18891">
        <ele>170.05700683594</ele>
        <time>2009-07-14T16:58:02Z</time>
      </trkpt>
      <trkpt lat="45.08565" lon="5.18829">
        <ele>169.82000732422</ele>
        <time>2009-07-14T16:58:08Z</time>
      </trkpt>
      <trkpt lat="45.0857" lon="5.18792">
        <ele>169.76100158691</ele>
        <time>2009-07-14T16:58:12Z</time>
      </trkpt>
      <trkpt lat="45.08576" lon="5.18656">
        <ele>168.58799743652</ele>
        <time>2009-07-14T16:58:25Z</time>
      </trkpt>
      <trkpt lat="45.08571" lon="5.1853">
        <ele>167.85099792481</ele>
        <time>2009-07-14T16:58:37Z</time>
      </trkpt>
      <trkpt lat="45.08569" lon="5.18511">
        <ele>168.26400756836</ele>
        <time>2009-07-14T16:58:39Z</time>
      </trkpt>
      <trkpt lat="45.08572" lon="5.18466">
        <ele>168.67199707031</ele>
        <time>2009-07-14T16:58:44Z</time>
      </trkpt>
      <trkpt lat="45.08572" lon="5.18359">
        <ele>171.44299316406</ele>
        <time>2009-07-14T16:58:58Z</time>
      </trkpt>
      <trkpt lat="45.08572" lon="5.18332">
        <ele>171.27400207519</ele>
        <time>2009-07-14T16:59:02Z</time>
      </trkpt>
      <trkpt lat="45.08564" lon="5.1827">
        <ele>173.63900756836</ele>
        <time>2009-07-14T16:59:12Z</time>
      </trkpt>
      <trkpt lat="45.08543" lon="5.18199">
        <ele>174.79699707031</ele>
        <time>2009-07-14T16:59:23Z</time>
      </trkpt>
      <trkpt lat="45.08539" lon="5.18185">
        <ele>173.16700744629</ele>
        <time>2009-07-14T16:59:25Z</time>
      </trkpt>
      <trkpt lat="45.0853" lon="5.18161">
        <ele>175.80999755859</ele>
        <time>2009-07-14T16:59:29Z</time>
      </trkpt>
      <trkpt lat="45.08501" lon="5.18073">
        <ele>177.95500183106</ele>
        <time>2009-07-14T16:59:43Z</time>
      </trkpt>
      <trkpt lat="45.08495" lon="5.18053">
        <ele>178.10699462891</ele>
        <time>2009-07-14T16:59:46Z</time>
      </trkpt>
      <trkpt lat="45.08446" lon="5.17942">
        <ele>180.54800415039</ele>
        <time>2009-07-14T17:00:04Z</time>
      </trkpt>
      <trkpt lat="45.08382" lon="5.17825">
        <ele>182.74600219727</ele>
        <time>2009-07-14T17:00:24Z</time>
      </trkpt>
      <trkpt lat="45.08323" lon="5.17749">
        <ele>183.94299316406</ele>
        <time>2009-07-14T17:00:38Z</time>
      </trkpt>
      <trkpt lat="45.08261" lon="5.17674">
        <ele>183.60499572754</ele>
        <time>2009-07-14T17:00:51Z</time>
      </trkpt>
      <trkpt lat="45.08197" lon="5.17584">
        <ele>185.97599792481</ele>
        <time>2009-07-14T17:01:06Z</time>
      </trkpt>
      <trkpt lat="45.08135" lon="5.17488">
        <ele>187.22900390625</ele>
        <time>2009-07-14T17:01:22Z</time>
      </trkpt>
      <trkpt lat="45.08113" lon="5.17455">
        <ele>187.85000610352</ele>
        <time>2009-07-14T17:01:28Z</time>
      </trkpt>
      <trkpt lat="45.08068" lon="5.17379">
        <ele>188.46099853516</ele>
        <time>2009-07-14T17:01:41Z</time>
      </trkpt>
      <trkpt lat="45.08023" lon="5.1731">
        <ele>191.47900390625</ele>
        <time>2009-07-14T17:01:54Z</time>
      </trkpt>
      <trkpt lat="45.0797" lon="5.17234">
        <ele>194.59800720215</ele>
        <time>2009-07-14T17:02:11Z</time>
      </trkpt>
      <trkpt lat="45.07967" lon="5.1723">
        <ele>194.88800048828</ele>
        <time>2009-07-14T17:02:12Z</time>
      </trkpt>
      <trkpt lat="45.07919" lon="5.17147">
        <ele>197.2440032959</ele>
        <time>2009-07-14T17:02:28Z</time>
      </trkpt>
      <trkpt lat="45.07873" lon="5.17057">
        <ele>197.7859954834</ele>
        <time>2009-07-14T17:02:43Z</time>
      </trkpt>
      <trkpt lat="45.07841" lon="5.16981">
        <ele>198.27299499512</ele>
        <time>2009-07-14T17:02:54Z</time>
      </trkpt>
      <trkpt lat="45.07815" lon="5.169">
        <ele>198.95500183106</ele>
        <time>2009-07-14T17:03:05Z</time>
      </trkpt>
      <trkpt lat="45.07799" lon="5.16838">
        <ele>199.10699462891</ele>
        <time>2009-07-14T17:03:13Z</time>
      </trkpt>
      <trkpt lat="45.0779" lon="5.16803">
        <ele>198.60200500488</ele>
        <time>2009-07-14T17:03:17Z</time>
      </trkpt>
      <trkpt lat="45.07766" lon="5.16693">
        <ele>199.30400085449</ele>
        <time>2009-07-14T17:03:29Z</time>
      </trkpt>
      <trkpt lat="45.07721" lon="5.16498">
        <ele>199.3869934082</ele>
        <time>2009-07-14T17:03:51Z</time>
      </trkpt>
      <trkpt lat="45.07677" lon="5.16297">
        <ele>197.92399597168</ele>
        <time>2009-07-14T17:04:13Z</time>
      </trkpt>
      <trkpt lat="45.07672" lon="5.1627">
        <ele>198.62399291992</ele>
        <time>2009-07-14T17:04:16Z</time>
      </trkpt>
      <trkpt lat="45.07679" lon="5.16238">
        <ele>198.52499389648</ele>
        <time>2009-07-14T17:04:20Z</time>
      </trkpt>
      <trkpt lat="45.07723" lon="5.1617">
        <ele>200.03700256348</ele>
        <time>2009-07-14T17:04:31Z</time>
      </trkpt>
      <trkpt lat="45.07734" lon="5.16155">
        <ele>200.69799804688</ele>
        <time>2009-07-14T17:04:34Z</time>
      </trkpt>
      <trkpt lat="45.07766" lon="5.16102">
        <ele>202.85899353027</ele>
        <time>2009-07-14T17:04:44Z</time>
      </trkpt>
      <trkpt lat="45.07798" lon="5.16014">
        <ele>206.5359954834</ele>
        <time>2009-07-14T17:04:59Z</time>
      </trkpt>
      <trkpt lat="45.07824" lon="5.15917">
        <ele>207.58500671387</ele>
        <time>2009-07-14T17:05:14Z</time>
      </trkpt>
      <trkpt lat="45.07852" lon="5.15811">
        <ele>207.61500549316</ele>
        <time>2009-07-14T17:05:28Z</time>
      </trkpt>
      <trkpt lat="45.07856" lon="5.15795">
        <ele>208.47900390625</ele>
        <time>2009-07-14T17:05:30Z</time>
      </trkpt>
      <trkpt lat="45.07881" lon="5.15679">
        <ele>209.77699279785</ele>
        <time>2009-07-14T17:05:44Z</time>
      </trkpt>
      <trkpt lat="45.07908" lon="5.15536">
        <ele>211.13200378418</ele>
        <time>2009-07-14T17:06:01Z</time>
      </trkpt>
      <trkpt lat="45.07949" lon="5.15366">
        <ele>211.73599243164</ele>
        <time>2009-07-14T17:06:21Z</time>
      </trkpt>
      <trkpt lat="45.07976" lon="5.15261">
        <ele>210.26400756836</ele>
        <time>2009-07-14T17:06:32Z</time>
      </trkpt>
      <trkpt lat="45.07995" lon="5.15107">
        <ele>212.02400207519</ele>
        <time>2009-07-14T17:06:47Z</time>
      </trkpt>
      <trkpt lat="45.08026" lon="5.1497">
        <ele>209.60000610352</ele>
        <time>2009-07-14T17:07:01Z</time>
      </trkpt>
      <trkpt lat="45.08031" lon="5.14949">
        <ele>208.79899597168</ele>
        <time>2009-07-14T17:07:03Z</time>
      </trkpt>
      <trkpt lat="45.08051" lon="5.14872">
        <ele>208.45799255371</ele>
        <time>2009-07-14T17:07:10Z</time>
      </trkpt>
      <trkpt lat="45.08104" lon="5.14706">
        <ele>207.31399536133</ele>
        <time>2009-07-14T17:07:26Z</time>
      </trkpt>
      <trkpt lat="45.08135" lon="5.14627">
        <ele>208.52299499512</ele>
        <time>2009-07-14T17:07:37Z</time>
      </trkpt>
      <trkpt lat="45.08146" lon="5.14594">
        <ele>208.50199890137</ele>
        <time>2009-07-14T17:07:42Z</time>
      </trkpt>
      <trkpt lat="45.08163" lon="5.14535">
        <ele>210.7619934082</ele>
        <time>2009-07-14T17:07:50Z</time>
      </trkpt>
      <trkpt lat="45.08181" lon="5.14473">
        <ele>212.07800292969</ele>
        <time>2009-07-14T17:07:58Z</time>
      </trkpt>
      <trkpt lat="45.08204" lon="5.14399">
        <ele>211.18699645996</ele>
        <time>2009-07-14T17:08:07Z</time>
      </trkpt>
      <trkpt lat="45.0826" lon="5.14234">
        <ele>209.47799682617</ele>
        <time>2009-07-14T17:08:26Z</time>
      </trkpt>
      <trkpt lat="45.08288" lon="5.14136">
        <ele>207.75799560547</ele>
        <time>2009-07-14T17:08:36Z</time>
      </trkpt>
      <trkpt lat="45.08326" lon="5.14006">
        <ele>206.52799987793</ele>
        <time>2009-07-14T17:08:49Z</time>
      </trkpt>
      <trkpt lat="45.0838" lon="5.1386">
        <ele>208.14199829102</ele>
        <time>2009-07-14T17:09:05Z</time>
      </trkpt>
      <trkpt lat="45.08466" lon="5.13748">
        <ele>207.19700622559</ele>
        <time>2009-07-14T17:09:22Z</time>
      </trkpt>
      <trkpt lat="45.0853" lon="5.13664">
        <ele>207.27200317383</ele>
        <time>2009-07-14T17:09:34Z</time>
      </trkpt>
      <trkpt lat="45.08616" lon="5.13523">
        <ele>207.45799255371</ele>
        <time>2009-07-14T17:09:52Z</time>
      </trkpt>
      <trkpt lat="45.08627" lon="5.13497">
        <ele>207.39900207519</ele>
        <time>2009-07-14T17:09:55Z</time>
      </trkpt>
      <trkpt lat="45.08635" lon="5.13483">
        <ele>207.76699829102</ele>
        <time>2009-07-14T17:09:57Z</time>
      </trkpt>
      <trkpt lat="45.08644" lon="5.13459">
        <ele>207.48100280762</ele>
        <time>2009-07-14T17:10:00Z</time>
      </trkpt>
      <trkpt lat="45.08701" lon="5.13317">
        <ele>208.00700378418</ele>
        <time>2009-07-14T17:10:17Z</time>
      </trkpt>
      <trkpt lat="45.08739" lon="5.13234">
        <ele>207.45100402832</ele>
        <time>2009-07-14T17:10:28Z</time>
      </trkpt>
      <trkpt lat="45.08764" lon="5.13175">
        <ele>207.36399841309</ele>
        <time>2009-07-14T17:10:36Z</time>
      </trkpt>
      <trkpt lat="45.08776" lon="5.13153">
        <ele>207.94900512695</ele>
        <time>2009-07-14T17:10:40Z</time>
      </trkpt>
      <trkpt lat="45.08786" lon="5.13128">
        <ele>207.45899963379</ele>
        <time>2009-07-14T17:10:44Z</time>
      </trkpt>
      <trkpt lat="45.08796" lon="5.13066">
        <ele>206.95500183106</ele>
        <time>2009-07-14T17:10:52Z</time>
      </trkpt>
      <trkpt lat="45.08802" lon="5.13024">
        <ele>207.02600097656</ele>
        <time>2009-07-14T17:10:57Z</time>
      </trkpt>
      <trkpt lat="45.08799" lon="5.12994">
        <ele>207.23500061035</ele>
        <time>2009-07-14T17:11:01Z</time>
      </trkpt>
      <trkpt lat="45.088" lon="5.12961">
        <ele>207.8809967041</ele>
        <time>2009-07-14T17:11:05Z</time>
      </trkpt>
      <trkpt lat="45.08805" lon="5.12908">
        <ele>208.56100463867</ele>
        <time>2009-07-14T17:11:12Z</time>
      </trkpt>
      <trkpt lat="45.08819" lon="5.12833">
        <ele>209.4940032959</ele>
        <time>2009-07-14T17:11:22Z</time>
      </trkpt>
      <trkpt lat="45.08834" lon="5.12772">
        <ele>210.85699462891</ele>
        <time>2009-07-14T17:11:30Z</time>
      </trkpt>
      <trkpt lat="45.08874" lon="5.12639">
        <ele>211.14199829102</ele>
        <time>2009-07-14T17:11:47Z</time>
      </trkpt>
      <trkpt lat="45.08879" lon="5.12624">
        <ele>210.49000549316</ele>
        <time>2009-07-14T17:11:49Z</time>
      </trkpt>
      <trkpt lat="45.08891" lon="5.12594">
        <ele>212.42700195312</ele>
        <time>2009-07-14T17:11:53Z</time>
      </trkpt>
      <trkpt lat="45.08923" lon="5.12445">
        <ele>212.05499267578</ele>
        <time>2009-07-14T17:12:10Z</time>
      </trkpt>
      <trkpt lat="45.08921" lon="5.12382">
        <ele>209.32800292969</ele>
        <time>2009-07-14T17:12:16Z</time>
      </trkpt>
      <trkpt lat="45.0891" lon="5.12189">
        <ele>206.02699279785</ele>
        <time>2009-07-14T17:12:33Z</time>
      </trkpt>
      <trkpt lat="45.08907" lon="5.12121">
        <ele>205.19500732422</ele>
        <time>2009-07-14T17:12:39Z</time>
      </trkpt>
      <trkpt lat="45.08895" lon="5.11955">
        <ele>204.79899597168</ele>
        <time>2009-07-14T17:12:52Z</time>
      </trkpt>
      <trkpt lat="45.08891" lon="5.11893">
        <ele>203.04699707031</ele>
        <time>2009-07-14T17:12:57Z</time>
      </trkpt>
      <trkpt lat="45.08876" lon="5.11677">
        <ele>204.08599853516</ele>
        <time>2009-07-14T17:13:15Z</time>
      </trkpt>
      <trkpt lat="45.08859" lon="5.11468">
        <ele>203.08000183106</ele>
        <time>2009-07-14T17:13:33Z</time>
      </trkpt>
      <trkpt lat="45.0884" lon="5.11248">
        <ele>201.37399291992</ele>
        <time>2009-07-14T17:13:51Z</time>
      </trkpt>
      <trkpt lat="45.0881" lon="5.11048">
        <ele>199.93299865723</ele>
        <time>2009-07-14T17:14:08Z</time>
      </trkpt>
      <trkpt lat="45.08788" lon="5.10865">
        <ele>199.69099426269</ele>
        <time>2009-07-14T17:14:24Z</time>
      </trkpt>
      <trkpt lat="45.08772" lon="5.10651">
        <ele>199.65800476074</ele>
        <time>2009-07-14T17:14:43Z</time>
      </trkpt>
      <trkpt lat="45.08734" lon="5.10497">
        <ele>199.89399719238</ele>
        <time>2009-07-14T17:14:58Z</time>
      </trkpt>
      <trkpt lat="45.08718" lon="5.10438">
        <ele>200.56199645996</ele>
        <time>2009-07-14T17:15:04Z</time>
      </trkpt>
      <trkpt lat="45.08705" lon="5.10388">
        <ele>199.27000427246</ele>
        <time>2009-07-14T17:15:09Z</time>
      </trkpt>
      <trkpt lat="45.08699" lon="5.10369">
        <ele>200.24899291992</ele>
        <time>2009-07-14T17:15:11Z</time>
      </trkpt>
      <trkpt lat="45.08675" lon="5.10288">
        <ele>201.30400085449</ele>
        <time>2009-07-14T17:15:19Z</time>
      </trkpt>
      <trkpt lat="45.08641" lon="5.10138">
        <ele>201.99699401856</ele>
        <time>2009-07-14T17:15:34Z</time>
      </trkpt>
      <trkpt lat="45.08599" lon="5.09965">
        <ele>199.76499938965</ele>
        <time>2009-07-14T17:15:50Z</time>
      </trkpt>
      <trkpt lat="45.08543" lon="5.09765">
        <ele>199.27799987793</ele>
        <time>2009-07-14T17:16:09Z</time>
      </trkpt>
      <trkpt lat="45.08483" lon="5.09609">
        <ele>196.99000549316</ele>
        <time>2009-07-14T17:16:25Z</time>
      </trkpt>
      <trkpt lat="45.08467" lon="5.09559">
        <ele>196.74899291992</ele>
        <time>2009-07-14T17:16:30Z</time>
      </trkpt>
      <trkpt lat="45.08471" lon="5.09417">
        <ele>196.55200195312</ele>
        <time>2009-07-14T17:16:43Z</time>
      </trkpt>
      <trkpt lat="45.0848" lon="5.09351">
        <ele>196.99099731445</ele>
        <time>2009-07-14T17:16:49Z</time>
      </trkpt>
      <trkpt lat="45.08493" lon="5.0931">
        <ele>196.94900512695</ele>
        <time>2009-07-14T17:16:53Z</time>
      </trkpt>
      <trkpt lat="45.08564" lon="5.0919">
        <ele>198.12199401856</ele>
        <time>2009-07-14T17:17:07Z</time>
      </trkpt>
      <trkpt lat="45.08607" lon="5.09029">
        <ele>200.02900695801</ele>
        <time>2009-07-14T17:17:22Z</time>
      </trkpt>
      <trkpt lat="45.08666" lon="5.0891">
        <ele>201.55400085449</ele>
        <time>2009-07-14T17:17:35Z</time>
      </trkpt>
      <trkpt lat="45.08709" lon="5.08771">
        <ele>203.16999816894</ele>
        <time>2009-07-14T17:17:49Z</time>
      </trkpt>
      <trkpt lat="45.08747" lon="5.08615">
        <ele>205.41600036621</ele>
        <time>2009-07-14T17:18:07Z</time>
      </trkpt>
      <trkpt lat="45.08756" lon="5.08552">
        <ele>206.46699523926</ele>
        <time>2009-07-14T17:18:15Z</time>
      </trkpt>
      <trkpt lat="45.08755" lon="5.08534">
        <ele>207.05799865723</ele>
        <time>2009-07-14T17:18:17Z</time>
      </trkpt>
      <trkpt lat="45.08763" lon="5.08442">
        <ele>209.63499450684</ele>
        <time>2009-07-14T17:18:28Z</time>
      </trkpt>
      <trkpt lat="45.0878" lon="5.08311">
        <ele>214.18699645996</ele>
        <time>2009-07-14T17:18:47Z</time>
      </trkpt>
      <trkpt lat="45.08796" lon="5.08198">
        <ele>218.31199645996</ele>
        <time>2009-07-14T17:19:05Z</time>
      </trkpt>
      <trkpt lat="45.08818" lon="5.08083">
        <ele>221.79600524902</ele>
        <time>2009-07-14T17:19:23Z</time>
      </trkpt>
      <trkpt lat="45.08849" lon="5.07926">
        <ele>225.95599365234</ele>
        <time>2009-07-14T17:19:46Z</time>
      </trkpt>
      <trkpt lat="45.08851" lon="5.07919">
        <ele>226.3630065918</ele>
        <time>2009-07-14T17:19:47Z</time>
      </trkpt>
      <trkpt lat="45.08864" lon="5.07889">
        <ele>227.55099487305</ele>
        <time>2009-07-14T17:19:52Z</time>
      </trkpt>
      <trkpt lat="45.08876" lon="5.07868">
        <ele>228.19299316406</ele>
        <time>2009-07-14T17:19:56Z</time>
      </trkpt>
      <trkpt lat="45.08892" lon="5.0785">
        <ele>229.04100036621</ele>
        <time>2009-07-14T17:20:00Z</time>
      </trkpt>
      <trkpt lat="45.08961" lon="5.07805">
        <ele>231.10499572754</ele>
        <time>2009-07-14T17:20:14Z</time>
      </trkpt>
      <trkpt lat="45.09006" lon="5.07778">
        <ele>232.375</ele>
        <time>2009-07-14T17:20:22Z</time>
      </trkpt>
      <trkpt lat="45.09086" lon="5.07706">
        <ele>232.43299865723</ele>
        <time>2009-07-14T17:20:37Z</time>
      </trkpt>
      <trkpt lat="45.09161" lon="5.07601">
        <ele>228.84399414062</ele>
        <time>2009-07-14T17:20:50Z</time>
      </trkpt>
      <trkpt lat="45.09221" lon="5.07472">
        <ele>226.18299865723</ele>
        <time>2009-07-14T17:21:02Z</time>
      </trkpt>
      <trkpt lat="45.09267" lon="5.07371">
        <ele>225.11500549316</ele>
        <time>2009-07-14T17:21:11Z</time>
      </trkpt>
      <trkpt lat="45.09341" lon="5.07224">
        <ele>225.48899841309</ele>
        <time>2009-07-14T17:21:27Z</time>
      </trkpt>
      <trkpt lat="45.09388" lon="5.07176">
        <ele>226.00999450684</ele>
        <time>2009-07-14T17:21:36Z</time>
      </trkpt>
      <trkpt lat="45.09396" lon="5.07135">
        <ele>225.04899597168</ele>
        <time>2009-07-14T17:21:40Z</time>
      </trkpt>
      <trkpt lat="45.09382" lon="5.06933">
        <ele>221.21600341797</ele>
        <time>2009-07-14T17:21:56Z</time>
      </trkpt>
      <trkpt lat="45.09371" lon="5.06735">
        <ele>218.95700073242</ele>
        <time>2009-07-14T17:22:11Z</time>
      </trkpt>
      <trkpt lat="45.09385" lon="5.06532">
        <ele>216.93400573731</ele>
        <time>2009-07-14T17:22:27Z</time>
      </trkpt>
      <trkpt lat="45.09374" lon="5.06299">
        <ele>215.16400146484</ele>
        <time>2009-07-14T17:22:46Z</time>
      </trkpt>
      <trkpt lat="45.0937" lon="5.06065">
        <ele>212.81300354004</ele>
        <time>2009-07-14T17:23:05Z</time>
      </trkpt>
      <trkpt lat="45.09386" lon="5.05888">
        <ele>211.47099304199</ele>
        <time>2009-07-14T17:23:20Z</time>
      </trkpt>
      <trkpt lat="45.09426" lon="5.05727">
        <ele>212.68899536133</ele>
        <time>2009-07-14T17:23:35Z</time>
      </trkpt>
      <trkpt lat="45.0944" lon="5.05573">
        <ele>214.55499267578</ele>
        <time>2009-07-14T17:23:50Z</time>
      </trkpt>
      <trkpt lat="45.09428" lon="5.05431">
        <ele>213.49800109863</ele>
        <time>2009-07-14T17:24:03Z</time>
      </trkpt>
      <trkpt lat="45.09391" lon="5.05314">
        <ele>212.71000671387</ele>
        <time>2009-07-14T17:24:14Z</time>
      </trkpt>
      <trkpt lat="45.09335" lon="5.05217">
        <ele>213.11700439453</ele>
        <time>2009-07-14T17:24:25Z</time>
      </trkpt>
      <trkpt lat="45.09257" lon="5.05065">
        <ele>211.48500061035</ele>
        <time>2009-07-14T17:24:42Z</time>
      </trkpt>
      <trkpt lat="45.09253" lon="5.05055">
        <ele>211.41299438477</ele>
        <time>2009-07-14T17:24:43Z</time>
      </trkpt>
      <trkpt lat="45.09244" lon="5.05023">
        <ele>210.33700561523</ele>
        <time>2009-07-14T17:24:46Z</time>
      </trkpt>
      <trkpt lat="45.09246" lon="5.04975">
        <ele>209.25399780273</ele>
        <time>2009-07-14T17:24:50Z</time>
      </trkpt>
      <trkpt lat="45.09264" lon="5.04948">
        <ele>208.80499267578</ele>
        <time>2009-07-14T17:24:53Z</time>
      </trkpt>
      <trkpt lat="45.09305" lon="5.04884">
        <ele>207.76499938965</ele>
        <time>2009-07-14T17:25:00Z</time>
      </trkpt>
      <trkpt lat="45.09311" lon="5.04831">
        <ele>207.24499511719</ele>
        <time>2009-07-14T17:25:05Z</time>
      </trkpt>
      <trkpt lat="45.09312" lon="5.0481">
        <ele>207.47999572754</ele>
        <time>2009-07-14T17:25:08Z</time>
      </trkpt>
      <trkpt lat="45.09322" lon="5.04801">
        <ele>207.69400024414</ele>
        <time>2009-07-14T17:25:13Z</time>
      </trkpt>
      <trkpt lat="45.0933" lon="5.04791">
        <ele>207.67100524902</ele>
        <time>2009-07-14T17:25:18Z</time>
      </trkpt>
      <trkpt lat="45.09337" lon="5.04776">
        <ele>207.72200012207</ele>
        <time>2009-07-14T17:25:23Z</time>
      </trkpt>
      <trkpt lat="45.09343" lon="5.04772">
        <ele>208.75999450684</ele>
        <time>2009-07-14T17:25:29Z</time>
      </trkpt>
      <trkpt lat="45.09346" lon="5.04773">
        <ele>207.97500610352</ele>
        <time>2009-07-14T17:25:48Z</time>
      </trkpt>
      <trkpt lat="45.09348" lon="5.04771">
        <ele>208.00500488281</ele>
        <time>2009-07-14T17:25:54Z</time>
      </trkpt>
      <trkpt lat="45.09358" lon="5.04758">
        <ele>207.61500549316</ele>
        <time>2009-07-14T17:26:19Z</time>
      </trkpt>
      <trkpt lat="45.0934" lon="5.0478">
        <ele>207.70300292969</ele>
        <time>2009-07-14T17:26:53Z</time>
      </trkpt>
      <trkpt lat="45.09338" lon="5.04772">
        <ele>207.66900634766</ele>
        <time>2009-07-14T17:26:57Z</time>
      </trkpt>
      <trkpt lat="45.09339" lon="5.04764">
        <ele>207.72999572754</ele>
        <time>2009-07-14T17:27:00Z</time>
      </trkpt>
      <trkpt lat="45.09342" lon="5.04729">
        <ele>208.03100585938</ele>
        <time>2009-07-14T17:27:11Z</time>
      </trkpt>
      <trkpt lat="45.09374" lon="5.047">
        <ele>208.86199951172</ele>
        <time>2009-07-14T17:27:21Z</time>
      </trkpt>
      <trkpt lat="45.09401" lon="5.04684">
        <ele>209.9049987793</ele>
        <time>2009-07-14T17:27:27Z</time>
      </trkpt>
      <trkpt lat="45.09428" lon="5.04675">
        <ele>210.43400573731</ele>
        <time>2009-07-14T17:27:32Z</time>
      </trkpt>
      <trkpt lat="45.09473" lon="5.04655">
        <ele>210.96699523926</ele>
        <time>2009-07-14T17:27:41Z</time>
      </trkpt>
      <trkpt lat="45.09537" lon="5.04626">
        <ele>212.60499572754</ele>
        <time>2009-07-14T17:27:55Z</time>
      </trkpt>
      <trkpt lat="45.09555" lon="5.04614">
        <ele>212.40400695801</ele>
        <time>2009-07-14T17:27:59Z</time>
      </trkpt>
      <trkpt lat="45.09568" lon="5.04603">
        <ele>213.1190032959</ele>
        <time>2009-07-14T17:28:02Z</time>
      </trkpt>
      <trkpt lat="45.09576" lon="5.04593">
        <ele>213.38200378418</ele>
        <time>2009-07-14T17:28:04Z</time>
      </trkpt>
      <trkpt lat="45.09591" lon="5.0457">
        <ele>213.7440032959</ele>
        <time>2009-07-14T17:28:08Z</time>
      </trkpt>
      <trkpt lat="45.09602" lon="5.04545">
        <ele>214.22300720215</ele>
        <time>2009-07-14T17:28:12Z</time>
      </trkpt>
      <trkpt lat="45.09621" lon="5.04523">
        <ele>215.66900634766</ele>
        <time>2009-07-14T17:28:17Z</time>
      </trkpt>
      <trkpt lat="45.09627" lon="5.04474">
        <ele>216.43600463867</ele>
        <time>2009-07-14T17:28:24Z</time>
      </trkpt>
      <trkpt lat="45.09628" lon="5.04467">
        <ele>216.75700378418</ele>
        <time>2009-07-14T17:28:25Z</time>
      </trkpt>
      <trkpt lat="45.09632" lon="5.04453">
        <ele>217.10400390625</ele>
        <time>2009-07-14T17:28:27Z</time>
      </trkpt>
      <trkpt lat="45.09676" lon="5.04342">
        <ele>217.80700683594</ele>
        <time>2009-07-14T17:28:43Z</time>
      </trkpt>
      <trkpt lat="45.09755" lon="5.04257">
        <ele>216.07899475098</ele>
        <time>2009-07-14T17:28:56Z</time>
      </trkpt>
      <trkpt lat="45.09841" lon="5.04168">
        <ele>215.33099365234</ele>
        <time>2009-07-14T17:29:09Z</time>
      </trkpt>
      <trkpt lat="45.09854" lon="5.04155">
        <ele>215.73100280762</ele>
        <time>2009-07-14T17:29:11Z</time>
      </trkpt>
      <trkpt lat="45.09872" lon="5.04119">
        <ele>214.90299987793</ele>
        <time>2009-07-14T17:29:15Z</time>
      </trkpt>
      <trkpt lat="45.09893" lon="5.04016">
        <ele>214.74800109863</ele>
        <time>2009-07-14T17:29:25Z</time>
      </trkpt>
      <trkpt lat="45.09883" lon="5.03956">
        <ele>215.51300048828</ele>
        <time>2009-07-14T17:29:31Z</time>
      </trkpt>
      <trkpt lat="45.09819" lon="5.03786">
        <ele>215.77600097656</ele>
        <time>2009-07-14T17:29:49Z</time>
      </trkpt>
      <trkpt lat="45.09794" lon="5.03645">
        <ele>219.03500366211</ele>
        <time>2009-07-14T17:30:04Z</time>
      </trkpt>
      <trkpt lat="45.09792" lon="5.03618">
        <ele>219.40400695801</ele>
        <time>2009-07-14T17:30:07Z</time>
      </trkpt>
      <trkpt lat="45.09799" lon="5.03581">
        <ele>219.06399536133</ele>
        <time>2009-07-14T17:30:11Z</time>
      </trkpt>
      <trkpt lat="45.09816" lon="5.03546">
        <ele>217.87199401856</ele>
        <time>2009-07-14T17:30:15Z</time>
      </trkpt>
      <trkpt lat="45.09883" lon="5.03447">
        <ele>216.75399780273</ele>
        <time>2009-07-14T17:30:27Z</time>
      </trkpt>
      <trkpt lat="45.09924" lon="5.03335">
        <ele>218.89300537109</ele>
        <time>2009-07-14T17:30:39Z</time>
      </trkpt>
      <trkpt lat="45.09958" lon="5.03218">
        <ele>223.04100036621</ele>
        <time>2009-07-14T17:30:55Z</time>
      </trkpt>
      <trkpt lat="45.09975" lon="5.03158">
        <ele>224.70899963379</ele>
        <time>2009-07-14T17:31:03Z</time>
      </trkpt>
      <trkpt lat="45.10011" lon="5.03032">
        <ele>227.35600280762</ele>
        <time>2009-07-14T17:31:19Z</time>
      </trkpt>
      <trkpt lat="45.10043" lon="5.0292">
        <ele>231.92399597168</ele>
        <time>2009-07-14T17:31:35Z</time>
      </trkpt>
      <trkpt lat="45.10062" lon="5.02848">
        <ele>235.54699707031</ele>
        <time>2009-07-14T17:31:48Z</time>
      </trkpt>
      <trkpt lat="45.10077" lon="5.0278">
        <ele>238.56900024414</ele>
        <time>2009-07-14T17:32:01Z</time>
      </trkpt>
      <trkpt lat="45.10056" lon="5.02722">
        <ele>241.19999694824</ele>
        <time>2009-07-14T17:32:13Z</time>
      </trkpt>
      <trkpt lat="45.10019" lon="5.02677">
        <ele>244.26499938965</ele>
        <time>2009-07-14T17:32:25Z</time>
      </trkpt>
      <trkpt lat="45.09996" lon="5.02634">
        <ele>247.08000183106</ele>
        <time>2009-07-14T17:32:35Z</time>
      </trkpt>
      <trkpt lat="45.09972" lon="5.02573">
        <ele>249.04800415039</ele>
        <time>2009-07-14T17:32:45Z</time>
      </trkpt>
      <trkpt lat="45.09924" lon="5.02509">
        <ele>252.09199523926</ele>
        <time>2009-07-14T17:32:54Z</time>
      </trkpt>
      <trkpt lat="45.09911" lon="5.02487">
        <ele>254.30299377441</ele>
        <time>2009-07-14T17:32:57Z</time>
      </trkpt>
      <trkpt lat="45.09898" lon="5.02457">
        <ele>255.59599304199</ele>
        <time>2009-07-14T17:33:01Z</time>
      </trkpt>
      <trkpt lat="45.09885" lon="5.0244">
        <ele>257.08599853516</ele>
        <time>2009-07-14T17:33:04Z</time>
      </trkpt>
      <trkpt lat="45.09878" lon="5.02405">
        <ele>258.18399047852</ele>
        <time>2009-07-14T17:33:09Z</time>
      </trkpt>
      <trkpt lat="45.09872" lon="5.02372">
        <ele>258.29098510742</ele>
        <time>2009-07-14T17:33:14Z</time>
      </trkpt>
      <trkpt lat="45.09851" lon="5.02285">
        <ele>254.98899841309</ele>
        <time>2009-07-14T17:33:24Z</time>
      </trkpt>
      <trkpt lat="45.09857" lon="5.02208">
        <ele>250.90699768066</ele>
        <time>2009-07-14T17:33:30Z</time>
      </trkpt>
      <trkpt lat="45.09901" lon="5.02082">
        <ele>245.63000488281</ele>
        <time>2009-07-14T17:33:39Z</time>
      </trkpt>
      <trkpt lat="45.09923" lon="5.02022">
        <ele>243.04800415039</ele>
        <time>2009-07-14T17:33:43Z</time>
      </trkpt>
      <trkpt lat="45.09951" lon="5.01947">
        <ele>240.53100585938</ele>
        <time>2009-07-14T17:33:48Z</time>
      </trkpt>
      <trkpt lat="45.09956" lon="5.01931">
        <ele>239.60099792481</ele>
        <time>2009-07-14T17:33:49Z</time>
      </trkpt>
      <trkpt lat="45.09961" lon="5.01916">
        <ele>239.55700683594</ele>
        <time>2009-07-14T17:33:50Z</time>
      </trkpt>
      <trkpt lat="45.10009" lon="5.01781">
        <ele>236.69999694824</ele>
        <time>2009-07-14T17:33:59Z</time>
      </trkpt>
      <trkpt lat="45.10025" lon="5.01736">
        <ele>235.35000610352</ele>
        <time>2009-07-14T17:34:02Z</time>
      </trkpt>
      <trkpt lat="45.10064" lon="5.01568">
        <ele>235.06100463867</ele>
        <time>2009-07-14T17:34:14Z</time>
      </trkpt>
      <trkpt lat="45.10081" lon="5.01355">
        <ele>237.20100402832</ele>
        <time>2009-07-14T17:34:31Z</time>
      </trkpt>
      <trkpt lat="45.1011" lon="5.01148">
        <ele>236.7380065918</ele>
        <time>2009-07-14T17:34:48Z</time>
      </trkpt>
      <trkpt lat="45.10167" lon="5.01045">
        <ele>235.69200134277</ele>
        <time>2009-07-14T17:34:58Z</time>
      </trkpt>
      <trkpt lat="45.1022" lon="5.00968">
        <ele>233.80799865723</ele>
        <time>2009-07-14T17:35:06Z</time>
      </trkpt>
      <trkpt lat="45.10251" lon="5.00936">
        <ele>233.56799316406</ele>
        <time>2009-07-14T17:35:10Z</time>
      </trkpt>
      <trkpt lat="45.10319" lon="5.00879">
        <ele>232.33000183106</ele>
        <time>2009-07-14T17:35:18Z</time>
      </trkpt>
      <trkpt lat="45.1038" lon="5.00831">
        <ele>231.00900268555</ele>
        <time>2009-07-14T17:35:25Z</time>
      </trkpt>
      <trkpt lat="45.10515" lon="5.00725">
        <ele>232.10499572754</ele>
        <time>2009-07-14T17:35:41Z</time>
      </trkpt>
      <trkpt lat="45.10537" lon="5.00707">
        <ele>233.03700256348</ele>
        <time>2009-07-14T17:35:44Z</time>
      </trkpt>
      <trkpt lat="45.10569" lon="5.0068">
        <ele>234.61099243164</ele>
        <time>2009-07-14T17:35:49Z</time>
      </trkpt>
      <trkpt lat="45.10604" lon="5.00651">
        <ele>236.25100708008</ele>
        <time>2009-07-14T17:35:55Z</time>
      </trkpt>
      <trkpt lat="45.10636" lon="5.00629">
        <ele>237.7440032959</ele>
        <time>2009-07-14T17:36:00Z</time>
      </trkpt>
      <trkpt lat="45.10655" lon="5.00618">
        <ele>238.41400146484</ele>
        <time>2009-07-14T17:36:03Z</time>
      </trkpt>
      <trkpt lat="45.10675" lon="5.00609">
        <ele>239.82899475098</ele>
        <time>2009-07-14T17:36:06Z</time>
      </trkpt>
      <trkpt lat="45.10701" lon="5.00599">
        <ele>241.12699890137</ele>
        <time>2009-07-14T17:36:10Z</time>
      </trkpt>
      <trkpt lat="45.10725" lon="5.00592">
        <ele>242.59300231934</ele>
        <time>2009-07-14T17:36:14Z</time>
      </trkpt>
      <trkpt lat="45.10772" lon="5.00585">
        <ele>246.41900634766</ele>
        <time>2009-07-14T17:36:23Z</time>
      </trkpt>
      <trkpt lat="45.10826" lon="5.0058">
        <ele>249.94200134277</ele>
        <time>2009-07-14T17:36:36Z</time>
      </trkpt>
      <trkpt lat="45.10867" lon="5.00572">
        <ele>252.42399597168</ele>
        <time>2009-07-14T17:36:49Z</time>
      </trkpt>
      <trkpt lat="45.10931" lon="5.00548">
        <ele>254.46699523926</ele>
        <time>2009-07-14T17:37:07Z</time>
      </trkpt>
      <trkpt lat="45.10997" lon="5.005">
        <ele>252.5059967041</ele>
        <time>2009-07-14T17:37:20Z</time>
      </trkpt>
      <trkpt lat="45.11035" lon="5.00472">
        <ele>249.93200683594</ele>
        <time>2009-07-14T17:37:25Z</time>
      </trkpt>
      <trkpt lat="45.11081" lon="5.00441">
        <ele>247.06399536133</ele>
        <time>2009-07-14T17:37:30Z</time>
      </trkpt>
      <trkpt lat="45.1118" lon="5.00388">
        <ele>241.5359954834</ele>
        <time>2009-07-14T17:37:39Z</time>
      </trkpt>
      <trkpt lat="45.11289" lon="5.00326">
        <ele>236.53900146484</ele>
        <time>2009-07-14T17:37:48Z</time>
      </trkpt>
      <trkpt lat="45.11427" lon="5.00211">
        <ele>234.51499938965</ele>
        <time>2009-07-14T17:38:01Z</time>
      </trkpt>
      <trkpt lat="45.11572" lon="5.0007">
        <ele>234.71099853516</ele>
        <time>2009-07-14T17:38:18Z</time>
      </trkpt>
      <trkpt lat="45.1167" lon="4.99946">
        <ele>230.07600402832</ele>
        <time>2009-07-14T17:38:31Z</time>
      </trkpt>
      <trkpt lat="45.117" lon="4.99923">
        <ele>227.8630065918</ele>
        <time>2009-07-14T17:38:34Z</time>
      </trkpt>
      <trkpt lat="45.11796" lon="4.9988">
        <ele>219.73300170898</ele>
        <time>2009-07-14T17:38:42Z</time>
      </trkpt>
      <trkpt lat="45.11833" lon="4.99863">
        <ele>217.14100646973</ele>
        <time>2009-07-14T17:38:45Z</time>
      </trkpt>
      <trkpt lat="45.11858" lon="4.9985">
        <ele>215.45599365234</ele>
        <time>2009-07-14T17:38:47Z</time>
      </trkpt>
      <trkpt lat="45.11918" lon="4.99802">
        <ele>212.01800537109</ele>
        <time>2009-07-14T17:38:52Z</time>
      </trkpt>
      <trkpt lat="45.11993" lon="4.99684">
        <ele>211.80999755859</ele>
        <time>2009-07-14T17:39:01Z</time>
      </trkpt>
      <trkpt lat="45.12048" lon="4.99586">
        <ele>212.97700500488</ele>
        <time>2009-07-14T17:39:09Z</time>
      </trkpt>
      <trkpt lat="45.12061" lon="4.99563">
        <ele>212.87600708008</ele>
        <time>2009-07-14T17:39:11Z</time>
      </trkpt>
      <trkpt lat="45.12112" lon="4.99469">
        <ele>211.02600097656</ele>
        <time>2009-07-14T17:39:19Z</time>
      </trkpt>
      <trkpt lat="45.12158" lon="4.9934">
        <ele>210.96899414062</ele>
        <time>2009-07-14T17:39:30Z</time>
      </trkpt>
      <trkpt lat="45.12196" lon="4.99197">
        <ele>211.31300354004</ele>
        <time>2009-07-14T17:39:44Z</time>
      </trkpt>
      <trkpt lat="45.12222" lon="4.99101">
        <ele>212.59599304199</ele>
        <time>2009-07-14T17:39:55Z</time>
      </trkpt>
      <trkpt lat="45.12239" lon="4.99071">
        <ele>214.40199279785</ele>
        <time>2009-07-14T17:40:00Z</time>
      </trkpt>
      <trkpt lat="45.12243" lon="4.99059">
        <ele>215.14199829102</ele>
        <time>2009-07-14T17:40:02Z</time>
      </trkpt>
      <trkpt lat="45.12229" lon="4.9904">
        <ele>213.87699890137</ele>
        <time>2009-07-14T17:40:07Z</time>
      </trkpt>
      <trkpt lat="45.12204" lon="4.9903">
        <ele>212.29800415039</ele>
        <time>2009-07-14T17:40:11Z</time>
      </trkpt>
      <trkpt lat="45.12198" lon="4.99025">
        <ele>211.60499572754</ele>
        <time>2009-07-14T17:40:12Z</time>
      </trkpt>
      <trkpt lat="45.12118" lon="4.98921">
        <ele>207.41600036621</ele>
        <time>2009-07-14T17:40:25Z</time>
      </trkpt>
      <trkpt lat="45.12076" lon="4.98836">
        <ele>206.77299499512</ele>
        <time>2009-07-14T17:40:34Z</time>
      </trkpt>
      <trkpt lat="45.12043" lon="4.98734">
        <ele>205.94299316406</ele>
        <time>2009-07-14T17:40:45Z</time>
      </trkpt>
      <trkpt lat="45.12024" lon="4.98596">
        <ele>205.65100097656</ele>
        <time>2009-07-14T17:41:00Z</time>
      </trkpt>
      <trkpt lat="45.12034" lon="4.98457">
        <ele>206.14700317383</ele>
        <time>2009-07-14T17:41:15Z</time>
      </trkpt>
      <trkpt lat="45.12057" lon="4.98389">
        <ele>206.45100402832</ele>
        <time>2009-07-14T17:41:23Z</time>
      </trkpt>
      <trkpt lat="45.12058" lon="4.98358">
        <ele>205.86700439453</ele>
        <time>2009-07-14T17:41:26Z</time>
      </trkpt>
      <trkpt lat="45.12076" lon="4.98192">
        <ele>204.32299804688</ele>
        <time>2009-07-14T17:41:41Z</time>
      </trkpt>
      <trkpt lat="45.12048" lon="4.98033">
        <ele>202.49800109863</ele>
        <time>2009-07-14T17:41:55Z</time>
      </trkpt>
      <trkpt lat="45.11996" lon="4.97804">
        <ele>201.15600585938</ele>
        <time>2009-07-14T17:42:15Z</time>
      </trkpt>
      <trkpt lat="45.11972" lon="4.97663">
        <ele>200.55400085449</ele>
        <time>2009-07-14T17:42:27Z</time>
      </trkpt>
      <trkpt lat="45.11966" lon="4.9763">
        <ele>200.45599365234</ele>
        <time>2009-07-14T17:42:30Z</time>
      </trkpt>
      <trkpt lat="45.11947" lon="4.97518">
        <ele>199.47399902344</ele>
        <time>2009-07-14T17:42:40Z</time>
      </trkpt>
      <trkpt lat="45.11935" lon="4.97447">
        <ele>198.5119934082</ele>
        <time>2009-07-14T17:42:46Z</time>
      </trkpt>
      <trkpt lat="45.11897" lon="4.97224">
        <ele>197.90600585938</ele>
        <time>2009-07-14T17:43:06Z</time>
      </trkpt>
      <trkpt lat="45.11885" lon="4.97156">
        <ele>197.99000549316</ele>
        <time>2009-07-14T17:43:13Z</time>
      </trkpt>
      <trkpt lat="45.11885" lon="4.9712">
        <ele>199.6130065918</ele>
        <time>2009-07-14T17:43:17Z</time>
      </trkpt>
      <trkpt lat="45.11895" lon="4.97095">
        <ele>200.18299865723</ele>
        <time>2009-07-14T17:43:21Z</time>
      </trkpt>
      <trkpt lat="45.11902" lon="4.97085">
        <ele>200.49600219727</ele>
        <time>2009-07-14T17:43:23Z</time>
      </trkpt>
      <trkpt lat="45.11898" lon="4.97056">
        <ele>200.64799499512</ele>
        <time>2009-07-14T17:43:28Z</time>
      </trkpt>
      <trkpt lat="45.11833" lon="4.96979">
        <ele>200.35699462891</ele>
        <time>2009-07-14T17:43:42Z</time>
      </trkpt>
      <trkpt lat="45.11774" lon="4.96888">
        <ele>199.27699279785</ele>
        <time>2009-07-14T17:43:56Z</time>
      </trkpt>
      <trkpt lat="45.11767" lon="4.96858">
        <ele>199.35600280762</ele>
        <time>2009-07-14T17:44:00Z</time>
      </trkpt>
      <trkpt lat="45.11742" lon="4.96817">
        <ele>199.30700683594</ele>
        <time>2009-07-14T17:44:08Z</time>
      </trkpt>
      <trkpt lat="45.11726" lon="4.96805">
        <ele>199.2859954834</ele>
        <time>2009-07-14T17:44:11Z</time>
      </trkpt>
      <trkpt lat="45.1168" lon="4.96735">
        <ele>198.17500305176</ele>
        <time>2009-07-14T17:44:21Z</time>
      </trkpt>
      <trkpt lat="45.11617" lon="4.96583">
        <ele>197.89900207519</ele>
        <time>2009-07-14T17:44:39Z</time>
      </trkpt>
      <trkpt lat="45.11582" lon="4.96489">
        <ele>198.3390045166</ele>
        <time>2009-07-14T17:44:54Z</time>
      </trkpt>
      <trkpt lat="45.11585" lon="4.96452">
        <ele>199.54400634766</ele>
        <time>2009-07-14T17:45:02Z</time>
      </trkpt>
      <trkpt lat="45.11582" lon="4.96446">
        <ele>199.86599731445</ele>
        <time>2009-07-14T17:45:05Z</time>
      </trkpt>
      <trkpt lat="45.1158" lon="4.96445">
        <ele>199.5890045166</ele>
        <time>2009-07-14T17:45:09Z</time>
      </trkpt>
      <trkpt lat="45.11562" lon="4.9643">
        <ele>199.22799682617</ele>
        <time>2009-07-14T17:45:43Z</time>
      </trkpt>
      <trkpt lat="45.11564" lon="4.96425">
        <ele>200.00900268555</ele>
        <time>2009-07-14T17:45:45Z</time>
      </trkpt>
      <trkpt lat="45.11568" lon="4.96425">
        <ele>200.30700683594</ele>
        <time>2009-07-14T17:45:50Z</time>
      </trkpt>
      <trkpt lat="45.1157" lon="4.96428">
        <ele>200.22599792481</ele>
        <time>2009-07-14T17:46:03Z</time>
      </trkpt>
    </trkseg>
  </trk>
</gpx>